<?xml version="1.0" encoding="utf-8"?>
<gpx xmlns:xsi="http://www.w3.org/2001/XMLSchema-instance" xmlns:xsd="http://www.w3.org/2001/XMLSchema" version="1.1" creator="Shapelink.com" xmlns="http://www.topografix.com/GPX/1/1" xmlns:gpxtpx="http://www.garmin.com/xmlschemas/TrackPointExtension/v1">
  <metadata>
    <name>Radfahren 94.30 km, 2018-08-11</name>
    <desc></desc>
    <author><name>Patrik Andersson</name></author> 
    <time>2018-08-11T11:25:30Z</time>
  </metadata>
  <trk>
    <name>Radfahren 94.30 km, 2018-08-11</name>
    <trkseg>
      <trkpt lat="61.109820764684" lon="13.29636471153">
        <ele>350.2</ele>
        <time>2018-08-11T11:25:30Z</time>
      </trkpt>
      <trkpt lat="61.109966358287" lon="13.29611493091">
        <ele>350.8</ele>
        <time>2018-08-11T11:25:42Z</time>
      </trkpt>
      <trkpt lat="61.110121674894" lon="13.296059861827">
        <ele>351.2</ele>
        <time>2018-08-11T11:25:53Z</time>
      </trkpt>
      <trkpt lat="61.110130056794" lon="13.296427827237">
        <ele>351.4</ele>
        <time>2018-08-11T11:26:01Z</time>
      </trkpt>
      <trkpt lat="61.109960323319" lon="13.296680457703">
        <ele>351.2</ele>
        <time>2018-08-11T11:26:07Z</time>
      </trkpt>
      <trkpt lat="61.109801234857" lon="13.296897213637">
        <ele>351</ele>
        <time>2018-08-11T11:26:12Z</time>
      </trkpt>
      <trkpt lat="61.109649354829" lon="13.29713249357">
        <ele>351</ele>
        <time>2018-08-11T11:26:17Z</time>
      </trkpt>
      <trkpt lat="61.109498732086" lon="13.297407000795">
        <ele>350.4</ele>
        <time>2018-08-11T11:26:23Z</time>
      </trkpt>
      <trkpt lat="61.109357832347" lon="13.297676897975">
        <ele>350.8</ele>
        <time>2018-08-11T11:26:29Z</time>
      </trkpt>
      <trkpt lat="61.109205700862" lon="13.297891726072">
        <ele>351.2</ele>
        <time>2018-08-11T11:26:35Z</time>
      </trkpt>
      <trkpt lat="61.109051557721" lon="13.298124575254">
        <ele>350.6</ele>
        <time>2018-08-11T11:26:41Z</time>
      </trkpt>
      <trkpt lat="61.108902108444" lon="13.29835541278">
        <ele>351.2</ele>
        <time>2018-08-11T11:26:48Z</time>
      </trkpt>
      <trkpt lat="61.108756179565" lon="13.298652718773">
        <ele>352.6</ele>
        <time>2018-08-11T11:26:55Z</time>
      </trkpt>
      <trkpt lat="61.108622823536" lon="13.298941642866">
        <ele>354.2</ele>
        <time>2018-08-11T11:27:01Z</time>
      </trkpt>
      <trkpt lat="61.108502207995" lon="13.29923048314">
        <ele>356.6</ele>
        <time>2018-08-11T11:27:07Z</time>
      </trkpt>
      <trkpt lat="61.108365583025" lon="13.299548073331">
        <ele>358.8</ele>
        <time>2018-08-11T11:27:14Z</time>
      </trkpt>
      <trkpt lat="61.108220659974" lon="13.299846720428">
        <ele>359.6</ele>
        <time>2018-08-11T11:27:21Z</time>
      </trkpt>
      <trkpt lat="61.10808185571" lon="13.300135812159">
        <ele>362</ele>
        <time>2018-08-11T11:27:28Z</time>
      </trkpt>
      <trkpt lat="61.108028127731" lon="13.300508136157">
        <ele>364.2</ele>
        <time>2018-08-11T11:27:35Z</time>
      </trkpt>
      <trkpt lat="61.108126363599" lon="13.300842490148">
        <ele>364.8</ele>
        <time>2018-08-11T11:27:42Z</time>
      </trkpt>
      <trkpt lat="61.108236501765" lon="13.301173994293">
        <ele>364.2</ele>
        <time>2018-08-11T11:27:49Z</time>
      </trkpt>
      <trkpt lat="61.108305903897" lon="13.301565429023">
        <ele>367.4</ele>
        <time>2018-08-11T11:27:56Z</time>
      </trkpt>
      <trkpt lat="61.10828218312" lon="13.301942698342">
        <ele>369.8</ele>
        <time>2018-08-11T11:28:03Z</time>
      </trkpt>
      <trkpt lat="61.108192161514" lon="13.302315441435">
        <ele>371</ele>
        <time>2018-08-11T11:28:11Z</time>
      </trkpt>
      <trkpt lat="61.108079760235" lon="13.302656668584">
        <ele>370</ele>
        <time>2018-08-11T11:28:19Z</time>
      </trkpt>
      <trkpt lat="61.107971801363" lon="13.302980126105">
        <ele>368</ele>
        <time>2018-08-11T11:28:27Z</time>
      </trkpt>
      <trkpt lat="61.107850766727" lon="13.303307858395">
        <ele>364</ele>
        <time>2018-08-11T11:28:35Z</time>
      </trkpt>
      <trkpt lat="61.107731995204" lon="13.30365361177">
        <ele>361.6</ele>
        <time>2018-08-11T11:28:43Z</time>
      </trkpt>
      <trkpt lat="61.10763342406" lon="13.303965837545">
        <ele>361.2</ele>
        <time>2018-08-11T11:28:50Z</time>
      </trkpt>
      <trkpt lat="61.107544240644" lon="13.304316536241">
        <ele>364.4</ele>
        <time>2018-08-11T11:28:58Z</time>
      </trkpt>
      <trkpt lat="61.107446340052" lon="13.304679388692">
        <ele>368.2</ele>
        <time>2018-08-11T11:29:06Z</time>
      </trkpt>
      <trkpt lat="61.107348607098" lon="13.305017263081">
        <ele>371.8</ele>
        <time>2018-08-11T11:29:13Z</time>
      </trkpt>
      <trkpt lat="61.10722857829" lon="13.305316664549">
        <ele>375.6</ele>
        <time>2018-08-11T11:29:19Z</time>
      </trkpt>
      <trkpt lat="61.107105615817" lon="13.305600978597">
        <ele>379</ele>
        <time>2018-08-11T11:29:25Z</time>
      </trkpt>
      <trkpt lat="61.106976702195" lon="13.305866517189">
        <ele>382.8</ele>
        <time>2018-08-11T11:29:32Z</time>
      </trkpt>
      <trkpt lat="61.106852901532" lon="13.306146221192">
        <ele>385</ele>
        <time>2018-08-11T11:29:39Z</time>
      </trkpt>
      <trkpt lat="61.106728849412" lon="13.306417459476">
        <ele>384.8</ele>
        <time>2018-08-11T11:29:46Z</time>
      </trkpt>
      <trkpt lat="61.106585183646" lon="13.306708646682">
        <ele>385.8</ele>
        <time>2018-08-11T11:29:54Z</time>
      </trkpt>
      <trkpt lat="61.106445373554" lon="13.307009305435">
        <ele>387</ele>
        <time>2018-08-11T11:30:01Z</time>
      </trkpt>
      <trkpt lat="61.106322830176" lon="13.307312814034">
        <ele>387.2</ele>
        <time>2018-08-11T11:30:08Z</time>
      </trkpt>
      <trkpt lat="61.106204896843" lon="13.307648509129">
        <ele>388.8</ele>
        <time>2018-08-11T11:30:15Z</time>
      </trkpt>
      <trkpt lat="61.106098865808" lon="13.307956963049">
        <ele>389.6</ele>
        <time>2018-08-11T11:30:22Z</time>
      </trkpt>
      <trkpt lat="61.105979088457" lon="13.308314870179">
        <ele>390.2</ele>
        <time>2018-08-11T11:30:29Z</time>
      </trkpt>
      <trkpt lat="61.105869620843" lon="13.30862743123">
        <ele>391.4</ele>
        <time>2018-08-11T11:30:35Z</time>
      </trkpt>
      <trkpt lat="61.105740455764" lon="13.308957594271">
        <ele>393.4</ele>
        <time>2018-08-11T11:30:42Z</time>
      </trkpt>
      <trkpt lat="61.105599220749" lon="13.30927032296">
        <ele>395</ele>
        <time>2018-08-11T11:30:49Z</time>
      </trkpt>
      <trkpt lat="61.105464104521" lon="13.309532592611">
        <ele>397.6</ele>
        <time>2018-08-11T11:30:55Z</time>
      </trkpt>
      <trkpt lat="61.105328066284" lon="13.309845069843">
        <ele>400.4</ele>
        <time>2018-08-11T11:31:02Z</time>
      </trkpt>
      <trkpt lat="61.105203343612" lon="13.310122929828">
        <ele>402.8</ele>
        <time>2018-08-11T11:31:08Z</time>
      </trkpt>
      <trkpt lat="61.105059845484" lon="13.310412608292">
        <ele>403</ele>
        <time>2018-08-11T11:31:15Z</time>
      </trkpt>
      <trkpt lat="61.104912407863" lon="13.31068854044">
        <ele>403.4</ele>
        <time>2018-08-11T11:31:22Z</time>
      </trkpt>
      <trkpt lat="61.104751559202" lon="13.310947205874">
        <ele>404.2</ele>
        <time>2018-08-11T11:31:29Z</time>
      </trkpt>
      <trkpt lat="61.104585094668" lon="13.3112031891">
        <ele>404</ele>
        <time>2018-08-11T11:31:36Z</time>
      </trkpt>
      <trkpt lat="61.104420055057" lon="13.31144794058">
        <ele>405</ele>
        <time>2018-08-11T11:31:43Z</time>
      </trkpt>
      <trkpt lat="61.104271192513" lon="13.311676179717">
        <ele>404.8</ele>
        <time>2018-08-11T11:31:49Z</time>
      </trkpt>
      <trkpt lat="61.104129286946" lon="13.311908442166">
        <ele>404.6</ele>
        <time>2018-08-11T11:31:55Z</time>
      </trkpt>
      <trkpt lat="61.103974976167" lon="13.312172807292">
        <ele>405</ele>
        <time>2018-08-11T11:32:02Z</time>
      </trkpt>
      <trkpt lat="61.103834076428" lon="13.312474555692">
        <ele>405.6</ele>
        <time>2018-08-11T11:32:09Z</time>
      </trkpt>
      <trkpt lat="61.103721088416" lon="13.3128125139">
        <ele>406</ele>
        <time>2018-08-11T11:32:16Z</time>
      </trkpt>
      <trkpt lat="61.103650009904" lon="13.313183496794">
        <ele>407</ele>
        <time>2018-08-11T11:32:23Z</time>
      </trkpt>
      <trkpt lat="61.103618745417" lon="13.313587085279">
        <ele>408.4</ele>
        <time>2018-08-11T11:32:30Z</time>
      </trkpt>
      <trkpt lat="61.103607848947" lon="13.313984471158">
        <ele>409</ele>
        <time>2018-08-11T11:32:37Z</time>
      </trkpt>
      <trkpt lat="61.103599886142" lon="13.31436567997">
        <ele>409.8</ele>
        <time>2018-08-11T11:32:44Z</time>
      </trkpt>
      <trkpt lat="61.10359921559" lon="13.3147487328">
        <ele>411.6</ele>
        <time>2018-08-11T11:32:51Z</time>
      </trkpt>
      <trkpt lat="61.103588989672" lon="13.315128935784">
        <ele>413.2</ele>
        <time>2018-08-11T11:32:58Z</time>
      </trkpt>
      <trkpt lat="61.103581278324" lon="13.315525651111">
        <ele>414.4</ele>
        <time>2018-08-11T11:33:05Z</time>
      </trkpt>
      <trkpt lat="61.103573650795" lon="13.315897556014">
        <ele>415.2</ele>
        <time>2018-08-11T11:33:12Z</time>
      </trkpt>
      <trkpt lat="61.10356317342" lon="13.316290248029">
        <ele>416.4</ele>
        <time>2018-08-11T11:33:19Z</time>
      </trkpt>
      <trkpt lat="61.10355143876" lon="13.316688220641">
        <ele>417.6</ele>
        <time>2018-08-11T11:33:26Z</time>
      </trkpt>
      <trkpt lat="61.103576752098" lon="13.317106728908">
        <ele>419</ele>
        <time>2018-08-11T11:33:34Z</time>
      </trkpt>
      <trkpt lat="61.103640957452" lon="13.31748626134">
        <ele>420.2</ele>
        <time>2018-08-11T11:33:42Z</time>
      </trkpt>
      <trkpt lat="61.103755035111" lon="13.31781064087">
        <ele>421.6</ele>
        <time>2018-08-11T11:33:50Z</time>
      </trkpt>
      <trkpt lat="61.103928288984" lon="13.318025888062">
        <ele>423.4</ele>
        <time>2018-08-11T11:33:58Z</time>
      </trkpt>
      <trkpt lat="61.104103135418" lon="13.318134768943">
        <ele>425.2</ele>
        <time>2018-08-11T11:34:05Z</time>
      </trkpt>
      <trkpt lat="61.104302540819" lon="13.318135690952">
        <ele>426.8</ele>
        <time>2018-08-11T11:34:13Z</time>
      </trkpt>
      <trkpt lat="61.104479566547" lon="13.318050447029">
        <ele>428.4</ele>
        <time>2018-08-11T11:34:20Z</time>
      </trkpt>
      <trkpt lat="61.104663465433" lon="13.317941566148">
        <ele>429.8</ele>
        <time>2018-08-11T11:34:27Z</time>
      </trkpt>
      <trkpt lat="61.104856919685" lon="13.31784584485">
        <ele>430.6</ele>
        <time>2018-08-11T11:34:34Z</time>
      </trkpt>
      <trkpt lat="61.105038304001" lon="13.317861016089">
        <ele>431.8</ele>
        <time>2018-08-11T11:34:41Z</time>
      </trkpt>
      <trkpt lat="61.105217257566" lon="13.31799504267">
        <ele>432.8</ele>
        <time>2018-08-11T11:34:48Z</time>
      </trkpt>
      <trkpt lat="61.105375424019" lon="13.318180953212">
        <ele>433.4</ele>
        <time>2018-08-11T11:34:55Z</time>
      </trkpt>
      <trkpt lat="61.105533841929" lon="13.318373653093">
        <ele>432.6</ele>
        <time>2018-08-11T11:35:02Z</time>
      </trkpt>
      <trkpt lat="61.105678513523" lon="13.318599293841">
        <ele>432.6</ele>
        <time>2018-08-11T11:35:09Z</time>
      </trkpt>
      <trkpt lat="61.105810276991" lon="13.318874806894">
        <ele>433.4</ele>
        <time>2018-08-11T11:35:16Z</time>
      </trkpt>
      <trkpt lat="61.105892671068" lon="13.319203377374">
        <ele>433</ele>
        <time>2018-08-11T11:35:23Z</time>
      </trkpt>
      <trkpt lat="61.105948913617" lon="13.319568995852">
        <ele>432</ele>
        <time>2018-08-11T11:35:30Z</time>
      </trkpt>
      <trkpt lat="61.105995516981" lon="13.31994299623">
        <ele>433</ele>
        <time>2018-08-11T11:35:37Z</time>
      </trkpt>
      <trkpt lat="61.106031140056" lon="13.320336191159">
        <ele>433</ele>
        <time>2018-08-11T11:35:44Z</time>
      </trkpt>
      <trkpt lat="61.106067517502" lon="13.320717651428">
        <ele>433.2</ele>
        <time>2018-08-11T11:35:51Z</time>
      </trkpt>
      <trkpt lat="61.10609785998" lon="13.321101626267">
        <ele>434.2</ele>
        <time>2018-08-11T11:35:58Z</time>
      </trkpt>
      <trkpt lat="61.10611043283" lon="13.321510243892">
        <ele>434.8</ele>
        <time>2018-08-11T11:36:06Z</time>
      </trkpt>
      <trkpt lat="61.10611043283" lon="13.321918107146">
        <ele>437.4</ele>
        <time>2018-08-11T11:36:14Z</time>
      </trkpt>
      <trkpt lat="61.106079252162" lon="13.322303590727">
        <ele>439.4</ele>
        <time>2018-08-11T11:36:20Z</time>
      </trkpt>
      <trkpt lat="61.106032145884" lon="13.322669879757">
        <ele>440.4</ele>
        <time>2018-08-11T11:36:25Z</time>
      </trkpt>
      <trkpt lat="61.105975903335" lon="13.323077575373">
        <ele>441.4</ele>
        <time>2018-08-11T11:36:30Z</time>
      </trkpt>
      <trkpt lat="61.105906668841" lon="13.32348602536">
        <ele>442</ele>
        <time>2018-08-11T11:36:35Z</time>
      </trkpt>
      <trkpt lat="61.105830393551" lon="13.323915513916">
        <ele>443.4</ele>
        <time>2018-08-11T11:36:40Z</time>
      </trkpt>
      <trkpt lat="61.105757303383" lon="13.324337877857">
        <ele>444.2</ele>
        <time>2018-08-11T11:36:45Z</time>
      </trkpt>
      <trkpt lat="61.105675831315" lon="13.324757140495">
        <ele>445</ele>
        <time>2018-08-11T11:36:50Z</time>
      </trkpt>
      <trkpt lat="61.105567704805" lon="13.325141031515">
        <ele>445.8</ele>
        <time>2018-08-11T11:36:55Z</time>
      </trkpt>
      <trkpt lat="61.105425966876" lon="13.325438421327">
        <ele>447.6</ele>
        <time>2018-08-11T11:37:00Z</time>
      </trkpt>
      <trkpt lat="61.105248186777" lon="13.325715024027">
        <ele>448.4</ele>
        <time>2018-08-11T11:37:05Z</time>
      </trkpt>
      <trkpt lat="61.105105610658" lon="13.325952064159">
        <ele>448.6</ele>
        <time>2018-08-11T11:37:09Z</time>
      </trkpt>
      <trkpt lat="61.104967560765" lon="13.326228163945">
        <ele>449</ele>
        <time>2018-08-11T11:37:13Z</time>
      </trkpt>
      <trkpt lat="61.104842670455" lon="13.326535612037">
        <ele>450</ele>
        <time>2018-08-11T11:37:18Z</time>
      </trkpt>
      <trkpt lat="61.104736304144" lon="13.32687398934">
        <ele>451.6</ele>
        <time>2018-08-11T11:37:23Z</time>
      </trkpt>
      <trkpt lat="61.10466874603" lon="13.327231645013">
        <ele>453.2</ele>
        <time>2018-08-11T11:37:28Z</time>
      </trkpt>
      <trkpt lat="61.104641169579" lon="13.327670772754">
        <ele>454</ele>
        <time>2018-08-11T11:37:34Z</time>
      </trkpt>
      <trkpt lat="61.104667153469" lon="13.328042929114">
        <ele>454.2</ele>
        <time>2018-08-11T11:37:39Z</time>
      </trkpt>
      <trkpt lat="61.104753570858" lon="13.328449032169">
        <ele>454.8</ele>
        <time>2018-08-11T11:37:45Z</time>
      </trkpt>
      <trkpt lat="61.104871504191" lon="13.328742063393">
        <ele>457.6</ele>
        <time>2018-08-11T11:37:50Z</time>
      </trkpt>
      <trkpt lat="61.10501408031" lon="13.329060072679">
        <ele>459.2</ele>
        <time>2018-08-11T11:37:56Z</time>
      </trkpt>
      <trkpt lat="61.105156069696" lon="13.329366598762">
        <ele>460.2</ele>
        <time>2018-08-11T11:38:02Z</time>
      </trkpt>
      <trkpt lat="61.10527811016" lon="13.329660300538">
        <ele>460.2</ele>
        <time>2018-08-11T11:38:08Z</time>
      </trkpt>
      <trkpt lat="61.105396378769" lon="13.329983171326">
        <ele>460.6</ele>
        <time>2018-08-11T11:38:14Z</time>
      </trkpt>
      <trkpt lat="61.10548933404" lon="13.330337474239">
        <ele>461.2</ele>
        <time>2018-08-11T11:38:20Z</time>
      </trkpt>
      <trkpt lat="61.105572733945" lon="13.330700913423">
        <ele>461.8</ele>
        <time>2018-08-11T11:38:26Z</time>
      </trkpt>
      <trkpt lat="61.10564942833" lon="13.331064855521">
        <ele>461.6</ele>
        <time>2018-08-11T11:38:32Z</time>
      </trkpt>
      <trkpt lat="61.10572235086" lon="13.331412955828">
        <ele>461.6</ele>
        <time>2018-08-11T11:38:37Z</time>
      </trkpt>
      <trkpt lat="61.105780437427" lon="13.331803468549">
        <ele>462</ele>
        <time>2018-08-11T11:38:42Z</time>
      </trkpt>
      <trkpt lat="61.10583383013" lon="13.33221745059">
        <ele>462.2</ele>
        <time>2018-08-11T11:38:47Z</time>
      </trkpt>
      <trkpt lat="61.105866351902" lon="13.33258793057">
        <ele>461.8</ele>
        <time>2018-08-11T11:38:51Z</time>
      </trkpt>
      <trkpt lat="61.105888144842" lon="13.332985819363">
        <ele>460.8</ele>
        <time>2018-08-11T11:38:55Z</time>
      </trkpt>
      <trkpt lat="61.10590926723" lon="13.333374068971">
        <ele>460.2</ele>
        <time>2018-08-11T11:38:59Z</time>
      </trkpt>
      <trkpt lat="61.105931479265" lon="13.333780255845">
        <ele>461.6</ele>
        <time>2018-08-11T11:39:03Z</time>
      </trkpt>
      <trkpt lat="61.105958888078" lon="13.334178731371">
        <ele>462.2</ele>
        <time>2018-08-11T11:39:07Z</time>
      </trkpt>
      <trkpt lat="61.105987051262" lon="13.334558431441">
        <ele>463.2</ele>
        <time>2018-08-11T11:39:11Z</time>
      </trkpt>
      <trkpt lat="61.106037007386" lon="13.33498515397">
        <ele>464.8</ele>
        <time>2018-08-11T11:39:16Z</time>
      </trkpt>
      <trkpt lat="61.106117305988" lon="13.335410535395">
        <ele>465.8</ele>
        <time>2018-08-11T11:39:21Z</time>
      </trkpt>
      <trkpt lat="61.106209003974" lon="13.335800880478">
        <ele>466.6</ele>
        <time>2018-08-11T11:39:26Z</time>
      </trkpt>
      <trkpt lat="61.106292906793" lon="13.336180329091">
        <ele>466.4</ele>
        <time>2018-08-11T11:39:31Z</time>
      </trkpt>
      <trkpt lat="61.106392399946" lon="13.336541002248">
        <ele>464.8</ele>
        <time>2018-08-11T11:39:36Z</time>
      </trkpt>
      <trkpt lat="61.106497341334" lon="13.336871165289">
        <ele>464.4</ele>
        <time>2018-08-11T11:39:41Z</time>
      </trkpt>
      <trkpt lat="61.106625668223" lon="13.337249356617">
        <ele>464.6</ele>
        <time>2018-08-11T11:39:46Z</time>
      </trkpt>
      <trkpt lat="61.106741925176" lon="13.33755252994">
        <ele>465</ele>
        <time>2018-08-11T11:39:50Z</time>
      </trkpt>
      <trkpt lat="61.106861534889" lon="13.337861989688">
        <ele>465</ele>
        <time>2018-08-11T11:39:54Z</time>
      </trkpt>
      <trkpt lat="61.106982904801" lon="13.338169353961">
        <ele>465.2</ele>
        <time>2018-08-11T11:39:58Z</time>
      </trkpt>
      <trkpt lat="61.107118607762" lon="13.33846699523">
        <ele>466.2</ele>
        <time>2018-08-11T11:40:02Z</time>
      </trkpt>
      <trkpt lat="61.107262608804" lon="13.338741167179">
        <ele>467</ele>
        <time>2018-08-11T11:40:06Z</time>
      </trkpt>
      <trkpt lat="61.107407783312" lon="13.339002850097">
        <ele>467.2</ele>
        <time>2018-08-11T11:40:10Z</time>
      </trkpt>
      <trkpt lat="61.107557400227" lon="13.339227820293">
        <ele>467.8</ele>
        <time>2018-08-11T11:40:14Z</time>
      </trkpt>
      <trkpt lat="61.107712381558" lon="13.339441391105">
        <ele>468.4</ele>
        <time>2018-08-11T11:40:18Z</time>
      </trkpt>
      <trkpt lat="61.107894436426" lon="13.339686813137">
        <ele>469.4</ele>
        <time>2018-08-11T11:40:23Z</time>
      </trkpt>
      <trkpt lat="61.108075485466" lon="13.339948496055">
        <ele>471.6</ele>
        <time>2018-08-11T11:40:28Z</time>
      </trkpt>
      <trkpt lat="61.108229125693" lon="13.340187966938">
        <ele>472.8</ele>
        <time>2018-08-11T11:40:32Z</time>
      </trkpt>
      <trkpt lat="61.108365080111" lon="13.340466832751">
        <ele>473.8</ele>
        <time>2018-08-11T11:40:36Z</time>
      </trkpt>
      <trkpt lat="61.108486533842" lon="13.34076447402">
        <ele>474</ele>
        <time>2018-08-11T11:40:40Z</time>
      </trkpt>
      <trkpt lat="61.108595917637" lon="13.341080387831">
        <ele>475.4</ele>
        <time>2018-08-11T11:40:44Z</time>
      </trkpt>
      <trkpt lat="61.108701361939" lon="13.341417088754">
        <ele>475.8</ele>
        <time>2018-08-11T11:40:48Z</time>
      </trkpt>
      <trkpt lat="61.108805548956" lon="13.341784299793">
        <ele>476.2</ele>
        <time>2018-08-11T11:40:52Z</time>
      </trkpt>
      <trkpt lat="61.108913256371" lon="13.342159389818">
        <ele>476.2</ele>
        <time>2018-08-11T11:40:56Z</time>
      </trkpt>
      <trkpt lat="61.109015934646" lon="13.342520230613">
        <ele>476.2</ele>
        <time>2018-08-11T11:41:00Z</time>
      </trkpt>
      <trkpt lat="61.109124647889" lon="13.342902193796">
        <ele>476.4</ele>
        <time>2018-08-11T11:41:04Z</time>
      </trkpt>
      <trkpt lat="61.109233361132" lon="13.343297148924">
        <ele>476.6</ele>
        <time>2018-08-11T11:41:08Z</time>
      </trkpt>
      <trkpt lat="61.10933327338" lon="13.343684560342">
        <ele>476.6</ele>
        <time>2018-08-11T11:41:12Z</time>
      </trkpt>
      <trkpt lat="61.109435700198" lon="13.344059147453">
        <ele>476.8</ele>
        <time>2018-08-11T11:41:16Z</time>
      </trkpt>
      <trkpt lat="61.109539216663" lon="13.344464747594">
        <ele>476.6</ele>
        <time>2018-08-11T11:41:20Z</time>
      </trkpt>
      <trkpt lat="61.109642816947" lon="13.344856433781">
        <ele>476.2</ele>
        <time>2018-08-11T11:41:24Z</time>
      </trkpt>
      <trkpt lat="61.109742477738" lon="13.345246192131">
        <ele>476.4</ele>
        <time>2018-08-11T11:41:28Z</time>
      </trkpt>
      <trkpt lat="61.109847670583" lon="13.345660760905">
        <ele>476.4</ele>
        <time>2018-08-11T11:41:32Z</time>
      </trkpt>
      <trkpt lat="61.109950851772" lon="13.346080275">
        <ele>476.2</ele>
        <time>2018-08-11T11:41:36Z</time>
      </trkpt>
      <trkpt lat="61.110048417088" lon="13.346493251213">
        <ele>475.4</ele>
        <time>2018-08-11T11:41:40Z</time>
      </trkpt>
      <trkpt lat="61.110148748431" lon="13.346888038703">
        <ele>475</ele>
        <time>2018-08-11T11:41:44Z</time>
      </trkpt>
      <trkpt lat="61.110258802778" lon="13.347296572509">
        <ele>475.2</ele>
        <time>2018-08-11T11:41:48Z</time>
      </trkpt>
      <trkpt lat="61.110343040873" lon="13.347624891532">
        <ele>475.4</ele>
        <time>2018-08-11T11:41:51Z</time>
      </trkpt>
      <trkpt lat="61.110431553737" lon="13.347957401505">
        <ele>475.8</ele>
        <time>2018-08-11T11:41:54Z</time>
      </trkpt>
      <trkpt lat="61.110520569515" lon="13.348297790464">
        <ele>476.2</ele>
        <time>2018-08-11T11:41:57Z</time>
      </trkpt>
      <trkpt lat="61.110607489818" lon="13.348638849975">
        <ele>476.6</ele>
        <time>2018-08-11T11:42:00Z</time>
      </trkpt>
      <trkpt lat="61.110687704601" lon="13.348976640545">
        <ele>477</ele>
        <time>2018-08-11T11:42:03Z</time>
      </trkpt>
      <trkpt lat="61.110761968235" lon="13.34932239392">
        <ele>477.4</ele>
        <time>2018-08-11T11:42:06Z</time>
      </trkpt>
      <trkpt lat="61.110825167761" lon="13.349681474516">
        <ele>477.6</ele>
        <time>2018-08-11T11:42:09Z</time>
      </trkpt>
      <trkpt lat="61.110896162454" lon="13.350141389369">
        <ele>478.2</ele>
        <time>2018-08-11T11:42:13Z</time>
      </trkpt>
      <trkpt lat="61.110969504079" lon="13.350570542649">
        <ele>478.4</ele>
        <time>2018-08-11T11:42:17Z</time>
      </trkpt>
      <trkpt lat="61.111068661956" lon="13.350980836654">
        <ele>478.4</ele>
        <time>2018-08-11T11:42:21Z</time>
      </trkpt>
      <trkpt lat="61.111168406566" lon="13.351290966954">
        <ele>478.4</ele>
        <time>2018-08-11T11:42:24Z</time>
      </trkpt>
      <trkpt lat="61.111287681003" lon="13.351586680386">
        <ele>478.4</ele>
        <time>2018-08-11T11:42:27Z</time>
      </trkpt>
      <trkpt lat="61.111421372308" lon="13.351870826796">
        <ele>478.2</ele>
        <time>2018-08-11T11:42:30Z</time>
      </trkpt>
      <trkpt lat="61.111566546816" lon="13.35215631431">
        <ele>478.4</ele>
        <time>2018-08-11T11:42:33Z</time>
      </trkpt>
      <trkpt lat="61.111705518718" lon="13.352444064937">
        <ele>478.4</ele>
        <time>2018-08-11T11:42:36Z</time>
      </trkpt>
      <trkpt lat="61.11184868157" lon="13.352731396469">
        <ele>478.4</ele>
        <time>2018-08-11T11:42:39Z</time>
      </trkpt>
      <trkpt lat="61.111990251861" lon="13.353019901467">
        <ele>478.6</ele>
        <time>2018-08-11T11:42:42Z</time>
      </trkpt>
      <trkpt lat="61.112128553211" lon="13.353302622954">
        <ele>478.6</ele>
        <time>2018-08-11T11:42:45Z</time>
      </trkpt>
      <trkpt lat="61.112265345819" lon="13.353575453799">
        <ele>478.6</ele>
        <time>2018-08-11T11:42:48Z</time>
      </trkpt>
      <trkpt lat="61.112402473703" lon="13.353853062327">
        <ele>478.4</ele>
        <time>2018-08-11T11:42:51Z</time>
      </trkpt>
      <trkpt lat="61.112547061478" lon="13.354141567325">
        <ele>477.8</ele>
        <time>2018-08-11T11:42:54Z</time>
      </trkpt>
      <trkpt lat="61.112698857687" lon="13.354438621861">
        <ele>477.8</ele>
        <time>2018-08-11T11:42:57Z</time>
      </trkpt>
      <trkpt lat="61.112844283652" lon="13.354726707764">
        <ele>477.6</ele>
        <time>2018-08-11T11:43:00Z</time>
      </trkpt>
      <trkpt lat="61.112985853943" lon="13.355011105631">
        <ele>477.6</ele>
        <time>2018-08-11T11:43:03Z</time>
      </trkpt>
      <trkpt lat="61.113125664035" lon="13.355306567606">
        <ele>477.8</ele>
        <time>2018-08-11T11:43:06Z</time>
      </trkpt>
      <trkpt lat="61.113261366996" lon="13.35559708426">
        <ele>478</ele>
        <time>2018-08-11T11:43:09Z</time>
      </trkpt>
      <trkpt lat="61.113388939514" lon="13.355904364714">
        <ele>478</ele>
        <time>2018-08-11T11:43:12Z</time>
      </trkpt>
      <trkpt lat="61.113508884503" lon="13.356239473076">
        <ele>477.8</ele>
        <time>2018-08-11T11:43:15Z</time>
      </trkpt>
      <trkpt lat="61.113623045981" lon="13.356591261419">
        <ele>477.2</ele>
        <time>2018-08-11T11:43:18Z</time>
      </trkpt>
      <trkpt lat="61.113731507767" lon="13.356947827445">
        <ele>476.8</ele>
        <time>2018-08-11T11:43:21Z</time>
      </trkpt>
      <trkpt lat="61.113839215182" lon="13.357299280512">
        <ele>477.4</ele>
        <time>2018-08-11T11:43:24Z</time>
      </trkpt>
      <trkpt lat="61.11394415657" lon="13.357641681127">
        <ele>477.2</ele>
        <time>2018-08-11T11:43:27Z</time>
      </trkpt>
      <trkpt lat="61.114048511225" lon="13.357992966556">
        <ele>477.2</ele>
        <time>2018-08-11T11:43:30Z</time>
      </trkpt>
      <trkpt lat="61.11414951312" lon="13.358336875913">
        <ele>476.8</ele>
        <time>2018-08-11T11:43:33Z</time>
      </trkpt>
      <trkpt lat="61.114247329893" lon="13.358672571008">
        <ele>477.6</ele>
        <time>2018-08-11T11:43:36Z</time>
      </trkpt>
      <trkpt lat="61.114342799734" lon="13.358988484819">
        <ele>478.4</ele>
        <time>2018-08-11T11:43:39Z</time>
      </trkpt>
      <trkpt lat="61.114472383908" lon="13.359334070556">
        <ele>479.6</ele>
        <time>2018-08-11T11:43:43Z</time>
      </trkpt>
      <trkpt lat="61.114546982818" lon="13.359479915616">
        <ele>480</ele>
        <time>2018-08-11T11:43:45Z</time>
      </trkpt>
      <trkpt lat="61.114727612763" lon="13.359721062879">
        <ele>480.8</ele>
        <time>2018-08-11T11:43:49Z</time>
      </trkpt>
      <trkpt lat="61.114828279382" lon="13.359811419761">
        <ele>481.2</ele>
        <time>2018-08-11T11:43:51Z</time>
      </trkpt>
      <trkpt lat="61.115033216837" lon="13.359896412227">
        <ele>482.4</ele>
        <time>2018-08-11T11:43:55Z</time>
      </trkpt>
      <trkpt lat="61.115226838727" lon="13.359903201566">
        <ele>483.2</ele>
        <time>2018-08-11T11:43:59Z</time>
      </trkpt>
      <trkpt lat="61.115417275495" lon="13.359905129403">
        <ele>483.8</ele>
        <time>2018-08-11T11:44:03Z</time>
      </trkpt>
      <trkpt lat="61.115611903213" lon="13.359913092208">
        <ele>485</ele>
        <time>2018-08-11T11:44:07Z</time>
      </trkpt>
      <trkpt lat="61.115808794044" lon="13.359975705001">
        <ele>485.8</ele>
        <time>2018-08-11T11:44:11Z</time>
      </trkpt>
      <trkpt lat="61.115907700464" lon="13.360023398012">
        <ele>486</ele>
        <time>2018-08-11T11:44:13Z</time>
      </trkpt>
      <trkpt lat="61.116108782245" lon="13.360188018528">
        <ele>486.2</ele>
        <time>2018-08-11T11:44:17Z</time>
      </trkpt>
      <trkpt lat="61.1163053378" lon="13.360401254064">
        <ele>486.2</ele>
        <time>2018-08-11T11:44:21Z</time>
      </trkpt>
      <trkpt lat="61.116499294966" lon="13.360626140441">
        <ele>486</ele>
        <time>2018-08-11T11:44:25Z</time>
      </trkpt>
      <trkpt lat="61.116700795842" lon="13.360871227197">
        <ele>485.6</ele>
        <time>2018-08-11T11:44:29Z</time>
      </trkpt>
      <trkpt lat="61.116860973951" lon="13.361065519639">
        <ele>485.6</ele>
        <time>2018-08-11T11:44:32Z</time>
      </trkpt>
      <trkpt lat="61.117019643318" lon="13.361266098506">
        <ele>485.6</ele>
        <time>2018-08-11T11:44:35Z</time>
      </trkpt>
      <trkpt lat="61.117225083687" lon="13.361510011796">
        <ele>486</ele>
        <time>2018-08-11T11:44:39Z</time>
      </trkpt>
      <trkpt lat="61.117423315622" lon="13.361740430227">
        <ele>486</ele>
        <time>2018-08-11T11:44:43Z</time>
      </trkpt>
      <trkpt lat="61.11761375239" lon="13.361968082631">
        <ele>486</ele>
        <time>2018-08-11T11:44:47Z</time>
      </trkpt>
      <trkpt lat="61.117803937701" lon="13.362201518546">
        <ele>486</ele>
        <time>2018-08-11T11:44:51Z</time>
      </trkpt>
      <trkpt lat="61.117993033365" lon="13.362458172324">
        <ele>486.2</ele>
        <time>2018-08-11T11:44:55Z</time>
      </trkpt>
      <trkpt lat="61.118170226731" lon="13.362763105846">
        <ele>486</ele>
        <time>2018-08-11T11:44:59Z</time>
      </trkpt>
      <trkpt lat="61.1183169938" lon="13.363144817572">
        <ele>485.4</ele>
        <time>2018-08-11T11:45:03Z</time>
      </trkpt>
      <trkpt lat="61.118414391478" lon="13.363595344697">
        <ele>484.6</ele>
        <time>2018-08-11T11:45:07Z</time>
      </trkpt>
      <trkpt lat="61.118467532724" lon="13.363951491628">
        <ele>484.2</ele>
        <time>2018-08-11T11:45:10Z</time>
      </trkpt>
      <trkpt lat="61.118507514387" lon="13.364324569997">
        <ele>483.8</ele>
        <time>2018-08-11T11:45:13Z</time>
      </trkpt>
      <trkpt lat="61.118542047815" lon="13.364710556492">
        <ele>483.6</ele>
        <time>2018-08-11T11:45:16Z</time>
      </trkpt>
      <trkpt lat="61.118577587071" lon="13.365098387005">
        <ele>483.4</ele>
        <time>2018-08-11T11:45:19Z</time>
      </trkpt>
      <trkpt lat="61.118611366128" lon="13.365497197807">
        <ele>483.2</ele>
        <time>2018-08-11T11:45:22Z</time>
      </trkpt>
      <trkpt lat="61.118650258144" lon="13.365909000554">
        <ele>483.2</ele>
        <time>2018-08-11T11:45:25Z</time>
      </trkpt>
      <trkpt lat="61.118685378305" lon="13.366314516876">
        <ele>483.4</ele>
        <time>2018-08-11T11:45:28Z</time>
      </trkpt>
      <trkpt lat="61.118718067715" lon="13.366715506972">
        <ele>483.6</ele>
        <time>2018-08-11T11:45:31Z</time>
      </trkpt>
      <trkpt lat="61.118749416021" lon="13.367116748525">
        <ele>483.8</ele>
        <time>2018-08-11T11:45:34Z</time>
      </trkpt>
      <trkpt lat="61.118777243929" lon="13.367513380033">
        <ele>484</ele>
        <time>2018-08-11T11:45:37Z</time>
      </trkpt>
      <trkpt lat="61.118795851747" lon="13.367904563306">
        <ele>484</ele>
        <time>2018-08-11T11:45:40Z</time>
      </trkpt>
      <trkpt lat="61.118808340778" lon="13.36830823561">
        <ele>483.8</ele>
        <time>2018-08-11T11:45:43Z</time>
      </trkpt>
      <trkpt lat="61.118815800669" lon="13.368718864891">
        <ele>484</ele>
        <time>2018-08-11T11:45:46Z</time>
      </trkpt>
      <trkpt lat="61.118823679655" lon="13.369115747856">
        <ele>484.4</ele>
        <time>2018-08-11T11:45:49Z</time>
      </trkpt>
      <trkpt lat="61.118823176741" lon="13.369508104595">
        <ele>484.4</ele>
        <time>2018-08-11T11:45:52Z</time>
      </trkpt>
      <trkpt lat="61.118812950823" lon="13.369909597605">
        <ele>484.4</ele>
        <time>2018-08-11T11:45:55Z</time>
      </trkpt>
      <trkpt lat="61.118767185649" lon="13.370316790307">
        <ele>484.2</ele>
        <time>2018-08-11T11:45:58Z</time>
      </trkpt>
      <trkpt lat="61.118676744948" lon="13.370716774575">
        <ele>483.6</ele>
        <time>2018-08-11T11:46:01Z</time>
      </trkpt>
      <trkpt lat="61.118549926801" lon="13.371087170736">
        <ele>483.4</ele>
        <time>2018-08-11T11:46:04Z</time>
      </trkpt>
      <trkpt lat="61.118432999296" lon="13.371437450337">
        <ele>483.8</ele>
        <time>2018-08-11T11:46:07Z</time>
      </trkpt>
      <trkpt lat="61.118311545565" lon="13.371816731312">
        <ele>483.4</ele>
        <time>2018-08-11T11:46:10Z</time>
      </trkpt>
      <trkpt lat="61.118208196738" lon="13.372226354765">
        <ele>483.6</ele>
        <time>2018-08-11T11:46:13Z</time>
      </trkpt>
      <trkpt lat="61.118125215928" lon="13.372635140028">
        <ele>483.8</ele>
        <time>2018-08-11T11:46:16Z</time>
      </trkpt>
      <trkpt lat="61.118061597307" lon="13.373052474829">
        <ele>483.2</ele>
        <time>2018-08-11T11:46:19Z</time>
      </trkpt>
      <trkpt lat="61.118013652839" lon="13.373483304489">
        <ele>483.4</ele>
        <time>2018-08-11T11:46:22Z</time>
      </trkpt>
      <trkpt lat="61.117980460515" lon="13.373908853552">
        <ele>483.6</ele>
        <time>2018-08-11T11:46:25Z</time>
      </trkpt>
      <trkpt lat="61.117962104154" lon="13.374331217493">
        <ele>484</ele>
        <time>2018-08-11T11:46:28Z</time>
      </trkpt>
      <trkpt lat="61.117956991195" lon="13.374749390484">
        <ele>483.8</ele>
        <time>2018-08-11T11:46:31Z</time>
      </trkpt>
      <trkpt lat="61.117965624552" lon="13.375158511023">
        <ele>483.6</ele>
        <time>2018-08-11T11:46:34Z</time>
      </trkpt>
      <trkpt lat="61.117984483827" lon="13.375574420901">
        <ele>483.2</ele>
        <time>2018-08-11T11:46:37Z</time>
      </trkpt>
      <trkpt lat="61.118015413038" lon="13.375990833693">
        <ele>482.4</ele>
        <time>2018-08-11T11:46:40Z</time>
      </trkpt>
      <trkpt lat="61.118048353905" lon="13.376436918411">
        <ele>481.6</ele>
        <time>2018-08-11T11:46:43Z</time>
      </trkpt>
      <trkpt lat="61.118082468238" lon="13.376881997301">
        <ele>481.4</ele>
        <time>2018-08-11T11:46:46Z</time>
      </trkpt>
      <trkpt lat="61.118116917847" lon="13.377305534708">
        <ele>481.4</ele>
        <time>2018-08-11T11:46:49Z</time>
      </trkpt>
      <trkpt lat="61.118155642225" lon="13.377720941672">
        <ele>482</ele>
        <time>2018-08-11T11:46:52Z</time>
      </trkpt>
      <trkpt lat="61.118188583092" lon="13.37812260232">
        <ele>482.2</ele>
        <time>2018-08-11T11:46:55Z</time>
      </trkpt>
      <trkpt lat="61.118225547271" lon="13.378535578533">
        <ele>482</ele>
        <time>2018-08-11T11:46:58Z</time>
      </trkpt>
      <trkpt lat="61.118272653549" lon="13.378970096229">
        <ele>481.6</ele>
        <time>2018-08-11T11:47:01Z</time>
      </trkpt>
      <trkpt lat="61.11834465407" lon="13.379359686941">
        <ele>481.4</ele>
        <time>2018-08-11T11:47:04Z</time>
      </trkpt>
      <trkpt lat="61.118437190246" lon="13.379685407575">
        <ele>482</ele>
        <time>2018-08-11T11:47:07Z</time>
      </trkpt>
      <trkpt lat="61.118569708085" lon="13.380069130957">
        <ele>483.8</ele>
        <time>2018-08-11T11:47:11Z</time>
      </trkpt>
      <trkpt lat="61.118695520404" lon="13.38043013939">
        <ele>484.8</ele>
        <time>2018-08-11T11:47:15Z</time>
      </trkpt>
      <trkpt lat="61.118786799295" lon="13.380830123658">
        <ele>483.6</ele>
        <time>2018-08-11T11:47:19Z</time>
      </trkpt>
      <trkpt lat="61.118841784559" lon="13.381270508684">
        <ele>482.4</ele>
        <time>2018-08-11T11:47:23Z</time>
      </trkpt>
      <trkpt lat="61.11886600825" lon="13.381740733274">
        <ele>484</ele>
        <time>2018-08-11T11:47:27Z</time>
      </trkpt>
      <trkpt lat="61.118863158404" lon="13.382186398897">
        <ele>484.6</ele>
        <time>2018-08-11T11:47:31Z</time>
      </trkpt>
      <trkpt lat="61.118856452884" lon="13.382614043435">
        <ele>485.4</ele>
        <time>2018-08-11T11:47:35Z</time>
      </trkpt>
      <trkpt lat="61.118851675201" lon="13.3829857807">
        <ele>486.6</ele>
        <time>2018-08-11T11:47:39Z</time>
      </trkpt>
      <trkpt lat="61.118844718224" lon="13.38339146466">
        <ele>487.2</ele>
        <time>2018-08-11T11:47:45Z</time>
      </trkpt>
      <trkpt lat="61.118839689084" lon="13.383769320712">
        <ele>487</ele>
        <time>2018-08-11T11:47:50Z</time>
      </trkpt>
      <trkpt lat="61.118846226966" lon="13.384182380744">
        <ele>487.2</ele>
        <time>2018-08-11T11:47:55Z</time>
      </trkpt>
      <trkpt lat="61.118858045445" lon="13.384623017227">
        <ele>488</ele>
        <time>2018-08-11T11:48:00Z</time>
      </trkpt>
      <trkpt lat="61.118869947743" lon="13.385047141367">
        <ele>488.6</ele>
        <time>2018-08-11T11:48:05Z</time>
      </trkpt>
      <trkpt lat="61.118884280792" lon="13.385481826701">
        <ele>489.4</ele>
        <time>2018-08-11T11:48:10Z</time>
      </trkpt>
      <trkpt lat="61.118901715144" lon="13.385859263658">
        <ele>490.2</ele>
        <time>2018-08-11T11:48:14Z</time>
      </trkpt>
      <trkpt lat="61.118925268283" lon="13.386260672849">
        <ele>491</ele>
        <time>2018-08-11T11:48:18Z</time>
      </trkpt>
      <trkpt lat="61.118947480318" lon="13.386698040391">
        <ele>491.6</ele>
        <time>2018-08-11T11:48:22Z</time>
      </trkpt>
      <trkpt lat="61.118968602706" lon="13.387188213903">
        <ele>491.8</ele>
        <time>2018-08-11T11:48:26Z</time>
      </trkpt>
      <trkpt lat="61.118992491121" lon="13.387668245316">
        <ele>492.8</ele>
        <time>2018-08-11T11:48:30Z</time>
      </trkpt>
      <trkpt lat="61.119017804459" lon="13.388116676966">
        <ele>494</ele>
        <time>2018-08-11T11:48:34Z</time>
      </trkpt>
      <trkpt lat="61.119039681218" lon="13.388566114444">
        <ele>494.8</ele>
        <time>2018-08-11T11:48:38Z</time>
      </trkpt>
      <trkpt lat="61.119061474158" lon="13.389009684592">
        <ele>496.2</ele>
        <time>2018-08-11T11:48:42Z</time>
      </trkpt>
      <trkpt lat="61.11908226127" lon="13.389440262795">
        <ele>496.4</ele>
        <time>2018-08-11T11:48:46Z</time>
      </trkpt>
      <trkpt lat="61.119104640943" lon="13.389872098283">
        <ele>497.2</ele>
        <time>2018-08-11T11:48:50Z</time>
      </trkpt>
      <trkpt lat="61.119129535186" lon="13.390303682314">
        <ele>498.4</ele>
        <time>2018-08-11T11:48:54Z</time>
      </trkpt>
      <trkpt lat="61.1191551838" lon="13.39075244924">
        <ele>499.4</ele>
        <time>2018-08-11T11:48:58Z</time>
      </trkpt>
      <trkpt lat="61.119179742767" lon="13.391196187026">
        <ele>500</ele>
        <time>2018-08-11T11:49:02Z</time>
      </trkpt>
      <trkpt lat="61.119207067761" lon="13.391645624504">
        <ele>500.4</ele>
        <time>2018-08-11T11:49:06Z</time>
      </trkpt>
      <trkpt lat="61.119229279796" lon="13.39212708084">
        <ele>501.4</ele>
        <time>2018-08-11T11:49:10Z</time>
      </trkpt>
      <trkpt lat="61.11925325203" lon="13.392605603511">
        <ele>501.6</ele>
        <time>2018-08-11T11:49:14Z</time>
      </trkpt>
      <trkpt lat="61.119278062454" lon="13.393095609385">
        <ele>502.2</ele>
        <time>2018-08-11T11:49:18Z</time>
      </trkpt>
      <trkpt lat="61.119300106851" lon="13.393469609763">
        <ele>502.6</ele>
        <time>2018-08-11T11:49:21Z</time>
      </trkpt>
      <trkpt lat="61.119314272262" lon="13.393843358684">
        <ele>502.8</ele>
        <time>2018-08-11T11:49:24Z</time>
      </trkpt>
      <trkpt lat="61.119327096569" lon="13.394217610519">
        <ele>502.8</ele>
        <time>2018-08-11T11:49:27Z</time>
      </trkpt>
      <trkpt lat="61.119361629997" lon="13.394693953896">
        <ele>503.2</ele>
        <time>2018-08-11T11:49:31Z</time>
      </trkpt>
      <trkpt lat="61.119433043785" lon="13.395129309782">
        <ele>503.4</ele>
        <time>2018-08-11T11:49:35Z</time>
      </trkpt>
      <trkpt lat="61.119542176123" lon="13.395511272965">
        <ele>503.8</ele>
        <time>2018-08-11T11:49:39Z</time>
      </trkpt>
      <trkpt lat="61.119682321491" lon="13.39584948263">
        <ele>502.4</ele>
        <time>2018-08-11T11:49:43Z</time>
      </trkpt>
      <trkpt lat="61.11984669055" lon="13.396162546595">
        <ele>500.4</ele>
        <time>2018-08-11T11:49:47Z</time>
      </trkpt>
      <trkpt lat="61.120027152857" lon="13.396475191465">
        <ele>498</ele>
        <time>2018-08-11T11:49:51Z</time>
      </trkpt>
      <trkpt lat="61.120168890786" lon="13.396719942945">
        <ele>497.6</ele>
        <time>2018-08-11T11:49:54Z</time>
      </trkpt>
      <trkpt lat="61.120318340063" lon="13.396969388289">
        <ele>496.4</ele>
        <time>2018-08-11T11:49:57Z</time>
      </trkpt>
      <trkpt lat="61.120477512344" lon="13.397240710392">
        <ele>494.4</ele>
        <time>2018-08-11T11:50:00Z</time>
      </trkpt>
      <trkpt lat="61.120644395973" lon="13.397521420223">
        <ele>493.2</ele>
        <time>2018-08-11T11:50:03Z</time>
      </trkpt>
      <trkpt lat="61.120815135276" lon="13.397814870542">
        <ele>492.6</ele>
        <time>2018-08-11T11:50:06Z</time>
      </trkpt>
      <trkpt lat="61.120987802416" lon="13.398108153223">
        <ele>492.6</ele>
        <time>2018-08-11T11:50:09Z</time>
      </trkpt>
      <trkpt lat="61.121161307746" lon="13.398402274094">
        <ele>493</ele>
        <time>2018-08-11T11:50:12Z</time>
      </trkpt>
      <trkpt lat="61.121327269366" lon="13.398721540665">
        <ele>492.6</ele>
        <time>2018-08-11T11:50:15Z</time>
      </trkpt>
      <trkpt lat="61.121471438046" lon="13.399115825241">
        <ele>492.6</ele>
        <time>2018-08-11T11:50:18Z</time>
      </trkpt>
      <trkpt lat="61.121566824068" lon="13.399604406192">
        <ele>492.4</ele>
        <time>2018-08-11T11:50:21Z</time>
      </trkpt>
      <trkpt lat="61.121569338638" lon="13.400126430924">
        <ele>491.6</ele>
        <time>2018-08-11T11:50:24Z</time>
      </trkpt>
      <trkpt lat="61.121508569863" lon="13.40059028527">
        <ele>490.2</ele>
        <time>2018-08-11T11:50:27Z</time>
      </trkpt>
      <trkpt lat="61.121382757544" lon="13.401017007799">
        <ele>489.2</ele>
        <time>2018-08-11T11:50:30Z</time>
      </trkpt>
      <trkpt lat="61.121272787016" lon="13.401320767855">
        <ele>488.4</ele>
        <time>2018-08-11T11:50:32Z</time>
      </trkpt>
      <trkpt lat="61.121166336886" lon="13.401636765485">
        <ele>487.6</ele>
        <time>2018-08-11T11:50:34Z</time>
      </trkpt>
      <trkpt lat="61.12107715347" lon="13.40195988773">
        <ele>487</ele>
        <time>2018-08-11T11:50:36Z</time>
      </trkpt>
      <trkpt lat="61.121040692205" lon="13.402127274273">
        <ele>486.6</ele>
        <time>2018-08-11T11:50:37Z</time>
      </trkpt>
      <trkpt lat="61.12099501085" lon="13.402482583014">
        <ele>487</ele>
        <time>2018-08-11T11:50:39Z</time>
      </trkpt>
      <trkpt lat="61.121003644207" lon="13.403010223619">
        <ele>487</ele>
        <time>2018-08-11T11:50:42Z</time>
      </trkpt>
      <trkpt lat="61.121021749111" lon="13.403177023429">
        <ele>487</ele>
        <time>2018-08-11T11:50:43Z</time>
      </trkpt>
      <trkpt lat="61.121090480691" lon="13.403654875548">
        <ele>487.2</ele>
        <time>2018-08-11T11:50:46Z</time>
      </trkpt>
      <trkpt lat="61.121163989954" lon="13.404086459579">
        <ele>487.6</ele>
        <time>2018-08-11T11:50:49Z</time>
      </trkpt>
      <trkpt lat="61.121233475905" lon="13.404505722217">
        <ele>487.8</ele>
        <time>2018-08-11T11:50:52Z</time>
      </trkpt>
      <trkpt lat="61.121301453114" lon="13.404935378411">
        <ele>488</ele>
        <time>2018-08-11T11:50:55Z</time>
      </trkpt>
      <trkpt lat="61.121379991517" lon="13.405356736524">
        <ele>487.6</ele>
        <time>2018-08-11T11:50:58Z</time>
      </trkpt>
      <trkpt lat="61.121458613739" lon="13.405774322782">
        <ele>487.8</ele>
        <time>2018-08-11T11:51:01Z</time>
      </trkpt>
      <trkpt lat="61.121531955364" lon="13.40619190904">
        <ele>487.4</ele>
        <time>2018-08-11T11:51:04Z</time>
      </trkpt>
      <trkpt lat="61.121602195686" lon="13.406609830574">
        <ele>487</ele>
        <time>2018-08-11T11:51:07Z</time>
      </trkpt>
      <trkpt lat="61.121678051881" lon="13.407047198116">
        <ele>486.6</ele>
        <time>2018-08-11T11:51:10Z</time>
      </trkpt>
      <trkpt lat="61.121762122338" lon="13.407497054689">
        <ele>487</ele>
        <time>2018-08-11T11:51:13Z</time>
      </trkpt>
      <trkpt lat="61.121829177538" lon="13.407964345614">
        <ele>486.8</ele>
        <time>2018-08-11T11:51:16Z</time>
      </trkpt>
      <trkpt lat="61.121873014875" lon="13.408492405314">
        <ele>487</ele>
        <time>2018-08-11T11:51:19Z</time>
      </trkpt>
      <trkpt lat="61.121885000992" lon="13.409041419764">
        <ele>486.6</ele>
        <time>2018-08-11T11:51:22Z</time>
      </trkpt>
      <trkpt lat="61.121845438424" lon="13.409568725093">
        <ele>485.2</ele>
        <time>2018-08-11T11:51:25Z</time>
      </trkpt>
      <trkpt lat="61.121777125939" lon="13.410054456198">
        <ele>486</ele>
        <time>2018-08-11T11:51:28Z</time>
      </trkpt>
      <trkpt lat="61.121688696894" lon="13.410520825114">
        <ele>486</ele>
        <time>2018-08-11T11:51:31Z</time>
      </trkpt>
      <trkpt lat="61.121599178202" lon="13.410989792419">
        <ele>485.8</ele>
        <time>2018-08-11T11:51:34Z</time>
      </trkpt>
      <trkpt lat="61.121506977302" lon="13.411489772754">
        <ele>484.6</ele>
        <time>2018-08-11T11:51:37Z</time>
      </trkpt>
      <trkpt lat="61.121440508835" lon="13.41184382421">
        <ele>483.6</ele>
        <time>2018-08-11T11:51:39Z</time>
      </trkpt>
      <trkpt lat="61.121371525798" lon="13.412192092155">
        <ele>483.4</ele>
        <time>2018-08-11T11:51:41Z</time>
      </trkpt>
      <trkpt lat="61.121297765078" lon="13.412544802507">
        <ele>483.2</ele>
        <time>2018-08-11T11:51:43Z</time>
      </trkpt>
      <trkpt lat="61.121226602747" lon="13.412892651357">
        <ele>483</ele>
        <time>2018-08-11T11:51:45Z</time>
      </trkpt>
      <trkpt lat="61.12113247401" lon="13.413384585068">
        <ele>482.6</ele>
        <time>2018-08-11T11:51:48Z</time>
      </trkpt>
      <trkpt lat="61.121031807391" lon="13.413870651449">
        <ele>482.8</ele>
        <time>2018-08-11T11:51:51Z</time>
      </trkpt>
      <trkpt lat="61.120929883487" lon="13.41437683439">
        <ele>483.8</ele>
        <time>2018-08-11T11:51:54Z</time>
      </trkpt>
      <trkpt lat="61.120828881592" lon="13.414871031214">
        <ele>484.4</ele>
        <time>2018-08-11T11:51:57Z</time>
      </trkpt>
      <trkpt lat="61.120732489742" lon="13.415322731805">
        <ele>484.2</ele>
        <time>2018-08-11T11:52:00Z</time>
      </trkpt>
      <trkpt lat="61.120631404028" lon="13.415787340522">
        <ele>482.6</ele>
        <time>2018-08-11T11:52:03Z</time>
      </trkpt>
      <trkpt lat="61.120529899219" lon="13.41628204026">
        <ele>481.6</ele>
        <time>2018-08-11T11:52:06Z</time>
      </trkpt>
      <trkpt lat="61.120423113813" lon="13.416776237084">
        <ele>481.2</ele>
        <time>2018-08-11T11:52:09Z</time>
      </trkpt>
      <trkpt lat="61.12031272419" lon="13.41727026627">
        <ele>480.8</ele>
        <time>2018-08-11T11:52:12Z</time>
      </trkpt>
      <trkpt lat="61.120203424214" lon="13.417753734262">
        <ele>480.4</ele>
        <time>2018-08-11T11:52:15Z</time>
      </trkpt>
      <trkpt lat="61.120102757595" lon="13.418205770129">
        <ele>480.4</ele>
        <time>2018-08-11T11:52:18Z</time>
      </trkpt>
      <trkpt lat="61.120010640514" lon="13.418624278396">
        <ele>480.4</ele>
        <time>2018-08-11T11:52:21Z</time>
      </trkpt>
      <trkpt lat="61.119923636392" lon="13.419026777234">
        <ele>480.4</ele>
        <time>2018-08-11T11:52:24Z</time>
      </trkpt>
      <trkpt lat="61.119841074677" lon="13.419411338806">
        <ele>480.2</ele>
        <time>2018-08-11T11:52:27Z</time>
      </trkpt>
      <trkpt lat="61.119757423315" lon="13.419785758279">
        <ele>480</ele>
        <time>2018-08-11T11:52:30Z</time>
      </trkpt>
      <trkpt lat="61.119674274867" lon="13.420169816937">
        <ele>480.4</ele>
        <time>2018-08-11T11:52:33Z</time>
      </trkpt>
      <trkpt lat="61.119592216066" lon="13.420562341314">
        <ele>480.4</ele>
        <time>2018-08-11T11:52:36Z</time>
      </trkpt>
      <trkpt lat="61.119510241084" lon="13.420944807411">
        <ele>480.2</ele>
        <time>2018-08-11T11:52:39Z</time>
      </trkpt>
      <trkpt lat="61.119435306898" lon="13.421335739227">
        <ele>479.8</ele>
        <time>2018-08-11T11:52:42Z</time>
      </trkpt>
      <trkpt lat="61.119373532295" lon="13.421744608309">
        <ele>479</ele>
        <time>2018-08-11T11:52:45Z</time>
      </trkpt>
      <trkpt lat="61.119353499554" lon="13.42218541243">
        <ele>478.4</ele>
        <time>2018-08-11T11:52:48Z</time>
      </trkpt>
      <trkpt lat="61.119373197019" lon="13.422651865165">
        <ele>477.6</ele>
        <time>2018-08-11T11:52:51Z</time>
      </trkpt>
      <trkpt lat="61.119406892257" lon="13.422959313257">
        <ele>477.2</ele>
        <time>2018-08-11T11:52:53Z</time>
      </trkpt>
      <trkpt lat="61.119491465628" lon="13.423397602808">
        <ele>477</ele>
        <time>2018-08-11T11:52:56Z</time>
      </trkpt>
      <trkpt lat="61.119610907703" lon="13.423795072506">
        <ele>476.8</ele>
        <time>2018-08-11T11:52:59Z</time>
      </trkpt>
      <trkpt lat="61.119762117179" lon="13.424115847819">
        <ele>477</ele>
        <time>2018-08-11T11:53:02Z</time>
      </trkpt>
      <trkpt lat="61.119933946129" lon="13.424377614556">
        <ele>477.2</ele>
        <time>2018-08-11T11:53:05Z</time>
      </trkpt>
      <trkpt lat="61.120125053449" lon="13.424567213134">
        <ele>477.6</ele>
        <time>2018-08-11T11:53:08Z</time>
      </trkpt>
      <trkpt lat="61.120316328407" lon="13.424695120928">
        <ele>477.8</ele>
        <time>2018-08-11T11:53:11Z</time>
      </trkpt>
      <trkpt lat="61.120507016632" lon="13.424776173901">
        <ele>477.8</ele>
        <time>2018-08-11T11:53:14Z</time>
      </trkpt>
      <trkpt lat="61.120705164748" lon="13.424789836398">
        <ele>478</ele>
        <time>2018-08-11T11:53:17Z</time>
      </trkpt>
      <trkpt lat="61.120908928737" lon="13.424735773143">
        <ele>478.2</ele>
        <time>2018-08-11T11:53:20Z</time>
      </trkpt>
      <trkpt lat="61.121111938355" lon="13.424640973854">
        <ele>478</ele>
        <time>2018-08-11T11:53:23Z</time>
      </trkpt>
      <trkpt lat="61.121309751195" lon="13.424533936991">
        <ele>478.2</ele>
        <time>2018-08-11T11:53:26Z</time>
      </trkpt>
      <trkpt lat="61.121506474388" lon="13.42443259982">
        <ele>478.4</ele>
        <time>2018-08-11T11:53:29Z</time>
      </trkpt>
      <trkpt lat="61.121708561997" lon="13.424364957887">
        <ele>478.6</ele>
        <time>2018-08-11T11:53:32Z</time>
      </trkpt>
      <trkpt lat="61.121920540248" lon="13.424366215172">
        <ele>479.4</ele>
        <time>2018-08-11T11:53:35Z</time>
      </trkpt>
      <trkpt lat="61.122122544038" lon="13.424495966984">
        <ele>480.2</ele>
        <time>2018-08-11T11:53:38Z</time>
      </trkpt>
      <trkpt lat="61.122304095992" lon="13.424708615787">
        <ele>480.8</ele>
        <time>2018-08-11T11:53:41Z</time>
      </trkpt>
      <trkpt lat="61.122472488363" lon="13.424959234597">
        <ele>481.2</ele>
        <time>2018-08-11T11:53:44Z</time>
      </trkpt>
      <trkpt lat="61.122629229893" lon="13.425199795127">
        <ele>482.2</ele>
        <time>2018-08-11T11:53:47Z</time>
      </trkpt>
      <trkpt lat="61.122682538777" lon="13.425261653549">
        <ele>482.6</ele>
        <time>2018-08-11T11:53:48Z</time>
      </trkpt>
      <trkpt lat="61.122855708831" lon="13.425353602992">
        <ele>483.4</ele>
        <time>2018-08-11T11:53:51Z</time>
      </trkpt>
      <trkpt lat="61.122971295232" lon="13.425341281599">
        <ele>483.6</ele>
        <time>2018-08-11T11:53:53Z</time>
      </trkpt>
      <trkpt lat="61.123118732853" lon="13.425296186977">
        <ele>484</ele>
        <time>2018-08-11T11:53:56Z</time>
      </trkpt>
      <trkpt lat="61.123295088029" lon="13.425232065442">
        <ele>485.2</ele>
        <time>2018-08-11T11:54:00Z</time>
      </trkpt>
      <trkpt lat="61.1234215709" lon="13.425093680273">
        <ele>485.4</ele>
        <time>2018-08-11T11:54:03Z</time>
      </trkpt>
      <trkpt lat="61.123605218329" lon="13.424928640662">
        <ele>485.6</ele>
        <time>2018-08-11T11:54:07Z</time>
      </trkpt>
      <trkpt lat="61.123653162797" lon="13.424900393659">
        <ele>485.6</ele>
        <time>2018-08-11T11:54:08Z</time>
      </trkpt>
      <trkpt lat="61.123828344507" lon="13.424951523249">
        <ele>485.6</ele>
        <time>2018-08-11T11:54:12Z</time>
      </trkpt>
      <trkpt lat="61.123947283668" lon="13.425311944949">
        <ele>484.8</ele>
        <time>2018-08-11T11:54:17Z</time>
      </trkpt>
      <trkpt lat="61.12400495114" lon="13.425673204839">
        <ele>484.2</ele>
        <time>2018-08-11T11:54:22Z</time>
      </trkpt>
      <trkpt lat="61.124021547302" lon="13.426057766411">
        <ele>483.6</ele>
        <time>2018-08-11T11:54:27Z</time>
      </trkpt>
      <trkpt lat="61.123938650311" lon="13.426392120402">
        <ele>483.4</ele>
        <time>2018-08-11T11:54:31Z</time>
      </trkpt>
      <trkpt lat="61.123776292908" lon="13.426628322344">
        <ele>483.4</ele>
        <time>2018-08-11T11:54:35Z</time>
      </trkpt>
      <trkpt lat="61.123566410132" lon="13.426666795265">
        <ele>483.6</ele>
        <time>2018-08-11T11:54:39Z</time>
      </trkpt>
      <trkpt lat="61.12340648348" lon="13.426612648191">
        <ele>483.6</ele>
        <time>2018-08-11T11:54:42Z</time>
      </trkpt>
      <trkpt lat="61.12318017218" lon="13.426488596071">
        <ele>483.2</ele>
        <time>2018-08-11T11:54:46Z</time>
      </trkpt>
      <trkpt lat="61.123118816672" lon="13.426477280506">
        <ele>483</ele>
        <time>2018-08-11T11:54:47Z</time>
      </trkpt>
      <trkpt lat="61.122937432356" lon="13.426523297137">
        <ele>482.6</ele>
        <time>2018-08-11T11:54:50Z</time>
      </trkpt>
      <trkpt lat="61.122878088504" lon="13.42655573509">
        <ele>482.4</ele>
        <time>2018-08-11T11:54:51Z</time>
      </trkpt>
      <trkpt lat="61.122656387249" lon="13.426669226016">
        <ele>481</ele>
        <time>2018-08-11T11:54:55Z</time>
      </trkpt>
      <trkpt lat="61.122524875238" lon="13.42705110538">
        <ele>479.4</ele>
        <time>2018-08-11T11:54:59Z</time>
      </trkpt>
      <trkpt lat="61.12250542923" lon="13.427310441366">
        <ele>478.8</ele>
        <time>2018-08-11T11:55:01Z</time>
      </trkpt>
      <trkpt lat="61.122468381232" lon="13.427693410377">
        <ele>478.4</ele>
        <time>2018-08-11T11:55:04Z</time>
      </trkpt>
      <trkpt lat="61.122420520583" lon="13.428074116275">
        <ele>478.6</ele>
        <time>2018-08-11T11:55:07Z</time>
      </trkpt>
      <trkpt lat="61.122379113997" lon="13.428443003694">
        <ele>479.2</ele>
        <time>2018-08-11T11:55:10Z</time>
      </trkpt>
      <trkpt lat="61.122328403502" lon="13.42889093243">
        <ele>479.8</ele>
        <time>2018-08-11T11:55:14Z</time>
      </trkpt>
      <trkpt lat="61.122312896987" lon="13.429086146881">
        <ele>479.6</ele>
        <time>2018-08-11T11:55:16Z</time>
      </trkpt>
      <trkpt lat="61.122262437949" lon="13.429510187202">
        <ele>479.6</ele>
        <time>2018-08-11T11:55:20Z</time>
      </trkpt>
      <trkpt lat="61.1222061954" lon="13.429994744841">
        <ele>478.4</ele>
        <time>2018-08-11T11:55:24Z</time>
      </trkpt>
      <trkpt lat="61.122143582607" lon="13.430355753274">
        <ele>478.8</ele>
        <time>2018-08-11T11:55:27Z</time>
      </trkpt>
      <trkpt lat="61.122067558774" lon="13.430698153889">
        <ele>479</ele>
        <time>2018-08-11T11:55:30Z</time>
      </trkpt>
      <trkpt lat="61.121972843304" lon="13.431146417901">
        <ele>478.6</ele>
        <time>2018-08-11T11:55:34Z</time>
      </trkpt>
      <trkpt lat="61.121920121153" lon="13.43150608523">
        <ele>478</ele>
        <time>2018-08-11T11:55:37Z</time>
      </trkpt>
      <trkpt lat="61.121873266332" lon="13.431910511905">
        <ele>477</ele>
        <time>2018-08-11T11:55:40Z</time>
      </trkpt>
      <trkpt lat="61.121828842262" lon="13.432323152842">
        <ele>477</ele>
        <time>2018-08-11T11:55:43Z</time>
      </trkpt>
      <trkpt lat="61.121778467043" lon="13.432720454902">
        <ele>478.2</ele>
        <time>2018-08-11T11:55:46Z</time>
      </trkpt>
      <trkpt lat="61.1217284271" lon="13.433078110575">
        <ele>479.6</ele>
        <time>2018-08-11T11:55:49Z</time>
      </trkpt>
      <trkpt lat="61.121682494288" lon="13.433468874753">
        <ele>480.2</ele>
        <time>2018-08-11T11:55:53Z</time>
      </trkpt>
      <trkpt lat="61.121634968915" lon="13.433884700812">
        <ele>480</ele>
        <time>2018-08-11T11:55:57Z</time>
      </trkpt>
      <trkpt lat="61.121600603125" lon="13.434358194343">
        <ele>480</ele>
        <time>2018-08-11T11:56:01Z</time>
      </trkpt>
      <trkpt lat="61.121591718311" lon="13.434742923553">
        <ele>479.2</ele>
        <time>2018-08-11T11:56:04Z</time>
      </trkpt>
      <trkpt lat="61.121592472682" lon="13.435154810119">
        <ele>478.6</ele>
        <time>2018-08-11T11:56:07Z</time>
      </trkpt>
      <trkpt lat="61.12162197697" lon="13.435561164631">
        <ele>478</ele>
        <time>2018-08-11T11:56:10Z</time>
      </trkpt>
      <trkpt lat="61.121690373274" lon="13.436026862995">
        <ele>476.6</ele>
        <time>2018-08-11T11:56:13Z</time>
      </trkpt>
      <trkpt lat="61.12178626221" lon="13.436515024851">
        <ele>477.2</ele>
        <time>2018-08-11T11:56:16Z</time>
      </trkpt>
      <trkpt lat="61.121876870549" lon="13.436936969697">
        <ele>478.8</ele>
        <time>2018-08-11T11:56:19Z</time>
      </trkpt>
      <trkpt lat="61.121962449748" lon="13.43729462537">
        <ele>480.4</ele>
        <time>2018-08-11T11:56:22Z</time>
      </trkpt>
      <trkpt lat="61.122061523806" lon="13.437716151121">
        <ele>482.2</ele>
        <time>2018-08-11T11:56:26Z</time>
      </trkpt>
      <trkpt lat="61.122151377774" lon="13.438075064079">
        <ele>483.4</ele>
        <time>2018-08-11T11:56:30Z</time>
      </trkpt>
      <trkpt lat="61.122234945317" lon="13.438440682557">
        <ele>484.2</ele>
        <time>2018-08-11T11:56:34Z</time>
      </trkpt>
      <trkpt lat="61.122301916698" lon="13.438789369597">
        <ele>485</ele>
        <time>2018-08-11T11:56:38Z</time>
      </trkpt>
      <trkpt lat="61.122362266378" lon="13.439143421053">
        <ele>486</ele>
        <time>2018-08-11T11:56:43Z</time>
      </trkpt>
      <trkpt lat="61.122411384312" lon="13.439528653177">
        <ele>489</ele>
        <time>2018-08-11T11:56:51Z</time>
      </trkpt>
      <trkpt lat="61.122454048183" lon="13.439921848106">
        <ele>492.8</ele>
        <time>2018-08-11T11:57:01Z</time>
      </trkpt>
      <trkpt lat="61.122483720109" lon="13.440295680846">
        <ele>494.6</ele>
        <time>2018-08-11T11:57:09Z</time>
      </trkpt>
      <trkpt lat="61.122500567728" lon="13.440668423939">
        <ele>495.4</ele>
        <time>2018-08-11T11:57:16Z</time>
      </trkpt>
      <trkpt lat="61.122496041502" lon="13.44107821503">
        <ele>496.2</ele>
        <time>2018-08-11T11:57:23Z</time>
      </trkpt>
      <trkpt lat="61.122467543042" lon="13.441499573143">
        <ele>497</ele>
        <time>2018-08-11T11:57:30Z</time>
      </trkpt>
      <trkpt lat="61.122435356546" lon="13.441885559638">
        <ele>497.4</ele>
        <time>2018-08-11T11:57:37Z</time>
      </trkpt>
      <trkpt lat="61.122396045435" lon="13.442265678803">
        <ele>497.4</ele>
        <time>2018-08-11T11:57:43Z</time>
      </trkpt>
      <trkpt lat="61.122345251121" lon="13.442684270889">
        <ele>496.8</ele>
        <time>2018-08-11T11:57:49Z</time>
      </trkpt>
      <trkpt lat="61.122273502057" lon="13.443108059753">
        <ele>496</ele>
        <time>2018-08-11T11:57:54Z</time>
      </trkpt>
      <trkpt lat="61.122213571472" lon="13.443394217819">
        <ele>495.4</ele>
        <time>2018-08-11T11:57:57Z</time>
      </trkpt>
      <trkpt lat="61.12210728898" lon="13.443797051933">
        <ele>494.8</ele>
        <time>2018-08-11T11:58:01Z</time>
      </trkpt>
      <trkpt lat="61.122005616533" lon="13.444120677092">
        <ele>494.2</ele>
        <time>2018-08-11T11:58:04Z</time>
      </trkpt>
      <trkpt lat="61.121897154747" lon="13.444436339446">
        <ele>494.2</ele>
        <time>2018-08-11T11:58:07Z</time>
      </trkpt>
      <trkpt lat="61.121789782608" lon="13.44474613447">
        <ele>494.8</ele>
        <time>2018-08-11T11:58:10Z</time>
      </trkpt>
      <trkpt lat="61.121657767683" lon="13.445133294431">
        <ele>495.4</ele>
        <time>2018-08-11T11:58:14Z</time>
      </trkpt>
      <trkpt lat="61.121521477989" lon="13.445480472729">
        <ele>495.8</ele>
        <time>2018-08-11T11:58:18Z</time>
      </trkpt>
      <trkpt lat="61.121337495284" lon="13.445709130961">
        <ele>496.8</ele>
        <time>2018-08-11T11:58:22Z</time>
      </trkpt>
      <trkpt lat="61.121289299359" lon="13.445747855339">
        <ele>497.2</ele>
        <time>2018-08-11T11:58:23Z</time>
      </trkpt>
      <trkpt lat="61.121112525088" lon="13.445869811984">
        <ele>498.8</ele>
        <time>2018-08-11T11:58:27Z</time>
      </trkpt>
      <trkpt lat="61.120927452736" lon="13.445995959579">
        <ele>500</ele>
        <time>2018-08-11T11:58:32Z</time>
      </trkpt>
      <trkpt lat="61.120740117271" lon="13.446131075807">
        <ele>501</ele>
        <time>2018-08-11T11:58:38Z</time>
      </trkpt>
      <trkpt lat="61.12056585757" lon="13.446264264198">
        <ele>502</ele>
        <time>2018-08-11T11:58:44Z</time>
      </trkpt>
      <trkpt lat="61.120386317272" lon="13.446419329348">
        <ele>502.2</ele>
        <time>2018-08-11T11:58:49Z</time>
      </trkpt>
      <trkpt lat="61.120177691781" lon="13.446579172181">
        <ele>502</ele>
        <time>2018-08-11T11:58:54Z</time>
      </trkpt>
      <trkpt lat="61.119999492587" lon="13.446693836573">
        <ele>502.2</ele>
        <time>2018-08-11T11:58:58Z</time>
      </trkpt>
      <trkpt lat="61.119820203746" lon="13.446783522903">
        <ele>502.4</ele>
        <time>2018-08-11T11:59:02Z</time>
      </trkpt>
      <trkpt lat="61.119623229096" lon="13.446959458984">
        <ele>502.4</ele>
        <time>2018-08-11T11:59:06Z</time>
      </trkpt>
      <trkpt lat="61.119401779298" lon="13.447117206342">
        <ele>502.4</ele>
        <time>2018-08-11T11:59:10Z</time>
      </trkpt>
      <trkpt lat="61.119177228197" lon="13.447271852397">
        <ele>502</ele>
        <time>2018-08-11T11:59:14Z</time>
      </trkpt>
      <trkpt lat="61.118957622417" lon="13.447459774595">
        <ele>501.4</ele>
        <time>2018-08-11T11:59:18Z</time>
      </trkpt>
      <trkpt lat="61.118789313865" lon="13.447598914135">
        <ele>501</ele>
        <time>2018-08-11T11:59:21Z</time>
      </trkpt>
      <trkpt lat="61.118623016969" lon="13.447746603213">
        <ele>500.8</ele>
        <time>2018-08-11T11:59:24Z</time>
      </trkpt>
      <trkpt lat="61.11840751832" lon="13.447926059692">
        <ele>500.2</ele>
        <time>2018-08-11T11:59:28Z</time>
      </trkpt>
      <trkpt lat="61.118235605551" lon="13.448081460118">
        <ele>500</ele>
        <time>2018-08-11T11:59:31Z</time>
      </trkpt>
      <trkpt lat="61.118059501832" lon="13.448262090063">
        <ele>499</ele>
        <time>2018-08-11T11:59:34Z</time>
      </trkpt>
      <trkpt lat="61.117855570205" lon="13.448500471299">
        <ele>496.6</ele>
        <time>2018-08-11T11:59:37Z</time>
      </trkpt>
      <trkpt lat="61.117698828675" lon="13.44868730385">
        <ele>495</ele>
        <time>2018-08-11T11:59:39Z</time>
      </trkpt>
      <trkpt lat="61.117541416593" lon="13.448876148057">
        <ele>493.8</ele>
        <time>2018-08-11T11:59:41Z</time>
      </trkpt>
      <trkpt lat="61.117341675916" lon="13.449095250923">
        <ele>494.2</ele>
        <time>2018-08-11T11:59:44Z</time>
      </trkpt>
      <trkpt lat="61.117140845592" lon="13.449324663526">
        <ele>494.4</ele>
        <time>2018-08-11T11:59:48Z</time>
      </trkpt>
      <trkpt lat="61.117098600816" lon="13.449397418418">
        <ele>494.4</ele>
        <time>2018-08-11T11:59:49Z</time>
      </trkpt>
      <trkpt lat="61.116964238959" lon="13.449764294181">
        <ele>493.8</ele>
        <time>2018-08-11T11:59:53Z</time>
      </trkpt>
      <trkpt lat="61.116850077481" lon="13.450132762505">
        <ele>493.6</ele>
        <time>2018-08-11T11:59:57Z</time>
      </trkpt>
      <trkpt lat="61.116720493307" lon="13.450459824243">
        <ele>493.6</ele>
        <time>2018-08-11T12:00:01Z</time>
      </trkpt>
      <trkpt lat="61.116569786745" lon="13.450771966199">
        <ele>493.4</ele>
        <time>2018-08-11T12:00:05Z</time>
      </trkpt>
      <trkpt lat="61.116410279188" lon="13.451064494509">
        <ele>492.8</ele>
        <time>2018-08-11T12:00:09Z</time>
      </trkpt>
      <trkpt lat="61.116205844647" lon="13.451263313177">
        <ele>492.4</ele>
        <time>2018-08-11T12:00:13Z</time>
      </trkpt>
      <trkpt lat="61.116027226358" lon="13.4514072304">
        <ele>491.6</ele>
        <time>2018-08-11T12:00:16Z</time>
      </trkpt>
      <trkpt lat="61.115838382151" lon="13.451607054896">
        <ele>490.8</ele>
        <time>2018-08-11T12:00:19Z</time>
      </trkpt>
      <trkpt lat="61.115659009491" lon="13.45183638368">
        <ele>490.6</ele>
        <time>2018-08-11T12:00:22Z</time>
      </trkpt>
      <trkpt lat="61.11548223522" lon="13.452046014999">
        <ele>490</ele>
        <time>2018-08-11T12:00:25Z</time>
      </trkpt>
      <trkpt lat="61.115296408497" lon="13.452229410971">
        <ele>489</ele>
        <time>2018-08-11T12:00:28Z</time>
      </trkpt>
      <trkpt lat="61.115102954245" lon="13.452445244896">
        <ele>488.2</ele>
        <time>2018-08-11T12:00:31Z</time>
      </trkpt>
      <trkpt lat="61.114920145006" lon="13.452734252808">
        <ele>487.2</ele>
        <time>2018-08-11T12:00:34Z</time>
      </trkpt>
      <trkpt lat="61.114716800112" lon="13.452974310424">
        <ele>485.8</ele>
        <time>2018-08-11T12:00:37Z</time>
      </trkpt>
      <trkpt lat="61.114476910134" lon="13.453095847974">
        <ele>484.4</ele>
        <time>2018-08-11T12:00:40Z</time>
      </trkpt>
      <trkpt lat="61.114229560265" lon="13.45309366868">
        <ele>483.6</ele>
        <time>2018-08-11T12:00:43Z</time>
      </trkpt>
      <trkpt lat="61.113974163772" lon="13.453030050059">
        <ele>484.4</ele>
        <time>2018-08-11T12:00:46Z</time>
      </trkpt>
      <trkpt lat="61.113727652093" lon="13.452916140038">
        <ele>485.6</ele>
        <time>2018-08-11T12:00:49Z</time>
      </trkpt>
      <trkpt lat="61.113505280286" lon="13.452779515068">
        <ele>486.6</ele>
        <time>2018-08-11T12:00:52Z</time>
      </trkpt>
      <trkpt lat="61.113301683935" lon="13.452642806279">
        <ele>487</ele>
        <time>2018-08-11T12:00:55Z</time>
      </trkpt>
      <trkpt lat="61.113107726769" lon="13.452565525161">
        <ele>486.8</ele>
        <time>2018-08-11T12:00:58Z</time>
      </trkpt>
      <trkpt lat="61.112912931413" lon="13.452530321181">
        <ele>486</ele>
        <time>2018-08-11T12:01:01Z</time>
      </trkpt>
      <trkpt lat="61.112718219876" lon="13.452507103318">
        <ele>486.2</ele>
        <time>2018-08-11T12:01:04Z</time>
      </trkpt>
      <trkpt lat="61.112525603814" lon="13.452503415282">
        <ele>486.2</ele>
        <time>2018-08-11T12:01:07Z</time>
      </trkpt>
      <trkpt lat="61.112331059915" lon="13.452518251245">
        <ele>486.2</ele>
        <time>2018-08-11T12:01:10Z</time>
      </trkpt>
      <trkpt lat="61.112142550984" lon="13.452544402773">
        <ele>486.4</ele>
        <time>2018-08-11T12:01:13Z</time>
      </trkpt>
      <trkpt lat="61.111959238831" lon="13.452583881522">
        <ele>486.4</ele>
        <time>2018-08-11T12:01:16Z</time>
      </trkpt>
      <trkpt lat="61.111774837031" lon="13.452621851529">
        <ele>486.6</ele>
        <time>2018-08-11T12:01:19Z</time>
      </trkpt>
      <trkpt lat="61.111537461623" lon="13.452673064938">
        <ele>487.2</ele>
        <time>2018-08-11T12:01:23Z</time>
      </trkpt>
      <trkpt lat="61.111306540278" lon="13.452685637788">
        <ele>487.6</ele>
        <time>2018-08-11T12:01:27Z</time>
      </trkpt>
      <trkpt lat="61.111082492091" lon="13.452596454372">
        <ele>488</ele>
        <time>2018-08-11T12:01:31Z</time>
      </trkpt>
      <trkpt lat="61.110867915451" lon="13.452440467213">
        <ele>488.6</ele>
        <time>2018-08-11T12:01:35Z</time>
      </trkpt>
      <trkpt lat="61.11067437738" lon="13.45229235904">
        <ele>489.2</ele>
        <time>2018-08-11T12:01:39Z</time>
      </trkpt>
      <trkpt lat="61.110469356106" lon="13.452140143736">
        <ele>490</ele>
        <time>2018-08-11T12:01:44Z</time>
      </trkpt>
      <trkpt lat="61.110284702849" lon="13.451992538477">
        <ele>490.8</ele>
        <time>2018-08-11T12:01:49Z</time>
      </trkpt>
      <trkpt lat="61.110107928578" lon="13.45183638368">
        <ele>491.2</ele>
        <time>2018-08-11T12:01:54Z</time>
      </trkpt>
      <trkpt lat="61.109929897022" lon="13.451663213626">
        <ele>491.4</ele>
        <time>2018-08-11T12:01:59Z</time>
      </trkpt>
      <trkpt lat="61.109761839927" lon="13.451483924785">
        <ele>491</ele>
        <time>2018-08-11T12:02:03Z</time>
      </trkpt>
      <trkpt lat="61.109566625476" lon="13.451254176906">
        <ele>490.2</ele>
        <time>2018-08-11T12:02:07Z</time>
      </trkpt>
      <trkpt lat="61.109369231731" lon="13.451029709624">
        <ele>490.6</ele>
        <time>2018-08-11T12:02:11Z</time>
      </trkpt>
      <trkpt lat="61.109176280393" lon="13.450878919243">
        <ele>491.2</ele>
        <time>2018-08-11T12:02:15Z</time>
      </trkpt>
      <trkpt lat="61.109070668453" lon="13.450844637272">
        <ele>490.8</ele>
        <time>2018-08-11T12:02:17Z</time>
      </trkpt>
      <trkpt lat="61.108848380465" lon="13.450956367999">
        <ele>489.8</ele>
        <time>2018-08-11T12:02:21Z</time>
      </trkpt>
      <trkpt lat="61.108754503185" lon="13.451090310761">
        <ele>489.4</ele>
        <time>2018-08-11T12:02:23Z</time>
      </trkpt>
      <trkpt lat="61.108596169094" lon="13.451347299815">
        <ele>488.2</ele>
        <time>2018-08-11T12:02:26Z</time>
      </trkpt>
      <trkpt lat="61.108390644906" lon="13.451639492849">
        <ele>486.6</ele>
        <time>2018-08-11T12:02:29Z</time>
      </trkpt>
      <trkpt lat="61.108238429602" lon="13.451851052005">
        <ele>485.2</ele>
        <time>2018-08-11T12:02:31Z</time>
      </trkpt>
      <trkpt lat="61.108085292289" lon="13.452094881476">
        <ele>483.8</ele>
        <time>2018-08-11T12:02:33Z</time>
      </trkpt>
      <trkpt lat="61.107951181889" lon="13.452375758945">
        <ele>483.6</ele>
        <time>2018-08-11T12:02:35Z</time>
      </trkpt>
      <trkpt lat="61.107897034815" lon="13.452526800783">
        <ele>483.8</ele>
        <time>2018-08-11T12:02:36Z</time>
      </trkpt>
      <trkpt lat="61.107798463671" lon="13.453001803056">
        <ele>484.6</ele>
        <time>2018-08-11T12:02:39Z</time>
      </trkpt>
      <trkpt lat="61.107778933844" lon="13.453439170598">
        <ele>485.4</ele>
        <time>2018-08-11T12:02:42Z</time>
      </trkpt>
      <trkpt lat="61.107777341283" lon="13.453862959462">
        <ele>486.4</ele>
        <time>2018-08-11T12:02:46Z</time>
      </trkpt>
      <trkpt lat="61.107776670731" lon="13.454273588743">
        <ele>486.8</ele>
        <time>2018-08-11T12:02:50Z</time>
      </trkpt>
      <trkpt lat="61.107780694043" lon="13.454704586041">
        <ele>486.2</ele>
        <time>2018-08-11T12:02:54Z</time>
      </trkpt>
      <trkpt lat="61.107783962984" lon="13.455185371825">
        <ele>484.8</ele>
        <time>2018-08-11T12:02:58Z</time>
      </trkpt>
      <trkpt lat="61.10778848921" lon="13.455635731312">
        <ele>482.8</ele>
        <time>2018-08-11T12:03:01Z</time>
      </trkpt>
      <trkpt lat="61.107798296033" lon="13.456155744388">
        <ele>482.4</ele>
        <time>2018-08-11T12:03:04Z</time>
      </trkpt>
      <trkpt lat="61.107795446187" lon="13.456666788831">
        <ele>483.4</ele>
        <time>2018-08-11T12:03:07Z</time>
      </trkpt>
      <trkpt lat="61.107795865282" lon="13.457109520789">
        <ele>484.6</ele>
        <time>2018-08-11T12:03:10Z</time>
      </trkpt>
      <trkpt lat="61.107799469499" lon="13.457492992714">
        <ele>485.2</ele>
        <time>2018-08-11T12:03:13Z</time>
      </trkpt>
      <trkpt lat="61.107802403164" lon="13.457943687477">
        <ele>485.4</ele>
        <time>2018-08-11T12:03:17Z</time>
      </trkpt>
      <trkpt lat="61.107801564974" lon="13.458382144666">
        <ele>485.6</ele>
        <time>2018-08-11T12:03:21Z</time>
      </trkpt>
      <trkpt lat="61.107801816431" lon="13.458818422561">
        <ele>486.6</ele>
        <time>2018-08-11T12:03:25Z</time>
      </trkpt>
      <trkpt lat="61.107804079544" lon="13.459192842034">
        <ele>486.8</ele>
        <time>2018-08-11T12:03:29Z</time>
      </trkpt>
      <trkpt lat="61.107806510295" lon="13.459647643928">
        <ele>487</ele>
        <time>2018-08-11T12:03:34Z</time>
      </trkpt>
      <trkpt lat="61.107805672105" lon="13.460036312631">
        <ele>487.4</ele>
        <time>2018-08-11T12:03:38Z</time>
      </trkpt>
      <trkpt lat="61.107803660449" lon="13.460464962997">
        <ele>488</ele>
        <time>2018-08-11T12:03:43Z</time>
      </trkpt>
      <trkpt lat="61.107800978241" lon="13.460837370814">
        <ele>488.8</ele>
        <time>2018-08-11T12:03:48Z</time>
      </trkpt>
      <trkpt lat="61.107808773408" lon="13.461279180763">
        <ele>489.4</ele>
        <time>2018-08-11T12:03:54Z</time>
      </trkpt>
      <trkpt lat="61.10780692939" lon="13.461742196919">
        <ele>490</ele>
        <time>2018-08-11T12:03:59Z</time>
      </trkpt>
      <trkpt lat="61.10780106206" lon="13.462177049891">
        <ele>490.2</ele>
        <time>2018-08-11T12:04:03Z</time>
      </trkpt>
      <trkpt lat="61.107803744268" lon="13.46256521568">
        <ele>490</ele>
        <time>2018-08-11T12:04:07Z</time>
      </trkpt>
      <trkpt lat="61.107805672105" lon="13.463021777773">
        <ele>490.4</ele>
        <time>2018-08-11T12:04:12Z</time>
      </trkpt>
      <trkpt lat="61.107806426476" lon="13.4634771664">
        <ele>490.8</ele>
        <time>2018-08-11T12:04:17Z</time>
      </trkpt>
      <trkpt lat="61.107809192503" lon="13.463940014918">
        <ele>490.8</ele>
        <time>2018-08-11T12:04:22Z</time>
      </trkpt>
      <trkpt lat="61.107808019037" lon="13.464328096888">
        <ele>490.8</ele>
        <time>2018-08-11T12:04:26Z</time>
      </trkpt>
      <trkpt lat="61.107808270494" lon="13.464703689827">
        <ele>490.6</ele>
        <time>2018-08-11T12:04:30Z</time>
      </trkpt>
      <trkpt lat="61.107813299634" lon="13.465096046566">
        <ele>490</ele>
        <time>2018-08-11T12:04:34Z</time>
      </trkpt>
      <trkpt lat="61.10781279672" lon="13.465494270635">
        <ele>489.8</ele>
        <time>2018-08-11T12:04:38Z</time>
      </trkpt>
      <trkpt lat="61.107805839743" lon="13.465872797239">
        <ele>490.2</ele>
        <time>2018-08-11T12:04:42Z</time>
      </trkpt>
      <trkpt lat="61.107807516123" lon="13.46629097023">
        <ele>490.6</ele>
        <time>2018-08-11T12:04:47Z</time>
      </trkpt>
      <trkpt lat="61.107799720956" lon="13.466711909248">
        <ele>491.2</ele>
        <time>2018-08-11T12:04:52Z</time>
      </trkpt>
      <trkpt lat="61.107793602169" lon="13.467112228792">
        <ele>491.8</ele>
        <time>2018-08-11T12:04:57Z</time>
      </trkpt>
      <trkpt lat="61.10779351835" lon="13.467530066507">
        <ele>492.6</ele>
        <time>2018-08-11T12:05:02Z</time>
      </trkpt>
      <trkpt lat="61.10779016559" lon="13.467944467643">
        <ele>493.6</ele>
        <time>2018-08-11T12:05:07Z</time>
      </trkpt>
      <trkpt lat="61.107792009608" lon="13.468350067784">
        <ele>494.2</ele>
        <time>2018-08-11T12:05:12Z</time>
      </trkpt>
      <trkpt lat="61.107792763979" lon="13.468784250204">
        <ele>494.4</ele>
        <time>2018-08-11T12:05:17Z</time>
      </trkpt>
      <trkpt lat="61.107799888594" lon="13.469239387374">
        <ele>494.2</ele>
        <time>2018-08-11T12:05:22Z</time>
      </trkpt>
      <trkpt lat="61.107802989897" lon="13.469611376096">
        <ele>494.2</ele>
        <time>2018-08-11T12:05:26Z</time>
      </trkpt>
      <trkpt lat="61.107803660449" lon="13.470065172162">
        <ele>494.2</ele>
        <time>2018-08-11T12:05:31Z</time>
      </trkpt>
      <trkpt lat="61.107805839743" lon="13.470524165006">
        <ele>494.4</ele>
        <time>2018-08-11T12:05:36Z</time>
      </trkpt>
      <trkpt lat="61.107805001553" lon="13.470973015751">
        <ele>494.4</ele>
        <time>2018-08-11T12:05:41Z</time>
      </trkpt>
      <trkpt lat="61.107798379852" lon="13.471360930083">
        <ele>494.8</ele>
        <time>2018-08-11T12:05:45Z</time>
      </trkpt>
      <trkpt lat="61.10779938568" lon="13.471742809447">
        <ele>494.8</ele>
        <time>2018-08-11T12:05:49Z</time>
      </trkpt>
      <trkpt lat="61.107790919961" lon="13.47213650729">
        <ele>495.2</ele>
        <time>2018-08-11T12:05:53Z</time>
      </trkpt>
      <trkpt lat="61.107794272721" lon="13.472520565948">
        <ele>495.2</ele>
        <time>2018-08-11T12:05:57Z</time>
      </trkpt>
      <trkpt lat="61.107802319345" lon="13.472962627354">
        <ele>495.6</ele>
        <time>2018-08-11T12:06:01Z</time>
      </trkpt>
      <trkpt lat="61.107803408992" lon="13.473361605794">
        <ele>495.6</ele>
        <time>2018-08-11T12:06:04Z</time>
      </trkpt>
      <trkpt lat="61.10780525301" lon="13.473778353862">
        <ele>495.6</ele>
        <time>2018-08-11T12:06:07Z</time>
      </trkpt>
      <trkpt lat="61.107797793119" lon="13.4741892346">
        <ele>495.8</ele>
        <time>2018-08-11T12:06:10Z</time>
      </trkpt>
      <trkpt lat="61.107794105083" lon="13.474600869709">
        <ele>495.8</ele>
        <time>2018-08-11T12:06:13Z</time>
      </trkpt>
      <trkpt lat="61.107788237753" lon="13.474987945851">
        <ele>496.2</ele>
        <time>2018-08-11T12:06:16Z</time>
      </trkpt>
      <trkpt lat="61.10777172541" lon="13.475219202472">
        <ele>496.4</ele>
        <time>2018-08-11T12:06:18Z</time>
      </trkpt>
      <trkpt lat="61.107721601648" lon="13.475516759922">
        <ele>497</ele>
        <time>2018-08-11T12:06:21Z</time>
      </trkpt>
      <trkpt lat="61.107634765164" lon="13.475760337936">
        <ele>497.4</ele>
        <time>2018-08-11T12:06:24Z</time>
      </trkpt>
      <trkpt lat="61.107477436901" lon="13.476028558736">
        <ele>497.8</ele>
        <time>2018-08-11T12:06:28Z</time>
      </trkpt>
      <trkpt lat="61.107312481109" lon="13.476284458143">
        <ele>498</ele>
        <time>2018-08-11T12:06:32Z</time>
      </trkpt>
      <trkpt lat="61.107154733751" lon="13.476518816067">
        <ele>498.6</ele>
        <time>2018-08-11T12:06:36Z</time>
      </trkpt>
      <trkpt lat="61.10699137052" lon="13.47676834523">
        <ele>498.8</ele>
        <time>2018-08-11T12:06:40Z</time>
      </trkpt>
      <trkpt lat="61.10683881994" lon="13.477004211896">
        <ele>499</ele>
        <time>2018-08-11T12:06:44Z</time>
      </trkpt>
      <trkpt lat="61.106678390374" lon="13.477244520969">
        <ele>499.2</ele>
        <time>2018-08-11T12:06:48Z</time>
      </trkpt>
      <trkpt lat="61.106517541713" lon="13.477491619381">
        <ele>499</ele>
        <time>2018-08-11T12:06:52Z</time>
      </trkpt>
      <trkpt lat="61.106353927025" lon="13.477748021702">
        <ele>499.2</ele>
        <time>2018-08-11T12:06:56Z</time>
      </trkpt>
      <trkpt lat="61.106198107504" lon="13.477984726558">
        <ele>499.2</ele>
        <time>2018-08-11T12:07:00Z</time>
      </trkpt>
      <trkpt lat="61.106028541667" lon="13.478246577114">
        <ele>499</ele>
        <time>2018-08-11T12:07:04Z</time>
      </trkpt>
      <trkpt lat="61.105862412409" lon="13.478535920302">
        <ele>498.6</ele>
        <time>2018-08-11T12:07:08Z</time>
      </trkpt>
      <trkpt lat="61.105674825487" lon="13.478821491635">
        <ele>499.2</ele>
        <time>2018-08-11T12:07:12Z</time>
      </trkpt>
      <trkpt lat="61.105488328212" lon="13.479113097936">
        <ele>499.2</ele>
        <time>2018-08-11T12:07:16Z</time>
      </trkpt>
      <trkpt lat="61.105300154557" lon="13.479399004545">
        <ele>499.2</ele>
        <time>2018-08-11T12:07:20Z</time>
      </trkpt>
      <trkpt lat="61.105111561807" lon="13.479674014684">
        <ele>499</ele>
        <time>2018-08-11T12:07:24Z</time>
      </trkpt>
      <trkpt lat="61.104925483627" lon="13.479935697602">
        <ele>498.6</ele>
        <time>2018-08-11T12:07:28Z</time>
      </trkpt>
      <trkpt lat="61.104775363798" lon="13.480159410513">
        <ele>498.6</ele>
        <time>2018-08-11T12:07:31Z</time>
      </trkpt>
      <trkpt lat="61.104628261453" lon="13.480384213071">
        <ele>498.2</ele>
        <time>2018-08-11T12:07:34Z</time>
      </trkpt>
      <trkpt lat="61.104481410565" lon="13.480608261258">
        <ele>498</ele>
        <time>2018-08-11T12:07:37Z</time>
      </trkpt>
      <trkpt lat="61.104290638521" lon="13.480893832591">
        <ele>498.8</ele>
        <time>2018-08-11T12:07:41Z</time>
      </trkpt>
      <trkpt lat="61.104099028287" lon="13.481183594874">
        <ele>498.6</ele>
        <time>2018-08-11T12:07:45Z</time>
      </trkpt>
      <trkpt lat="61.103949914286" lon="13.481405715224">
        <ele>498.6</ele>
        <time>2018-08-11T12:07:48Z</time>
      </trkpt>
      <trkpt lat="61.103801470837" lon="13.481634541094">
        <ele>498.4</ele>
        <time>2018-08-11T12:07:51Z</time>
      </trkpt>
      <trkpt lat="61.103646070411" lon="13.481873173787">
        <ele>498.2</ele>
        <time>2018-08-11T12:07:54Z</time>
      </trkpt>
      <trkpt lat="61.103475582565" lon="13.482141310768">
        <ele>498.6</ele>
        <time>2018-08-11T12:07:57Z</time>
      </trkpt>
      <trkpt lat="61.103300987588" lon="13.482411124129">
        <ele>499</ele>
        <time>2018-08-11T12:08:00Z</time>
      </trkpt>
      <trkpt lat="61.103141982945" lon="13.482661491482">
        <ele>499.4</ele>
        <time>2018-08-11T12:08:03Z</time>
      </trkpt>
      <trkpt lat="61.102956742955" lon="13.482945721711">
        <ele>499.4</ele>
        <time>2018-08-11T12:08:07Z</time>
      </trkpt>
      <trkpt lat="61.102782483254" lon="13.483210086837">
        <ele>499.8</ele>
        <time>2018-08-11T12:08:11Z</time>
      </trkpt>
      <trkpt lat="61.102606966268" lon="13.483489287926">
        <ele>498.8</ele>
        <time>2018-08-11T12:08:15Z</time>
      </trkpt>
      <trkpt lat="61.102431114006" lon="13.483768656653">
        <ele>498.2</ele>
        <time>2018-08-11T12:08:19Z</time>
      </trkpt>
      <trkpt lat="61.102249059138" lon="13.484032015951">
        <ele>499.4</ele>
        <time>2018-08-11T12:08:23Z</time>
      </trkpt>
      <trkpt lat="61.102066668994" lon="13.48434642102">
        <ele>499.6</ele>
        <time>2018-08-11T12:08:27Z</time>
      </trkpt>
      <trkpt lat="61.101901126469" lon="13.484593100337">
        <ele>499.8</ele>
        <time>2018-08-11T12:08:30Z</time>
      </trkpt>
      <trkpt lat="61.101732734098" lon="13.484853442151">
        <ele>500.2</ele>
        <time>2018-08-11T12:08:33Z</time>
      </trkpt>
      <trkpt lat="61.101551433601" lon="13.485128368471">
        <ele>500.4</ele>
        <time>2018-08-11T12:08:36Z</time>
      </trkpt>
      <trkpt lat="61.101369043457" lon="13.48540170223">
        <ele>501</ele>
        <time>2018-08-11T12:08:39Z</time>
      </trkpt>
      <trkpt lat="61.101195873403" lon="13.485654081239">
        <ele>501.4</ele>
        <time>2018-08-11T12:08:42Z</time>
      </trkpt>
      <trkpt lat="61.101043658099" lon="13.485874776666">
        <ele>501.4</ele>
        <time>2018-08-11T12:08:45Z</time>
      </trkpt>
      <trkpt lat="61.100849533295" lon="13.486161353827">
        <ele>500.4</ele>
        <time>2018-08-11T12:08:49Z</time>
      </trkpt>
      <trkpt lat="61.100704274968" lon="13.486382971263">
        <ele>500.2</ele>
        <time>2018-08-11T12:08:52Z</time>
      </trkpt>
      <trkpt lat="61.100512078001" lon="13.486672565908">
        <ele>500</ele>
        <time>2018-08-11T12:08:56Z</time>
      </trkpt>
      <trkpt lat="61.10031853993" lon="13.486960400354">
        <ele>500.2</ele>
        <time>2018-08-11T12:09:00Z</time>
      </trkpt>
      <trkpt lat="61.100129611904" lon="13.487250497913">
        <ele>500</ele>
        <time>2018-08-11T12:09:04Z</time>
      </trkpt>
      <trkpt lat="61.099943114629" lon="13.487533303219">
        <ele>499.8</ele>
        <time>2018-08-11T12:09:08Z</time>
      </trkpt>
      <trkpt lat="61.099753264594" lon="13.487817784905">
        <ele>499.2</ele>
        <time>2018-08-11T12:09:12Z</time>
      </trkpt>
      <trkpt lat="61.099604318231" lon="13.488032277726">
        <ele>501</ele>
        <time>2018-08-11T12:09:15Z</time>
      </trkpt>
      <trkpt lat="61.099413462368" lon="13.48829764868">
        <ele>501.4</ele>
        <time>2018-08-11T12:09:19Z</time>
      </trkpt>
      <trkpt lat="61.09921129094" lon="13.488535443183">
        <ele>502.2</ele>
        <time>2018-08-11T12:09:23Z</time>
      </trkpt>
      <trkpt lat="61.099007694589" lon="13.488771477487">
        <ele>502.8</ele>
        <time>2018-08-11T12:09:27Z</time>
      </trkpt>
      <trkpt lat="61.098791860664" lon="13.488970631431">
        <ele>503.2</ele>
        <time>2018-08-11T12:09:31Z</time>
      </trkpt>
      <trkpt lat="61.098622797741" lon="13.489119493975">
        <ele>503.2</ele>
        <time>2018-08-11T12:09:34Z</time>
      </trkpt>
      <trkpt lat="61.098450717334" lon="13.489254358746">
        <ele>503.6</ele>
        <time>2018-08-11T12:09:37Z</time>
      </trkpt>
      <trkpt lat="61.098277128185" lon="13.489383188549">
        <ele>504</ele>
        <time>2018-08-11T12:09:40Z</time>
      </trkpt>
      <trkpt lat="61.098102700846" lon="13.489477484924">
        <ele>504.4</ele>
        <time>2018-08-11T12:09:43Z</time>
      </trkpt>
      <trkpt lat="61.097871276587" lon="13.489561220105">
        <ele>504.8</ele>
        <time>2018-08-11T12:09:47Z</time>
      </trkpt>
      <trkpt lat="61.097690227547" lon="13.489615450998">
        <ele>504.6</ele>
        <time>2018-08-11T12:09:50Z</time>
      </trkpt>
      <trkpt lat="61.097501215702" lon="13.489667586416">
        <ele>504.6</ele>
        <time>2018-08-11T12:09:53Z</time>
      </trkpt>
      <trkpt lat="61.097315891893" lon="13.489715949979">
        <ele>504.8</ele>
        <time>2018-08-11T12:09:56Z</time>
      </trkpt>
      <trkpt lat="61.097132495921" lon="13.489770851424">
        <ele>505</ele>
        <time>2018-08-11T12:09:59Z</time>
      </trkpt>
      <trkpt lat="61.096945998646" lon="13.489828015982">
        <ele>505.2</ele>
        <time>2018-08-11T12:10:02Z</time>
      </trkpt>
      <trkpt lat="61.096760339561" lon="13.489889706766">
        <ele>505.2</ele>
        <time>2018-08-11T12:10:05Z</time>
      </trkpt>
      <trkpt lat="61.096576524494" lon="13.489942428917">
        <ele>505.2</ele>
        <time>2018-08-11T12:10:08Z</time>
      </trkpt>
      <trkpt lat="61.096397068015" lon="13.489988864643">
        <ele>505.6</ele>
        <time>2018-08-11T12:10:11Z</time>
      </trkpt>
      <trkpt lat="61.096215935156" lon="13.490035468007">
        <ele>506.2</ele>
        <time>2018-08-11T12:10:14Z</time>
      </trkpt>
      <trkpt lat="61.096033880288" lon="13.490086765235">
        <ele>506.8</ele>
        <time>2018-08-11T12:10:17Z</time>
      </trkpt>
      <trkpt lat="61.095798767993" lon="13.490154323349">
        <ele>507.4</ele>
        <time>2018-08-11T12:10:21Z</time>
      </trkpt>
      <trkpt lat="61.095572875788" lon="13.490213499563">
        <ele>508.2</ele>
        <time>2018-08-11T12:10:25Z</time>
      </trkpt>
      <trkpt lat="61.095360059347" lon="13.490264461515">
        <ele>509</ele>
        <time>2018-08-11T12:10:29Z</time>
      </trkpt>
      <trkpt lat="61.095178675031" lon="13.490348615791">
        <ele>509.6</ele>
        <time>2018-08-11T12:10:33Z</time>
      </trkpt>
      <trkpt lat="61.095082786095" lon="13.490719011952">
        <ele>510.4</ele>
        <time>2018-08-11T12:10:38Z</time>
      </trkpt>
      <trkpt lat="61.095092844375" lon="13.490954375704">
        <ele>511.2</ele>
        <time>2018-08-11T12:10:41Z</time>
      </trkpt>
      <trkpt lat="61.095128970364" lon="13.491328208444">
        <ele>512.8</ele>
        <time>2018-08-11T12:10:47Z</time>
      </trkpt>
      <trkpt lat="61.09516702419" lon="13.491708662885">
        <ele>513</ele>
        <time>2018-08-11T12:10:53Z</time>
      </trkpt>
      <trkpt lat="61.095208011681" lon="13.492138738174">
        <ele>512.6</ele>
        <time>2018-08-11T12:10:59Z</time>
      </trkpt>
      <trkpt lat="61.095248915353" lon="13.492546182333">
        <ele>512.4</ele>
        <time>2018-08-11T12:11:04Z</time>
      </trkpt>
      <trkpt lat="61.095285125161" lon="13.492956476338">
        <ele>512.8</ele>
        <time>2018-08-11T12:11:09Z</time>
      </trkpt>
      <trkpt lat="61.095307923929" lon="13.493380851935">
        <ele>513.6</ele>
        <time>2018-08-11T12:11:14Z</time>
      </trkpt>
      <trkpt lat="61.095301805142" lon="13.493754768494">
        <ele>513.6</ele>
        <time>2018-08-11T12:11:18Z</time>
      </trkpt>
      <trkpt lat="61.095285963351" lon="13.493934392611">
        <ele>513.2</ele>
        <time>2018-08-11T12:11:20Z</time>
      </trkpt>
      <trkpt lat="61.095232067734" lon="13.494292551198">
        <ele>512.8</ele>
        <time>2018-08-11T12:11:24Z</time>
      </trkpt>
      <trkpt lat="61.095174400262" lon="13.494667808861">
        <ele>512.2</ele>
        <time>2018-08-11T12:11:28Z</time>
      </trkpt>
      <trkpt lat="61.095122264844" lon="13.495047508931">
        <ele>512</ele>
        <time>2018-08-11T12:11:32Z</time>
      </trkpt>
      <trkpt lat="61.095082031724" lon="13.495414468513">
        <ele>512.2</ele>
        <time>2018-08-11T12:11:36Z</time>
      </trkpt>
      <trkpt lat="61.095049258495" lon="13.495783355932">
        <ele>512.8</ele>
        <time>2018-08-11T12:11:41Z</time>
      </trkpt>
      <trkpt lat="61.095009779746" lon="13.496194571946">
        <ele>513.6</ele>
        <time>2018-08-11T12:11:48Z</time>
      </trkpt>
      <trkpt lat="61.094968456979" lon="13.496559771329">
        <ele>514.8</ele>
        <time>2018-08-11T12:11:54Z</time>
      </trkpt>
      <trkpt lat="61.09492394909" lon="13.496965874384">
        <ele>515.4</ele>
        <time>2018-08-11T12:12:00Z</time>
      </trkpt>
      <trkpt lat="61.09487449588" lon="13.497326044627">
        <ele>516</ele>
        <time>2018-08-11T12:12:05Z</time>
      </trkpt>
      <trkpt lat="61.094830239448" lon="13.497733488786">
        <ele>516</ele>
        <time>2018-08-11T12:12:10Z</time>
      </trkpt>
      <trkpt lat="61.094754969986" lon="13.498129952656">
        <ele>516.2</ele>
        <time>2018-08-11T12:12:14Z</time>
      </trkpt>
      <trkpt lat="61.0947051815" lon="13.49849339184">
        <ele>516.6</ele>
        <time>2018-08-11T12:12:18Z</time>
      </trkpt>
      <trkpt lat="61.0946548901" lon="13.498865212924">
        <ele>516.6</ele>
        <time>2018-08-11T12:12:22Z</time>
      </trkpt>
      <trkpt lat="61.094609544021" lon="13.49922513171">
        <ele>516.6</ele>
        <time>2018-08-11T12:12:26Z</time>
      </trkpt>
      <trkpt lat="61.094566796331" lon="13.499686471486">
        <ele>516.4</ele>
        <time>2018-08-11T12:12:31Z</time>
      </trkpt>
      <trkpt lat="61.094533184912" lon="13.500115792404">
        <ele>516.4</ele>
        <time>2018-08-11T12:12:35Z</time>
      </trkpt>
      <trkpt lat="61.094490688679" lon="13.500564224054">
        <ele>515.8</ele>
        <time>2018-08-11T12:12:39Z</time>
      </trkpt>
      <trkpt lat="61.094475265983" lon="13.501052050634">
        <ele>515.6</ele>
        <time>2018-08-11T12:12:43Z</time>
      </trkpt>
      <trkpt lat="61.094473421965" lon="13.501539625757">
        <ele>516.4</ele>
        <time>2018-08-11T12:12:47Z</time>
      </trkpt>
      <trkpt lat="61.094478283467" lon="13.501780689201">
        <ele>516.4</ele>
        <time>2018-08-11T12:12:49Z</time>
      </trkpt>
      <trkpt lat="61.094513152171" lon="13.502228534118">
        <ele>518.4</ele>
        <time>2018-08-11T12:12:53Z</time>
      </trkpt>
      <trkpt lat="61.094572160747" lon="13.502678223053">
        <ele>519.2</ele>
        <time>2018-08-11T12:12:57Z</time>
      </trkpt>
      <trkpt lat="61.094623541794" lon="13.503142496494">
        <ele>519.4</ele>
        <time>2018-08-11T12:13:01Z</time>
      </trkpt>
      <trkpt lat="61.094685651673" lon="13.503600315872">
        <ele>519.2</ele>
        <time>2018-08-11T12:13:05Z</time>
      </trkpt>
      <trkpt lat="61.094780283324" lon="13.504034582111">
        <ele>519.2</ele>
        <time>2018-08-11T12:13:09Z</time>
      </trkpt>
      <trkpt lat="61.094888158377" lon="13.50434647261">
        <ele>519</ele>
        <time>2018-08-11T12:13:12Z</time>
      </trkpt>
      <trkpt lat="61.095018077827" lon="13.504630786658">
        <ele>518.8</ele>
        <time>2018-08-11T12:13:15Z</time>
      </trkpt>
      <trkpt lat="61.095143722508" lon="13.504905629159">
        <ele>518.6</ele>
        <time>2018-08-11T12:13:18Z</time>
      </trkpt>
      <trkpt lat="61.095270205379" lon="13.505173514683">
        <ele>519</ele>
        <time>2018-08-11T12:13:21Z</time>
      </trkpt>
      <trkpt lat="61.095401382114" lon="13.505443328044">
        <ele>518.8</ele>
        <time>2018-08-11T12:13:24Z</time>
      </trkpt>
      <trkpt lat="61.095534654324" lon="13.505710459197">
        <ele>518.4</ele>
        <time>2018-08-11T12:13:27Z</time>
      </trkpt>
      <trkpt lat="61.095696844089" lon="13.506022433515">
        <ele>518.2</ele>
        <time>2018-08-11T12:13:31Z</time>
      </trkpt>
      <trkpt lat="61.095853669438" lon="13.506322505535">
        <ele>518.8</ele>
        <time>2018-08-11T12:13:35Z</time>
      </trkpt>
      <trkpt lat="61.096016278298" lon="13.506622577555">
        <ele>518.8</ele>
        <time>2018-08-11T12:13:39Z</time>
      </trkpt>
      <trkpt lat="61.096198333166" lon="13.506918542444">
        <ele>519.4</ele>
        <time>2018-08-11T12:13:43Z</time>
      </trkpt>
      <trkpt lat="61.096389021391" lon="13.507180476819">
        <ele>520</ele>
        <time>2018-08-11T12:13:47Z</time>
      </trkpt>
      <trkpt lat="61.09653830303" lon="13.507316012142">
        <ele>520.8</ele>
        <time>2018-08-11T12:13:50Z</time>
      </trkpt>
      <trkpt lat="61.096737708431" lon="13.507344091507">
        <ele>521</ele>
        <time>2018-08-11T12:13:54Z</time>
      </trkpt>
      <trkpt lat="61.096923116059" lon="13.507350461751">
        <ele>522</ele>
        <time>2018-08-11T12:13:58Z</time>
      </trkpt>
      <trkpt lat="61.096961002247" lon="13.507365213895">
        <ele>521.8</ele>
        <time>2018-08-11T12:13:59Z</time>
      </trkpt>
      <trkpt lat="61.09715185811" lon="13.507349623561">
        <ele>521.4</ele>
        <time>2018-08-11T12:14:04Z</time>
      </trkpt>
      <trkpt lat="61.097314047875" lon="13.507254069901">
        <ele>521.2</ele>
        <time>2018-08-11T12:14:09Z</time>
      </trkpt>
      <trkpt lat="61.097450924302" lon="13.507482811952">
        <ele>521.6</ele>
        <time>2018-08-11T12:14:14Z</time>
      </trkpt>
      <trkpt lat="61.097612108239" lon="13.507727563432">
        <ele>522.2</ele>
        <time>2018-08-11T12:14:20Z</time>
      </trkpt>
      <trkpt lat="61.097797348229" lon="13.507951192524">
        <ele>522.8</ele>
        <time>2018-08-11T12:14:26Z</time>
      </trkpt>
      <trkpt lat="61.09797076974" lon="13.508224945378">
        <ele>522.2</ele>
        <time>2018-08-11T12:14:31Z</time>
      </trkpt>
      <trkpt lat="61.098110412194" lon="13.508469696858">
        <ele>521.6</ele>
        <time>2018-08-11T12:14:35Z</time>
      </trkpt>
      <trkpt lat="61.098294813994" lon="13.508690895199">
        <ele>522</ele>
        <time>2018-08-11T12:14:40Z</time>
      </trkpt>
      <trkpt lat="61.098421632141" lon="13.508888037487">
        <ele>521.6</ele>
        <time>2018-08-11T12:14:44Z</time>
      </trkpt>
      <trkpt lat="61.09852648971" lon="13.509155755373">
        <ele>521.2</ele>
        <time>2018-08-11T12:14:48Z</time>
      </trkpt>
      <trkpt lat="61.098592790539" lon="13.50954157423">
        <ele>520.4</ele>
        <time>2018-08-11T12:14:52Z</time>
      </trkpt>
      <trkpt lat="61.098607291226" lon="13.509636876433">
        <ele>520.6</ele>
        <time>2018-08-11T12:14:53Z</time>
      </trkpt>
      <trkpt lat="61.09865724735" lon="13.510002662549">
        <ele>522</ele>
        <time>2018-08-11T12:14:58Z</time>
      </trkpt>
      <trkpt lat="61.098746011671" lon="13.510392504718">
        <ele>522.4</ele>
        <time>2018-08-11T12:15:04Z</time>
      </trkpt>
      <trkpt lat="61.098831255594" lon="13.510730043831">
        <ele>523</ele>
        <time>2018-08-11T12:15:09Z</time>
      </trkpt>
      <trkpt lat="61.098957822284" lon="13.511086442219">
        <ele>522.2</ele>
        <time>2018-08-11T12:15:14Z</time>
      </trkpt>
      <trkpt lat="61.099009454788" lon="13.511229772709">
        <ele>522</ele>
        <time>2018-08-11T12:15:16Z</time>
      </trkpt>
      <trkpt lat="61.099120263506" lon="13.511522971571">
        <ele>522.4</ele>
        <time>2018-08-11T12:15:21Z</time>
      </trkpt>
      <trkpt lat="61.099215817166" lon="13.511841483771">
        <ele>521.6</ele>
        <time>2018-08-11T12:15:26Z</time>
      </trkpt>
      <trkpt lat="61.099293852655" lon="13.512255717269">
        <ele>520.8</ele>
        <time>2018-08-11T12:15:31Z</time>
      </trkpt>
      <trkpt lat="61.099301396365" lon="13.512357557354">
        <ele>520.6</ele>
        <time>2018-08-11T12:15:32Z</time>
      </trkpt>
      <trkpt lat="61.099265186557" lon="13.512754272681">
        <ele>519.4</ele>
        <time>2018-08-11T12:15:36Z</time>
      </trkpt>
      <trkpt lat="61.099249177128" lon="13.51284907197">
        <ele>519.4</ele>
        <time>2018-08-11T12:15:37Z</time>
      </trkpt>
      <trkpt lat="61.099189917095" lon="13.513119723521">
        <ele>518.8</ele>
        <time>2018-08-11T12:15:40Z</time>
      </trkpt>
      <trkpt lat="61.099166615413" lon="13.513527083861">
        <ele>518.4</ele>
        <time>2018-08-11T12:15:44Z</time>
      </trkpt>
      <trkpt lat="61.099156305676" lon="13.513961098643">
        <ele>518.2</ele>
        <time>2018-08-11T12:15:48Z</time>
      </trkpt>
      <trkpt lat="61.099215900985" lon="13.514377008521">
        <ele>517.2</ele>
        <time>2018-08-11T12:15:52Z</time>
      </trkpt>
      <trkpt lat="61.099235682269" lon="13.514501898831">
        <ele>517</ele>
        <time>2018-08-11T12:15:53Z</time>
      </trkpt>
      <trkpt lat="61.099297456872" lon="13.514853268079">
        <ele>515.8</ele>
        <time>2018-08-11T12:15:56Z</time>
      </trkpt>
      <trkpt lat="61.099306425505" lon="13.51496633991">
        <ele>515.4</ele>
        <time>2018-08-11T12:15:57Z</time>
      </trkpt>
      <trkpt lat="61.099341880942" lon="13.515308908163">
        <ele>514.2</ele>
        <time>2018-08-11T12:16:00Z</time>
      </trkpt>
      <trkpt lat="61.099441457914" lon="13.51570394711">
        <ele>512.8</ele>
        <time>2018-08-11T12:16:04Z</time>
      </trkpt>
      <trkpt lat="61.099541202524" lon="13.516152965493">
        <ele>511</ele>
        <time>2018-08-11T12:16:08Z</time>
      </trkpt>
      <trkpt lat="61.099629799207" lon="13.516530150993">
        <ele>509.6</ele>
        <time>2018-08-11T12:16:11Z</time>
      </trkpt>
      <trkpt lat="61.099721078098" lon="13.516919993162">
        <ele>508</ele>
        <time>2018-08-11T12:16:14Z</time>
      </trkpt>
      <trkpt lat="61.099818308138" lon="13.517318468688">
        <ele>506.2</ele>
        <time>2018-08-11T12:16:17Z</time>
      </trkpt>
      <trkpt lat="61.099910257581" lon="13.51768542827">
        <ele>504.4</ele>
        <time>2018-08-11T12:16:20Z</time>
      </trkpt>
      <trkpt lat="61.099994579495" lon="13.518018105881">
        <ele>503.2</ele>
        <time>2018-08-11T12:16:23Z</time>
      </trkpt>
      <trkpt lat="61.100102622186" lon="13.51844315203">
        <ele>501.4</ele>
        <time>2018-08-11T12:16:27Z</time>
      </trkpt>
      <trkpt lat="61.100208066488" lon="13.518859229546">
        <ele>501</ele>
        <time>2018-08-11T12:16:31Z</time>
      </trkpt>
      <trkpt lat="61.100263889942" lon="13.519056623291">
        <ele>501</ele>
        <time>2018-08-11T12:16:33Z</time>
      </trkpt>
      <trkpt lat="61.100398670894" lon="13.519409333643">
        <ele>500.2</ele>
        <time>2018-08-11T12:16:37Z</time>
      </trkpt>
      <trkpt lat="61.100437982005" lon="13.51951184428">
        <ele>499.8</ele>
        <time>2018-08-11T12:16:38Z</time>
      </trkpt>
      <trkpt lat="61.100538564805" lon="13.51988819159">
        <ele>499</ele>
        <time>2018-08-11T12:16:41Z</time>
      </trkpt>
      <trkpt lat="61.100592292784" lon="13.520265041814">
        <ele>499.8</ele>
        <time>2018-08-11T12:16:44Z</time>
      </trkpt>
      <trkpt lat="61.100634705198" lon="13.520491269295">
        <ele>500</ele>
        <time>2018-08-11T12:16:46Z</time>
      </trkpt>
      <trkpt lat="61.100744424269" lon="13.520913884693">
        <ele>500.4</ele>
        <time>2018-08-11T12:16:50Z</time>
      </trkpt>
      <trkpt lat="61.100836708988" lon="13.521239940603">
        <ele>499.6</ele>
        <time>2018-08-11T12:16:53Z</time>
      </trkpt>
      <trkpt lat="61.100925640947" lon="13.521599607932">
        <ele>499.6</ele>
        <time>2018-08-11T12:16:56Z</time>
      </trkpt>
      <trkpt lat="61.101034940923" lon="13.52197109374">
        <ele>499.2</ele>
        <time>2018-08-11T12:16:59Z</time>
      </trkpt>
      <trkpt lat="61.101112641136" lon="13.522355068579">
        <ele>498.6</ele>
        <time>2018-08-11T12:17:02Z</time>
      </trkpt>
      <trkpt lat="61.101141893967" lon="13.522472247541">
        <ele>498.4</ele>
        <time>2018-08-11T12:17:03Z</time>
      </trkpt>
      <trkpt lat="61.101247086812" lon="13.522855048914">
        <ele>497.8</ele>
        <time>2018-08-11T12:17:07Z</time>
      </trkpt>
      <trkpt lat="61.101273322159" lon="13.52293417405">
        <ele>497.6</ele>
        <time>2018-08-11T12:17:08Z</time>
      </trkpt>
      <trkpt lat="61.101376084253" lon="13.523208345999">
        <ele>495.8</ele>
        <time>2018-08-11T12:17:11Z</time>
      </trkpt>
      <trkpt lat="61.101479265442" lon="13.523595086865">
        <ele>496.2</ele>
        <time>2018-08-11T12:17:14Z</time>
      </trkpt>
      <trkpt lat="61.101564844641" lon="13.523940421145">
        <ele>497</ele>
        <time>2018-08-11T12:17:17Z</time>
      </trkpt>
      <trkpt lat="61.101661571767" lon="13.524324898898">
        <ele>497.4</ele>
        <time>2018-08-11T12:17:21Z</time>
      </trkpt>
      <trkpt lat="61.101765926422" lon="13.524652547369">
        <ele>498.2</ele>
        <time>2018-08-11T12:17:25Z</time>
      </trkpt>
      <trkpt lat="61.101790066294" lon="13.524732426876">
        <ele>498.4</ele>
        <time>2018-08-11T12:17:26Z</time>
      </trkpt>
      <trkpt lat="61.101826024645" lon="13.525096033698">
        <ele>498.8</ele>
        <time>2018-08-11T12:17:30Z</time>
      </trkpt>
      <trkpt lat="61.101895929691" lon="13.525321758265">
        <ele>499</ele>
        <time>2018-08-11T12:17:33Z</time>
      </trkpt>
      <trkpt lat="61.102017634879" lon="13.525587632133">
        <ele>499.2</ele>
        <time>2018-08-11T12:17:37Z</time>
      </trkpt>
      <trkpt lat="61.102191224028" lon="13.525718054497">
        <ele>498.6</ele>
        <time>2018-08-11T12:17:41Z</time>
      </trkpt>
      <trkpt lat="61.102377721303" lon="13.525988873686">
        <ele>498</ele>
        <time>2018-08-11T12:17:45Z</time>
      </trkpt>
      <trkpt lat="61.102481992139" lon="13.526321551297">
        <ele>498.2</ele>
        <time>2018-08-11T12:17:48Z</time>
      </trkpt>
      <trkpt lat="61.102534798109" lon="13.526559513438">
        <ele>498.2</ele>
        <time>2018-08-11T12:17:50Z</time>
      </trkpt>
      <trkpt lat="61.102574444496" lon="13.526937201852">
        <ele>498.4</ele>
        <time>2018-08-11T12:17:53Z</time>
      </trkpt>
      <trkpt lat="61.102598081454" lon="13.527185557549">
        <ele>498.4</ele>
        <time>2018-08-11T12:17:55Z</time>
      </trkpt>
      <trkpt lat="61.10266044279" lon="13.527630971715">
        <ele>499.2</ele>
        <time>2018-08-11T12:17:59Z</time>
      </trkpt>
      <trkpt lat="61.102725318696" lon="13.528052497466">
        <ele>500.6</ele>
        <time>2018-08-11T12:18:03Z</time>
      </trkpt>
      <trkpt lat="61.102723139402" lon="13.528476034873">
        <ele>501.6</ele>
        <time>2018-08-11T12:18:07Z</time>
      </trkpt>
      <trkpt lat="61.102745770532" lon="13.528827823216">
        <ele>501.2</ele>
        <time>2018-08-11T12:18:10Z</time>
      </trkpt>
      <trkpt lat="61.102873426869" lon="13.529249265148">
        <ele>499.8</ele>
        <time>2018-08-11T12:18:14Z</time>
      </trkpt>
      <trkpt lat="61.102997311351" lon="13.529576997438">
        <ele>500.8</ele>
        <time>2018-08-11T12:18:17Z</time>
      </trkpt>
      <trkpt lat="61.103068306044" lon="13.529795765028">
        <ele>501</ele>
        <time>2018-08-11T12:18:19Z</time>
      </trkpt>
      <trkpt lat="61.103109125897" lon="13.530231204733">
        <ele>501.6</ele>
        <time>2018-08-11T12:18:23Z</time>
      </trkpt>
      <trkpt lat="61.103112143381" lon="13.530338325415">
        <ele>501.8</ele>
        <time>2018-08-11T12:18:24Z</time>
      </trkpt>
      <trkpt lat="61.103121028195" lon="13.53077041236">
        <ele>503.4</ele>
        <time>2018-08-11T12:18:28Z</time>
      </trkpt>
      <trkpt lat="61.103001167025" lon="13.531081632307">
        <ele>503.2</ele>
        <time>2018-08-11T12:18:32Z</time>
      </trkpt>
      <trkpt lat="61.102866218435" lon="13.531196045242">
        <ele>503</ele>
        <time>2018-08-11T12:18:35Z</time>
      </trkpt>
      <trkpt lat="61.102772173517" lon="13.531284558106">
        <ele>502.6</ele>
        <time>2018-08-11T12:18:37Z</time>
      </trkpt>
      <trkpt lat="61.102639320402" lon="13.531547917404">
        <ele>502</ele>
        <time>2018-08-11T12:18:41Z</time>
      </trkpt>
      <trkpt lat="61.102572265202" lon="13.531695019749">
        <ele>501.6</ele>
        <time>2018-08-11T12:18:43Z</time>
      </trkpt>
      <trkpt lat="61.102401693537" lon="13.531865339957">
        <ele>500.8</ele>
        <time>2018-08-11T12:18:46Z</time>
      </trkpt>
      <trkpt lat="61.102281664729" lon="13.531992158104">
        <ele>499.8</ele>
        <time>2018-08-11T12:18:48Z</time>
      </trkpt>
      <trkpt lat="61.102131796357" lon="13.53224646495">
        <ele>498</ele>
        <time>2018-08-11T12:18:51Z</time>
      </trkpt>
      <trkpt lat="61.102087623744" lon="13.532350819605">
        <ele>497.6</ele>
        <time>2018-08-11T12:18:52Z</time>
      </trkpt>
      <trkpt lat="61.101976815026" lon="13.532749043674">
        <ele>496.4</ele>
        <time>2018-08-11T12:18:56Z</time>
      </trkpt>
      <trkpt lat="61.101861060987" lon="13.533131425952">
        <ele>495.6</ele>
        <time>2018-08-11T12:19:00Z</time>
      </trkpt>
      <trkpt lat="61.101872208914" lon="13.533567536209">
        <ele>495.6</ele>
        <time>2018-08-11T12:19:04Z</time>
      </trkpt>
      <trkpt lat="61.10188595523" lon="13.53366468243">
        <ele>495.8</ele>
        <time>2018-08-11T12:19:05Z</time>
      </trkpt>
      <trkpt lat="61.10198653803" lon="13.53399995843">
        <ele>496.6</ele>
        <time>2018-08-11T12:19:09Z</time>
      </trkpt>
      <trkpt lat="61.102063819148" lon="13.534275471483">
        <ele>496.4</ele>
        <time>2018-08-11T12:19:12Z</time>
      </trkpt>
      <trkpt lat="61.102120732249" lon="13.534456269066">
        <ele>496.6</ele>
        <time>2018-08-11T12:19:14Z</time>
      </trkpt>
      <trkpt lat="61.10215920517" lon="13.53485072128">
        <ele>498.8</ele>
        <time>2018-08-11T12:19:18Z</time>
      </trkpt>
      <trkpt lat="61.102189547648" lon="13.535271408841">
        <ele>500.4</ele>
        <time>2018-08-11T12:19:22Z</time>
      </trkpt>
      <trkpt lat="61.102176136608" lon="13.535722187423">
        <ele>501.8</ele>
        <time>2018-08-11T12:19:26Z</time>
      </trkpt>
      <trkpt lat="61.102144536845" lon="13.535923855937">
        <ele>501.8</ele>
        <time>2018-08-11T12:19:28Z</time>
      </trkpt>
      <trkpt lat="61.102001960726" lon="13.536234656789">
        <ele>500.8</ele>
        <time>2018-08-11T12:19:32Z</time>
      </trkpt>
      <trkpt lat="61.101908418722" lon="13.536594240299">
        <ele>500.4</ele>
        <time>2018-08-11T12:19:36Z</time>
      </trkpt>
      <trkpt lat="61.101883775936" lon="13.536986345581">
        <ele>500</ele>
        <time>2018-08-11T12:19:40Z</time>
      </trkpt>
      <trkpt lat="61.101866425403" lon="13.537406111133">
        <ele>498.4</ele>
        <time>2018-08-11T12:19:44Z</time>
      </trkpt>
      <trkpt lat="61.101847901404" lon="13.537746332454">
        <ele>497.2</ele>
        <time>2018-08-11T12:19:47Z</time>
      </trkpt>
      <trkpt lat="61.101901461745" lon="13.538108095258">
        <ele>496.8</ele>
        <time>2018-08-11T12:19:50Z</time>
      </trkpt>
      <trkpt lat="61.101947897471" lon="13.53832334245">
        <ele>496.2</ele>
        <time>2018-08-11T12:19:52Z</time>
      </trkpt>
      <trkpt lat="61.101996847767" lon="13.538578319848">
        <ele>495.6</ele>
        <time>2018-08-11T12:19:54Z</time>
      </trkpt>
      <trkpt lat="61.102082175509" lon="13.538998420676">
        <ele>494.6</ele>
        <time>2018-08-11T12:19:57Z</time>
      </trkpt>
      <trkpt lat="61.102143363379" lon="13.539264126906">
        <ele>493.8</ele>
        <time>2018-08-11T12:19:59Z</time>
      </trkpt>
      <trkpt lat="61.102237575935" lon="13.539646676822">
        <ele>493.2</ele>
        <time>2018-08-11T12:20:02Z</time>
      </trkpt>
      <trkpt lat="61.10232851955" lon="13.540042134864">
        <ele>493</ele>
        <time>2018-08-11T12:20:05Z</time>
      </trkpt>
      <trkpt lat="61.10236959086" lon="13.540283952679">
        <ele>492.8</ele>
        <time>2018-08-11T12:20:07Z</time>
      </trkpt>
      <trkpt lat="61.102406555039" lon="13.540505905391">
        <ele>492.4</ele>
        <time>2018-08-11T12:20:09Z</time>
      </trkpt>
      <trkpt lat="61.102495235541" lon="13.5408672491">
        <ele>490.8</ele>
        <time>2018-08-11T12:20:12Z</time>
      </trkpt>
      <trkpt lat="61.102583413129" lon="13.541276537277">
        <ele>489.8</ele>
        <time>2018-08-11T12:20:16Z</time>
      </trkpt>
      <trkpt lat="61.102686761956" lon="13.541675934812">
        <ele>488</ele>
        <time>2018-08-11T12:20:21Z</time>
      </trkpt>
      <trkpt lat="61.102797989769" lon="13.542014563572">
        <ele>486.6</ele>
        <time>2018-08-11T12:20:24Z</time>
      </trkpt>
      <trkpt lat="61.102830176265" lon="13.542144566841">
        <ele>486.2</ele>
        <time>2018-08-11T12:20:25Z</time>
      </trkpt>
      <trkpt lat="61.102900416587" lon="13.54251345426">
        <ele>485.2</ele>
        <time>2018-08-11T12:20:28Z</time>
      </trkpt>
      <trkpt lat="61.102954312204" lon="13.542791062788">
        <ele>484.2</ele>
        <time>2018-08-11T12:20:30Z</time>
      </trkpt>
      <trkpt lat="61.103085321301" lon="13.543095661034">
        <ele>482.8</ele>
        <time>2018-08-11T12:20:33Z</time>
      </trkpt>
      <trkpt lat="61.103201997349" lon="13.543478713864">
        <ele>481</ele>
        <time>2018-08-11T12:20:37Z</time>
      </trkpt>
      <trkpt lat="61.10323208837" lon="13.543580051035">
        <ele>480.6</ele>
        <time>2018-08-11T12:20:38Z</time>
      </trkpt>
      <trkpt lat="61.103337029758" lon="13.543872830802">
        <ele>479</ele>
        <time>2018-08-11T12:20:41Z</time>
      </trkpt>
      <trkpt lat="61.10339134447" lon="13.544310952715">
        <ele>477.2</ele>
        <time>2018-08-11T12:20:45Z</time>
      </trkpt>
      <trkpt lat="61.103271818576" lon="13.544748823171">
        <ele>475.6</ele>
        <time>2018-08-11T12:20:49Z</time>
      </trkpt>
      <trkpt lat="61.10321532457" lon="13.544850998532">
        <ele>475.2</ele>
        <time>2018-08-11T12:20:50Z</time>
      </trkpt>
      <trkpt lat="61.103035700453" lon="13.545128690879">
        <ele>476.8</ele>
        <time>2018-08-11T12:20:53Z</time>
      </trkpt>
      <trkpt lat="61.102861943666" lon="13.545381824259">
        <ele>477.2</ele>
        <time>2018-08-11T12:20:56Z</time>
      </trkpt>
      <trkpt lat="61.102706878516" lon="13.545627413929">
        <ele>477.6</ele>
        <time>2018-08-11T12:20:59Z</time>
      </trkpt>
      <trkpt lat="61.102545024027" lon="13.545858838188">
        <ele>477.8</ele>
        <time>2018-08-11T12:21:02Z</time>
      </trkpt>
      <trkpt lat="61.10239557475" lon="13.546097303243">
        <ele>478.2</ele>
        <time>2018-08-11T12:21:05Z</time>
      </trkpt>
      <trkpt lat="61.102245119645" lon="13.546315148824">
        <ele>478.2</ele>
        <time>2018-08-11T12:21:08Z</time>
      </trkpt>
      <trkpt lat="61.102086031183" lon="13.546538275002">
        <ele>478</ele>
        <time>2018-08-11T12:21:11Z</time>
      </trkpt>
      <trkpt lat="61.101915459518" lon="13.54678403231">
        <ele>478.2</ele>
        <time>2018-08-11T12:21:14Z</time>
      </trkpt>
      <trkpt lat="61.101725274207" lon="13.547067256711">
        <ele>478</ele>
        <time>2018-08-11T12:21:17Z</time>
      </trkpt>
      <trkpt lat="61.101523773331" lon="13.54736238341">
        <ele>478.4</ele>
        <time>2018-08-11T12:21:20Z</time>
      </trkpt>
      <trkpt lat="61.101317410953" lon="13.547664215629">
        <ele>478.8</ele>
        <time>2018-08-11T12:21:23Z</time>
      </trkpt>
      <trkpt lat="61.101118927561" lon="13.547974010653">
        <ele>479.2</ele>
        <time>2018-08-11T12:21:26Z</time>
      </trkpt>
      <trkpt lat="61.100932262648" lon="13.548310711576">
        <ele>479.2</ele>
        <time>2018-08-11T12:21:29Z</time>
      </trkpt>
      <trkpt lat="61.100750543056" lon="13.548662164643">
        <ele>478.6</ele>
        <time>2018-08-11T12:21:32Z</time>
      </trkpt>
      <trkpt lat="61.100568236731" lon="13.549063322377">
        <ele>479.4</ele>
        <time>2018-08-11T12:21:35Z</time>
      </trkpt>
      <trkpt lat="61.100450051941" lon="13.549343529294">
        <ele>479.8</ele>
        <time>2018-08-11T12:21:37Z</time>
      </trkpt>
      <trkpt lat="61.100283922683" lon="13.549755667317">
        <ele>480.2</ele>
        <time>2018-08-11T12:21:40Z</time>
      </trkpt>
      <trkpt lat="61.100150147559" lon="13.550151460635">
        <ele>480.4</ele>
        <time>2018-08-11T12:21:43Z</time>
      </trkpt>
      <trkpt lat="61.100025089611" lon="13.550540464614">
        <ele>481</ele>
        <time>2018-08-11T12:21:46Z</time>
      </trkpt>
      <trkpt lat="61.099899947844" lon="13.550978502708">
        <ele>481.4</ele>
        <time>2018-08-11T12:21:49Z</time>
      </trkpt>
      <trkpt lat="61.099771118041" lon="13.55144101595">
        <ele>481.6</ele>
        <time>2018-08-11T12:21:52Z</time>
      </trkpt>
      <trkpt lat="61.099639689849" lon="13.551919119526">
        <ele>482.2</ele>
        <time>2018-08-11T12:21:55Z</time>
      </trkpt>
      <trkpt lat="61.099542292171" lon="13.552239224287">
        <ele>482.4</ele>
        <time>2018-08-11T12:21:57Z</time>
      </trkpt>
      <trkpt lat="61.099400554242" lon="13.552693187991">
        <ele>482.2</ele>
        <time>2018-08-11T12:22:00Z</time>
      </trkpt>
      <trkpt lat="61.099267365851" lon="13.553146900238">
        <ele>482</ele>
        <time>2018-08-11T12:22:03Z</time>
      </trkpt>
      <trkpt lat="61.099131746709" lon="13.553610419308">
        <ele>481.8</ele>
        <time>2018-08-11T12:22:06Z</time>
      </trkpt>
      <trkpt lat="61.098993445359" lon="13.554068406324">
        <ele>481.6</ele>
        <time>2018-08-11T12:22:09Z</time>
      </trkpt>
      <trkpt lat="61.098862520081" lon="13.554485489668">
        <ele>481.6</ele>
        <time>2018-08-11T12:22:12Z</time>
      </trkpt>
      <trkpt lat="61.098734193192" lon="13.554885557755">
        <ele>481.2</ele>
        <time>2018-08-11T12:22:15Z</time>
      </trkpt>
      <trkpt lat="61.098583821906" lon="13.555269281137">
        <ele>481</ele>
        <time>2018-08-11T12:22:18Z</time>
      </trkpt>
      <trkpt lat="61.098418949933" lon="13.555663062799">
        <ele>480.2</ele>
        <time>2018-08-11T12:22:21Z</time>
      </trkpt>
      <trkpt lat="61.098245947517" lon="13.556037063177">
        <ele>480.2</ele>
        <time>2018-08-11T12:22:24Z</time>
      </trkpt>
      <trkpt lat="61.098070262893" lon="13.556388180968">
        <ele>479.6</ele>
        <time>2018-08-11T12:22:27Z</time>
      </trkpt>
      <trkpt lat="61.097885106722" lon="13.556715410344">
        <ele>478.4</ele>
        <time>2018-08-11T12:22:30Z</time>
      </trkpt>
      <trkpt lat="61.097704309139" lon="13.557011039957">
        <ele>477.2</ele>
        <time>2018-08-11T12:22:33Z</time>
      </trkpt>
      <trkpt lat="61.097520326434" lon="13.557275405083">
        <ele>475.6</ele>
        <time>2018-08-11T12:22:36Z</time>
      </trkpt>
      <trkpt lat="61.097336427548" lon="13.557543374426">
        <ele>473.6</ele>
        <time>2018-08-11T12:22:39Z</time>
      </trkpt>
      <trkpt lat="61.097143224753" lon="13.557831544148">
        <ele>471.2</ele>
        <time>2018-08-11T12:22:42Z</time>
      </trkpt>
      <trkpt lat="61.096937532927" lon="13.55814485957">
        <ele>469.4</ele>
        <time>2018-08-11T12:22:45Z</time>
      </trkpt>
      <trkpt lat="61.096724632667" lon="13.558447613798">
        <ele>468.2</ele>
        <time>2018-08-11T12:22:48Z</time>
      </trkpt>
      <trkpt lat="61.09651148095" lon="13.558750619483">
        <ele>468.2</ele>
        <time>2018-08-11T12:22:51Z</time>
      </trkpt>
      <trkpt lat="61.096298832147" lon="13.5590559721">
        <ele>468.2</ele>
        <time>2018-08-11T12:22:54Z</time>
      </trkpt>
      <trkpt lat="61.096083333498" lon="13.559362833459">
        <ele>469.2</ele>
        <time>2018-08-11T12:22:57Z</time>
      </trkpt>
      <trkpt lat="61.095885269201" lon="13.559655780864">
        <ele>469.4</ele>
        <time>2018-08-11T12:23:00Z</time>
      </trkpt>
      <trkpt lat="61.095691898768" lon="13.55994110074">
        <ele>469.2</ele>
        <time>2018-08-11T12:23:03Z</time>
      </trkpt>
      <trkpt lat="61.095497438688" lon="13.560230192471">
        <ele>468.6</ele>
        <time>2018-08-11T12:23:06Z</time>
      </trkpt>
      <trkpt lat="61.095299625848" lon="13.560521882591">
        <ele>468.6</ele>
        <time>2018-08-11T12:23:09Z</time>
      </trkpt>
      <trkpt lat="61.09511170365" lon="13.560832767262">
        <ele>467.8</ele>
        <time>2018-08-11T12:23:12Z</time>
      </trkpt>
      <trkpt lat="61.094927720945" lon="13.561116410758">
        <ele>467</ele>
        <time>2018-08-11T12:23:15Z</time>
      </trkpt>
      <trkpt lat="61.094739966385" lon="13.561393516372">
        <ele>465.4</ele>
        <time>2018-08-11T12:23:18Z</time>
      </trkpt>
      <trkpt lat="61.094533771645" lon="13.561661401896">
        <ele>466.2</ele>
        <time>2018-08-11T12:23:21Z</time>
      </trkpt>
      <trkpt lat="61.094334952977" lon="13.561941524994">
        <ele>466.4</ele>
        <time>2018-08-11T12:23:24Z</time>
      </trkpt>
      <trkpt lat="61.094140157621" lon="13.562217373323">
        <ele>466.8</ele>
        <time>2018-08-11T12:23:27Z</time>
      </trkpt>
      <trkpt lat="61.093949050301" lon="13.562493137833">
        <ele>467.4</ele>
        <time>2018-08-11T12:23:30Z</time>
      </trkpt>
      <trkpt lat="61.093759116447" lon="13.562767728877">
        <ele>467.8</ele>
        <time>2018-08-11T12:23:33Z</time>
      </trkpt>
      <trkpt lat="61.093574714647" lon="13.563037290781">
        <ele>468.4</ele>
        <time>2018-08-11T12:23:36Z</time>
      </trkpt>
      <trkpt lat="61.093390648123" lon="13.563313558205">
        <ele>468</ele>
        <time>2018-08-11T12:23:39Z</time>
      </trkpt>
      <trkpt lat="61.093195768948" lon="13.56360482923">
        <ele>467.2</ele>
        <time>2018-08-11T12:23:42Z</time>
      </trkpt>
      <trkpt lat="61.092988400742" lon="13.563895345884">
        <ele>466.8</ele>
        <time>2018-08-11T12:23:45Z</time>
      </trkpt>
      <trkpt lat="61.092781367812" lon="13.564194412076">
        <ele>466.4</ele>
        <time>2018-08-11T12:23:48Z</time>
      </trkpt>
      <trkpt lat="61.092589170845" lon="13.564482665617">
        <ele>466.4</ele>
        <time>2018-08-11T12:23:51Z</time>
      </trkpt>
      <trkpt lat="61.092403763217" lon="13.564740492861">
        <ele>466</ele>
        <time>2018-08-11T12:23:54Z</time>
      </trkpt>
      <trkpt lat="61.092218439408" lon="13.564999493571">
        <ele>465.8</ele>
        <time>2018-08-11T12:23:57Z</time>
      </trkpt>
      <trkpt lat="61.092044850259" lon="13.565255979711">
        <ele>466</ele>
        <time>2018-08-11T12:24:00Z</time>
      </trkpt>
      <trkpt lat="61.091877798992" lon="13.565498468078">
        <ele>466.6</ele>
        <time>2018-08-11T12:24:03Z</time>
      </trkpt>
      <trkpt lat="61.091707059689" lon="13.56574640468">
        <ele>468.8</ele>
        <time>2018-08-11T12:24:06Z</time>
      </trkpt>
      <trkpt lat="61.091540343698" lon="13.565988054857">
        <ele>469.4</ele>
        <time>2018-08-11T12:24:09Z</time>
      </trkpt>
      <trkpt lat="61.091372789517" lon="13.566227022826">
        <ele>470.6</ele>
        <time>2018-08-11T12:24:12Z</time>
      </trkpt>
      <trkpt lat="61.091207330811" lon="13.566463224768">
        <ele>471.2</ele>
        <time>2018-08-11T12:24:15Z</time>
      </trkpt>
      <trkpt lat="61.091042542657" lon="13.566699259072">
        <ele>471.6</ele>
        <time>2018-08-11T12:24:18Z</time>
      </trkpt>
      <trkpt lat="61.09087632958" lon="13.566938059403">
        <ele>472</ele>
        <time>2018-08-11T12:24:21Z</time>
      </trkpt>
      <trkpt lat="61.090707182838" lon="13.567187085652">
        <ele>471.8</ele>
        <time>2018-08-11T12:24:24Z</time>
      </trkpt>
      <trkpt lat="61.090539461019" lon="13.567432088589">
        <ele>471.8</ele>
        <time>2018-08-11T12:24:27Z</time>
      </trkpt>
      <trkpt lat="61.09037341558" lon="13.567675750422">
        <ele>471.4</ele>
        <time>2018-08-11T12:24:30Z</time>
      </trkpt>
      <trkpt lat="61.090202005725" lon="13.567928967621">
        <ele>470.8</ele>
        <time>2018-08-11T12:24:33Z</time>
      </trkpt>
      <trkpt lat="61.090015676088" lon="13.568203223389">
        <ele>470.2</ele>
        <time>2018-08-11T12:24:36Z</time>
      </trkpt>
      <trkpt lat="61.0898185338" lon="13.568497595717">
        <ele>469.4</ele>
        <time>2018-08-11T12:24:39Z</time>
      </trkpt>
      <trkpt lat="61.089611081775" lon="13.568800601402">
        <ele>468.8</ele>
        <time>2018-08-11T12:24:42Z</time>
      </trkpt>
      <trkpt lat="61.089395750764" lon="13.569112910996">
        <ele>467.8</ele>
        <time>2018-08-11T12:24:45Z</time>
      </trkpt>
      <trkpt lat="61.089247558772" lon="13.569325811256">
        <ele>467.2</ele>
        <time>2018-08-11T12:24:47Z</time>
      </trkpt>
      <trkpt lat="61.089095930201" lon="13.569546003769">
        <ele>466.6</ele>
        <time>2018-08-11T12:24:49Z</time>
      </trkpt>
      <trkpt lat="61.088939356309" lon="13.569769968137">
        <ele>465.8</ele>
        <time>2018-08-11T12:24:51Z</time>
      </trkpt>
      <trkpt lat="61.088781860408" lon="13.56999267522">
        <ele>465.4</ele>
        <time>2018-08-11T12:24:53Z</time>
      </trkpt>
      <trkpt lat="61.088631237665" lon="13.570211778086">
        <ele>465.6</ele>
        <time>2018-08-11T12:24:55Z</time>
      </trkpt>
      <trkpt lat="61.088419091776" lon="13.570521489291">
        <ele>466</ele>
        <time>2018-08-11T12:24:58Z</time>
      </trkpt>
      <trkpt lat="61.088219183461" lon="13.570815023429">
        <ele>466.2</ele>
        <time>2018-08-11T12:25:01Z</time>
      </trkpt>
      <trkpt lat="61.088022795544" lon="13.571097577278">
        <ele>466.2</ele>
        <time>2018-08-11T12:25:04Z</time>
      </trkpt>
      <trkpt lat="61.087834286613" lon="13.571376443091">
        <ele>466.4</ele>
        <time>2018-08-11T12:25:07Z</time>
      </trkpt>
      <trkpt lat="61.087649549537" lon="13.571646256452">
        <ele>466.8</ele>
        <time>2018-08-11T12:25:10Z</time>
      </trkpt>
      <trkpt lat="61.087472020895" lon="13.571909531931">
        <ele>467</ele>
        <time>2018-08-11T12:25:13Z</time>
      </trkpt>
      <trkpt lat="61.087301365411" lon="13.572158222904">
        <ele>467.2</ele>
        <time>2018-08-11T12:25:16Z</time>
      </trkpt>
      <trkpt lat="61.087140935845" lon="13.572397190873">
        <ele>467.2</ele>
        <time>2018-08-11T12:25:19Z</time>
      </trkpt>
      <trkpt lat="61.086983607582" lon="13.57263381191">
        <ele>466.6</ele>
        <time>2018-08-11T12:25:22Z</time>
      </trkpt>
      <trkpt lat="61.086831895192" lon="13.572885604186">
        <ele>466.4</ele>
        <time>2018-08-11T12:25:25Z</time>
      </trkpt>
      <trkpt lat="61.086674147834" lon="13.573121806128">
        <ele>466</ele>
        <time>2018-08-11T12:25:28Z</time>
      </trkpt>
      <trkpt lat="61.08650516873" lon="13.573357756613">
        <ele>466</ele>
        <time>2018-08-11T12:25:31Z</time>
      </trkpt>
      <trkpt lat="61.086331076667" lon="13.573612650192">
        <ele>466.2</ele>
        <time>2018-08-11T12:25:34Z</time>
      </trkpt>
      <trkpt lat="61.086156565509" lon="13.573855976749">
        <ele>466.4</ele>
        <time>2018-08-11T12:25:37Z</time>
      </trkpt>
      <trkpt lat="61.085984988016" lon="13.574087736284">
        <ele>467.2</ele>
        <time>2018-08-11T12:25:40Z</time>
      </trkpt>
      <trkpt lat="61.085818607301" lon="13.574294098662">
        <ele>468</ele>
        <time>2018-08-11T12:25:43Z</time>
      </trkpt>
      <trkpt lat="61.085662452504" lon="13.57449291733">
        <ele>468.4</ele>
        <time>2018-08-11T12:25:46Z</time>
      </trkpt>
      <trkpt lat="61.0854599458" lon="13.574748900556">
        <ele>468.4</ele>
        <time>2018-08-11T12:25:50Z</time>
      </trkpt>
      <trkpt lat="61.085300605881" lon="13.574940343152">
        <ele>469.2</ele>
        <time>2018-08-11T12:25:53Z</time>
      </trkpt>
      <trkpt lat="61.08514227179" lon="13.575122062744">
        <ele>469.8</ele>
        <time>2018-08-11T12:25:56Z</time>
      </trkpt>
      <trkpt lat="61.084935741774" lon="13.575342925809">
        <ele>470</ele>
        <time>2018-08-11T12:26:00Z</time>
      </trkpt>
      <trkpt lat="61.084733570346" lon="13.575553479137">
        <ele>470.6</ele>
        <time>2018-08-11T12:26:04Z</time>
      </trkpt>
      <trkpt lat="61.084569620382" lon="13.575754644737">
        <ele>469.8</ele>
        <time>2018-08-11T12:26:07Z</time>
      </trkpt>
      <trkpt lat="61.084390331541" lon="13.575973663784">
        <ele>468.2</ele>
        <time>2018-08-11T12:26:10Z</time>
      </trkpt>
      <trkpt lat="61.084196122918" lon="13.576205171862">
        <ele>465.8</ele>
        <time>2018-08-11T12:26:13Z</time>
      </trkpt>
      <trkpt lat="61.084004764141" lon="13.576427627488">
        <ele>463.8</ele>
        <time>2018-08-11T12:26:16Z</time>
      </trkpt>
      <trkpt lat="61.083847016783" lon="13.576627954898">
        <ele>462.6</ele>
        <time>2018-08-11T12:26:19Z</time>
      </trkpt>
      <trkpt lat="61.083775854452" lon="13.576748235163">
        <ele>462.4</ele>
        <time>2018-08-11T12:26:21Z</time>
      </trkpt>
      <trkpt lat="61.083860511642" lon="13.577082170059">
        <ele>459.2</ele>
        <time>2018-08-11T12:26:26Z</time>
      </trkpt>
      <trkpt lat="61.083950952343" lon="13.577158864444">
        <ele>457.6</ele>
        <time>2018-08-11T12:26:28Z</time>
      </trkpt>
      <trkpt lat="61.08411297447" lon="13.577314767784">
        <ele>456.6</ele>
        <time>2018-08-11T12:26:31Z</time>
      </trkpt>
      <trkpt lat="61.08429653808" lon="13.577636884201">
        <ele>454.8</ele>
        <time>2018-08-11T12:26:35Z</time>
      </trkpt>
      <trkpt lat="61.084377339596" lon="13.578020356126">
        <ele>453.6</ele>
        <time>2018-08-11T12:26:38Z</time>
      </trkpt>
      <trkpt lat="61.084341381245" lon="13.578480270979">
        <ele>452</ele>
        <time>2018-08-11T12:26:41Z</time>
      </trkpt>
      <trkpt lat="61.084316235545" lon="13.578629636437">
        <ele>452.2</ele>
        <time>2018-08-11T12:26:42Z</time>
      </trkpt>
      <trkpt lat="61.084238116237" lon="13.579051665102">
        <ele>452.2</ele>
        <time>2018-08-11T12:26:45Z</time>
      </trkpt>
      <trkpt lat="61.084169468476" lon="13.579446452592">
        <ele>452.2</ele>
        <time>2018-08-11T12:26:48Z</time>
      </trkpt>
      <trkpt lat="61.084099647249" lon="13.579847358869">
        <ele>452.6</ele>
        <time>2018-08-11T12:26:51Z</time>
      </trkpt>
      <trkpt lat="61.084029574565" lon="13.580261760005">
        <ele>453</ele>
        <time>2018-08-11T12:26:54Z</time>
      </trkpt>
      <trkpt lat="61.083952628723" lon="13.580669958535">
        <ele>453.6</ele>
        <time>2018-08-11T12:26:57Z</time>
      </trkpt>
      <trkpt lat="61.083881885487" lon="13.581052173175">
        <ele>454</ele>
        <time>2018-08-11T12:27:00Z</time>
      </trkpt>
      <trkpt lat="61.083856153054" lon="13.58116826249">
        <ele>453.8</ele>
        <time>2018-08-11T12:27:01Z</time>
      </trkpt>
      <trkpt lat="61.083772417873" lon="13.581508232354">
        <ele>453.8</ele>
        <time>2018-08-11T12:27:04Z</time>
      </trkpt>
      <trkpt lat="61.083694382384" lon="13.581858260498">
        <ele>453.4</ele>
        <time>2018-08-11T12:27:07Z</time>
      </trkpt>
      <trkpt lat="61.083635541446" lon="13.582222621691">
        <ele>453</ele>
        <time>2018-08-11T12:27:10Z</time>
      </trkpt>
      <trkpt lat="61.083571587549" lon="13.58257893626">
        <ele>452.4</ele>
        <time>2018-08-11T12:27:13Z</time>
      </trkpt>
      <trkpt lat="61.083499503209" lon="13.582948829507">
        <ele>451.4</ele>
        <time>2018-08-11T12:27:16Z</time>
      </trkpt>
      <trkpt lat="61.083425407213" lon="13.583343868454">
        <ele>451</ele>
        <time>2018-08-11T12:27:19Z</time>
      </trkpt>
      <trkpt lat="61.083351814131" lon="13.583747876034">
        <ele>451.2</ele>
        <time>2018-08-11T12:27:22Z</time>
      </trkpt>
      <trkpt lat="61.083285094207" lon="13.584148279397">
        <ele>451.6</ele>
        <time>2018-08-11T12:27:25Z</time>
      </trkpt>
      <trkpt lat="61.083222062319" lon="13.584537702471">
        <ele>451.6</ele>
        <time>2018-08-11T12:27:28Z</time>
      </trkpt>
      <trkpt lat="61.083153666015" lon="13.584924359518">
        <ele>452</ele>
        <time>2018-08-11T12:27:31Z</time>
      </trkpt>
      <trkpt lat="61.083077390725" lon="13.585319230827">
        <ele>452.2</ele>
        <time>2018-08-11T12:27:34Z</time>
      </trkpt>
      <trkpt lat="61.083001199254" lon="13.585695829594">
        <ele>452.4</ele>
        <time>2018-08-11T12:27:37Z</time>
      </trkpt>
      <trkpt lat="61.082921990299" lon="13.58608089408">
        <ele>452.6</ele>
        <time>2018-08-11T12:27:40Z</time>
      </trkpt>
      <trkpt lat="61.082844793" lon="13.586479285787">
        <ele>452.8</ele>
        <time>2018-08-11T12:27:43Z</time>
      </trkpt>
      <trkpt lat="61.082776312877" lon="13.586871810164">
        <ele>452.8</ele>
        <time>2018-08-11T12:27:46Z</time>
      </trkpt>
      <trkpt lat="61.082712694256" lon="13.587264083084">
        <ele>452.8</ele>
        <time>2018-08-11T12:27:49Z</time>
      </trkpt>
      <trkpt lat="61.082644800866" lon="13.587649315208">
        <ele>452.6</ele>
        <time>2018-08-11T12:27:52Z</time>
      </trkpt>
      <trkpt lat="61.082614374569" lon="13.587773534966">
        <ele>452.4</ele>
        <time>2018-08-11T12:27:53Z</time>
      </trkpt>
      <trkpt lat="61.08248940044" lon="13.588116941409">
        <ele>452.2</ele>
        <time>2018-08-11T12:27:56Z</time>
      </trkpt>
      <trkpt lat="61.082370628917" lon="13.588448110278">
        <ele>451.8</ele>
        <time>2018-08-11T12:27:59Z</time>
      </trkpt>
      <trkpt lat="61.082257976181" lon="13.588775842568">
        <ele>452</ele>
        <time>2018-08-11T12:28:02Z</time>
      </trkpt>
      <trkpt lat="61.082131325672" lon="13.589083625936">
        <ele>452.4</ele>
        <time>2018-08-11T12:28:05Z</time>
      </trkpt>
      <trkpt lat="61.081968800631" lon="13.589413369882">
        <ele>453.2</ele>
        <time>2018-08-11T12:28:09Z</time>
      </trkpt>
      <trkpt lat="61.081860590302" lon="13.589654181869">
        <ele>454.8</ele>
        <time>2018-08-11T12:28:13Z</time>
      </trkpt>
      <trkpt lat="61.081800324441" lon="13.589889210345">
        <ele>455.6</ele>
        <time>2018-08-11T12:28:16Z</time>
      </trkpt>
      <trkpt lat="61.081724803522" lon="13.590303527662">
        <ele>455.8</ele>
        <time>2018-08-11T12:28:21Z</time>
      </trkpt>
      <trkpt lat="61.081689348085" lon="13.590616172532">
        <ele>455.8</ele>
        <time>2018-08-11T12:28:24Z</time>
      </trkpt>
      <trkpt lat="61.081677697244" lon="13.591031998591">
        <ele>456.2</ele>
        <time>2018-08-11T12:28:27Z</time>
      </trkpt>
      <trkpt lat="61.081656491037" lon="13.591464001717">
        <ele>455.8</ele>
        <time>2018-08-11T12:28:30Z</time>
      </trkpt>
      <trkpt lat="61.081602511601" lon="13.59190966734">
        <ele>454.8</ele>
        <time>2018-08-11T12:28:33Z</time>
      </trkpt>
      <trkpt lat="61.081570828019" lon="13.592047046681">
        <ele>454.4</ele>
        <time>2018-08-11T12:28:34Z</time>
      </trkpt>
      <trkpt lat="61.081424815321" lon="13.592369079279">
        <ele>454.4</ele>
        <time>2018-08-11T12:28:37Z</time>
      </trkpt>
      <trkpt lat="61.08126312847" lon="13.592636545708">
        <ele>455.2</ele>
        <time>2018-08-11T12:28:40Z</time>
      </trkpt>
      <trkpt lat="61.081095658108" lon="13.592907616354">
        <ele>455.4</ele>
        <time>2018-08-11T12:28:43Z</time>
      </trkpt>
      <trkpt lat="61.080936737284" lon="13.593156726422">
        <ele>455.4</ele>
        <time>2018-08-11T12:28:46Z</time>
      </trkpt>
      <trkpt lat="61.080785443989" lon="13.593398460418">
        <ele>455.8</ele>
        <time>2018-08-11T12:28:49Z</time>
      </trkpt>
      <trkpt lat="61.080597437972" lon="13.593691743099">
        <ele>456</ele>
        <time>2018-08-11T12:28:53Z</time>
      </trkpt>
      <trkpt lat="61.080395685639" lon="13.59395485094">
        <ele>456</ele>
        <time>2018-08-11T12:28:57Z</time>
      </trkpt>
      <trkpt lat="61.080239363204" lon="13.594150819762">
        <ele>456.2</ele>
        <time>2018-08-11T12:29:00Z</time>
      </trkpt>
      <trkpt lat="61.080046998599" lon="13.594421638951">
        <ele>456</ele>
        <time>2018-08-11T12:29:04Z</time>
      </trkpt>
      <trkpt lat="61.080003496538" lon="13.594503362476">
        <ele>456</ele>
        <time>2018-08-11T12:29:05Z</time>
      </trkpt>
      <trkpt lat="61.07986167479" lon="13.594881637623">
        <ele>456.6</ele>
        <time>2018-08-11T12:29:09Z</time>
      </trkpt>
      <trkpt lat="61.07982227986" lon="13.594961014216">
        <ele>456.8</ele>
        <time>2018-08-11T12:29:10Z</time>
      </trkpt>
      <trkpt lat="61.079614241102" lon="13.595143655817">
        <ele>456.4</ele>
        <time>2018-08-11T12:29:14Z</time>
      </trkpt>
      <trkpt lat="61.079452302794" lon="13.595200317461">
        <ele>454.6</ele>
        <time>2018-08-11T12:29:17Z</time>
      </trkpt>
      <trkpt lat="61.079246191873" lon="13.595348341815">
        <ele>452.4</ele>
        <time>2018-08-11T12:29:21Z</time>
      </trkpt>
      <trkpt lat="61.079157511371" lon="13.595438363421">
        <ele>451.2</ele>
        <time>2018-08-11T12:29:23Z</time>
      </trkpt>
      <trkpt lat="61.078992723217" lon="13.595705662212">
        <ele>449.8</ele>
        <time>2018-08-11T12:29:27Z</time>
      </trkpt>
      <trkpt lat="61.078921477067" lon="13.596152501301">
        <ele>449.4</ele>
        <time>2018-08-11T12:29:31Z</time>
      </trkpt>
      <trkpt lat="61.078921812343" lon="13.59627915181">
        <ele>450</ele>
        <time>2018-08-11T12:29:32Z</time>
      </trkpt>
      <trkpt lat="61.078917789031" lon="13.596536811416">
        <ele>450.8</ele>
        <time>2018-08-11T12:29:34Z</time>
      </trkpt>
      <trkpt lat="61.078922147619" lon="13.596927743232">
        <ele>451.6</ele>
        <time>2018-08-11T12:29:37Z</time>
      </trkpt>
      <trkpt lat="61.07895140045" lon="13.597293696986">
        <ele>452.4</ele>
        <time>2018-08-11T12:29:40Z</time>
      </trkpt>
      <trkpt lat="61.078989705733" lon="13.597702733706">
        <ele>453</ele>
        <time>2018-08-11T12:29:43Z</time>
      </trkpt>
      <trkpt lat="61.07900420642" lon="13.597987885944">
        <ele>452.8</ele>
        <time>2018-08-11T12:29:45Z</time>
      </trkpt>
      <trkpt lat="61.07898576624" lon="13.598437407241">
        <ele>452.4</ele>
        <time>2018-08-11T12:29:48Z</time>
      </trkpt>
      <trkpt lat="61.078954417934" lon="13.598889191651">
        <ele>452</ele>
        <time>2018-08-11T12:29:51Z</time>
      </trkpt>
      <trkpt lat="61.078907898389" lon="13.59933519255">
        <ele>451.2</ele>
        <time>2018-08-11T12:29:54Z</time>
      </trkpt>
      <trkpt lat="61.078867078536" lon="13.599804327493">
        <ele>451.4</ele>
        <time>2018-08-11T12:29:57Z</time>
      </trkpt>
      <trkpt lat="61.078851907297" lon="13.600258207378">
        <ele>451.8</ele>
        <time>2018-08-11T12:30:00Z</time>
      </trkpt>
      <trkpt lat="61.078865150699" lon="13.600684510812">
        <ele>452</ele>
        <time>2018-08-11T12:30:03Z</time>
      </trkpt>
      <trkpt lat="61.078902114878" lon="13.601075442628">
        <ele>453</ele>
        <time>2018-08-11T12:30:06Z</time>
      </trkpt>
      <trkpt lat="61.078959111798" lon="13.601462770227">
        <ele>454.4</ele>
        <time>2018-08-11T12:30:09Z</time>
      </trkpt>
      <trkpt lat="61.078991214475" lon="13.601891588231">
        <ele>454.8</ele>
        <time>2018-08-11T12:30:12Z</time>
      </trkpt>
      <trkpt lat="61.07895391502" lon="13.602313197801">
        <ele>454.4</ele>
        <time>2018-08-11T12:30:15Z</time>
      </trkpt>
      <trkpt lat="61.078929272234" lon="13.602450996237">
        <ele>454.2</ele>
        <time>2018-08-11T12:30:16Z</time>
      </trkpt>
      <trkpt lat="61.078856433523" lon="13.602891465082">
        <ele>453.6</ele>
        <time>2018-08-11T12:30:19Z</time>
      </trkpt>
      <trkpt lat="61.078790132694" lon="13.60328558202">
        <ele>453.4</ele>
        <time>2018-08-11T12:30:22Z</time>
      </trkpt>
      <trkpt lat="61.078735482706" lon="13.603669808316">
        <ele>452.4</ele>
        <time>2018-08-11T12:30:25Z</time>
      </trkpt>
      <trkpt lat="61.078723496589" lon="13.603799643947">
        <ele>452.4</ele>
        <time>2018-08-11T12:30:26Z</time>
      </trkpt>
      <trkpt lat="61.078733387231" lon="13.604212536341">
        <ele>452.6</ele>
        <time>2018-08-11T12:30:29Z</time>
      </trkpt>
      <trkpt lat="61.078765070813" lon="13.60450095752">
        <ele>452.6</ele>
        <time>2018-08-11T12:30:31Z</time>
      </trkpt>
      <trkpt lat="61.078824917579" lon="13.604972774671">
        <ele>452.4</ele>
        <time>2018-08-11T12:30:34Z</time>
      </trkpt>
      <trkpt lat="61.078859283369" lon="13.605421122502">
        <ele>452</ele>
        <time>2018-08-11T12:30:37Z</time>
      </trkpt>
      <trkpt lat="61.07879968806" lon="13.605862094261">
        <ele>450.6</ele>
        <time>2018-08-11T12:30:40Z</time>
      </trkpt>
      <trkpt lat="61.078721568752" lon="13.606149258155">
        <ele>449.8</ele>
        <time>2018-08-11T12:30:42Z</time>
      </trkpt>
      <trkpt lat="61.078610089482" lon="13.606571789734">
        <ele>449.6</ele>
        <time>2018-08-11T12:30:45Z</time>
      </trkpt>
      <trkpt lat="61.078535825848" lon="13.60700127829">
        <ele>449.6</ele>
        <time>2018-08-11T12:30:48Z</time>
      </trkpt>
      <trkpt lat="61.07851470346" lon="13.607409560639">
        <ele>450.2</ele>
        <time>2018-08-11T12:30:51Z</time>
      </trkpt>
      <trkpt lat="61.078487713742" lon="13.607828488001">
        <ele>449.4</ele>
        <time>2018-08-11T12:30:54Z</time>
      </trkpt>
      <trkpt lat="61.078439350179" lon="13.608248169734">
        <ele>449</ele>
        <time>2018-08-11T12:30:57Z</time>
      </trkpt>
      <trkpt lat="61.078430381546" lon="13.608394014794">
        <ele>448.8</ele>
        <time>2018-08-11T12:30:58Z</time>
      </trkpt>
      <trkpt lat="61.078433901944" lon="13.608846218299">
        <ele>448.2</ele>
        <time>2018-08-11T12:31:01Z</time>
      </trkpt>
      <trkpt lat="61.078428537528" lon="13.609272689371">
        <ele>447.8</ele>
        <time>2018-08-11T12:31:04Z</time>
      </trkpt>
      <trkpt lat="61.078402134543" lon="13.609678708607">
        <ele>447.2</ele>
        <time>2018-08-11T12:31:07Z</time>
      </trkpt>
      <trkpt lat="61.078381682707" lon="13.609936787308">
        <ele>446.6</ele>
        <time>2018-08-11T12:31:09Z</time>
      </trkpt>
      <trkpt lat="61.078363661622" lon="13.610193357267">
        <ele>446</ele>
        <time>2018-08-11T12:31:11Z</time>
      </trkpt>
      <trkpt lat="61.078355950274" lon="13.610587138929">
        <ele>444.8</ele>
        <time>2018-08-11T12:31:15Z</time>
      </trkpt>
      <trkpt lat="61.078401631629" lon="13.610971113768">
        <ele>444.4</ele>
        <time>2018-08-11T12:31:19Z</time>
      </trkpt>
      <trkpt lat="61.078401296353" lon="13.611077982993">
        <ele>444.4</ele>
        <time>2018-08-11T12:31:20Z</time>
      </trkpt>
      <trkpt lat="61.078370702418" lon="13.611518535657">
        <ele>443.6</ele>
        <time>2018-08-11T12:31:24Z</time>
      </trkpt>
      <trkpt lat="61.078368942219" lon="13.61164736546">
        <ele>443.4</ele>
        <time>2018-08-11T12:31:25Z</time>
      </trkpt>
      <trkpt lat="61.078372797893" lon="13.61204299114">
        <ele>442.8</ele>
        <time>2018-08-11T12:31:28Z</time>
      </trkpt>
      <trkpt lat="61.078370367142" lon="13.612438281544">
        <ele>442.6</ele>
        <time>2018-08-11T12:31:31Z</time>
      </trkpt>
      <trkpt lat="61.078374055178" lon="13.612688900354">
        <ele>441.8</ele>
        <time>2018-08-11T12:31:33Z</time>
      </trkpt>
      <trkpt lat="61.078379922508" lon="13.613173793269">
        <ele>441</ele>
        <time>2018-08-11T12:31:37Z</time>
      </trkpt>
      <trkpt lat="61.078404146199" lon="13.613644353135">
        <ele>441</ele>
        <time>2018-08-11T12:31:41Z</time>
      </trkpt>
      <trkpt lat="61.078411186995" lon="13.613737978958">
        <ele>441</ele>
        <time>2018-08-11T12:31:42Z</time>
      </trkpt>
      <trkpt lat="61.078527695405" lon="13.614130335697">
        <ele>440.4</ele>
        <time>2018-08-11T12:31:47Z</time>
      </trkpt>
      <trkpt lat="61.078565246317" lon="13.61426000369">
        <ele>440.4</ele>
        <time>2018-08-11T12:31:49Z</time>
      </trkpt>
      <trkpt lat="61.078743696968" lon="13.614500061306">
        <ele>439.6</ele>
        <time>2018-08-11T12:31:55Z</time>
      </trkpt>
      <trkpt lat="61.078877472092" lon="13.614511544509">
        <ele>438.6</ele>
        <time>2018-08-11T12:31:58Z</time>
      </trkpt>
      <trkpt lat="61.079082744823" lon="13.614447339155">
        <ele>436.8</ele>
        <time>2018-08-11T12:32:02Z</time>
      </trkpt>
      <trkpt lat="61.079136388983" lon="13.614413979193">
        <ele>436.2</ele>
        <time>2018-08-11T12:32:03Z</time>
      </trkpt>
      <trkpt lat="61.07933696785" lon="13.614253968722">
        <ele>434.6</ele>
        <time>2018-08-11T12:32:07Z</time>
      </trkpt>
      <trkpt lat="61.079552885594" lon="13.614042493385">
        <ele>432.6</ele>
        <time>2018-08-11T12:32:11Z</time>
      </trkpt>
      <trkpt lat="61.079724798363" lon="13.613892205918">
        <ele>431.4</ele>
        <time>2018-08-11T12:32:14Z</time>
      </trkpt>
      <trkpt lat="61.079919006986" lon="13.613742589003">
        <ele>429.6</ele>
        <time>2018-08-11T12:32:18Z</time>
      </trkpt>
      <trkpt lat="61.079963766332" lon="13.613716102199">
        <ele>429.2</ele>
        <time>2018-08-11T12:32:19Z</time>
      </trkpt>
      <trkpt lat="61.080156466213" lon="13.613714928733">
        <ele>429</ele>
        <time>2018-08-11T12:32:23Z</time>
      </trkpt>
      <trkpt lat="61.08032687024" lon="13.613924392414">
        <ele>429.8</ele>
        <time>2018-08-11T12:32:27Z</time>
      </trkpt>
      <trkpt lat="61.080362828591" lon="13.614005696844">
        <ele>430.2</ele>
        <time>2018-08-11T12:32:28Z</time>
      </trkpt>
      <trkpt lat="61.080521917053" lon="13.614379445765">
        <ele>430.8</ele>
        <time>2018-08-11T12:32:32Z</time>
      </trkpt>
      <trkpt lat="61.080635240341" lon="13.614680020699">
        <ele>431.2</ele>
        <time>2018-08-11T12:32:35Z</time>
      </trkpt>
      <trkpt lat="61.080692488718" lon="13.614866769431">
        <ele>431.4</ele>
        <time>2018-08-11T12:32:37Z</time>
      </trkpt>
      <trkpt lat="61.080735823141" lon="13.615243452017">
        <ele>431</ele>
        <time>2018-08-11T12:32:41Z</time>
      </trkpt>
      <trkpt lat="61.080768847827" lon="13.615666905605">
        <ele>430.2</ele>
        <time>2018-08-11T12:32:45Z</time>
      </trkpt>
      <trkpt lat="61.080786282179" lon="13.616115337255">
        <ele>429.2</ele>
        <time>2018-08-11T12:32:49Z</time>
      </trkpt>
      <trkpt lat="61.080798184477" lon="13.616503083949">
        <ele>428.6</ele>
        <time>2018-08-11T12:32:52Z</time>
      </trkpt>
      <trkpt lat="61.080786365998" lon="13.616778177907">
        <ele>428.2</ele>
        <time>2018-08-11T12:32:54Z</time>
      </trkpt>
      <trkpt lat="61.080700367704" lon="13.61716517023">
        <ele>428.4</ele>
        <time>2018-08-11T12:32:57Z</time>
      </trkpt>
      <trkpt lat="61.080533232618" lon="13.617430205908">
        <ele>428.2</ele>
        <time>2018-08-11T12:33:00Z</time>
      </trkpt>
      <trkpt lat="61.080412868534" lon="13.617547301051">
        <ele>428.4</ele>
        <time>2018-08-11T12:33:02Z</time>
      </trkpt>
      <trkpt lat="61.080241793955" lon="13.617702030925">
        <ele>428.6</ele>
        <time>2018-08-11T12:33:05Z</time>
      </trkpt>
      <trkpt lat="61.080039790165" lon="13.617929683329">
        <ele>427.8</ele>
        <time>2018-08-11T12:33:09Z</time>
      </trkpt>
      <trkpt lat="61.079902829919" lon="13.618170830592">
        <ele>427.2</ele>
        <time>2018-08-11T12:33:12Z</time>
      </trkpt>
      <trkpt lat="61.079768970976" lon="13.61843418989">
        <ele>427.6</ele>
        <time>2018-08-11T12:33:15Z</time>
      </trkpt>
      <trkpt lat="61.079614995473" lon="13.618741973258">
        <ele>428</ele>
        <time>2018-08-11T12:33:19Z</time>
      </trkpt>
      <trkpt lat="61.079572331602" lon="13.618804753689">
        <ele>428</ele>
        <time>2018-08-11T12:33:20Z</time>
      </trkpt>
      <trkpt lat="61.079377368608" lon="13.618994016991">
        <ele>428</ele>
        <time>2018-08-11T12:33:24Z</time>
      </trkpt>
      <trkpt lat="61.079233116109" lon="13.619107340279">
        <ele>428</ele>
        <time>2018-08-11T12:33:27Z</time>
      </trkpt>
      <trkpt lat="61.0791064656" lon="13.61940062296">
        <ele>427.4</ele>
        <time>2018-08-11T12:33:31Z</time>
      </trkpt>
      <trkpt lat="61.079082661004" lon="13.619493997326">
        <ele>427.4</ele>
        <time>2018-08-11T12:33:32Z</time>
      </trkpt>
      <trkpt lat="61.078999261099" lon="13.619943937718">
        <ele>426.2</ele>
        <time>2018-08-11T12:33:36Z</time>
      </trkpt>
      <trkpt lat="61.078988532267" lon="13.620055752264">
        <ele>426.2</ele>
        <time>2018-08-11T12:33:37Z</time>
      </trkpt>
      <trkpt lat="61.079003200592" lon="13.620526815044">
        <ele>424.2</ele>
        <time>2018-08-11T12:33:41Z</time>
      </trkpt>
      <trkpt lat="61.079041254418" lon="13.621047331034">
        <ele>421.2</ele>
        <time>2018-08-11T12:33:44Z</time>
      </trkpt>
      <trkpt lat="61.079095317673" lon="13.621568936671">
        <ele>419.6</ele>
        <time>2018-08-11T12:33:47Z</time>
      </trkpt>
      <trkpt lat="61.079166563823" lon="13.622062965857">
        <ele>418</ele>
        <time>2018-08-11T12:33:50Z</time>
      </trkpt>
      <trkpt lat="61.079176370646" lon="13.622543248727">
        <ele>416.2</ele>
        <time>2018-08-11T12:33:53Z</time>
      </trkpt>
      <trkpt lat="61.079157511371" lon="13.622680963344">
        <ele>415.6</ele>
        <time>2018-08-11T12:33:54Z</time>
      </trkpt>
      <trkpt lat="61.079025831722" lon="13.622990506911">
        <ele>414.4</ele>
        <time>2018-08-11T12:33:57Z</time>
      </trkpt>
      <trkpt lat="61.078923991637" lon="13.623127802433">
        <ele>415.2</ele>
        <time>2018-08-11T12:33:59Z</time>
      </trkpt>
      <trkpt lat="61.078765741365" lon="13.623302816505">
        <ele>416.2</ele>
        <time>2018-08-11T12:34:02Z</time>
      </trkpt>
      <trkpt lat="61.078554349847" lon="13.623504736476">
        <ele>417</ele>
        <time>2018-08-11T12:34:06Z</time>
      </trkpt>
      <trkpt lat="61.078370283323" lon="13.623657454694">
        <ele>418.2</ele>
        <time>2018-08-11T12:34:10Z</time>
      </trkpt>
      <trkpt lat="61.078187474084" lon="13.623845712168">
        <ele>419.4</ele>
        <time>2018-08-11T12:34:15Z</time>
      </trkpt>
      <trkpt lat="61.078011202727" lon="13.624068167794">
        <ele>419.6</ele>
        <time>2018-08-11T12:34:20Z</time>
      </trkpt>
      <trkpt lat="61.077961665698" lon="13.624185179118">
        <ele>420</ele>
        <time>2018-08-11T12:34:22Z</time>
      </trkpt>
      <trkpt lat="61.077918834189" lon="13.624612236923">
        <ele>420.4</ele>
        <time>2018-08-11T12:34:27Z</time>
      </trkpt>
      <trkpt lat="61.077918666551" lon="13.624738719794">
        <ele>420.4</ele>
        <time>2018-08-11T12:34:28Z</time>
      </trkpt>
      <trkpt lat="61.077895951602" lon="13.625181116476">
        <ele>419</ele>
        <time>2018-08-11T12:34:31Z</time>
      </trkpt>
      <trkpt lat="61.077878601069" lon="13.625335343436">
        <ele>418.8</ele>
        <time>2018-08-11T12:34:32Z</time>
      </trkpt>
      <trkpt lat="61.077775168423" lon="13.625771788969">
        <ele>418</ele>
        <time>2018-08-11T12:34:35Z</time>
      </trkpt>
      <trkpt lat="61.077690846509" lon="13.626001285391">
        <ele>417.4</ele>
        <time>2018-08-11T12:34:37Z</time>
      </trkpt>
      <trkpt lat="61.077564279819" lon="13.626335890839">
        <ele>415.8</ele>
        <time>2018-08-11T12:34:40Z</time>
      </trkpt>
      <trkpt lat="61.077434108912" lon="13.626691115761">
        <ele>414.2</ele>
        <time>2018-08-11T12:34:43Z</time>
      </trkpt>
      <trkpt lat="61.077310392068" lon="13.627098643739">
        <ele>413</ele>
        <time>2018-08-11T12:34:46Z</time>
      </trkpt>
      <trkpt lat="61.077186088491" lon="13.627508351011">
        <ele>411.2</ele>
        <time>2018-08-11T12:34:49Z</time>
      </trkpt>
      <trkpt lat="61.077052229548" lon="13.62788394395">
        <ele>409.8</ele>
        <time>2018-08-11T12:34:52Z</time>
      </trkpt>
      <trkpt lat="61.076899427511" lon="13.628245371478">
        <ele>408</ele>
        <time>2018-08-11T12:34:55Z</time>
      </trkpt>
      <trkpt lat="61.076761545256" lon="13.628658515329">
        <ele>406</ele>
        <time>2018-08-11T12:34:58Z</time>
      </trkpt>
      <trkpt lat="61.076643947199" lon="13.629105438237">
        <ele>403.8</ele>
        <time>2018-08-11T12:35:01Z</time>
      </trkpt>
      <trkpt lat="61.076598517301" lon="13.629254133143">
        <ele>403.4</ele>
        <time>2018-08-11T12:35:02Z</time>
      </trkpt>
      <trkpt lat="61.076440267029" lon="13.629667109356">
        <ele>401.8</ele>
        <time>2018-08-11T12:35:05Z</time>
      </trkpt>
      <trkpt lat="61.076267599889" lon="13.630056700068">
        <ele>400.8</ele>
        <time>2018-08-11T12:35:08Z</time>
      </trkpt>
      <trkpt lat="61.076110606902" lon="13.63040689585">
        <ele>399.8</ele>
        <time>2018-08-11T12:35:11Z</time>
      </trkpt>
      <trkpt lat="61.075966857317" lon="13.630726413878">
        <ele>398.8</ele>
        <time>2018-08-11T12:35:14Z</time>
      </trkpt>
      <trkpt lat="61.075831321994" lon="13.631023887509">
        <ele>398.2</ele>
        <time>2018-08-11T12:35:17Z</time>
      </trkpt>
      <trkpt lat="61.075705006761" lon="13.631307698643">
        <ele>397.4</ele>
        <time>2018-08-11T12:35:20Z</time>
      </trkpt>
      <trkpt lat="61.075577350424" lon="13.631619337685">
        <ele>397.4</ele>
        <time>2018-08-11T12:35:23Z</time>
      </trkpt>
      <trkpt lat="61.075456902521" lon="13.631957128255">
        <ele>397.2</ele>
        <time>2018-08-11T12:35:26Z</time>
      </trkpt>
      <trkpt lat="61.075324887596" lon="13.632302797811">
        <ele>397.2</ele>
        <time>2018-08-11T12:35:29Z</time>
      </trkpt>
      <trkpt lat="61.075169738627" lon="13.63262893754">
        <ele>397</ele>
        <time>2018-08-11T12:35:32Z</time>
      </trkpt>
      <trkpt lat="61.075037304607" lon="13.632957172744">
        <ele>397.2</ele>
        <time>2018-08-11T12:35:35Z</time>
      </trkpt>
      <trkpt lat="61.074971003778" lon="13.633192452677">
        <ele>397.2</ele>
        <time>2018-08-11T12:35:37Z</time>
      </trkpt>
      <trkpt lat="61.074928339907" lon="13.633569889634">
        <ele>397.2</ele>
        <time>2018-08-11T12:35:40Z</time>
      </trkpt>
      <trkpt lat="61.074950132847" lon="13.634016393447">
        <ele>395.2</ele>
        <time>2018-08-11T12:35:43Z</time>
      </trkpt>
      <trkpt lat="61.074987516121" lon="13.634526767338">
        <ele>393.4</ele>
        <time>2018-08-11T12:35:46Z</time>
      </trkpt>
      <trkpt lat="61.074995562745" lon="13.634996321376">
        <ele>392</ele>
        <time>2018-08-11T12:35:49Z</time>
      </trkpt>
      <trkpt lat="61.074996233297" lon="13.635437628411">
        <ele>389.8</ele>
        <time>2018-08-11T12:35:52Z</time>
      </trkpt>
      <trkpt lat="61.074986091198" lon="13.635899471101">
        <ele>387.6</ele>
        <time>2018-08-11T12:35:55Z</time>
      </trkpt>
      <trkpt lat="61.074930435382" lon="13.636377826134">
        <ele>385</ele>
        <time>2018-08-11T12:35:58Z</time>
      </trkpt>
      <trkpt lat="61.074801270303" lon="13.636806560319">
        <ele>382.6</ele>
        <time>2018-08-11T12:36:01Z</time>
      </trkpt>
      <trkpt lat="61.074632710294" lon="13.637167568752">
        <ele>380.8</ele>
        <time>2018-08-11T12:36:04Z</time>
      </trkpt>
      <trkpt lat="61.074519638463" lon="13.637376613338">
        <ele>379.8</ele>
        <time>2018-08-11T12:36:06Z</time>
      </trkpt>
      <trkpt lat="61.074405393166" lon="13.637764443851">
        <ele>378.4</ele>
        <time>2018-08-11T12:36:09Z</time>
      </trkpt>
      <trkpt lat="61.074385947158" lon="13.6382146357">
        <ele>378</ele>
        <time>2018-08-11T12:36:12Z</time>
      </trkpt>
      <trkpt lat="61.074397765637" lon="13.638506158182">
        <ele>377.2</ele>
        <time>2018-08-11T12:36:14Z</time>
      </trkpt>
      <trkpt lat="61.074428108115" lon="13.638917122739">
        <ele>376.8</ele>
        <time>2018-08-11T12:36:17Z</time>
      </trkpt>
      <trkpt lat="61.074473621832" lon="13.639323812527">
        <ele>377.2</ele>
        <time>2018-08-11T12:36:20Z</time>
      </trkpt>
      <trkpt lat="61.07447462766" lon="13.639731424324">
        <ele>376.6</ele>
        <time>2018-08-11T12:36:23Z</time>
      </trkpt>
      <trkpt lat="61.074460462249" lon="13.63987509009">
        <ele>376.2</ele>
        <time>2018-08-11T12:36:24Z</time>
      </trkpt>
      <trkpt lat="61.07441930712" lon="13.640175078291">
        <ele>375.2</ele>
        <time>2018-08-11T12:36:26Z</time>
      </trkpt>
      <trkpt lat="61.074310090963" lon="13.64059006616">
        <ele>375</ele>
        <time>2018-08-11T12:36:29Z</time>
      </trkpt>
      <trkpt lat="61.0742617274" lon="13.640716800488">
        <ele>375</ele>
        <time>2018-08-11T12:36:30Z</time>
      </trkpt>
      <trkpt lat="61.074157959478" lon="13.640949062937">
        <ele>375</ele>
        <time>2018-08-11T12:36:32Z</time>
      </trkpt>
      <trkpt lat="61.073976575162" lon="13.64122038504">
        <ele>374.8</ele>
        <time>2018-08-11T12:36:35Z</time>
      </trkpt>
      <trkpt lat="61.073862497503" lon="13.641390369972">
        <ele>375</ele>
        <time>2018-08-11T12:36:37Z</time>
      </trkpt>
      <trkpt lat="61.073746659645" lon="13.641736793899">
        <ele>375.2</ele>
        <time>2018-08-11T12:36:40Z</time>
      </trkpt>
      <trkpt lat="61.073699553367" lon="13.642012558409">
        <ele>374.6</ele>
        <time>2018-08-11T12:36:42Z</time>
      </trkpt>
      <trkpt lat="61.073650267795" lon="13.642422098043">
        <ele>375.4</ele>
        <time>2018-08-11T12:36:45Z</time>
      </trkpt>
      <trkpt lat="61.073574495419" lon="13.642831218582">
        <ele>375.6</ele>
        <time>2018-08-11T12:36:48Z</time>
      </trkpt>
      <trkpt lat="61.073456645905" lon="13.643189125712">
        <ele>375.4</ele>
        <time>2018-08-11T12:36:51Z</time>
      </trkpt>
      <trkpt lat="61.073309124465" lon="13.643537896571">
        <ele>375.8</ele>
        <time>2018-08-11T12:36:54Z</time>
      </trkpt>
      <trkpt lat="61.073150036003" lon="13.64381290671">
        <ele>376.2</ele>
        <time>2018-08-11T12:36:57Z</time>
      </trkpt>
      <trkpt lat="61.072999161803" lon="13.644065034262">
        <ele>375.8</ele>
        <time>2018-08-11T12:37:00Z</time>
      </trkpt>
      <trkpt lat="61.072869577629" lon="13.644350270319">
        <ele>375.8</ele>
        <time>2018-08-11T12:37:03Z</time>
      </trkpt>
      <trkpt lat="61.072718787248" lon="13.644643888276">
        <ele>375.8</ele>
        <time>2018-08-11T12:37:06Z</time>
      </trkpt>
      <trkpt lat="61.072556932759" lon="13.64492267027">
        <ele>375.8</ele>
        <time>2018-08-11T12:37:09Z</time>
      </trkpt>
      <trkpt lat="61.072421397436" lon="13.645292228241">
        <ele>375.6</ele>
        <time>2018-08-11T12:37:12Z</time>
      </trkpt>
      <trkpt lat="61.072382253963" lon="13.645746191945">
        <ele>375.8</ele>
        <time>2018-08-11T12:37:15Z</time>
      </trkpt>
      <trkpt lat="61.0723841818" lon="13.645896730869">
        <ele>375</ele>
        <time>2018-08-11T12:37:16Z</time>
      </trkpt>
      <trkpt lat="61.072401364695" lon="13.646389586589">
        <ele>375.6</ele>
        <time>2018-08-11T12:37:19Z</time>
      </trkpt>
      <trkpt lat="61.072369597294" lon="13.64684883089">
        <ele>377.2</ele>
        <time>2018-08-11T12:37:22Z</time>
      </trkpt>
      <trkpt lat="61.072316204591" lon="13.64729893892">
        <ele>374.2</ele>
        <time>2018-08-11T12:37:25Z</time>
      </trkpt>
      <trkpt lat="61.072256860739" lon="13.647615188007">
        <ele>374.4</ele>
        <time>2018-08-11T12:37:27Z</time>
      </trkpt>
      <trkpt lat="61.072181675096" lon="13.647923725746">
        <ele>373</ele>
        <time>2018-08-11T12:37:29Z</time>
      </trkpt>
      <trkpt lat="61.072058042071" lon="13.64833745633">
        <ele>372.2</ele>
        <time>2018-08-11T12:37:32Z</time>
      </trkpt>
      <trkpt lat="61.07195754309" lon="13.648765352325">
        <ele>371.8</ele>
        <time>2018-08-11T12:37:35Z</time>
      </trkpt>
      <trkpt lat="61.071917393789" lon="13.649029298356">
        <ele>371.6</ele>
        <time>2018-08-11T12:37:37Z</time>
      </trkpt>
      <trkpt lat="61.071887302768" lon="13.64941620686">
        <ele>371.6</ele>
        <time>2018-08-11T12:37:40Z</time>
      </trkpt>
      <trkpt lat="61.071870538968" lon="13.649806971038">
        <ele>370.8</ele>
        <time>2018-08-11T12:37:43Z</time>
      </trkpt>
      <trkpt lat="61.0718561221" lon="13.65024517677">
        <ele>369.2</ele>
        <time>2018-08-11T12:37:46Z</time>
      </trkpt>
      <trkpt lat="61.071778254249" lon="13.650735182644">
        <ele>368.2</ele>
        <time>2018-08-11T12:37:49Z</time>
      </trkpt>
      <trkpt lat="61.071685215159" lon="13.651231977857">
        <ele>366.8</ele>
        <time>2018-08-11T12:37:52Z</time>
      </trkpt>
      <trkpt lat="61.071624530203" lon="13.651720894084">
        <ele>366.6</ele>
        <time>2018-08-11T12:37:55Z</time>
      </trkpt>
      <trkpt lat="61.071590164413" lon="13.65213613341">
        <ele>366.8</ele>
        <time>2018-08-11T12:37:58Z</time>
      </trkpt>
      <trkpt lat="61.071573400613" lon="13.652259431159">
        <ele>367.2</ele>
        <time>2018-08-11T12:37:59Z</time>
      </trkpt>
      <trkpt lat="61.071486061215" lon="13.652603172878">
        <ele>366.4</ele>
        <time>2018-08-11T12:38:02Z</time>
      </trkpt>
      <trkpt lat="61.071459155316" lon="13.652721860582">
        <ele>365.8</ele>
        <time>2018-08-11T12:38:03Z</time>
      </trkpt>
      <trkpt lat="61.071418754558" lon="13.653136848451">
        <ele>362.8</ele>
        <time>2018-08-11T12:38:06Z</time>
      </trkpt>
      <trkpt lat="61.071416659083" lon="13.65329115923">
        <ele>362.2</ele>
        <time>2018-08-11T12:38:07Z</time>
      </trkpt>
      <trkpt lat="61.071422861689" lon="13.653447314027">
        <ele>362</ele>
        <time>2018-08-11T12:38:08Z</time>
      </trkpt>
      <trkpt lat="61.071472901632" lon="13.653883089008">
        <ele>361.8</ele>
        <time>2018-08-11T12:38:11Z</time>
      </trkpt>
      <trkpt lat="61.071542219945" lon="13.654266728571">
        <ele>362</ele>
        <time>2018-08-11T12:38:14Z</time>
      </trkpt>
      <trkpt lat="61.071612627905" lon="13.654618684552">
        <ele>362</ele>
        <time>2018-08-11T12:38:17Z</time>
      </trkpt>
      <trkpt lat="61.071668199902" lon="13.655014980784">
        <ele>361.8</ele>
        <time>2018-08-11T12:38:20Z</time>
      </trkpt>
      <trkpt lat="61.071676833259" lon="13.655459892036">
        <ele>361.2</ele>
        <time>2018-08-11T12:38:23Z</time>
      </trkpt>
      <trkpt lat="61.071621177443" lon="13.655942438019">
        <ele>360</ele>
        <time>2018-08-11T12:38:26Z</time>
      </trkpt>
      <trkpt lat="61.071542890497" lon="13.656427750029">
        <ele>358.6</ele>
        <time>2018-08-11T12:38:29Z</time>
      </trkpt>
      <trkpt lat="61.071502154463" lon="13.656717177036">
        <ele>358.2</ele>
        <time>2018-08-11T12:38:31Z</time>
      </trkpt>
      <trkpt lat="61.071472398718" lon="13.657155718044">
        <ele>357.2</ele>
        <time>2018-08-11T12:38:34Z</time>
      </trkpt>
      <trkpt lat="61.071422023499" lon="13.657625942634">
        <ele>357.2</ele>
        <time>2018-08-11T12:38:37Z</time>
      </trkpt>
      <trkpt lat="61.071329906418" lon="13.658044786177">
        <ele>356.8</ele>
        <time>2018-08-11T12:38:40Z</time>
      </trkpt>
      <trkpt lat="61.071203842642" lon="13.658413422139">
        <ele>356.6</ele>
        <time>2018-08-11T12:38:43Z</time>
      </trkpt>
      <trkpt lat="61.071068642595" lon="13.658780716997">
        <ele>355.2</ele>
        <time>2018-08-11T12:38:46Z</time>
      </trkpt>
      <trkpt lat="61.071020027575" lon="13.659201823653">
        <ele>354.4</ele>
        <time>2018-08-11T12:38:49Z</time>
      </trkpt>
      <trkpt lat="61.071091022268" lon="13.659626702164">
        <ele>354.6</ele>
        <time>2018-08-11T12:38:52Z</time>
      </trkpt>
      <trkpt lat="61.071183642263" lon="13.660050658666">
        <ele>355.8</ele>
        <time>2018-08-11T12:38:55Z</time>
      </trkpt>
      <trkpt lat="61.071262013028" lon="13.660329356841">
        <ele>355</ele>
        <time>2018-08-11T12:38:57Z</time>
      </trkpt>
      <trkpt lat="61.071414647427" lon="13.660719450467">
        <ele>354.6</ele>
        <time>2018-08-11T12:39:00Z</time>
      </trkpt>
      <trkpt lat="61.071559989573" lon="13.661027317654">
        <ele>355.8</ele>
        <time>2018-08-11T12:39:03Z</time>
      </trkpt>
      <trkpt lat="61.07169099867" lon="13.661292269513">
        <ele>355.4</ele>
        <time>2018-08-11T12:39:06Z</time>
      </trkpt>
      <trkpt lat="61.071825528165" lon="13.661542636866">
        <ele>356.6</ele>
        <time>2018-08-11T12:39:09Z</time>
      </trkpt>
      <trkpt lat="61.071868192036" lon="13.66162863516">
        <ele>356.8</ele>
        <time>2018-08-11T12:39:10Z</time>
      </trkpt>
      <trkpt lat="61.071957878366" lon="13.661796105522">
        <ele>356.6</ele>
        <time>2018-08-11T12:39:12Z</time>
      </trkpt>
      <trkpt lat="61.072118643208" lon="13.662068517272">
        <ele>356</ele>
        <time>2018-08-11T12:39:15Z</time>
      </trkpt>
      <trkpt lat="61.07233556678" lon="13.662259959868">
        <ele>355</ele>
        <time>2018-08-11T12:39:18Z</time>
      </trkpt>
      <trkpt lat="61.072557268035" lon="13.662309329259">
        <ele>353.6</ele>
        <time>2018-08-11T12:39:21Z</time>
      </trkpt>
      <trkpt lat="61.072715183031" lon="13.662291475812">
        <ele>352</ele>
        <time>2018-08-11T12:39:23Z</time>
      </trkpt>
      <trkpt lat="61.072967059126" lon="13.662230287942">
        <ele>350.6</ele>
        <time>2018-08-11T12:39:26Z</time>
      </trkpt>
      <trkpt lat="61.073202422878" lon="13.662221989861">
        <ele>350.2</ele>
        <time>2018-08-11T12:39:29Z</time>
      </trkpt>
      <trkpt lat="61.073410545455" lon="13.662371942052">
        <ele>347.4</ele>
        <time>2018-08-11T12:39:32Z</time>
      </trkpt>
      <trkpt lat="61.073562341664" lon="13.662710235536">
        <ele>347</ele>
        <time>2018-08-11T12:39:35Z</time>
      </trkpt>
      <trkpt lat="61.073682454291" lon="13.663074261453">
        <ele>347.8</ele>
        <time>2018-08-11T12:39:38Z</time>
      </trkpt>
      <trkpt lat="61.073788820602" lon="13.663476341196">
        <ele>346</ele>
        <time>2018-08-11T12:39:41Z</time>
      </trkpt>
      <trkpt lat="61.073818241071" lon="13.663626544844">
        <ele>345.4</ele>
        <time>2018-08-11T12:39:42Z</time>
      </trkpt>
      <trkpt lat="61.073853696508" lon="13.664079167444">
        <ele>342.6</ele>
        <time>2018-08-11T12:39:45Z</time>
      </trkpt>
      <trkpt lat="61.073854869974" lon="13.664243452684">
        <ele>341.6</ele>
        <time>2018-08-11T12:39:46Z</time>
      </trkpt>
      <trkpt lat="61.073870963222" lon="13.664758688077">
        <ele>339.2</ele>
        <time>2018-08-11T12:39:49Z</time>
      </trkpt>
      <trkpt lat="61.073911196342" lon="13.665282975922">
        <ele>338.6</ele>
        <time>2018-08-11T12:39:52Z</time>
      </trkpt>
      <trkpt lat="61.073938688974" lon="13.66579360127">
        <ele>337.6</ele>
        <time>2018-08-11T12:39:55Z</time>
      </trkpt>
      <trkpt lat="61.073963415579" lon="13.66625460577">
        <ele>337.2</ele>
        <time>2018-08-11T12:39:58Z</time>
      </trkpt>
      <trkpt lat="61.073979005913" lon="13.666410425291">
        <ele>336.8</ele>
        <time>2018-08-11T12:39:59Z</time>
      </trkpt>
      <trkpt lat="61.074073469926" lon="13.666838488924">
        <ele>336</ele>
        <time>2018-08-11T12:40:02Z</time>
      </trkpt>
      <trkpt lat="61.074170532328" lon="13.667234114604">
        <ele>335.8</ele>
        <time>2018-08-11T12:40:05Z</time>
      </trkpt>
      <trkpt lat="61.074192325268" lon="13.66736353114">
        <ele>335.6</ele>
        <time>2018-08-11T12:40:06Z</time>
      </trkpt>
      <trkpt lat="61.074200958625" lon="13.66778178795">
        <ele>333.4</ele>
        <time>2018-08-11T12:40:09Z</time>
      </trkpt>
      <trkpt lat="61.074156534555" lon="13.668063252152">
        <ele>332.6</ele>
        <time>2018-08-11T12:40:11Z</time>
      </trkpt>
      <trkpt lat="61.074118732186" lon="13.668312697496">
        <ele>332</ele>
        <time>2018-08-11T12:40:13Z</time>
      </trkpt>
      <trkpt lat="61.074125186249" lon="13.668706395339">
        <ele>331.2</ele>
        <time>2018-08-11T12:40:16Z</time>
      </trkpt>
      <trkpt lat="61.074144716076" lon="13.668848468544">
        <ele>331.6</ele>
        <time>2018-08-11T12:40:17Z</time>
      </trkpt>
      <trkpt lat="61.074169945595" lon="13.668994397423">
        <ele>331.8</ele>
        <time>2018-08-11T12:40:18Z</time>
      </trkpt>
      <trkpt lat="61.074282011598" lon="13.669371918199">
        <ele>332.6</ele>
        <time>2018-08-11T12:40:21Z</time>
      </trkpt>
      <trkpt lat="61.074407321003" lon="13.669739632152">
        <ele>333.2</ele>
        <time>2018-08-11T12:40:24Z</time>
      </trkpt>
      <trkpt lat="61.074528607096" lon="13.670109357761">
        <ele>333.8</ele>
        <time>2018-08-11T12:40:27Z</time>
      </trkpt>
      <trkpt lat="61.074600104703" lon="13.670364670435">
        <ele>333.8</ele>
        <time>2018-08-11T12:40:29Z</time>
      </trkpt>
      <trkpt lat="61.074659113279" lon="13.670782172874">
        <ele>333.8</ele>
        <time>2018-08-11T12:40:32Z</time>
      </trkpt>
      <trkpt lat="61.074633297027" lon="13.671198501847">
        <ele>333</ele>
        <time>2018-08-11T12:40:35Z</time>
      </trkpt>
      <trkpt lat="61.074599937065" lon="13.671638635416">
        <ele>332.4</ele>
        <time>2018-08-11T12:40:38Z</time>
      </trkpt>
      <trkpt lat="61.074582335075" lon="13.672077008786">
        <ele>332</ele>
        <time>2018-08-11T12:40:41Z</time>
      </trkpt>
      <trkpt lat="61.074574791365" lon="13.672492918664">
        <ele>331.6</ele>
        <time>2018-08-11T12:40:44Z</time>
      </trkpt>
      <trkpt lat="61.074578060306" lon="13.672954677535">
        <ele>331.4</ele>
        <time>2018-08-11T12:40:47Z</time>
      </trkpt>
      <trkpt lat="61.074598176866" lon="13.673413921836">
        <ele>332.2</ele>
        <time>2018-08-11T12:40:50Z</time>
      </trkpt>
      <trkpt lat="61.074636733606" lon="13.673838632709">
        <ele>333</ele>
        <time>2018-08-11T12:40:53Z</time>
      </trkpt>
      <trkpt lat="61.074671686129" lon="13.674284801246">
        <ele>334</ele>
        <time>2018-08-11T12:40:56Z</time>
      </trkpt>
      <trkpt lat="61.07467160231" lon="13.674774052749">
        <ele>334</ele>
        <time>2018-08-11T12:40:59Z</time>
      </trkpt>
      <trkpt lat="61.07465148575" lon="13.675273949265">
        <ele>333.6</ele>
        <time>2018-08-11T12:41:02Z</time>
      </trkpt>
      <trkpt lat="61.074610246802" lon="13.67576470951">
        <ele>331.8</ele>
        <time>2018-08-11T12:41:05Z</time>
      </trkpt>
      <trkpt lat="61.074555596814" lon="13.676243567457">
        <ele>331.4</ele>
        <time>2018-08-11T12:41:08Z</time>
      </trkpt>
      <trkpt lat="61.074459121145" lon="13.676692250564">
        <ele>330.6</ele>
        <time>2018-08-11T12:41:11Z</time>
      </trkpt>
      <trkpt lat="61.074419223301" lon="13.676840274918">
        <ele>330.2</ele>
        <time>2018-08-11T12:41:12Z</time>
      </trkpt>
      <trkpt lat="61.074257284993" lon="13.677231709648">
        <ele>329.2</ele>
        <time>2018-08-11T12:41:15Z</time>
      </trkpt>
      <trkpt lat="61.074197019132" lon="13.677348804791">
        <ele>329</ele>
        <time>2018-08-11T12:41:16Z</time>
      </trkpt>
      <trkpt lat="61.074094424676" lon="13.677592885719">
        <ele>328.2</ele>
        <time>2018-08-11T12:41:18Z</time>
      </trkpt>
      <trkpt lat="61.074033655901" lon="13.677994211091">
        <ele>326.8</ele>
        <time>2018-08-11T12:41:21Z</time>
      </trkpt>
      <trkpt lat="61.074058466325" lon="13.678335186783">
        <ele>325.4</ele>
        <time>2018-08-11T12:41:23Z</time>
      </trkpt>
      <trkpt lat="61.074086797147" lon="13.678504501163">
        <ele>325.2</ele>
        <time>2018-08-11T12:41:24Z</time>
      </trkpt>
      <trkpt lat="61.074210178715" lon="13.678891661124">
        <ele>325.2</ele>
        <time>2018-08-11T12:41:27Z</time>
      </trkpt>
      <trkpt lat="61.074353006291" lon="13.679154098413">
        <ele>324.6</ele>
        <time>2018-08-11T12:41:30Z</time>
      </trkpt>
      <trkpt lat="61.074402962415" lon="13.679224674011">
        <ele>323.8</ele>
        <time>2018-08-11T12:41:31Z</time>
      </trkpt>
      <trkpt lat="61.074595243201" lon="13.67948878768">
        <ele>321.8</ele>
        <time>2018-08-11T12:41:35Z</time>
      </trkpt>
      <trkpt lat="61.074780734648" lon="13.679696323524">
        <ele>319.6</ele>
        <time>2018-08-11T12:41:39Z</time>
      </trkpt>
      <trkpt lat="61.074953150331" lon="13.679806880785">
        <ele>317.6</ele>
        <time>2018-08-11T12:41:42Z</time>
      </trkpt>
      <trkpt lat="61.075015511667" lon="13.679830266286">
        <ele>317</ele>
        <time>2018-08-11T12:41:43Z</time>
      </trkpt>
      <trkpt lat="61.075254898731" lon="13.679896567115">
        <ele>314.6</ele>
        <time>2018-08-11T12:41:47Z</time>
      </trkpt>
      <trkpt lat="61.075377106833" lon="13.679955491872">
        <ele>313.2</ele>
        <time>2018-08-11T12:41:49Z</time>
      </trkpt>
      <trkpt lat="61.075532507259" lon="13.680158920585">
        <ele>313.2</ele>
        <time>2018-08-11T12:41:52Z</time>
      </trkpt>
      <trkpt lat="61.07557098018" lon="13.680235028237">
        <ele>313.6</ele>
        <time>2018-08-11T12:41:53Z</time>
      </trkpt>
      <trkpt lat="61.07569670868" lon="13.680557647568">
        <ele>315.2</ele>
        <time>2018-08-11T12:41:57Z</time>
      </trkpt>
      <trkpt lat="61.075912207329" lon="13.680682454059">
        <ele>316.2</ele>
        <time>2018-08-11T12:42:01Z</time>
      </trkpt>
      <trkpt lat="61.076112618558" lon="13.680578937594">
        <ele>316.4</ele>
        <time>2018-08-11T12:42:04Z</time>
      </trkpt>
      <trkpt lat="61.076345886835" lon="13.680430577964">
        <ele>316.2</ele>
        <time>2018-08-11T12:42:07Z</time>
      </trkpt>
      <trkpt lat="61.076518553975" lon="13.680328570241">
        <ele>316</ele>
        <time>2018-08-11T12:42:09Z</time>
      </trkpt>
      <trkpt lat="61.076761545256" lon="13.680153639988">
        <ele>315.6</ele>
        <time>2018-08-11T12:42:12Z</time>
      </trkpt>
      <trkpt lat="61.076953406947" lon="13.67991877915">
        <ele>314.4</ele>
        <time>2018-08-11T12:42:15Z</time>
      </trkpt>
      <trkpt lat="61.077060276172" lon="13.679781148352">
        <ele>314.8</ele>
        <time>2018-08-11T12:42:17Z</time>
      </trkpt>
      <trkpt lat="61.077237888633" lon="13.679812831934">
        <ele>313.4</ele>
        <time>2018-08-11T12:42:20Z</time>
      </trkpt>
      <trkpt lat="61.077423463899" lon="13.680115083248">
        <ele>312.2</ele>
        <time>2018-08-11T12:42:23Z</time>
      </trkpt>
      <trkpt lat="61.077566878208" lon="13.680466703953">
        <ele>312.2</ele>
        <time>2018-08-11T12:42:26Z</time>
      </trkpt>
      <trkpt lat="61.077696127106" lon="13.680746743232">
        <ele>311.8</ele>
        <time>2018-08-11T12:42:29Z</time>
      </trkpt>
      <trkpt lat="61.077844235279" lon="13.681027620701">
        <ele>309.8</ele>
        <time>2018-08-11T12:42:32Z</time>
      </trkpt>
      <trkpt lat="61.077987146674" lon="13.681377984121">
        <ele>309.8</ele>
        <time>2018-08-11T12:42:35Z</time>
      </trkpt>
      <trkpt lat="61.078109103319" lon="13.681713008664">
        <ele>310.2</ele>
        <time>2018-08-11T12:42:38Z</time>
      </trkpt>
      <trkpt lat="61.078244973918" lon="13.682054990184">
        <ele>310.4</ele>
        <time>2018-08-11T12:42:41Z</time>
      </trkpt>
      <trkpt lat="61.078374055178" lon="13.682368221787">
        <ele>310.8</ele>
        <time>2018-08-11T12:42:44Z</time>
      </trkpt>
      <trkpt lat="61.078511602157" lon="13.682710287126">
        <ele>312</ele>
        <time>2018-08-11T12:42:48Z</time>
      </trkpt>
      <trkpt lat="61.078644455272" lon="13.683056208139">
        <ele>313.6</ele>
        <time>2018-08-11T12:42:53Z</time>
      </trkpt>
      <trkpt lat="61.078704302038" lon="13.683126951375">
        <ele>313.8</ele>
        <time>2018-08-11T12:42:55Z</time>
      </trkpt>
      <trkpt lat="61.078836065506" lon="13.682930814915">
        <ele>314.2</ele>
        <time>2018-08-11T12:42:59Z</time>
      </trkpt>
      <trkpt lat="61.078984173679" lon="13.682609285231">
        <ele>314.6</ele>
        <time>2018-08-11T12:43:03Z</time>
      </trkpt>
      <trkpt lat="61.07915256605" lon="13.682378280067">
        <ele>314.2</ele>
        <time>2018-08-11T12:43:08Z</time>
      </trkpt>
      <trkpt lat="61.079271086116" lon="13.682686901625">
        <ele>314.4</ele>
        <time>2018-08-11T12:43:14Z</time>
      </trkpt>
      <trkpt lat="61.079359263704" lon="13.683115300534">
        <ele>315.4</ele>
        <time>2018-08-11T12:43:19Z</time>
      </trkpt>
      <trkpt lat="61.07937552459" lon="13.683221499207">
        <ele>315.6</ele>
        <time>2018-08-11T12:43:20Z</time>
      </trkpt>
      <trkpt lat="61.079420870669" lon="13.683649981935">
        <ele>316.8</ele>
        <time>2018-08-11T12:43:24Z</time>
      </trkpt>
      <trkpt lat="61.079431096587" lon="13.68376104211">
        <ele>317.2</ele>
        <time>2018-08-11T12:43:25Z</time>
      </trkpt>
      <trkpt lat="61.079464624187" lon="13.684165301147">
        <ele>318.2</ele>
        <time>2018-08-11T12:43:29Z</time>
      </trkpt>
      <trkpt lat="61.079460349418" lon="13.684264207567">
        <ele>318.4</ele>
        <time>2018-08-11T12:43:30Z</time>
      </trkpt>
      <trkpt lat="61.079420870669" lon="13.684726385533">
        <ele>319.6</ele>
        <time>2018-08-11T12:43:35Z</time>
      </trkpt>
      <trkpt lat="61.079385499051" lon="13.68519350882">
        <ele>320.2</ele>
        <time>2018-08-11T12:43:39Z</time>
      </trkpt>
      <trkpt lat="61.079381308101" lon="13.685451252245">
        <ele>321</ele>
        <time>2018-08-11T12:43:41Z</time>
      </trkpt>
      <trkpt lat="61.079430761311" lon="13.685904880673">
        <ele>322.4</ele>
        <time>2018-08-11T12:43:45Z</time>
      </trkpt>
      <trkpt lat="61.079467557852" lon="13.68628818496">
        <ele>323</ele>
        <time>2018-08-11T12:43:48Z</time>
      </trkpt>
      <trkpt lat="61.079504186755" lon="13.686754134781">
        <ele>323.8</ele>
        <time>2018-08-11T12:43:52Z</time>
      </trkpt>
      <trkpt lat="61.079520699098" lon="13.687171721039">
        <ele>323.8</ele>
        <time>2018-08-11T12:43:56Z</time>
      </trkpt>
      <trkpt lat="61.079483315824" lon="13.687460309856">
        <ele>324</ele>
        <time>2018-08-11T12:43:59Z</time>
      </trkpt>
      <trkpt lat="61.079443166523" lon="13.687692320848">
        <ele>323.2</ele>
        <time>2018-08-11T12:44:01Z</time>
      </trkpt>
      <trkpt lat="61.079444926722" lon="13.688128682562">
        <ele>322.2</ele>
        <time>2018-08-11T12:44:05Z</time>
      </trkpt>
      <trkpt lat="61.079511562827" lon="13.688446188934">
        <ele>320.4</ele>
        <time>2018-08-11T12:44:08Z</time>
      </trkpt>
      <trkpt lat="61.079604099003" lon="13.68878515297">
        <ele>318.8</ele>
        <time>2018-08-11T12:44:11Z</time>
      </trkpt>
      <trkpt lat="61.079687582727" lon="13.689125877205">
        <ele>318</ele>
        <time>2018-08-11T12:44:14Z</time>
      </trkpt>
      <trkpt lat="61.079762433094" lon="13.689475905349">
        <ele>316.6</ele>
        <time>2018-08-11T12:44:17Z</time>
      </trkpt>
      <trkpt lat="61.079841977325" lon="13.689817551593">
        <ele>315.4</ele>
        <time>2018-08-11T12:44:20Z</time>
      </trkpt>
      <trkpt lat="61.079930238732" lon="13.690158192009">
        <ele>314.8</ele>
        <time>2018-08-11T12:44:23Z</time>
      </trkpt>
      <trkpt lat="61.080039287251" lon="13.69056965948">
        <ele>314.2</ele>
        <time>2018-08-11T12:44:27Z</time>
      </trkpt>
      <trkpt lat="61.08015671767" lon="13.690984395892">
        <ele>313.8</ele>
        <time>2018-08-11T12:44:31Z</time>
      </trkpt>
      <trkpt lat="61.080279344867" lon="13.691340961918">
        <ele>314</ele>
        <time>2018-08-11T12:44:35Z</time>
      </trkpt>
      <trkpt lat="61.08038135259" lon="13.69169031951">
        <ele>314.4</ele>
        <time>2018-08-11T12:44:39Z</time>
      </trkpt>
      <trkpt lat="61.080405743919" lon="13.691765588972">
        <ele>314.6</ele>
        <time>2018-08-11T12:44:40Z</time>
      </trkpt>
      <trkpt lat="61.080488892367" lon="13.692093237443">
        <ele>315.6</ele>
        <time>2018-08-11T12:44:44Z</time>
      </trkpt>
      <trkpt lat="61.080547733305" lon="13.692474781531">
        <ele>318</ele>
        <time>2018-08-11T12:44:49Z</time>
      </trkpt>
      <trkpt lat="61.08055485792" lon="13.692887087192">
        <ele>320.6</ele>
        <time>2018-08-11T12:44:55Z</time>
      </trkpt>
      <trkpt lat="61.080547398029" lon="13.693352282642">
        <ele>321.4</ele>
        <time>2018-08-11T12:45:00Z</time>
      </trkpt>
      <trkpt lat="61.080540692509" lon="13.693460241514">
        <ele>321.6</ele>
        <time>2018-08-11T12:45:01Z</time>
      </trkpt>
      <trkpt lat="61.080441199356" lon="13.69387128989">
        <ele>321.2</ele>
        <time>2018-08-11T12:45:05Z</time>
      </trkpt>
      <trkpt lat="61.08026149142" lon="13.694121573424">
        <ele>320.4</ele>
        <time>2018-08-11T12:45:09Z</time>
      </trkpt>
      <trkpt lat="61.080054542309" lon="13.694130793514">
        <ele>320</ele>
        <time>2018-08-11T12:45:14Z</time>
      </trkpt>
      <trkpt lat="61.080023613098" lon="13.694089638385">
        <ele>320.2</ele>
        <time>2018-08-11T12:45:15Z</time>
      </trkpt>
      <trkpt lat="61.079961167943" lon="13.694062732486">
        <ele>320.4</ele>
        <time>2018-08-11T12:45:17Z</time>
      </trkpt>
      <trkpt lat="61.079786656785" lon="13.694051919835">
        <ele>320.2</ele>
        <time>2018-08-11T12:45:24Z</time>
      </trkpt>
      <trkpt lat="61.079605523926" lon="13.69414286345">
        <ele>321.2</ele>
        <time>2018-08-11T12:45:32Z</time>
      </trkpt>
      <trkpt lat="61.079419194289" lon="13.694286613035">
        <ele>321.2</ele>
        <time>2018-08-11T12:45:40Z</time>
      </trkpt>
      <trkpt lat="61.079227835512" lon="13.694304717939">
        <ele>321.6</ele>
        <time>2018-08-11T12:45:47Z</time>
      </trkpt>
      <trkpt lat="61.079022730419" lon="13.694337155892">
        <ele>321.6</ele>
        <time>2018-08-11T12:45:53Z</time>
      </trkpt>
      <trkpt lat="61.078852913125" lon="13.694499178019">
        <ele>320.6</ele>
        <time>2018-08-11T12:45:59Z</time>
      </trkpt>
      <trkpt lat="61.078770519048" lon="13.69485783952">
        <ele>321.6</ele>
        <time>2018-08-11T12:46:06Z</time>
      </trkpt>
      <trkpt lat="61.078804633381" lon="13.695283220945">
        <ele>324.2</ele>
        <time>2018-08-11T12:46:13Z</time>
      </trkpt>
      <trkpt lat="61.078825085217" lon="13.695366034117">
        <ele>324.4</ele>
        <time>2018-08-11T12:46:14Z</time>
      </trkpt>
      <trkpt lat="61.078903539801" lon="13.695723270695">
        <ele>325.6</ele>
        <time>2018-08-11T12:46:18Z</time>
      </trkpt>
      <trkpt lat="61.078983754584" lon="13.696052763184">
        <ele>326.8</ele>
        <time>2018-08-11T12:46:23Z</time>
      </trkpt>
      <trkpt lat="61.078893816797" lon="13.696436235109">
        <ele>328.4</ele>
        <time>2018-08-11T12:46:29Z</time>
      </trkpt>
      <trkpt lat="61.078824414665" lon="13.696792801135">
        <ele>329.8</ele>
        <time>2018-08-11T12:46:34Z</time>
      </trkpt>
      <trkpt lat="61.078726262616" lon="13.697122880357">
        <ele>331.2</ele>
        <time>2018-08-11T12:46:39Z</time>
      </trkpt>
      <trkpt lat="61.078676809406" lon="13.697287919968">
        <ele>331.6</ele>
        <time>2018-08-11T12:46:41Z</time>
      </trkpt>
      <trkpt lat="61.078590811112" lon="13.697701985828">
        <ele>332.4</ele>
        <time>2018-08-11T12:46:45Z</time>
      </trkpt>
      <trkpt lat="61.078573628217" lon="13.698057713664">
        <ele>333</ele>
        <time>2018-08-11T12:46:48Z</time>
      </trkpt>
      <trkpt lat="61.078480170032" lon="13.698473036809">
        <ele>334.2</ele>
        <time>2018-08-11T12:46:52Z</time>
      </trkpt>
      <trkpt lat="61.078404230018" lon="13.698827339722">
        <ele>332.2</ele>
        <time>2018-08-11T12:46:56Z</time>
      </trkpt>
      <trkpt lat="61.078363577803" lon="13.698904034107">
        <ele>331.2</ele>
        <time>2018-08-11T12:46:57Z</time>
      </trkpt>
      <trkpt lat="61.078325021063" lon="13.698990786772">
        <ele>330.6</ele>
        <time>2018-08-11T12:46:58Z</time>
      </trkpt>
      <trkpt lat="61.078260480433" lon="13.69920553105">
        <ele>329.6</ele>
        <time>2018-08-11T12:47:00Z</time>
      </trkpt>
      <trkpt lat="61.078286212866" lon="13.6996455808">
        <ele>328.6</ele>
        <time>2018-08-11T12:47:04Z</time>
      </trkpt>
      <trkpt lat="61.078303311942" lon="13.69974113446">
        <ele>328.4</ele>
        <time>2018-08-11T12:47:05Z</time>
      </trkpt>
      <trkpt lat="61.078379922508" lon="13.700147069877">
        <ele>327.6</ele>
        <time>2018-08-11T12:47:09Z</time>
      </trkpt>
      <trkpt lat="61.07843842817" lon="13.700618216476">
        <ele>326.6</ele>
        <time>2018-08-11T12:47:13Z</time>
      </trkpt>
      <trkpt lat="61.078468351553" lon="13.700970004819">
        <ele>325.8</ele>
        <time>2018-08-11T12:47:16Z</time>
      </trkpt>
      <trkpt lat="61.078488216656" lon="13.701422711238">
        <ele>325.2</ele>
        <time>2018-08-11T12:47:20Z</time>
      </trkpt>
      <trkpt lat="61.078493245796" lon="13.701628905978">
        <ele>324.8</ele>
        <time>2018-08-11T12:47:22Z</time>
      </trkpt>
      <trkpt lat="61.078487713742" lon="13.702070548289">
        <ele>324.4</ele>
        <time>2018-08-11T12:47:26Z</time>
      </trkpt>
      <trkpt lat="61.078473380693" lon="13.702491822583">
        <ele>324.6</ele>
        <time>2018-08-11T12:47:30Z</time>
      </trkpt>
      <trkpt lat="61.07844932464" lon="13.702903792968">
        <ele>325.2</ele>
        <time>2018-08-11T12:47:34Z</time>
      </trkpt>
      <trkpt lat="61.078442200025" lon="13.703198584391">
        <ele>325.4</ele>
        <time>2018-08-11T12:47:37Z</time>
      </trkpt>
      <trkpt lat="61.078472626322" lon="13.703597227555">
        <ele>325.6</ele>
        <time>2018-08-11T12:47:41Z</time>
      </trkpt>
      <trkpt lat="61.078523839731" lon="13.704029649776">
        <ele>326.8</ele>
        <time>2018-08-11T12:47:46Z</time>
      </trkpt>
      <trkpt lat="61.078588296542" lon="13.704462155816">
        <ele>328.8</ele>
        <time>2018-08-11T12:47:51Z</time>
      </trkpt>
      <trkpt lat="61.078662643995" lon="13.704856440392">
        <ele>330.8</ele>
        <time>2018-08-11T12:47:56Z</time>
      </trkpt>
      <trkpt lat="61.07875274942" lon="13.705237313928">
        <ele>333.2</ele>
        <time>2018-08-11T12:48:02Z</time>
      </trkpt>
      <trkpt lat="61.078857858446" lon="13.7055715841">
        <ele>336.4</ele>
        <time>2018-08-11T12:48:09Z</time>
      </trkpt>
      <trkpt lat="61.078920219782" lon="13.705930916153">
        <ele>339</ele>
        <time>2018-08-11T12:48:15Z</time>
      </trkpt>
      <trkpt lat="61.079001943307" lon="13.706264348135">
        <ele>340.2</ele>
        <time>2018-08-11T12:48:19Z</time>
      </trkpt>
      <trkpt lat="61.079063466453" lon="13.706614041003">
        <ele>342</ele>
        <time>2018-08-11T12:48:24Z</time>
      </trkpt>
      <trkpt lat="61.079168575479" lon="13.70692861371">
        <ele>342.8</ele>
        <time>2018-08-11T12:48:30Z</time>
      </trkpt>
      <trkpt lat="61.079232110281" lon="13.707314348748">
        <ele>343.2</ele>
        <time>2018-08-11T12:48:36Z</time>
      </trkpt>
      <trkpt lat="61.079251975384" lon="13.707745765141">
        <ele>341.6</ele>
        <time>2018-08-11T12:48:42Z</time>
      </trkpt>
      <trkpt lat="61.079307212105" lon="13.708107360307">
        <ele>342</ele>
        <time>2018-08-11T12:48:47Z</time>
      </trkpt>
      <trkpt lat="61.07938642106" lon="13.708493682078">
        <ele>342.4</ele>
        <time>2018-08-11T12:48:52Z</time>
      </trkpt>
      <trkpt lat="61.079484070195" lon="13.70883381958">
        <ele>343.2</ele>
        <time>2018-08-11T12:48:57Z</time>
      </trkpt>
      <trkpt lat="61.079575181448" lon="13.70918837395">
        <ele>343.2</ele>
        <time>2018-08-11T12:49:02Z</time>
      </trkpt>
      <trkpt lat="61.079666963253" lon="13.709516692973">
        <ele>342.6</ele>
        <time>2018-08-11T12:49:07Z</time>
      </trkpt>
      <trkpt lat="61.079803336766" lon="13.709846772195">
        <ele>341.6</ele>
        <time>2018-08-11T12:49:12Z</time>
      </trkpt>
      <trkpt lat="61.079932837121" lon="13.710084818155">
        <ele>340.4</ele>
        <time>2018-08-11T12:49:16Z</time>
      </trkpt>
      <trkpt lat="61.080081196751" lon="13.710345411426">
        <ele>339.8</ele>
        <time>2018-08-11T12:49:20Z</time>
      </trkpt>
      <trkpt lat="61.080243218878" lon="13.710616398253">
        <ele>338.2</ele>
        <time>2018-08-11T12:49:24Z</time>
      </trkpt>
      <trkpt lat="61.080403480806" lon="13.710859640991">
        <ele>337.4</ele>
        <time>2018-08-11T12:49:28Z</time>
      </trkpt>
      <trkpt lat="61.0805565343" lon="13.711104057195">
        <ele>336.8</ele>
        <time>2018-08-11T12:49:32Z</time>
      </trkpt>
      <trkpt lat="61.080629959744" lon="13.711228193134">
        <ele>336.2</ele>
        <time>2018-08-11T12:49:34Z</time>
      </trkpt>
      <trkpt lat="61.080790305491" lon="13.711491217156">
        <ele>335</ele>
        <time>2018-08-11T12:49:38Z</time>
      </trkpt>
      <trkpt lat="61.080932127239" lon="13.711739740491">
        <ele>333.6</ele>
        <time>2018-08-11T12:49:42Z</time>
      </trkpt>
      <trkpt lat="61.080965990115" lon="13.711803610569">
        <ele>333</ele>
        <time>2018-08-11T12:49:43Z</time>
      </trkpt>
      <trkpt lat="61.081134214848" lon="13.712077782518">
        <ele>334</ele>
        <time>2018-08-11T12:49:48Z</time>
      </trkpt>
      <trkpt lat="61.081284586134" lon="13.712386571714">
        <ele>335.8</ele>
        <time>2018-08-11T12:49:54Z</time>
      </trkpt>
      <trkpt lat="61.081368824229" lon="13.71271799204">
        <ele>336.2</ele>
        <time>2018-08-11T12:50:00Z</time>
      </trkpt>
      <trkpt lat="61.081440154198" lon="13.713099619947">
        <ele>337.2</ele>
        <time>2018-08-11T12:50:06Z</time>
      </trkpt>
      <trkpt lat="61.081475106721" lon="13.71354612376">
        <ele>337.2</ele>
        <time>2018-08-11T12:50:11Z</time>
      </trkpt>
      <trkpt lat="61.081497234937" lon="13.713923393079">
        <ele>337.4</ele>
        <time>2018-08-11T12:50:15Z</time>
      </trkpt>
      <trkpt lat="61.081515339841" lon="13.71431139123">
        <ele>337</ele>
        <time>2018-08-11T12:50:19Z</time>
      </trkpt>
      <trkpt lat="61.081523135008" lon="13.714721433778">
        <ele>336.6</ele>
        <time>2018-08-11T12:50:23Z</time>
      </trkpt>
      <trkpt lat="61.081522212999" lon="13.714922096464">
        <ele>337</ele>
        <time>2018-08-11T12:50:25Z</time>
      </trkpt>
      <trkpt lat="61.081472592151" lon="13.715342784025">
        <ele>338.4</ele>
        <time>2018-08-11T12:50:30Z</time>
      </trkpt>
      <trkpt lat="61.081378714871" lon="13.715751820745">
        <ele>338.8</ele>
        <time>2018-08-11T12:50:35Z</time>
      </trkpt>
      <trkpt lat="61.081271091275" lon="13.716050132566">
        <ele>339</ele>
        <time>2018-08-11T12:50:39Z</time>
      </trkpt>
      <trkpt lat="61.081152738847" lon="13.716367890395">
        <ele>340.8</ele>
        <time>2018-08-11T12:50:44Z</time>
      </trkpt>
      <trkpt lat="61.081037739179" lon="13.716710374829">
        <ele>342.6</ele>
        <time>2018-08-11T12:50:50Z</time>
      </trkpt>
      <trkpt lat="61.080920560217" lon="13.717066689398">
        <ele>343.4</ele>
        <time>2018-08-11T12:50:57Z</time>
      </trkpt>
      <trkpt lat="61.080803465074" lon="13.717384447227">
        <ele>344</ele>
        <time>2018-08-11T12:51:03Z</time>
      </trkpt>
      <trkpt lat="61.080698356048" lon="13.717734726828">
        <ele>344.8</ele>
        <time>2018-08-11T12:51:10Z</time>
      </trkpt>
      <trkpt lat="61.080686872845" lon="13.718161449357">
        <ele>346.2</ele>
        <time>2018-08-11T12:51:16Z</time>
      </trkpt>
      <trkpt lat="61.080734901132" lon="13.7185300015">
        <ele>347.2</ele>
        <time>2018-08-11T12:51:22Z</time>
      </trkpt>
      <trkpt lat="61.080729704354" lon="13.718920933316">
        <ele>347.8</ele>
        <time>2018-08-11T12:51:28Z</time>
      </trkpt>
      <trkpt lat="61.080777313546" lon="13.719299292282">
        <ele>348.2</ele>
        <time>2018-08-11T12:51:32Z</time>
      </trkpt>
      <trkpt lat="61.080840177796" lon="13.719715034522">
        <ele>348.6</ele>
        <time>2018-08-11T12:51:37Z</time>
      </trkpt>
      <trkpt lat="61.080892229395" lon="13.720034133455">
        <ele>348.8</ele>
        <time>2018-08-11T12:51:40Z</time>
      </trkpt>
      <trkpt lat="61.081035727523" lon="13.720349041438">
        <ele>348.6</ele>
        <time>2018-08-11T12:51:44Z</time>
      </trkpt>
      <trkpt lat="61.081075038634" lon="13.720424478538">
        <ele>348.4</ele>
        <time>2018-08-11T12:51:45Z</time>
      </trkpt>
      <trkpt lat="61.081193810157" lon="13.72065229858">
        <ele>347.8</ele>
        <time>2018-08-11T12:51:48Z</time>
      </trkpt>
      <trkpt lat="61.081358346854" lon="13.720969218219">
        <ele>346.6</ele>
        <time>2018-08-11T12:51:52Z</time>
      </trkpt>
      <trkpt lat="61.081520871895" lon="13.721259064321">
        <ele>345.4</ele>
        <time>2018-08-11T12:51:56Z</time>
      </trkpt>
      <trkpt lat="61.081681217642" lon="13.721553185192">
        <ele>344.4</ele>
        <time>2018-08-11T12:52:00Z</time>
      </trkpt>
      <trkpt lat="61.08172078021" lon="13.721621832953">
        <ele>344</ele>
        <time>2018-08-11T12:52:01Z</time>
      </trkpt>
      <trkpt lat="61.081881796509" lon="13.721917630204">
        <ele>343.8</ele>
        <time>2018-08-11T12:52:05Z</time>
      </trkpt>
      <trkpt lat="61.081927896959" lon="13.721995498055">
        <ele>343.6</ele>
        <time>2018-08-11T12:52:06Z</time>
      </trkpt>
      <trkpt lat="61.08201917585" lon="13.722156430535">
        <ele>343.2</ele>
        <time>2018-08-11T12:52:08Z</time>
      </trkpt>
      <trkpt lat="61.082166026738" lon="13.722400008549">
        <ele>342.8</ele>
        <time>2018-08-11T12:52:11Z</time>
      </trkpt>
      <trkpt lat="61.082320002241" lon="13.722645011486">
        <ele>342</ele>
        <time>2018-08-11T12:52:14Z</time>
      </trkpt>
      <trkpt lat="61.082458638867" lon="13.722880878152">
        <ele>340.8</ele>
        <time>2018-08-11T12:52:17Z</time>
      </trkpt>
      <trkpt lat="61.082516725434" lon="13.72327248052">
        <ele>341.2</ele>
        <time>2018-08-11T12:52:21Z</time>
      </trkpt>
      <trkpt lat="61.082447574759" lon="13.723713787555">
        <ele>341.6</ele>
        <time>2018-08-11T12:52:26Z</time>
      </trkpt>
      <trkpt lat="61.082341124629" lon="13.72403020428">
        <ele>341.2</ele>
        <time>2018-08-11T12:52:30Z</time>
      </trkpt>
      <trkpt lat="61.082211037541" lon="13.724339412571">
        <ele>340.2</ele>
        <time>2018-08-11T12:52:34Z</time>
      </trkpt>
      <trkpt lat="61.082083548842" lon="13.724669994707">
        <ele>339.8</ele>
        <time>2018-08-11T12:52:38Z</time>
      </trkpt>
      <trkpt lat="61.082062174997" lon="13.724753897526">
        <ele>339.8</ele>
        <time>2018-08-11T12:52:39Z</time>
      </trkpt>
      <trkpt lat="61.081967962441" lon="13.725124293687">
        <ele>340.2</ele>
        <time>2018-08-11T12:52:43Z</time>
      </trkpt>
      <trkpt lat="61.081872241143" lon="13.725535174425">
        <ele>340</ele>
        <time>2018-08-11T12:52:48Z</time>
      </trkpt>
      <trkpt lat="61.081872241143" lon="13.725937170349">
        <ele>339.8</ele>
        <time>2018-08-11T12:52:52Z</time>
      </trkpt>
      <trkpt lat="61.081871235315" lon="13.726352661132">
        <ele>340.2</ele>
        <time>2018-08-11T12:52:56Z</time>
      </trkpt>
      <trkpt lat="61.081888669667" lon="13.726775108892">
        <ele>340.6</ele>
        <time>2018-08-11T12:53:00Z</time>
      </trkpt>
      <trkpt lat="61.081913396272" lon="13.727171488943">
        <ele>340.8</ele>
        <time>2018-08-11T12:53:04Z</time>
      </trkpt>
      <trkpt lat="61.081955221953" lon="13.72757071884">
        <ele>341.6</ele>
        <time>2018-08-11T12:53:08Z</time>
      </trkpt>
      <trkpt lat="61.082003585516" lon="13.727974977877">
        <ele>343</ele>
        <time>2018-08-11T12:53:12Z</time>
      </trkpt>
      <trkpt lat="61.082045075921" lon="13.72834017726">
        <ele>345</ele>
        <time>2018-08-11T12:53:16Z</time>
      </trkpt>
      <trkpt lat="61.082109532732" lon="13.728736389673">
        <ele>349</ele>
        <time>2018-08-11T12:53:21Z</time>
      </trkpt>
      <trkpt lat="61.082177342303" lon="13.729093793889">
        <ele>351.4</ele>
        <time>2018-08-11T12:53:26Z</time>
      </trkpt>
      <trkpt lat="61.08224381077" lon="13.729451030467">
        <ele>354.6</ele>
        <time>2018-08-11T12:53:31Z</time>
      </trkpt>
      <trkpt lat="61.082311201246" lon="13.729834250935">
        <ele>356.8</ele>
        <time>2018-08-11T12:53:36Z</time>
      </trkpt>
      <trkpt lat="61.082382447396" lon="13.73021856105">
        <ele>358.4</ele>
        <time>2018-08-11T12:53:41Z</time>
      </trkpt>
      <trkpt lat="61.082458135953" lon="13.730609492866">
        <ele>359.6</ele>
        <time>2018-08-11T12:53:46Z</time>
      </trkpt>
      <trkpt lat="61.082530304112" lon="13.730963963417">
        <ele>361.4</ele>
        <time>2018-08-11T12:53:51Z</time>
      </trkpt>
      <trkpt lat="61.082597946045" lon="13.731327989334">
        <ele>364</ele>
        <time>2018-08-11T12:53:56Z</time>
      </trkpt>
      <trkpt lat="61.08268972785" lon="13.731674077985">
        <ele>367.6</ele>
        <time>2018-08-11T12:54:01Z</time>
      </trkpt>
      <trkpt lat="61.082776229058" lon="13.732011365641">
        <ele>370.2</ele>
        <time>2018-08-11T12:54:06Z</time>
      </trkpt>
      <trkpt lat="61.082880751351" lon="13.732386288028">
        <ele>371.8</ele>
        <time>2018-08-11T12:54:12Z</time>
      </trkpt>
      <trkpt lat="61.08298896168" lon="13.732716451069">
        <ele>373</ele>
        <time>2018-08-11T12:54:18Z</time>
      </trkpt>
      <trkpt lat="61.083137991862" lon="13.733010823397">
        <ele>374.8</ele>
        <time>2018-08-11T12:54:26Z</time>
      </trkpt>
      <trkpt lat="61.083257350118" lon="13.733291700866">
        <ele>376.6</ele>
        <time>2018-08-11T12:54:33Z</time>
      </trkpt>
      <trkpt lat="61.083411157983" lon="13.733557993829">
        <ele>378.4</ele>
        <time>2018-08-11T12:54:40Z</time>
      </trkpt>
      <trkpt lat="61.083564462934" lon="13.7337934414">
        <ele>379.6</ele>
        <time>2018-08-11T12:54:46Z</time>
      </trkpt>
      <trkpt lat="61.083709302166" lon="13.73404070745">
        <ele>380.2</ele>
        <time>2018-08-11T12:54:52Z</time>
      </trkpt>
      <trkpt lat="61.083864954049" lon="13.734256289918">
        <ele>380.6</ele>
        <time>2018-08-11T12:54:57Z</time>
      </trkpt>
      <trkpt lat="61.08405849212" lon="13.734230306028">
        <ele>381</ele>
        <time>2018-08-11T12:55:03Z</time>
      </trkpt>
      <trkpt lat="61.084250018535" lon="13.734178924981">
        <ele>379.4</ele>
        <time>2018-08-11T12:55:09Z</time>
      </trkpt>
      <trkpt lat="61.084431319032" lon="13.734166855045">
        <ele>375.4</ele>
        <time>2018-08-11T12:55:14Z</time>
      </trkpt>
      <trkpt lat="61.084634077193" lon="13.734100470397">
        <ele>368.2</ele>
        <time>2018-08-11T12:55:19Z</time>
      </trkpt>
      <trkpt lat="61.084805151772" lon="13.733987147109">
        <ele>363.6</ele>
        <time>2018-08-11T12:55:23Z</time>
      </trkpt>
      <trkpt lat="61.085023164991" lon="13.73394347741">
        <ele>360</ele>
        <time>2018-08-11T12:55:28Z</time>
      </trkpt>
      <trkpt lat="61.085227012799" lon="13.733865190464">
        <ele>358</ele>
        <time>2018-08-11T12:55:33Z</time>
      </trkpt>
      <trkpt lat="61.085409822038" lon="13.733658744267">
        <ele>357.2</ele>
        <time>2018-08-11T12:55:38Z</time>
      </trkpt>
      <trkpt lat="61.085595564942" lon="13.733497644149">
        <ele>355.8</ele>
        <time>2018-08-11T12:55:43Z</time>
      </trkpt>
      <trkpt lat="61.085795557076" lon="13.733387841259">
        <ele>354.2</ele>
        <time>2018-08-11T12:55:48Z</time>
      </trkpt>
      <trkpt lat="61.085919106282" lon="13.733647847797">
        <ele>354.2</ele>
        <time>2018-08-11T12:55:53Z</time>
      </trkpt>
      <trkpt lat="61.086002925282" lon="13.734037019414">
        <ele>355</ele>
        <time>2018-08-11T12:55:59Z</time>
      </trkpt>
      <trkpt lat="61.086086409006" lon="13.734394339811">
        <ele>358.2</ele>
        <time>2018-08-11T12:56:05Z</time>
      </trkpt>
      <trkpt lat="61.086195457525" lon="13.734702793731">
        <ele>362.2</ele>
        <time>2018-08-11T12:56:12Z</time>
      </trkpt>
      <trkpt lat="61.086356306186" lon="13.734971768902">
        <ele>365.4</ele>
        <time>2018-08-11T12:56:20Z</time>
      </trkpt>
      <trkpt lat="61.086497038287" lon="13.735212916165">
        <ele>367.4</ele>
        <time>2018-08-11T12:56:27Z</time>
      </trkpt>
      <trkpt lat="61.086642715709" lon="13.735444759519">
        <ele>370</ele>
        <time>2018-08-11T12:56:34Z</time>
      </trkpt>
      <trkpt lat="61.086796439755" lon="13.735714908156">
        <ele>373</ele>
        <time>2018-08-11T12:56:42Z</time>
      </trkpt>
      <trkpt lat="61.086912780527" lon="13.736025876646">
        <ele>377</ele>
        <time>2018-08-11T12:56:50Z</time>
      </trkpt>
      <trkpt lat="61.086976985881" lon="13.736387304174">
        <ele>380.4</ele>
        <time>2018-08-11T12:56:58Z</time>
      </trkpt>
      <trkpt lat="61.086981176831" lon="13.736768848262">
        <ele>384.2</ele>
        <time>2018-08-11T12:57:06Z</time>
      </trkpt>
      <trkpt lat="61.086990816016" lon="13.737189284366">
        <ele>385.2</ele>
        <time>2018-08-11T12:57:15Z</time>
      </trkpt>
      <trkpt lat="61.087002131581" lon="13.737583149847">
        <ele>384.8</ele>
        <time>2018-08-11T12:57:24Z</time>
      </trkpt>
      <trkpt lat="61.087031971145" lon="13.737971734731">
        <ele>386.6</ele>
        <time>2018-08-11T12:57:36Z</time>
      </trkpt>
      <trkpt lat="61.087057871216" lon="13.738359565244">
        <ele>390</ele>
        <time>2018-08-11T12:57:47Z</time>
      </trkpt>
      <trkpt lat="61.087075221749" lon="13.738731302509">
        <ele>392.8</ele>
        <time>2018-08-11T12:57:57Z</time>
      </trkpt>
      <trkpt lat="61.087061140157" lon="13.739141847971">
        <ele>393.6</ele>
        <time>2018-08-11T12:58:07Z</time>
      </trkpt>
      <trkpt lat="61.087031216774" lon="13.739526493362">
        <ele>394.2</ele>
        <time>2018-08-11T12:58:17Z</time>
      </trkpt>
      <trkpt lat="61.086975141863" lon="13.73990217012">
        <ele>395.4</ele>
        <time>2018-08-11T12:58:27Z</time>
      </trkpt>
      <trkpt lat="61.086908421939" lon="13.740271560453">
        <ele>395.2</ele>
        <time>2018-08-11T12:58:35Z</time>
      </trkpt>
      <trkpt lat="61.086886796637" lon="13.740672382911">
        <ele>395.8</ele>
        <time>2018-08-11T12:58:44Z</time>
      </trkpt>
      <trkpt lat="61.086880426393" lon="13.741069936428">
        <ele>397.2</ele>
        <time>2018-08-11T12:58:51Z</time>
      </trkpt>
      <trkpt lat="61.086864081688" lon="13.741496239862">
        <ele>397.2</ele>
        <time>2018-08-11T12:58:58Z</time>
      </trkpt>
      <trkpt lat="61.086826530776" lon="13.741906869143">
        <ele>398.4</ele>
        <time>2018-08-11T12:59:05Z</time>
      </trkpt>
      <trkpt lat="61.086801385076" lon="13.742277097666">
        <ele>399</ele>
        <time>2018-08-11T12:59:11Z</time>
      </trkpt>
      <trkpt lat="61.086787471122" lon="13.742706586222">
        <ele>399.6</ele>
        <time>2018-08-11T12:59:18Z</time>
      </trkpt>
      <trkpt lat="61.086780346507" lon="13.743128028154">
        <ele>399.8</ele>
        <time>2018-08-11T12:59:25Z</time>
      </trkpt>
      <trkpt lat="61.086769282399" lon="13.743514517563">
        <ele>401.2</ele>
        <time>2018-08-11T12:59:32Z</time>
      </trkpt>
      <trkpt lat="61.086761403413" lon="13.743889356131">
        <ele>403.6</ele>
        <time>2018-08-11T12:59:40Z</time>
      </trkpt>
      <trkpt lat="61.086747992373" lon="13.744295375367">
        <ele>407.2</ele>
        <time>2018-08-11T12:59:50Z</time>
      </trkpt>
      <trkpt lat="61.086735000428" lon="13.744668286098">
        <ele>409.4</ele>
        <time>2018-08-11T12:59:59Z</time>
      </trkpt>
      <trkpt lat="61.086713458945" lon="13.745055278421">
        <ele>410.6</ele>
        <time>2018-08-11T13:00:05Z</time>
      </trkpt>
      <trkpt lat="61.086679847526" lon="13.745425926039">
        <ele>409.6</ele>
        <time>2018-08-11T13:00:11Z</time>
      </trkpt>
      <trkpt lat="61.086629137031" lon="13.745808140679">
        <ele>408.2</ele>
        <time>2018-08-11T13:00:18Z</time>
      </trkpt>
      <trkpt lat="61.086578761812" lon="13.746213154087">
        <ele>407.2</ele>
        <time>2018-08-11T13:00:25Z</time>
      </trkpt>
      <trkpt lat="61.086546072402" lon="13.746600649324">
        <ele>406.2</ele>
        <time>2018-08-11T13:00:31Z</time>
      </trkpt>
      <trkpt lat="61.086539450701" lon="13.746990659131">
        <ele>407</ele>
        <time>2018-08-11T13:00:38Z</time>
      </trkpt>
      <trkpt lat="61.086518412132" lon="13.747387709734">
        <ele>408.6</ele>
        <time>2018-08-11T13:00:45Z</time>
      </trkpt>
      <trkpt lat="61.086496703011" lon="13.747812504426">
        <ele>410</ele>
        <time>2018-08-11T13:00:53Z</time>
      </trkpt>
      <trkpt lat="61.086490248948" lon="13.748186420985">
        <ele>411.2</ele>
        <time>2018-08-11T13:00:59Z</time>
      </trkpt>
      <trkpt lat="61.086496200097" lon="13.748571988385">
        <ele>415</ele>
        <time>2018-08-11T13:01:06Z</time>
      </trkpt>
      <trkpt lat="61.086469294198" lon="13.748941378718">
        <ele>418.6</ele>
        <time>2018-08-11T13:01:13Z</time>
      </trkpt>
      <trkpt lat="61.086437945892" lon="13.749321916978">
        <ele>421.6</ele>
        <time>2018-08-11T13:01:20Z</time>
      </trkpt>
      <trkpt lat="61.086418918979" lon="13.749707568197">
        <ele>423.4</ele>
        <time>2018-08-11T13:01:27Z</time>
      </trkpt>
      <trkpt lat="61.086400897894" lon="13.750105540809">
        <ele>424.8</ele>
        <time>2018-08-11T13:01:34Z</time>
      </trkpt>
      <trkpt lat="61.086383295904" lon="13.750530000225">
        <ele>425.2</ele>
        <time>2018-08-11T13:01:41Z</time>
      </trkpt>
      <trkpt lat="61.08637524928" lon="13.750938450212">
        <ele>425</ele>
        <time>2018-08-11T13:01:47Z</time>
      </trkpt>
      <trkpt lat="61.086361335326" lon="13.751313540237">
        <ele>425</ele>
        <time>2018-08-11T13:01:53Z</time>
      </trkpt>
      <trkpt lat="61.086351528503" lon="13.751698688542">
        <ele>426</ele>
        <time>2018-08-11T13:02:00Z</time>
      </trkpt>
      <trkpt lat="61.086336357264" lon="13.75212884765">
        <ele>424</ele>
        <time>2018-08-11T13:02:08Z</time>
      </trkpt>
      <trkpt lat="61.086310960107" lon="13.752515588516">
        <ele>423</ele>
        <time>2018-08-11T13:02:15Z</time>
      </trkpt>
      <trkpt lat="61.086294196307" lon="13.75288992417">
        <ele>423</ele>
        <time>2018-08-11T13:02:22Z</time>
      </trkpt>
      <trkpt lat="61.086270140254" lon="13.753293512655">
        <ele>423.6</ele>
        <time>2018-08-11T13:02:30Z</time>
      </trkpt>
      <trkpt lat="61.086250945703" lon="13.753693664561">
        <ele>424.4</ele>
        <time>2018-08-11T13:02:39Z</time>
      </trkpt>
      <trkpt lat="61.086237618482" lon="13.754113933027">
        <ele>425</ele>
        <time>2018-08-11T13:02:47Z</time>
      </trkpt>
      <trkpt lat="61.086267290408" lon="13.754520371358">
        <ele>427.2</ele>
        <time>2018-08-11T13:02:55Z</time>
      </trkpt>
      <trkpt lat="61.086379524049" lon="13.754863610163">
        <ele>426.6</ele>
        <time>2018-08-11T13:03:03Z</time>
      </trkpt>
      <trkpt lat="61.086463845963" lon="13.755209950271">
        <ele>426.6</ele>
        <time>2018-08-11T13:03:10Z</time>
      </trkpt>
      <trkpt lat="61.086463510687" lon="13.755603648114">
        <ele>424.8</ele>
        <time>2018-08-11T13:03:16Z</time>
      </trkpt>
      <trkpt lat="61.086454122959" lon="13.755998519423">
        <ele>423.8</ele>
        <time>2018-08-11T13:03:21Z</time>
      </trkpt>
      <trkpt lat="61.086452027484" lon="13.756444185046">
        <ele>423.4</ele>
        <time>2018-08-11T13:03:26Z</time>
      </trkpt>
      <trkpt lat="61.08645906828" lon="13.756713579312">
        <ele>423</ele>
        <time>2018-08-11T13:03:29Z</time>
      </trkpt>
      <trkpt lat="61.086483459609" lon="13.757160418401">
        <ele>422.6</ele>
        <time>2018-08-11T13:03:34Z</time>
      </trkpt>
      <trkpt lat="61.086511706612" lon="13.757517235884">
        <ele>422.2</ele>
        <time>2018-08-11T13:03:38Z</time>
      </trkpt>
      <trkpt lat="61.086536014122" lon="13.757889643701">
        <ele>421.8</ele>
        <time>2018-08-11T13:03:42Z</time>
      </trkpt>
      <trkpt lat="61.086587395169" lon="13.758332878573">
        <ele>421.8</ele>
        <time>2018-08-11T13:03:47Z</time>
      </trkpt>
      <trkpt lat="61.086606002987" lon="13.758705789304">
        <ele>422.2</ele>
        <time>2018-08-11T13:03:51Z</time>
      </trkpt>
      <trkpt lat="61.086599716562" lon="13.758883485584">
        <ele>422.4</ele>
        <time>2018-08-11T13:03:53Z</time>
      </trkpt>
      <trkpt lat="61.086524698557" lon="13.759291348838">
        <ele>422.8</ele>
        <time>2018-08-11T13:03:58Z</time>
      </trkpt>
      <trkpt lat="61.086412213459" lon="13.75963567729">
        <ele>423.2</ele>
        <time>2018-08-11T13:04:03Z</time>
      </trkpt>
      <trkpt lat="61.086273744471" lon="13.759991656583">
        <ele>423.4</ele>
        <time>2018-08-11T13:04:08Z</time>
      </trkpt>
      <trkpt lat="61.086152877473" lon="13.760265744713">
        <ele>423.8</ele>
        <time>2018-08-11T13:04:12Z</time>
      </trkpt>
      <trkpt lat="61.086034692683" lon="13.760563134525">
        <ele>424</ele>
        <time>2018-08-11T13:04:16Z</time>
      </trkpt>
      <trkpt lat="61.085912987495" lon="13.760911318651">
        <ele>424.4</ele>
        <time>2018-08-11T13:04:20Z</time>
      </trkpt>
      <trkpt lat="61.085811650324" lon="13.761233183611">
        <ele>425.4</ele>
        <time>2018-08-11T13:04:24Z</time>
      </trkpt>
      <trkpt lat="61.085777200715" lon="13.761406437484">
        <ele>425.6</ele>
        <time>2018-08-11T13:04:26Z</time>
      </trkpt>
      <trkpt lat="61.085731016446" lon="13.761769960487">
        <ele>426</ele>
        <time>2018-08-11T13:04:30Z</time>
      </trkpt>
      <trkpt lat="61.085713582094" lon="13.762045389721">
        <ele>425.8</ele>
        <time>2018-08-11T13:04:33Z</time>
      </trkpt>
      <trkpt lat="61.085728082781" lon="13.762475967924">
        <ele>424</ele>
        <time>2018-08-11T13:04:37Z</time>
      </trkpt>
      <trkpt lat="61.08577342886" lon="13.762914257475">
        <ele>421.4</ele>
        <time>2018-08-11T13:04:40Z</time>
      </trkpt>
      <trkpt lat="61.085899324998" lon="13.763366377161">
        <ele>419.4</ele>
        <time>2018-08-11T13:04:43Z</time>
      </trkpt>
      <trkpt lat="61.085988256957" lon="13.76369670784">
        <ele>418.4</ele>
        <time>2018-08-11T13:04:45Z</time>
      </trkpt>
      <trkpt lat="61.086070818672" lon="13.764116473392">
        <ele>421.6</ele>
        <time>2018-08-11T13:04:48Z</time>
      </trkpt>
      <trkpt lat="61.086150027627" lon="13.764557948065">
        <ele>421.4</ele>
        <time>2018-08-11T13:04:52Z</time>
      </trkpt>
      <trkpt lat="61.086246587115" lon="13.765017192366">
        <ele>419.8</ele>
        <time>2018-08-11T13:04:56Z</time>
      </trkpt>
      <trkpt lat="61.086351025589" lon="13.765432012597">
        <ele>418.2</ele>
        <time>2018-08-11T13:04:59Z</time>
      </trkpt>
      <trkpt lat="61.086468456008" lon="13.76585253252">
        <ele>417.4</ele>
        <time>2018-08-11T13:05:02Z</time>
      </trkpt>
      <trkpt lat="61.086567781523" lon="13.766260982507">
        <ele>418</ele>
        <time>2018-08-11T13:05:05Z</time>
      </trkpt>
      <trkpt lat="61.086648834496" lon="13.766654009798">
        <ele>418</ele>
        <time>2018-08-11T13:05:08Z</time>
      </trkpt>
      <trkpt lat="61.08670633433" lon="13.767030860022">
        <ele>417.8</ele>
        <time>2018-08-11T13:05:11Z</time>
      </trkpt>
      <trkpt lat="61.086728797822" lon="13.767148458079">
        <ele>417.6</ele>
        <time>2018-08-11T13:05:12Z</time>
      </trkpt>
      <trkpt lat="61.086790404787" lon="13.767567636898">
        <ele>417.4</ele>
        <time>2018-08-11T13:05:16Z</time>
      </trkpt>
      <trkpt lat="61.086768528028" lon="13.768021013869">
        <ele>417.4</ele>
        <time>2018-08-11T13:05:20Z</time>
      </trkpt>
      <trkpt lat="61.086773976263" lon="13.768356373688">
        <ele>417.4</ele>
        <time>2018-08-11T13:05:23Z</time>
      </trkpt>
      <trkpt lat="61.086806665673" lon="13.768797848361">
        <ele>417.4</ele>
        <time>2018-08-11T13:05:27Z</time>
      </trkpt>
      <trkpt lat="61.086848994268" lon="13.769189618367">
        <ele>417.4</ele>
        <time>2018-08-11T13:05:31Z</time>
      </trkpt>
      <trkpt lat="61.086870368113" lon="13.769407799224">
        <ele>417.6</ele>
        <time>2018-08-11T13:05:33Z</time>
      </trkpt>
      <trkpt lat="61.08687816328" lon="13.769829324975">
        <ele>418</ele>
        <time>2018-08-11T13:05:37Z</time>
      </trkpt>
      <trkpt lat="61.086975980053" lon="13.770159907111">
        <ele>417.8</ele>
        <time>2018-08-11T13:05:42Z</time>
      </trkpt>
      <trkpt lat="61.087045130728" lon="13.770500379889">
        <ele>417.2</ele>
        <time>2018-08-11T13:05:47Z</time>
      </trkpt>
      <trkpt lat="61.087118220896" lon="13.770897262854">
        <ele>417.6</ele>
        <time>2018-08-11T13:05:54Z</time>
      </trkpt>
      <trkpt lat="61.087175469273" lon="13.771329768894">
        <ele>418.8</ele>
        <time>2018-08-11T13:06:00Z</time>
      </trkpt>
      <trkpt lat="61.087195585833" lon="13.771755234138">
        <ele>418</ele>
        <time>2018-08-11T13:06:06Z</time>
      </trkpt>
      <trkpt lat="61.087188964132" lon="13.772198049915">
        <ele>417.4</ele>
        <time>2018-08-11T13:06:12Z</time>
      </trkpt>
      <trkpt lat="61.087044627814" lon="13.772400556619">
        <ele>414.6</ele>
        <time>2018-08-11T13:06:17Z</time>
      </trkpt>
      <trkpt lat="61.087011938404" lon="13.772403322646">
        <ele>413.8</ele>
        <time>2018-08-11T13:06:18Z</time>
      </trkpt>
      <trkpt lat="61.086925437196" lon="13.772531984811">
        <ele>412.2</ele>
        <time>2018-08-11T13:06:21Z</time>
      </trkpt>
      <trkpt lat="61.086884952619" lon="13.772811688814">
        <ele>410.4</ele>
        <time>2018-08-11T13:06:25Z</time>
      </trkpt>
      <trkpt lat="61.086939183512" lon="13.773205638114">
        <ele>408</ele>
        <time>2018-08-11T13:06:31Z</time>
      </trkpt>
      <trkpt lat="61.087044041081" lon="13.773533370404">
        <ele>407.6</ele>
        <time>2018-08-11T13:06:36Z</time>
      </trkpt>
      <trkpt lat="61.087114700498" lon="13.773883398548">
        <ele>406.8</ele>
        <time>2018-08-11T13:06:43Z</time>
      </trkpt>
      <trkpt lat="61.087096260318" lon="13.774288747232">
        <ele>404.2</ele>
        <time>2018-08-11T13:06:50Z</time>
      </trkpt>
      <trkpt lat="61.087080669984" lon="13.77436854292">
        <ele>403.6</ele>
        <time>2018-08-11T13:06:51Z</time>
      </trkpt>
      <trkpt lat="61.087111012462" lon="13.774810101412">
        <ele>401</ele>
        <time>2018-08-11T13:06:56Z</time>
      </trkpt>
      <trkpt lat="61.08714554589" lon="13.774921496863">
        <ele>400.2</ele>
        <time>2018-08-11T13:06:57Z</time>
      </trkpt>
      <trkpt lat="61.087285355982" lon="13.775376969309">
        <ele>398.4</ele>
        <time>2018-08-11T13:07:00Z</time>
      </trkpt>
      <trkpt lat="61.087377556882" lon="13.775698163717">
        <ele>397.8</ele>
        <time>2018-08-11T13:07:02Z</time>
      </trkpt>
      <trkpt lat="61.08747663094" lon="13.776174507094">
        <ele>398</ele>
        <time>2018-08-11T13:07:05Z</time>
      </trkpt>
      <trkpt lat="61.087537651172" lon="13.776669290651">
        <ele>396.4</ele>
        <time>2018-08-11T13:07:08Z</time>
      </trkpt>
      <trkpt lat="61.087589199857" lon="13.777106658193">
        <ele>395.4</ele>
        <time>2018-08-11T13:07:11Z</time>
      </trkpt>
      <trkpt lat="61.087611495711" lon="13.777225848811">
        <ele>395</ele>
        <time>2018-08-11T13:07:12Z</time>
      </trkpt>
      <trkpt lat="61.087689195924" lon="13.777538409862">
        <ele>393.6</ele>
        <time>2018-08-11T13:07:15Z</time>
      </trkpt>
      <trkpt lat="61.087740996066" lon="13.777687607682">
        <ele>392.8</ele>
        <time>2018-08-11T13:07:17Z</time>
      </trkpt>
      <trkpt lat="61.087828838378" lon="13.777944764374">
        <ele>391.6</ele>
        <time>2018-08-11T13:07:21Z</time>
      </trkpt>
      <trkpt lat="61.087953058136" lon="13.778308287377">
        <ele>390</ele>
        <time>2018-08-11T13:07:26Z</time>
      </trkpt>
      <trkpt lat="61.088076607342" lon="13.778629984699">
        <ele>387.8</ele>
        <time>2018-08-11T13:07:31Z</time>
      </trkpt>
      <trkpt lat="61.088232845958" lon="13.77889728349">
        <ele>386.4</ele>
        <time>2018-08-11T13:07:36Z</time>
      </trkpt>
      <trkpt lat="61.088269139585" lon="13.7789551186">
        <ele>386.2</ele>
        <time>2018-08-11T13:07:37Z</time>
      </trkpt>
      <trkpt lat="61.088388246384" lon="13.779259213932">
        <ele>385</ele>
        <time>2018-08-11T13:07:41Z</time>
      </trkpt>
      <trkpt lat="61.088479860551" lon="13.779582252358">
        <ele>383.8</ele>
        <time>2018-08-11T13:07:45Z</time>
      </trkpt>
      <trkpt lat="61.08857130708" lon="13.77991316977">
        <ele>382.6</ele>
        <time>2018-08-11T13:07:50Z</time>
      </trkpt>
      <trkpt lat="61.088659400849" lon="13.780266466855">
        <ele>381.4</ele>
        <time>2018-08-11T13:07:54Z</time>
      </trkpt>
      <trkpt lat="61.08868781549" lon="13.780365373275">
        <ele>381.4</ele>
        <time>2018-08-11T13:07:55Z</time>
      </trkpt>
      <trkpt lat="61.088822093528" lon="13.780711294288">
        <ele>382.4</ele>
        <time>2018-08-11T13:07:59Z</time>
      </trkpt>
      <trkpt lat="61.088984115655" lon="13.781063585545">
        <ele>382.4</ele>
        <time>2018-08-11T13:08:03Z</time>
      </trkpt>
      <trkpt lat="61.08911361601" lon="13.78144705747">
        <ele>381.4</ele>
        <time>2018-08-11T13:08:07Z</time>
      </trkpt>
      <trkpt lat="61.089140018995" lon="13.781565409898">
        <ele>381</ele>
        <time>2018-08-11T13:08:08Z</time>
      </trkpt>
      <trkpt lat="61.089188969291" lon="13.781928765263">
        <ele>380.6</ele>
        <time>2018-08-11T13:08:11Z</time>
      </trkpt>
      <trkpt lat="61.08921755157" lon="13.782303268555">
        <ele>379.6</ele>
        <time>2018-08-11T13:08:14Z</time>
      </trkpt>
      <trkpt lat="61.089260466898" lon="13.7826683003">
        <ele>379.2</ele>
        <time>2018-08-11T13:08:17Z</time>
      </trkpt>
      <trkpt lat="61.089306064434" lon="13.783080103047">
        <ele>378.6</ele>
        <time>2018-08-11T13:08:21Z</time>
      </trkpt>
      <trkpt lat="61.089326097175" lon="13.783450666846">
        <ele>379</ele>
        <time>2018-08-11T13:08:25Z</time>
      </trkpt>
      <trkpt lat="61.089322409139" lon="13.783628446945">
        <ele>379.4</ele>
        <time>2018-08-11T13:08:27Z</time>
      </trkpt>
      <trkpt lat="61.08929298867" lon="13.784031532516">
        <ele>381</ele>
        <time>2018-08-11T13:08:32Z</time>
      </trkpt>
      <trkpt lat="61.089291815204" lon="13.784416345545">
        <ele>383.4</ele>
        <time>2018-08-11T13:08:38Z</time>
      </trkpt>
      <trkpt lat="61.089324672252" lon="13.784720608515">
        <ele>383.2</ele>
        <time>2018-08-11T13:08:42Z</time>
      </trkpt>
      <trkpt lat="61.089383010276" lon="13.78514012261">
        <ele>383</ele>
        <time>2018-08-11T13:08:47Z</time>
      </trkpt>
      <trkpt lat="61.089388039416" lon="13.785573550659">
        <ele>382.4</ele>
        <time>2018-08-11T13:08:52Z</time>
      </trkpt>
      <trkpt lat="61.089400528447" lon="13.786011169658">
        <ele>381.8</ele>
        <time>2018-08-11T13:08:56Z</time>
      </trkpt>
      <trkpt lat="61.089418381894" lon="13.786453314883">
        <ele>381</ele>
        <time>2018-08-11T13:09:00Z</time>
      </trkpt>
      <trkpt lat="61.089449562562" lon="13.78688691057">
        <ele>380.6</ele>
        <time>2018-08-11T13:09:04Z</time>
      </trkpt>
      <trkpt lat="61.089483173981" lon="13.78734623869">
        <ele>379.4</ele>
        <time>2018-08-11T13:09:08Z</time>
      </trkpt>
      <trkpt lat="61.08950924169" lon="13.787725771122">
        <ele>378.8</ele>
        <time>2018-08-11T13:09:11Z</time>
      </trkpt>
      <trkpt lat="61.08954696024" lon="13.788135394575">
        <ele>378.8</ele>
        <time>2018-08-11T13:09:14Z</time>
      </trkpt>
      <trkpt lat="61.089596161993" lon="13.788535378843">
        <ele>378.6</ele>
        <time>2018-08-11T13:09:17Z</time>
      </trkpt>
      <trkpt lat="61.08964586666" lon="13.789005351976">
        <ele>378.6</ele>
        <time>2018-08-11T13:09:21Z</time>
      </trkpt>
      <trkpt lat="61.089669168342" lon="13.789472642901">
        <ele>378.6</ele>
        <time>2018-08-11T13:09:25Z</time>
      </trkpt>
      <trkpt lat="61.089720717027" lon="13.789919733447">
        <ele>379.2</ele>
        <time>2018-08-11T13:09:29Z</time>
      </trkpt>
      <trkpt lat="61.089800764172" lon="13.790336649153">
        <ele>379.2</ele>
        <time>2018-08-11T13:09:33Z</time>
      </trkpt>
      <trkpt lat="61.089904112999" lon="13.790643259055">
        <ele>379.2</ele>
        <time>2018-08-11T13:09:37Z</time>
      </trkpt>
      <trkpt lat="61.08993839497" lon="13.790677541026">
        <ele>379.2</ele>
        <time>2018-08-11T13:09:38Z</time>
      </trkpt>
      <trkpt lat="61.090016514278" lon="13.790488780638">
        <ele>380</ele>
        <time>2018-08-11T13:09:45Z</time>
      </trkpt>
      <trkpt lat="61.089967815439" lon="13.790107739464">
        <ele>382.2</ele>
        <time>2018-08-11T13:10:22Z</time>
      </trkpt>
      <trkpt lat="61.089871004494" lon="13.789784114305">
        <ele>383.6</ele>
        <time>2018-08-11T13:10:43Z</time>
      </trkpt>
      <trkpt lat="61.089904783551" lon="13.789710018309">
        <ele>383</ele>
        <time>2018-08-11T13:11:25Z</time>
      </trkpt>
      <trkpt lat="61.089814845764" lon="13.789457974576">
        <ele>386</ele>
        <time>2018-08-11T13:14:21Z</time>
      </trkpt>
      <trkpt lat="61.089787269313" lon="13.789302322693">
        <ele>386.2</ele>
        <time>2018-08-11T13:14:25Z</time>
      </trkpt>
      <trkpt lat="61.089718034819" lon="13.788942320088">
        <ele>386.8</ele>
        <time>2018-08-11T13:14:31Z</time>
      </trkpt>
      <trkpt lat="61.089639496416" lon="13.788540407983">
        <ele>387.2</ele>
        <time>2018-08-11T13:14:37Z</time>
      </trkpt>
      <trkpt lat="61.08958719336" lon="13.788120810069">
        <ele>387</ele>
        <time>2018-08-11T13:14:42Z</time>
      </trkpt>
      <trkpt lat="61.08955785671" lon="13.787715796661">
        <ele>387.8</ele>
        <time>2018-08-11T13:14:47Z</time>
      </trkpt>
      <trkpt lat="61.08952935825" lon="13.787294187091">
        <ele>387.2</ele>
        <time>2018-08-11T13:14:52Z</time>
      </trkpt>
      <trkpt lat="61.089489460406" lon="13.786883976905">
        <ele>388</ele>
        <time>2018-08-11T13:14:57Z</time>
      </trkpt>
      <trkpt lat="61.089446545078" lon="13.786440239119">
        <ele>388.8</ele>
        <time>2018-08-11T13:15:02Z</time>
      </trkpt>
      <trkpt lat="61.089428943088" lon="13.786068753311">
        <ele>389.4</ele>
        <time>2018-08-11T13:15:06Z</time>
      </trkpt>
      <trkpt lat="61.089432212029" lon="13.785690645802">
        <ele>390.2</ele>
        <time>2018-08-11T13:15:10Z</time>
      </trkpt>
      <trkpt lat="61.089464147068" lon="13.785308095886">
        <ele>390.8</ele>
        <time>2018-08-11T13:15:14Z</time>
      </trkpt>
      <trkpt lat="61.089582583315" lon="13.784931664757">
        <ele>390.4</ele>
        <time>2018-08-11T13:15:19Z</time>
      </trkpt>
      <trkpt lat="61.089640753701" lon="13.784782299299">
        <ele>390</ele>
        <time>2018-08-11T13:15:21Z</time>
      </trkpt>
      <trkpt lat="61.089782072535" lon="13.784486166772">
        <ele>388.6</ele>
        <time>2018-08-11T13:15:25Z</time>
      </trkpt>
      <trkpt lat="61.089951303096" lon="13.784202439457">
        <ele>387</ele>
        <time>2018-08-11T13:15:29Z</time>
      </trkpt>
      <trkpt lat="61.090106368246" lon="13.783952658837">
        <ele>385.4</ele>
        <time>2018-08-11T13:15:32Z</time>
      </trkpt>
      <trkpt lat="61.090279119205" lon="13.783690640643">
        <ele>384.6</ele>
        <time>2018-08-11T13:15:35Z</time>
      </trkpt>
      <trkpt lat="61.090458659503" lon="13.783468017379">
        <ele>384.4</ele>
        <time>2018-08-11T13:15:38Z</time>
      </trkpt>
      <trkpt lat="61.090618502336" lon="13.783287471253">
        <ele>384</ele>
        <time>2018-08-11T13:15:41Z</time>
      </trkpt>
      <trkpt lat="61.09080927438" lon="13.783088401128">
        <ele>383.8</ele>
        <time>2018-08-11T13:15:45Z</time>
      </trkpt>
      <trkpt lat="61.090974481629" lon="13.782938700394">
        <ele>383.2</ele>
        <time>2018-08-11T13:15:49Z</time>
      </trkpt>
      <trkpt lat="61.09105654043" lon="13.782853707928">
        <ele>383.4</ele>
        <time>2018-08-11T13:15:51Z</time>
      </trkpt>
      <trkpt lat="61.09113868305" lon="13.782762345218">
        <ele>383</ele>
        <time>2018-08-11T13:15:53Z</time>
      </trkpt>
      <trkpt lat="61.091304896127" lon="13.782557407763">
        <ele>382.6</ele>
        <time>2018-08-11T13:15:57Z</time>
      </trkpt>
      <trkpt lat="61.091481251303" lon="13.782328749531">
        <ele>383.2</ele>
        <time>2018-08-11T13:16:01Z</time>
      </trkpt>
      <trkpt lat="61.091673112994" lon="13.782050470451">
        <ele>382.4</ele>
        <time>2018-08-11T13:16:05Z</time>
      </trkpt>
      <trkpt lat="61.09182599885" lon="13.781830697033">
        <ele>382</ele>
        <time>2018-08-11T13:16:08Z</time>
      </trkpt>
      <trkpt lat="61.091980728724" lon="13.78159457891">
        <ele>381.4</ele>
        <time>2018-08-11T13:16:11Z</time>
      </trkpt>
      <trkpt lat="61.092077707307" lon="13.781434149344">
        <ele>381.6</ele>
        <time>2018-08-11T13:16:13Z</time>
      </trkpt>
      <trkpt lat="61.09221324263" lon="13.781143381233">
        <ele>382</ele>
        <time>2018-08-11T13:16:16Z</time>
      </trkpt>
      <trkpt lat="61.092327739384" lon="13.780829898173">
        <ele>382.2</ele>
        <time>2018-08-11T13:16:19Z</time>
      </trkpt>
      <trkpt lat="61.092450198943" lon="13.780417592512">
        <ele>382.4</ele>
        <time>2018-08-11T13:16:23Z</time>
      </trkpt>
      <trkpt lat="61.092559918014" lon="13.780025151954">
        <ele>382.8</ele>
        <time>2018-08-11T13:16:27Z</time>
      </trkpt>
      <trkpt lat="61.092660668452" lon="13.779603458565">
        <ele>382.8</ele>
        <time>2018-08-11T13:16:31Z</time>
      </trkpt>
      <trkpt lat="61.092743397805" lon="13.779154775458">
        <ele>383.8</ele>
        <time>2018-08-11T13:16:35Z</time>
      </trkpt>
      <trkpt lat="61.092798885983" lon="13.77881765544">
        <ele>383.6</ele>
        <time>2018-08-11T13:16:38Z</time>
      </trkpt>
      <trkpt lat="61.092972223675" lon="13.77851003971">
        <ele>381.4</ele>
        <time>2018-08-11T13:16:42Z</time>
      </trkpt>
      <trkpt lat="61.093200127536" lon="13.77851674523">
        <ele>380</ele>
        <time>2018-08-11T13:16:46Z</time>
      </trkpt>
      <trkpt lat="61.09333138809" lon="13.778563516232">
        <ele>379.8</ele>
        <time>2018-08-11T13:16:48Z</time>
      </trkpt>
      <trkpt lat="61.093521992496" lon="13.778622440989">
        <ele>380</ele>
        <time>2018-08-11T13:16:51Z</time>
      </trkpt>
      <trkpt lat="61.093699102043" lon="13.778708858378">
        <ele>379.6</ele>
        <time>2018-08-11T13:16:54Z</time>
      </trkpt>
      <trkpt lat="61.093876630685" lon="13.778807345703">
        <ele>379.6</ele>
        <time>2018-08-11T13:16:57Z</time>
      </trkpt>
      <trkpt lat="61.094054410784" lon="13.77894338394">
        <ele>379.4</ele>
        <time>2018-08-11T13:17:00Z</time>
      </trkpt>
      <trkpt lat="61.094216013816" lon="13.779131054681">
        <ele>378.6</ele>
        <time>2018-08-11T13:17:03Z</time>
      </trkpt>
      <trkpt lat="61.094341574678" lon="13.779411177779">
        <ele>377.8</ele>
        <time>2018-08-11T13:17:06Z</time>
      </trkpt>
      <trkpt lat="61.094372755346" lon="13.779526847999">
        <ele>377.6</ele>
        <time>2018-08-11T13:17:07Z</time>
      </trkpt>
      <trkpt lat="61.094459172735" lon="13.779877211419">
        <ele>376.8</ele>
        <time>2018-08-11T13:17:10Z</time>
      </trkpt>
      <trkpt lat="61.094523797184" lon="13.780226988106">
        <ele>376</ele>
        <time>2018-08-11T13:17:13Z</time>
      </trkpt>
      <trkpt lat="61.094583141036" lon="13.78058539815">
        <ele>375.4</ele>
        <time>2018-08-11T13:17:16Z</time>
      </trkpt>
      <trkpt lat="61.094662769086" lon="13.781014970525">
        <ele>374.4</ele>
        <time>2018-08-11T13:17:20Z</time>
      </trkpt>
      <trkpt lat="61.094721526205" lon="13.781196606298">
        <ele>373.6</ele>
        <time>2018-08-11T13:17:22Z</time>
      </trkpt>
      <trkpt lat="61.094835268588" lon="13.781431215679">
        <ele>373.4</ele>
        <time>2018-08-11T13:17:26Z</time>
      </trkpt>
      <trkpt lat="61.094963763115" lon="13.781702873058">
        <ele>373.6</ele>
        <time>2018-08-11T13:17:33Z</time>
      </trkpt>
      <trkpt lat="61.095112206564" lon="13.78194997147">
        <ele>373.2</ele>
        <time>2018-08-11T13:17:40Z</time>
      </trkpt>
      <trkpt lat="61.095253609217" lon="13.782194052398">
        <ele>374.2</ele>
        <time>2018-08-11T13:17:45Z</time>
      </trkpt>
      <trkpt lat="61.095400460105" lon="13.782462608474">
        <ele>375.2</ele>
        <time>2018-08-11T13:17:49Z</time>
      </trkpt>
      <trkpt lat="61.095580838593" lon="13.782785814538">
        <ele>377.4</ele>
        <time>2018-08-11T13:17:53Z</time>
      </trkpt>
      <trkpt lat="61.095735903743" lon="13.783111618991">
        <ele>379.8</ele>
        <time>2018-08-11T13:17:57Z</time>
      </trkpt>
      <trkpt lat="61.09585182542" lon="13.783344887268">
        <ele>380.8</ele>
        <time>2018-08-11T13:18:00Z</time>
      </trkpt>
      <trkpt lat="61.096025246931" lon="13.783556027329">
        <ele>382.4</ele>
        <time>2018-08-11T13:18:04Z</time>
      </trkpt>
      <trkpt lat="61.096105629352" lon="13.783640265424">
        <ele>383</ele>
        <time>2018-08-11T13:18:06Z</time>
      </trkpt>
      <trkpt lat="61.096239823571" lon="13.783778482955">
        <ele>384.6</ele>
        <time>2018-08-11T13:18:09Z</time>
      </trkpt>
      <trkpt lat="61.096421878439" lon="13.783970679922">
        <ele>385</ele>
        <time>2018-08-11T13:18:13Z</time>
      </trkpt>
      <trkpt lat="61.09657769796" lon="13.784114429507">
        <ele>385</ele>
        <time>2018-08-11T13:18:17Z</time>
      </trkpt>
      <trkpt lat="61.096770649298" lon="13.784000016572">
        <ele>385.6</ele>
        <time>2018-08-11T13:18:23Z</time>
      </trkpt>
      <trkpt lat="61.096935940366" lon="13.783774375824">
        <ele>385.6</ele>
        <time>2018-08-11T13:18:29Z</time>
      </trkpt>
      <trkpt lat="61.097119336338" lon="13.783653425007">
        <ele>384.4</ele>
        <time>2018-08-11T13:18:33Z</time>
      </trkpt>
      <trkpt lat="61.097271384004" lon="13.783447984638">
        <ele>384.4</ele>
        <time>2018-08-11T13:18:37Z</time>
      </trkpt>
      <trkpt lat="61.097423515489" lon="13.783198623113">
        <ele>384.2</ele>
        <time>2018-08-11T13:18:44Z</time>
      </trkpt>
      <trkpt lat="61.097577407173" lon="13.78298094517">
        <ele>385.6</ele>
        <time>2018-08-11T13:18:52Z</time>
      </trkpt>
      <trkpt lat="61.09772853283" lon="13.782743066848">
        <ele>389.2</ele>
        <time>2018-08-11T13:19:06Z</time>
      </trkpt>
      <trkpt lat="61.097867337094" lon="13.782435618756">
        <ele>391.2</ele>
        <time>2018-08-11T13:19:18Z</time>
      </trkpt>
      <trkpt lat="61.098029359221" lon="13.782250630223">
        <ele>390.4</ele>
        <time>2018-08-11T13:19:25Z</time>
      </trkpt>
      <trkpt lat="61.098159530128" lon="13.782123644438">
        <ele>389.4</ele>
        <time>2018-08-11T13:19:29Z</time>
      </trkpt>
      <trkpt lat="61.098338148417" lon="13.781887777772">
        <ele>388.4</ele>
        <time>2018-08-11T13:19:33Z</time>
      </trkpt>
      <trkpt lat="61.098489022617" lon="13.781728437853">
        <ele>389</ele>
        <time>2018-08-11T13:19:36Z</time>
      </trkpt>
      <trkpt lat="61.098680800489" lon="13.781663897223">
        <ele>389.2</ele>
        <time>2018-08-11T13:19:40Z</time>
      </trkpt>
      <trkpt lat="61.098877020768" lon="13.781625508121">
        <ele>388.6</ele>
        <time>2018-08-11T13:19:44Z</time>
      </trkpt>
      <trkpt lat="61.099070894115" lon="13.781587286657">
        <ele>388.4</ele>
        <time>2018-08-11T13:19:48Z</time>
      </trkpt>
      <trkpt lat="61.099276837398" lon="13.781667836716">
        <ele>387.6</ele>
        <time>2018-08-11T13:19:53Z</time>
      </trkpt>
      <trkpt lat="61.099479930835" lon="13.781730198052">
        <ele>387</ele>
        <time>2018-08-11T13:19:57Z</time>
      </trkpt>
      <trkpt lat="61.099692914914" lon="13.781701196678">
        <ele>385.6</ele>
        <time>2018-08-11T13:20:01Z</time>
      </trkpt>
      <trkpt lat="61.099793497714" lon="13.781666830888">
        <ele>385</ele>
        <time>2018-08-11T13:20:03Z</time>
      </trkpt>
      <trkpt lat="61.099986868147" lon="13.781533055764">
        <ele>385.8</ele>
        <time>2018-08-11T13:20:08Z</time>
      </trkpt>
      <trkpt lat="61.100174203612" lon="13.781418139915">
        <ele>385.2</ele>
        <time>2018-08-11T13:20:14Z</time>
      </trkpt>
      <trkpt lat="61.100371932633" lon="13.781548981374">
        <ele>387.6</ele>
        <time>2018-08-11T13:20:21Z</time>
      </trkpt>
      <trkpt lat="61.100499253694" lon="13.78182927211">
        <ele>390.6</ele>
        <time>2018-08-11T13:20:26Z</time>
      </trkpt>
      <trkpt lat="61.100619282502" lon="13.78218885562">
        <ele>392.2</ele>
        <time>2018-08-11T13:20:32Z</time>
      </trkpt>
      <trkpt lat="61.100689941919" lon="13.782548522949">
        <ele>393.8</ele>
        <time>2018-08-11T13:20:38Z</time>
      </trkpt>
      <trkpt lat="61.100733863075" lon="13.782944986819">
        <ele>396.2</ele>
        <time>2018-08-11T13:20:46Z</time>
      </trkpt>
      <trkpt lat="61.100763283544" lon="13.783347485657">
        <ele>398.6</ele>
        <time>2018-08-11T13:20:55Z</time>
      </trkpt>
      <trkpt lat="61.100784154475" lon="13.783734645618">
        <ele>400.8</ele>
        <time>2018-08-11T13:21:04Z</time>
      </trkpt>
      <trkpt lat="61.100797314058" lon="13.7841435147">
        <ele>401.6</ele>
        <time>2018-08-11T13:21:12Z</time>
      </trkpt>
      <trkpt lat="61.100805193044" lon="13.784566046279">
        <ele>402.4</ele>
        <time>2018-08-11T13:21:19Z</time>
      </trkpt>
      <trkpt lat="61.100811898564" lon="13.784978519578">
        <ele>403.6</ele>
        <time>2018-08-11T13:21:26Z</time>
      </trkpt>
      <trkpt lat="61.10082313031" lon="13.785382527158">
        <ele>404.6</ele>
        <time>2018-08-11T13:21:33Z</time>
      </trkpt>
      <trkpt lat="61.100823046491" lon="13.785765999083">
        <ele>406.4</ele>
        <time>2018-08-11T13:21:47Z</time>
      </trkpt>
      <trkpt lat="61.100837966273" lon="13.78614343604">
        <ele>408.2</ele>
        <time>2018-08-11T13:22:06Z</time>
      </trkpt>
      <trkpt lat="61.10086001067" lon="13.786522381739">
        <ele>410</ele>
        <time>2018-08-11T13:22:24Z</time>
      </trkpt>
      <trkpt lat="61.100911307898" lon="13.786890598606">
        <ele>410.8</ele>
        <time>2018-08-11T13:22:41Z</time>
      </trkpt>
      <trkpt lat="61.101017003657" lon="13.787230149375">
        <ele>411.8</ele>
        <time>2018-08-11T13:22:55Z</time>
      </trkpt>
      <trkpt lat="61.101146420193" lon="13.787542291331">
        <ele>412</ele>
        <time>2018-08-11T13:23:01Z</time>
      </trkpt>
      <trkpt lat="61.101295785651" lon="13.787849320328">
        <ele>412.8</ele>
        <time>2018-08-11T13:23:07Z</time>
      </trkpt>
      <trkpt lat="61.101443642367" lon="13.788156936058">
        <ele>413.2</ele>
        <time>2018-08-11T13:23:13Z</time>
      </trkpt>
      <trkpt lat="61.101591582902" lon="13.788463210684">
        <ele>411.6</ele>
        <time>2018-08-11T13:23:18Z</time>
      </trkpt>
      <trkpt lat="61.101723262551" lon="13.788784321273">
        <ele>410.2</ele>
        <time>2018-08-11T13:23:22Z</time>
      </trkpt>
      <trkpt lat="61.101722089085" lon="13.789212301087">
        <ele>408</ele>
        <time>2018-08-11T13:23:26Z</time>
      </trkpt>
      <trkpt lat="61.1016370128" lon="13.789453280712">
        <ele>406.4</ele>
        <time>2018-08-11T13:23:28Z</time>
      </trkpt>
      <trkpt lat="61.101478427252" lon="13.789877153395">
        <ele>403.6</ele>
        <time>2018-08-11T13:23:31Z</time>
      </trkpt>
      <trkpt lat="61.10136963019" lon="13.790211088291">
        <ele>401.6</ele>
        <time>2018-08-11T13:23:33Z</time>
      </trkpt>
      <trkpt lat="61.101263263879" lon="13.790543430626">
        <ele>400</ele>
        <time>2018-08-11T13:23:35Z</time>
      </trkpt>
      <trkpt lat="61.101115490982" lon="13.790993287199">
        <ele>398</ele>
        <time>2018-08-11T13:23:38Z</time>
      </trkpt>
      <trkpt lat="61.10096562261" lon="13.791452782957">
        <ele>395.8</ele>
        <time>2018-08-11T13:23:41Z</time>
      </trkpt>
      <trkpt lat="61.100862273783" lon="13.791786466396">
        <ele>394</ele>
        <time>2018-08-11T13:23:43Z</time>
      </trkpt>
      <trkpt lat="61.100765965752" lon="13.792162310792">
        <ele>392.4</ele>
        <time>2018-08-11T13:23:45Z</time>
      </trkpt>
      <trkpt lat="61.100681057105" lon="13.792546704726">
        <ele>391.4</ele>
        <time>2018-08-11T13:23:47Z</time>
      </trkpt>
      <trkpt lat="61.100603356892" lon="13.792916178878">
        <ele>393.2</ele>
        <time>2018-08-11T13:23:49Z</time>
      </trkpt>
      <trkpt lat="61.100523142109" lon="13.793272912542">
        <ele>393</ele>
        <time>2018-08-11T13:23:51Z</time>
      </trkpt>
      <trkpt lat="61.100490117423" lon="13.79344993827">
        <ele>393</ele>
        <time>2018-08-11T13:23:52Z</time>
      </trkpt>
      <trkpt lat="61.100438820195" lon="13.793935837013">
        <ele>393.4</ele>
        <time>2018-08-11T13:23:55Z</time>
      </trkpt>
      <trkpt lat="61.10044510662" lon="13.794303383328">
        <ele>394.8</ele>
        <time>2018-08-11T13:23:58Z</time>
      </trkpt>
      <trkpt lat="61.1005222201" lon="13.794738906852">
        <ele>395</ele>
        <time>2018-08-11T13:24:02Z</time>
      </trkpt>
      <trkpt lat="61.100577959735" lon="13.795123468424">
        <ele>394.4</ele>
        <time>2018-08-11T13:24:05Z</time>
      </trkpt>
      <trkpt lat="61.100598998304" lon="13.795527392185">
        <ele>394</ele>
        <time>2018-08-11T13:24:08Z</time>
      </trkpt>
      <trkpt lat="61.100596232277" lon="13.795908768635">
        <ele>394</ele>
        <time>2018-08-11T13:24:11Z</time>
      </trkpt>
      <trkpt lat="61.100583072694" lon="13.796283523384">
        <ele>393.6</ele>
        <time>2018-08-11T13:24:14Z</time>
      </trkpt>
      <trkpt lat="61.100568991102" lon="13.796660625065">
        <ele>394.8</ele>
        <time>2018-08-11T13:24:17Z</time>
      </trkpt>
      <trkpt lat="61.100561447392" lon="13.79704744975">
        <ele>394.6</ele>
        <time>2018-08-11T13:24:20Z</time>
      </trkpt>
      <trkpt lat="61.100542588117" lon="13.797451876425">
        <ele>394.2</ele>
        <time>2018-08-11T13:24:23Z</time>
      </trkpt>
      <trkpt lat="61.100513083829" lon="13.797722779433">
        <ele>394</ele>
        <time>2018-08-11T13:24:25Z</time>
      </trkpt>
      <trkpt lat="61.100436557082" lon="13.798060653822">
        <ele>394</ele>
        <time>2018-08-11T13:24:28Z</time>
      </trkpt>
      <trkpt lat="61.100406885156" lon="13.798157045672">
        <ele>394.2</ele>
        <time>2018-08-11T13:24:29Z</time>
      </trkpt>
      <trkpt lat="61.100285347606" lon="13.798536410466">
        <ele>397.4</ele>
        <time>2018-08-11T13:24:33Z</time>
      </trkpt>
      <trkpt lat="61.100176550544" lon="13.798913512147">
        <ele>398.8</ele>
        <time>2018-08-11T13:24:37Z</time>
      </trkpt>
      <trkpt lat="61.100054761537" lon="13.799291535837">
        <ele>399.8</ele>
        <time>2018-08-11T13:24:41Z</time>
      </trkpt>
      <trkpt lat="61.09995728004" lon="13.799629996959">
        <ele>400.6</ele>
        <time>2018-08-11T13:24:45Z</time>
      </trkpt>
      <trkpt lat="61.099917382196" lon="13.799865528349">
        <ele>401.2</ele>
        <time>2018-08-11T13:24:48Z</time>
      </trkpt>
      <trkpt lat="61.09994219262" lon="13.800245312238">
        <ele>400.8</ele>
        <time>2018-08-11T13:24:52Z</time>
      </trkpt>
      <trkpt lat="61.100059203944" lon="13.800598693142">
        <ele>400</ele>
        <time>2018-08-11T13:24:56Z</time>
      </trkpt>
      <trkpt lat="61.100195242181" lon="13.800936232255">
        <ele>399.6</ele>
        <time>2018-08-11T13:25:00Z</time>
      </trkpt>
      <trkpt lat="61.100307894917" lon="13.801275112472">
        <ele>399</ele>
        <time>2018-08-11T13:25:04Z</time>
      </trkpt>
      <trkpt lat="61.100424235689" lon="13.801631091765">
        <ele>400</ele>
        <time>2018-08-11T13:25:08Z</time>
      </trkpt>
      <trkpt lat="61.100535882597" lon="13.801983215384">
        <ele>400.4</ele>
        <time>2018-08-11T13:25:12Z</time>
      </trkpt>
      <trkpt lat="61.100640907804" lon="13.802331315691">
        <ele>400.8</ele>
        <time>2018-08-11T13:25:16Z</time>
      </trkpt>
      <trkpt lat="61.100737718749" lon="13.802684696595">
        <ele>401</ele>
        <time>2018-08-11T13:25:20Z</time>
      </trkpt>
      <trkpt lat="61.10077116253" lon="13.802870523318">
        <ele>401.2</ele>
        <time>2018-08-11T13:25:22Z</time>
      </trkpt>
      <trkpt lat="61.10081223384" lon="13.803268831206">
        <ele>401.2</ele>
        <time>2018-08-11T13:25:26Z</time>
      </trkpt>
      <trkpt lat="61.100804187216" lon="13.803689770224">
        <ele>402.2</ele>
        <time>2018-08-11T13:25:30Z</time>
      </trkpt>
      <trkpt lat="61.100786333769" lon="13.804104087541">
        <ele>402</ele>
        <time>2018-08-11T13:25:34Z</time>
      </trkpt>
      <trkpt lat="61.10079379366" lon="13.804508011302">
        <ele>401.4</ele>
        <time>2018-08-11T13:25:38Z</time>
      </trkpt>
      <trkpt lat="61.10086001067" lon="13.804961555911">
        <ele>400.4</ele>
        <time>2018-08-11T13:25:42Z</time>
      </trkpt>
      <trkpt lat="61.100941482738" lon="13.805370927907">
        <ele>399.2</ele>
        <time>2018-08-11T13:25:45Z</time>
      </trkpt>
      <trkpt lat="61.101043658099" lon="13.805824807792">
        <ele>398</ele>
        <time>2018-08-11T13:25:48Z</time>
      </trkpt>
      <trkpt lat="61.101153209532" lon="13.806294529468">
        <ele>397.6</ele>
        <time>2018-08-11T13:25:51Z</time>
      </trkpt>
      <trkpt lat="61.101257061273" lon="13.806732986657">
        <ele>398</ele>
        <time>2018-08-11T13:25:54Z</time>
      </trkpt>
      <trkpt lat="61.101345657956" lon="13.807090223235">
        <ele>398.4</ele>
        <time>2018-08-11T13:25:57Z</time>
      </trkpt>
      <trkpt lat="61.101425537463" lon="13.807427175615">
        <ele>398.8</ele>
        <time>2018-08-11T13:26:00Z</time>
      </trkpt>
      <trkpt lat="61.101505919884" lon="13.807776784664">
        <ele>399</ele>
        <time>2018-08-11T13:26:03Z</time>
      </trkpt>
      <trkpt lat="61.101588062504" lon="13.808116503071">
        <ele>399.6</ele>
        <time>2018-08-11T13:26:06Z</time>
      </trkpt>
      <trkpt lat="61.101686046915" lon="13.808541213944">
        <ele>400.2</ele>
        <time>2018-08-11T13:26:10Z</time>
      </trkpt>
      <trkpt lat="61.101763411852" lon="13.808827874924">
        <ele>400</ele>
        <time>2018-08-11T13:26:13Z</time>
      </trkpt>
      <trkpt lat="61.10193121749" lon="13.809035578406">
        <ele>400.4</ele>
        <time>2018-08-11T13:26:18Z</time>
      </trkpt>
      <trkpt lat="61.102050911022" lon="13.808958381107">
        <ele>400.8</ele>
        <time>2018-08-11T13:26:22Z</time>
      </trkpt>
      <trkpt lat="61.1022488915" lon="13.808809686201">
        <ele>402</ele>
        <time>2018-08-11T13:26:28Z</time>
      </trkpt>
      <trkpt lat="61.102439495906" lon="13.808742379544">
        <ele>403</ele>
        <time>2018-08-11T13:26:34Z</time>
      </trkpt>
      <trkpt lat="61.102636805832" lon="13.808683873882">
        <ele>404</ele>
        <time>2018-08-11T13:26:42Z</time>
      </trkpt>
      <trkpt lat="61.1028356245" lon="13.808596366846">
        <ele>404.4</ele>
        <time>2018-08-11T13:26:49Z</time>
      </trkpt>
      <trkpt lat="61.103031006589" lon="13.808482959739">
        <ele>405</ele>
        <time>2018-08-11T13:26:56Z</time>
      </trkpt>
      <trkpt lat="61.103212139448" lon="13.808373408306">
        <ele>405.4</ele>
        <time>2018-08-11T13:27:02Z</time>
      </trkpt>
      <trkpt lat="61.103403665863" lon="13.808276262085">
        <ele>405.6</ele>
        <time>2018-08-11T13:27:09Z</time>
      </trkpt>
      <trkpt lat="61.103593432079" lon="13.808216080043">
        <ele>405.8</ele>
        <time>2018-08-11T13:27:16Z</time>
      </trkpt>
      <trkpt lat="61.103794094765" lon="13.808162519702">
        <ele>406.2</ele>
        <time>2018-08-11T13:27:23Z</time>
      </trkpt>
      <trkpt lat="61.103984447714" lon="13.808113737044">
        <ele>406.6</ele>
        <time>2018-08-11T13:27:30Z</time>
      </trkpt>
      <trkpt lat="61.104182512011" lon="13.808046262749">
        <ele>408</ele>
        <time>2018-08-11T13:27:38Z</time>
      </trkpt>
      <trkpt lat="61.104361717033" lon="13.807984488146">
        <ele>408.4</ele>
        <time>2018-08-11T13:27:46Z</time>
      </trkpt>
      <trkpt lat="61.104384096706" lon="13.80798834382">
        <ele>408.6</ele>
        <time>2018-08-11T13:27:47Z</time>
      </trkpt>
      <trkpt lat="61.104467161335" lon="13.808153131974">
        <ele>409.4</ele>
        <time>2018-08-11T13:27:52Z</time>
      </trkpt>
      <trkpt lat="61.104533545983" lon="13.808503579213">
        <ele>409.6</ele>
        <time>2018-08-11T13:27:59Z</time>
      </trkpt>
      <trkpt lat="61.104649132384" lon="13.808804237966">
        <ele>411</ele>
        <time>2018-08-11T13:28:08Z</time>
      </trkpt>
      <trkpt lat="61.104842502817" lon="13.808859809963">
        <ele>415.8</ele>
        <time>2018-08-11T13:28:39Z</time>
      </trkpt>
      <trkpt lat="61.105028916273" lon="13.808887637871">
        <ele>418.6</ele>
        <time>2018-08-11T13:28:52Z</time>
      </trkpt>
      <trkpt lat="61.105211222598" lon="13.808903228205">
        <ele>420.2</ele>
        <time>2018-08-11T13:29:08Z</time>
      </trkpt>
      <trkpt lat="61.10538958943" lon="13.808946981723">
        <ele>420.8</ele>
        <time>2018-08-11T13:29:25Z</time>
      </trkpt>
      <trkpt lat="61.105567788624" lon="13.809043122116">
        <ele>424.6</ele>
        <time>2018-08-11T13:29:44Z</time>
      </trkpt>
      <trkpt lat="61.105736767728" lon="13.809180669095">
        <ele>425.8</ele>
        <time>2018-08-11T13:30:00Z</time>
      </trkpt>
      <trkpt lat="61.105904657185" lon="13.809337578263">
        <ele>425.8</ele>
        <time>2018-08-11T13:30:24Z</time>
      </trkpt>
      <trkpt lat="61.106079922714" lon="13.809463893496">
        <ele>427</ele>
        <time>2018-08-11T13:30:31Z</time>
      </trkpt>
      <trkpt lat="61.106271700586" lon="13.809474706147">
        <ele>427.6</ele>
        <time>2018-08-11T13:30:41Z</time>
      </trkpt>
      <trkpt lat="61.106462137354" lon="13.809394491364">
        <ele>428.6</ele>
        <time>2018-08-11T13:30:51Z</time>
      </trkpt>
      <trkpt lat="61.106650730104" lon="13.809298937704">
        <ele>429.6</ele>
        <time>2018-08-11T13:31:01Z</time>
      </trkpt>
      <trkpt lat="61.106833623162" lon="13.80921713036">
        <ele>430.4</ele>
        <time>2018-08-11T13:31:10Z</time>
      </trkpt>
      <trkpt lat="61.107017941143" lon="13.809108249479">
        <ele>430.2</ele>
        <time>2018-08-11T13:31:19Z</time>
      </trkpt>
      <trkpt lat="61.107205863341" lon="13.808966343912">
        <ele>431</ele>
        <time>2018-08-11T13:31:29Z</time>
      </trkpt>
      <trkpt lat="61.107384397811" lon="13.8088952654">
        <ele>431.2</ele>
        <time>2018-08-11T13:31:37Z</time>
      </trkpt>
      <trkpt lat="61.107564273385" lon="13.808911777743">
        <ele>432.4</ele>
        <time>2018-08-11T13:31:46Z</time>
      </trkpt>
      <trkpt lat="61.107759487836" lon="13.80898076078">
        <ele>434</ele>
        <time>2018-08-11T13:31:55Z</time>
      </trkpt>
      <trkpt lat="61.107922180515" lon="13.809190895013">
        <ele>435.4</ele>
        <time>2018-08-11T13:32:04Z</time>
      </trkpt>
      <trkpt lat="61.108086465755" lon="13.809383008161">
        <ele>436</ele>
        <time>2018-08-11T13:32:12Z</time>
      </trkpt>
      <trkpt lat="61.108265670777" lon="13.809427432231">
        <ele>435.8</ele>
        <time>2018-08-11T13:32:19Z</time>
      </trkpt>
      <trkpt lat="61.108457113373" lon="13.809408572956">
        <ele>436</ele>
        <time>2018-08-11T13:32:26Z</time>
      </trkpt>
      <trkpt lat="61.108612346161" lon="13.809509491032">
        <ele>434.4</ele>
        <time>2018-08-11T13:32:31Z</time>
      </trkpt>
      <trkpt lat="61.108822731851" lon="13.809607643081">
        <ele>432.8</ele>
        <time>2018-08-11T13:32:35Z</time>
      </trkpt>
      <trkpt lat="61.10887813621" lon="13.809620970302">
        <ele>432.6</ele>
        <time>2018-08-11T13:32:36Z</time>
      </trkpt>
      <trkpt lat="61.10906169982" lon="13.809871337655">
        <ele>430.6</ele>
        <time>2018-08-11T13:32:40Z</time>
      </trkpt>
      <trkpt lat="61.109199079161" lon="13.810160429386">
        <ele>429</ele>
        <time>2018-08-11T13:32:43Z</time>
      </trkpt>
      <trkpt lat="61.109325226756" lon="13.81045932794">
        <ele>428</ele>
        <time>2018-08-11T13:32:46Z</time>
      </trkpt>
      <trkpt lat="61.109448021591" lon="13.810746240377">
        <ele>427.6</ele>
        <time>2018-08-11T13:32:49Z</time>
      </trkpt>
      <trkpt lat="61.109594704841" lon="13.811034074823">
        <ele>426</ele>
        <time>2018-08-11T13:32:52Z</time>
      </trkpt>
      <trkpt lat="61.109804922893" lon="13.811326351676">
        <ele>423.4</ele>
        <time>2018-08-11T13:32:55Z</time>
      </trkpt>
      <trkpt lat="61.109932411592" lon="13.811524164516">
        <ele>423.2</ele>
        <time>2018-08-11T13:32:57Z</time>
      </trkpt>
      <trkpt lat="61.110059648834" lon="13.811897242885">
        <ele>422.4</ele>
        <time>2018-08-11T13:33:00Z</time>
      </trkpt>
      <trkpt lat="61.110095020452" lon="13.812033197303">
        <ele>422.2</ele>
        <time>2018-08-11T13:33:01Z</time>
      </trkpt>
      <trkpt lat="61.110133828649" lon="13.812160350726">
        <ele>422.2</ele>
        <time>2018-08-11T13:33:02Z</time>
      </trkpt>
      <trkpt lat="61.110277578234" lon="13.812469894293">
        <ele>421.4</ele>
        <time>2018-08-11T13:33:05Z</time>
      </trkpt>
      <trkpt lat="61.110459214007" lon="13.812627557832">
        <ele>421.2</ele>
        <time>2018-08-11T13:33:08Z</time>
      </trkpt>
      <trkpt lat="61.110575303322" lon="13.812669802608">
        <ele>422.6</ele>
        <time>2018-08-11T13:33:10Z</time>
      </trkpt>
      <trkpt lat="61.110759202208" lon="13.812702994932">
        <ele>425</ele>
        <time>2018-08-11T13:33:14Z</time>
      </trkpt>
      <trkpt lat="61.110864478872" lon="13.812999127459">
        <ele>425.4</ele>
        <time>2018-08-11T13:33:18Z</time>
      </trkpt>
      <trkpt lat="61.11087470479" lon="13.813097698603">
        <ele>425.4</ele>
        <time>2018-08-11T13:33:19Z</time>
      </trkpt>
      <trkpt lat="61.110909238218" lon="13.813465496375">
        <ele>425.4</ele>
        <time>2018-08-11T13:33:23Z</time>
      </trkpt>
      <trkpt lat="61.110951566813" lon="13.813916107319">
        <ele>425</ele>
        <time>2018-08-11T13:33:28Z</time>
      </trkpt>
      <trkpt lat="61.110981825472" lon="13.814317684148">
        <ele>424.6</ele>
        <time>2018-08-11T13:33:32Z</time>
      </trkpt>
      <trkpt lat="61.110987944259" lon="13.814784975073">
        <ele>423.4</ele>
        <time>2018-08-11T13:33:36Z</time>
      </trkpt>
      <trkpt lat="61.110919296498" lon="13.815181858038">
        <ele>422.4</ele>
        <time>2018-08-11T13:33:39Z</time>
      </trkpt>
      <trkpt lat="61.110761968235" lon="13.81550439355">
        <ele>421.2</ele>
        <time>2018-08-11T13:33:42Z</time>
      </trkpt>
      <trkpt lat="61.110558455703" lon="13.815784432829">
        <ele>419.8</ele>
        <time>2018-08-11T13:33:45Z</time>
      </trkpt>
      <trkpt lat="61.110359301759" lon="13.816049049412">
        <ele>418.4</ele>
        <time>2018-08-11T13:33:48Z</time>
      </trkpt>
      <trkpt lat="61.110186383162" lon="13.816360688454">
        <ele>416.6</ele>
        <time>2018-08-11T13:33:51Z</time>
      </trkpt>
      <trkpt lat="61.11008848257" lon="13.816802079308">
        <ele>414.6</ele>
        <time>2018-08-11T13:33:54Z</time>
      </trkpt>
      <trkpt lat="61.11008512981" lon="13.817326953886">
        <ele>413.2</ele>
        <time>2018-08-11T13:33:57Z</time>
      </trkpt>
      <trkpt lat="61.110093595529" lon="13.817513451161">
        <ele>412.6</ele>
        <time>2018-08-11T13:33:58Z</time>
      </trkpt>
      <trkpt lat="61.110113879727" lon="13.817892732136">
        <ele>411</ele>
        <time>2018-08-11T13:34:00Z</time>
      </trkpt>
      <trkpt lat="61.110137684323" lon="13.818435376342">
        <ele>409.4</ele>
        <time>2018-08-11T13:34:03Z</time>
      </trkpt>
      <trkpt lat="61.11016559605" lon="13.818948935355">
        <ele>408.4</ele>
        <time>2018-08-11T13:34:06Z</time>
      </trkpt>
      <trkpt lat="61.110200045659" lon="13.819272560514">
        <ele>407.8</ele>
        <time>2018-08-11T13:34:08Z</time>
      </trkpt>
      <trkpt lat="61.110292749473" lon="13.819713113178">
        <ele>406.6</ele>
        <time>2018-08-11T13:34:11Z</time>
      </trkpt>
      <trkpt lat="61.110397187947" lon="13.8201353933">
        <ele>405</ele>
        <time>2018-08-11T13:34:14Z</time>
      </trkpt>
      <trkpt lat="61.110493915073" lon="13.820565217132">
        <ele>403.2</ele>
        <time>2018-08-11T13:34:17Z</time>
      </trkpt>
      <trkpt lat="61.110593240588" lon="13.820935529474">
        <ele>401.4</ele>
        <time>2018-08-11T13:34:20Z</time>
      </trkpt>
      <trkpt lat="61.110794573826" lon="13.821113812487">
        <ele>399.4</ele>
        <time>2018-08-11T13:34:24Z</time>
      </trkpt>
      <trkpt lat="61.110898928481" lon="13.821075088109">
        <ele>399.6</ele>
        <time>2018-08-11T13:34:26Z</time>
      </trkpt>
      <trkpt lat="61.111092047457" lon="13.821000573018">
        <ele>399.8</ele>
        <time>2018-08-11T13:34:30Z</time>
      </trkpt>
      <trkpt lat="61.111277119809" lon="13.820939468967">
        <ele>401.2</ele>
        <time>2018-08-11T13:34:34Z</time>
      </trkpt>
      <trkpt lat="61.111472669536" lon="13.820873335776">
        <ele>403.2</ele>
        <time>2018-08-11T13:34:39Z</time>
      </trkpt>
      <trkpt lat="61.111660424096" lon="13.820839137624">
        <ele>405.2</ele>
        <time>2018-08-11T13:34:46Z</time>
      </trkpt>
      <trkpt lat="61.111844658258" lon="13.820902840064">
        <ele>408.8</ele>
        <time>2018-08-11T13:34:53Z</time>
      </trkpt>
      <trkpt lat="61.112031826085" lon="13.82101465461">
        <ele>411.6</ele>
        <time>2018-08-11T13:35:01Z</time>
      </trkpt>
      <trkpt lat="61.112205247596" lon="13.821116243238">
        <ele>414.2</ele>
        <time>2018-08-11T13:35:10Z</time>
      </trkpt>
      <trkpt lat="61.112389649396" lon="13.821220765531">
        <ele>415.4</ele>
        <time>2018-08-11T13:35:20Z</time>
      </trkpt>
      <trkpt lat="61.112568351504" lon="13.821302908151">
        <ele>416.4</ele>
        <time>2018-08-11T13:35:29Z</time>
      </trkpt>
      <trkpt lat="61.112762979222" lon="13.821331574249">
        <ele>418</ele>
        <time>2018-08-11T13:35:37Z</time>
      </trkpt>
      <trkpt lat="61.11295593056" lon="13.821301818504">
        <ele>419.8</ele>
        <time>2018-08-11T13:35:46Z</time>
      </trkpt>
      <trkpt lat="61.113142595473" lon="13.821280109383">
        <ele>422.6</ele>
        <time>2018-08-11T13:35:57Z</time>
      </trkpt>
      <trkpt lat="61.113325656169" lon="13.821280193202">
        <ele>426.8</ele>
        <time>2018-08-11T13:36:07Z</time>
      </trkpt>
      <trkpt lat="61.113511985806" lon="13.821247587611">
        <ele>428</ele>
        <time>2018-08-11T13:36:17Z</time>
      </trkpt>
      <trkpt lat="61.113706445886" lon="13.821219256789">
        <ele>427.2</ele>
        <time>2018-08-11T13:36:26Z</time>
      </trkpt>
      <trkpt lat="61.113889590401" lon="13.821188914311">
        <ele>427.6</ele>
        <time>2018-08-11T13:36:34Z</time>
      </trkpt>
      <trkpt lat="61.114070387984" lon="13.82118732175">
        <ele>429</ele>
        <time>2018-08-11T13:36:43Z</time>
      </trkpt>
      <trkpt lat="61.114253867775" lon="13.821135605427">
        <ele>430.2</ele>
        <time>2018-08-11T13:36:52Z</time>
      </trkpt>
      <trkpt lat="61.114447489665" lon="13.821067795856">
        <ele>430.6</ele>
        <time>2018-08-11T13:37:01Z</time>
      </trkpt>
      <trkpt lat="61.114630801818" lon="13.820935780931">
        <ele>430.4</ele>
        <time>2018-08-11T13:37:08Z</time>
      </trkpt>
      <trkpt lat="61.114817215274" lon="13.820836623054">
        <ele>427.8</ele>
        <time>2018-08-11T13:37:14Z</time>
      </trkpt>
      <trkpt lat="61.115000695065" lon="13.820764454895">
        <ele>424</ele>
        <time>2018-08-11T13:37:19Z</time>
      </trkpt>
      <trkpt lat="61.115051070284" lon="13.820750540941">
        <ele>423.2</ele>
        <time>2018-08-11T13:37:20Z</time>
      </trkpt>
      <trkpt lat="61.115232286962" lon="13.820735704978">
        <ele>421.6</ele>
        <time>2018-08-11T13:37:23Z</time>
      </trkpt>
      <trkpt lat="61.115428088146" lon="13.820731849304">
        <ele>423.6</ele>
        <time>2018-08-11T13:37:26Z</time>
      </trkpt>
      <trkpt lat="61.115608047539" lon="13.820755234805">
        <ele>424</ele>
        <time>2018-08-11T13:37:29Z</time>
      </trkpt>
      <trkpt lat="61.115835532305" lon="13.820775686641">
        <ele>425.2</ele>
        <time>2018-08-11T13:37:33Z</time>
      </trkpt>
      <trkpt lat="61.116054551352" lon="13.820783733265">
        <ele>426</ele>
        <time>2018-08-11T13:37:37Z</time>
      </trkpt>
      <trkpt lat="61.116278431901" lon="13.820783146532">
        <ele>426.8</ele>
        <time>2018-08-11T13:37:41Z</time>
      </trkpt>
      <trkpt lat="61.116498289138" lon="13.820787421301">
        <ele>427.4</ele>
        <time>2018-08-11T13:37:45Z</time>
      </trkpt>
      <trkpt lat="61.116706746991" lon="13.820790606423">
        <ele>428.4</ele>
        <time>2018-08-11T13:37:49Z</time>
      </trkpt>
      <trkpt lat="61.116895926474" lon="13.82079840159">
        <ele>429.2</ele>
        <time>2018-08-11T13:37:53Z</time>
      </trkpt>
      <trkpt lat="61.117118214462" lon="13.820819523978">
        <ele>429.8</ele>
        <time>2018-08-11T13:37:58Z</time>
      </trkpt>
      <trkpt lat="61.117305382289" lon="13.82085456032">
        <ele>430.2</ele>
        <time>2018-08-11T13:38:02Z</time>
      </trkpt>
      <trkpt lat="61.117502021663" lon="13.820892949422">
        <ele>430.4</ele>
        <time>2018-08-11T13:38:06Z</time>
      </trkpt>
      <trkpt lat="61.117597323866" lon="13.820926812298">
        <ele>430.2</ele>
        <time>2018-08-11T13:38:08Z</time>
      </trkpt>
      <trkpt lat="61.117703522539" lon="13.821304752169">
        <ele>429.6</ele>
        <time>2018-08-11T13:38:13Z</time>
      </trkpt>
      <trkpt lat="61.117697152295" lon="13.821415812344">
        <ele>429.2</ele>
        <time>2018-08-11T13:38:14Z</time>
      </trkpt>
      <trkpt lat="61.117667480369" lon="13.821798026984">
        <ele>427.6</ele>
        <time>2018-08-11T13:38:17Z</time>
      </trkpt>
      <trkpt lat="61.117644849239" lon="13.822232460861">
        <ele>426.6</ele>
        <time>2018-08-11T13:38:20Z</time>
      </trkpt>
      <trkpt lat="61.117621547557" lon="13.822653399879">
        <ele>427.4</ele>
        <time>2018-08-11T13:38:23Z</time>
      </trkpt>
      <trkpt lat="61.1175877685" lon="13.823049612292">
        <ele>427.2</ele>
        <time>2018-08-11T13:38:26Z</time>
      </trkpt>
      <trkpt lat="61.117551055778" lon="13.823424534679">
        <ele>427.2</ele>
        <time>2018-08-11T13:38:29Z</time>
      </trkpt>
      <trkpt lat="61.117509900649" lon="13.823895932735">
        <ele>427.2</ele>
        <time>2018-08-11T13:38:33Z</time>
      </trkpt>
      <trkpt lat="61.11745617267" lon="13.824367666067">
        <ele>427.2</ele>
        <time>2018-08-11T13:38:37Z</time>
      </trkpt>
      <trkpt lat="61.117416107188" lon="13.824735463839">
        <ele>427.2</ele>
        <time>2018-08-11T13:38:40Z</time>
      </trkpt>
      <trkpt lat="61.117379981199" lon="13.825106782009">
        <ele>426.8</ele>
        <time>2018-08-11T13:38:43Z</time>
      </trkpt>
      <trkpt lat="61.117335640948" lon="13.825495450712">
        <ele>426</ele>
        <time>2018-08-11T13:38:46Z</time>
      </trkpt>
      <trkpt lat="61.11727260906" lon="13.825920413042">
        <ele>424.6</ele>
        <time>2018-08-11T13:38:49Z</time>
      </trkpt>
      <trkpt lat="61.11717537902" lon="13.826384351207">
        <ele>422.8</ele>
        <time>2018-08-11T13:38:52Z</time>
      </trkpt>
      <trkpt lat="61.11704629776" lon="13.826866561914">
        <ele>421.2</ele>
        <time>2018-08-11T13:38:55Z</time>
      </trkpt>
      <trkpt lat="61.116950325005" lon="13.827196892593">
        <ele>420</ele>
        <time>2018-08-11T13:38:57Z</time>
      </trkpt>
      <trkpt lat="61.116831553482" lon="13.827516997354">
        <ele>418.8</ele>
        <time>2018-08-11T13:38:59Z</time>
      </trkpt>
      <trkpt lat="61.116703813326" lon="13.82785596139">
        <ele>417.6</ele>
        <time>2018-08-11T13:39:01Z</time>
      </trkpt>
      <trkpt lat="61.116575905532" lon="13.828219065298">
        <ele>416.6</ele>
        <time>2018-08-11T13:39:03Z</time>
      </trkpt>
      <trkpt lat="61.116445483168" lon="13.828582001568">
        <ele>415.8</ele>
        <time>2018-08-11T13:39:05Z</time>
      </trkpt>
      <trkpt lat="61.116319000297" lon="13.8289280064">
        <ele>415.6</ele>
        <time>2018-08-11T13:39:07Z</time>
      </trkpt>
      <trkpt lat="61.116203413896" lon="13.829261270744">
        <ele>415.8</ele>
        <time>2018-08-11T13:39:09Z</time>
      </trkpt>
      <trkpt lat="61.116094784472" lon="13.829580369677">
        <ele>415.8</ele>
        <time>2018-08-11T13:39:11Z</time>
      </trkpt>
      <trkpt lat="61.1159868256" lon="13.829880274059">
        <ele>415.8</ele>
        <time>2018-08-11T13:39:13Z</time>
      </trkpt>
      <trkpt lat="61.115827737138" lon="13.830308840606">
        <ele>415.6</ele>
        <time>2018-08-11T13:39:16Z</time>
      </trkpt>
      <trkpt lat="61.11567418073" lon="13.830728019425">
        <ele>415.4</ele>
        <time>2018-08-11T13:39:19Z</time>
      </trkpt>
      <trkpt lat="61.115521797788" lon="13.831110485522">
        <ele>415.2</ele>
        <time>2018-08-11T13:39:22Z</time>
      </trkpt>
      <trkpt lat="61.115339156187" lon="13.831452886137">
        <ele>413.2</ele>
        <time>2018-08-11T13:39:25Z</time>
      </trkpt>
      <trkpt lat="61.115127429393" lon="13.831702499119">
        <ele>412.2</ele>
        <time>2018-08-11T13:39:28Z</time>
      </trkpt>
      <trkpt lat="61.114917965712" lon="13.831932582274">
        <ele>411.6</ele>
        <time>2018-08-11T13:39:31Z</time>
      </trkpt>
      <trkpt lat="61.114731468437" lon="13.832211951001">
        <ele>411</ele>
        <time>2018-08-11T13:39:34Z</time>
      </trkpt>
      <trkpt lat="61.114577157658" lon="13.83255820729">
        <ele>410.4</ele>
        <time>2018-08-11T13:39:37Z</time>
      </trkpt>
      <trkpt lat="61.114425361449" lon="13.832914773316">
        <ele>410.2</ele>
        <time>2018-08-11T13:39:40Z</time>
      </trkpt>
      <trkpt lat="61.114286724823" lon="13.833273267179">
        <ele>410.2</ele>
        <time>2018-08-11T13:39:43Z</time>
      </trkpt>
      <trkpt lat="61.114145992722" lon="13.833614242871">
        <ele>411.2</ele>
        <time>2018-08-11T13:39:46Z</time>
      </trkpt>
      <trkpt lat="61.114018084928" lon="13.833972317639">
        <ele>411.8</ele>
        <time>2018-08-11T13:39:49Z</time>
      </trkpt>
      <trkpt lat="61.113913227359" lon="13.834353861727">
        <ele>412.6</ele>
        <time>2018-08-11T13:39:52Z</time>
      </trkpt>
      <trkpt lat="61.113822954296" lon="13.834747978665">
        <ele>413</ele>
        <time>2018-08-11T13:39:55Z</time>
      </trkpt>
      <trkpt lat="61.11373125631" lon="13.835131366771">
        <ele>412.2</ele>
        <time>2018-08-11T13:39:58Z</time>
      </trkpt>
      <trkpt lat="61.113609215846" lon="13.835493129575">
        <ele>410.6</ele>
        <time>2018-08-11T13:40:01Z</time>
      </trkpt>
      <trkpt lat="61.113449792108" lon="13.835814240164">
        <ele>410</ele>
        <time>2018-08-11T13:40:04Z</time>
      </trkpt>
      <trkpt lat="61.113269245982" lon="13.836090759045">
        <ele>409.4</ele>
        <time>2018-08-11T13:40:07Z</time>
      </trkpt>
      <trkpt lat="61.113087777847" lon="13.836346406995">
        <ele>408.8</ele>
        <time>2018-08-11T13:40:10Z</time>
      </trkpt>
      <trkpt lat="61.112906561169" lon="13.836604485696">
        <ele>407.6</ele>
        <time>2018-08-11T13:40:13Z</time>
      </trkpt>
      <trkpt lat="61.112719309523" lon="13.836885363165">
        <ele>406.6</ele>
        <time>2018-08-11T13:40:16Z</time>
      </trkpt>
      <trkpt lat="61.112548234944" lon="13.837201444614">
        <ele>406.6</ele>
        <time>2018-08-11T13:40:19Z</time>
      </trkpt>
      <trkpt lat="61.11239769602" lon="13.837558178278">
        <ele>406.4</ele>
        <time>2018-08-11T13:40:22Z</time>
      </trkpt>
      <trkpt lat="61.112240786852" lon="13.837951876121">
        <ele>407.2</ele>
        <time>2018-08-11T13:40:25Z</time>
      </trkpt>
      <trkpt lat="61.112086476073" lon="13.838326882327">
        <ele>407.8</ele>
        <time>2018-08-11T13:40:28Z</time>
      </trkpt>
      <trkpt lat="61.111946330705" lon="13.838697194669">
        <ele>407.6</ele>
        <time>2018-08-11T13:40:31Z</time>
      </trkpt>
      <trkpt lat="61.111806101518" lon="13.83904160694">
        <ele>407.6</ele>
        <time>2018-08-11T13:40:34Z</time>
      </trkpt>
      <trkpt lat="61.111679031914" lon="13.839396831862">
        <ele>408.2</ele>
        <time>2018-08-11T13:40:37Z</time>
      </trkpt>
      <trkpt lat="61.111536707252" lon="13.839764629634">
        <ele>407.8</ele>
        <time>2018-08-11T13:40:40Z</time>
      </trkpt>
      <trkpt lat="61.111401507205" lon="13.840167463748">
        <ele>406</ele>
        <time>2018-08-11T13:40:43Z</time>
      </trkpt>
      <trkpt lat="61.111335122557" lon="13.840473989831">
        <ele>405.6</ele>
        <time>2018-08-11T13:40:45Z</time>
      </trkpt>
      <trkpt lat="61.111296649636" lon="13.84098788412">
        <ele>405</ele>
        <time>2018-08-11T13:40:48Z</time>
      </trkpt>
      <trkpt lat="61.111294218885" lon="13.841161892364">
        <ele>404.8</ele>
        <time>2018-08-11T13:40:49Z</time>
      </trkpt>
      <trkpt lat="61.111301008224" lon="13.841659022853">
        <ele>404</ele>
        <time>2018-08-11T13:40:52Z</time>
      </trkpt>
      <trkpt lat="61.111311317961" lon="13.842129331262">
        <ele>403.2</ele>
        <time>2018-08-11T13:40:55Z</time>
      </trkpt>
      <trkpt lat="61.111319616042" lon="13.842594107617">
        <ele>402.6</ele>
        <time>2018-08-11T13:40:58Z</time>
      </trkpt>
      <trkpt lat="61.111333110901" lon="13.843065505673">
        <ele>402.4</ele>
        <time>2018-08-11T13:41:01Z</time>
      </trkpt>
      <trkpt lat="61.111341157525" lon="13.843504381957">
        <ele>402.2</ele>
        <time>2018-08-11T13:41:04Z</time>
      </trkpt>
      <trkpt lat="61.111351467262" lon="13.843930014839">
        <ele>401.8</ele>
        <time>2018-08-11T13:41:07Z</time>
      </trkpt>
      <trkpt lat="61.111367644329" lon="13.844350115667">
        <ele>401.4</ele>
        <time>2018-08-11T13:41:10Z</time>
      </trkpt>
      <trkpt lat="61.111374936582" lon="13.844785387734">
        <ele>400.8</ele>
        <time>2018-08-11T13:41:13Z</time>
      </trkpt>
      <trkpt lat="61.111383402301" lon="13.845218312869">
        <ele>400.6</ele>
        <time>2018-08-11T13:41:16Z</time>
      </trkpt>
      <trkpt lat="61.111374014573" lon="13.845654758402">
        <ele>400.6</ele>
        <time>2018-08-11T13:41:19Z</time>
      </trkpt>
      <trkpt lat="61.111333529996" lon="13.846060274724">
        <ele>400.6</ele>
        <time>2018-08-11T13:41:22Z</time>
      </trkpt>
      <trkpt lat="61.11129044703" lon="13.846322460556">
        <ele>400.2</ele>
        <time>2018-08-11T13:41:24Z</time>
      </trkpt>
      <trkpt lat="61.11120159889" lon="13.846699059323">
        <ele>399.4</ele>
        <time>2018-08-11T13:41:27Z</time>
      </trkpt>
      <trkpt lat="61.111165389082" lon="13.846818417579">
        <ele>399.4</ele>
        <time>2018-08-11T13:41:28Z</time>
      </trkpt>
      <trkpt lat="61.11104737193" lon="13.847156794882">
        <ele>400.8</ele>
        <time>2018-08-11T13:41:31Z</time>
      </trkpt>
      <trkpt lat="61.110912507159" lon="13.84746457825">
        <ele>402</ele>
        <time>2018-08-11T13:41:34Z</time>
      </trkpt>
      <trkpt lat="61.110818629879" lon="13.847786024115">
        <ele>402.6</ele>
        <time>2018-08-11T13:41:37Z</time>
      </trkpt>
      <trkpt lat="61.110746126444" lon="13.848133621508">
        <ele>402.4</ele>
        <time>2018-08-11T13:41:40Z</time>
      </trkpt>
      <trkpt lat="61.110683848927" lon="13.848501251642">
        <ele>402.4</ele>
        <time>2018-08-11T13:41:43Z</time>
      </trkpt>
      <trkpt lat="61.110620314125" lon="13.848891093811">
        <ele>403.2</ele>
        <time>2018-08-11T13:41:46Z</time>
      </trkpt>
      <trkpt lat="61.110558288065" lon="13.849262998714">
        <ele>404.4</ele>
        <time>2018-08-11T13:41:49Z</time>
      </trkpt>
      <trkpt lat="61.110499950041" lon="13.849710173079">
        <ele>405.2</ele>
        <time>2018-08-11T13:41:53Z</time>
      </trkpt>
      <trkpt lat="61.110481845137" lon="13.850073360806">
        <ele>406.2</ele>
        <time>2018-08-11T13:41:57Z</time>
      </trkpt>
      <trkpt lat="61.110587876172" lon="13.850418108353">
        <ele>406</ele>
        <time>2018-08-11T13:42:01Z</time>
      </trkpt>
      <trkpt lat="61.110714694319" lon="13.850693705225">
        <ele>405.4</ele>
        <time>2018-08-11T13:42:04Z</time>
      </trkpt>
      <trkpt lat="61.110869759469" lon="13.851038788048">
        <ele>404.8</ele>
        <time>2018-08-11T13:42:08Z</time>
      </trkpt>
      <trkpt lat="61.111024573162" lon="13.851384038509">
        <ele>403.8</ele>
        <time>2018-08-11T13:42:12Z</time>
      </trkpt>
      <trkpt lat="61.111157091001" lon="13.851650750567">
        <ele>403.2</ele>
        <time>2018-08-11T13:42:15Z</time>
      </trkpt>
      <trkpt lat="61.111289692659" lon="13.851946631637">
        <ele>402.6</ele>
        <time>2018-08-11T13:42:18Z</time>
      </trkpt>
      <trkpt lat="61.11143293933" lon="13.852284673664">
        <ele>402.2</ele>
        <time>2018-08-11T13:42:22Z</time>
      </trkpt>
      <trkpt lat="61.111511310095" lon="13.852429093801">
        <ele>402.8</ele>
        <time>2018-08-11T13:42:24Z</time>
      </trkpt>
      <trkpt lat="61.111672074937" lon="13.85265884168">
        <ele>402.4</ele>
        <time>2018-08-11T13:42:27Z</time>
      </trkpt>
      <trkpt lat="61.111827223906" lon="13.8528750947">
        <ele>401.6</ele>
        <time>2018-08-11T13:42:30Z</time>
      </trkpt>
      <trkpt lat="61.111869133406" lon="13.852949106877">
        <ele>401.4</ele>
        <time>2018-08-11T13:42:31Z</time>
      </trkpt>
      <trkpt lat="61.112047248781" lon="13.853264433955">
        <ele>400.6</ele>
        <time>2018-08-11T13:42:35Z</time>
      </trkpt>
      <trkpt lat="61.112181443" lon="13.853540198465">
        <ele>400</ele>
        <time>2018-08-11T13:42:38Z</time>
      </trkpt>
      <trkpt lat="61.112267692751" lon="13.853878072854">
        <ele>399.2</ele>
        <time>2018-08-11T13:42:41Z</time>
      </trkpt>
      <trkpt lat="61.112292838451" lon="13.854264478444">
        <ele>399.6</ele>
        <time>2018-08-11T13:42:44Z</time>
      </trkpt>
      <trkpt lat="61.112309266975" lon="13.854517192729">
        <ele>400</ele>
        <time>2018-08-11T13:42:46Z</time>
      </trkpt>
      <trkpt lat="61.112422254987" lon="13.854858587516">
        <ele>399</ele>
        <time>2018-08-11T13:42:49Z</time>
      </trkpt>
      <trkpt lat="61.112540607415" lon="13.855263014191">
        <ele>397.4</ele>
        <time>2018-08-11T13:42:52Z</time>
      </trkpt>
      <trkpt lat="61.112581930182" lon="13.85570901509">
        <ele>396.2</ele>
        <time>2018-08-11T13:42:55Z</time>
      </trkpt>
      <trkpt lat="61.112617134162" lon="13.856122661855">
        <ele>396</ele>
        <time>2018-08-11T13:42:58Z</time>
      </trkpt>
      <trkpt lat="61.112649739753" lon="13.856515102413">
        <ele>395.2</ele>
        <time>2018-08-11T13:43:01Z</time>
      </trkpt>
      <trkpt lat="61.112687458303" lon="13.856894634845">
        <ele>394.2</ele>
        <time>2018-08-11T13:43:04Z</time>
      </trkpt>
      <trkpt lat="61.112743449395" lon="13.857285315204">
        <ele>394.6</ele>
        <time>2018-08-11T13:43:07Z</time>
      </trkpt>
      <trkpt lat="61.112779491565" lon="13.85753626929">
        <ele>394.8</ele>
        <time>2018-08-11T13:43:09Z</time>
      </trkpt>
      <trkpt lat="61.112783682515" lon="13.857928290753">
        <ele>395.4</ele>
        <time>2018-08-11T13:43:12Z</time>
      </trkpt>
      <trkpt lat="61.112776054986" lon="13.858057288194">
        <ele>395.4</ele>
        <time>2018-08-11T13:43:13Z</time>
      </trkpt>
      <trkpt lat="61.112744539042" lon="13.858516783952">
        <ele>396</ele>
        <time>2018-08-11T13:43:17Z</time>
      </trkpt>
      <trkpt lat="61.112733642572" lon="13.858897573669">
        <ele>399.2</ele>
        <time>2018-08-11T13:43:21Z</time>
      </trkpt>
      <trkpt lat="61.112739593721" lon="13.859294456634">
        <ele>401.2</ele>
        <time>2018-08-11T13:43:26Z</time>
      </trkpt>
      <trkpt lat="61.112750071096" lon="13.859767195794">
        <ele>402.8</ele>
        <time>2018-08-11T13:43:32Z</time>
      </trkpt>
      <trkpt lat="61.11273716297" lon="13.860028962531">
        <ele>401.4</ele>
        <time>2018-08-11T13:43:34Z</time>
      </trkpt>
      <trkpt lat="61.112786448542" lon="13.860413440284">
        <ele>400.8</ele>
        <time>2018-08-11T13:43:37Z</time>
      </trkpt>
      <trkpt lat="61.112811678061" lon="13.86053363673">
        <ele>400.8</ele>
        <time>2018-08-11T13:43:38Z</time>
      </trkpt>
      <trkpt lat="61.112890970835" lon="13.860890621851">
        <ele>400.4</ele>
        <time>2018-08-11T13:43:41Z</time>
      </trkpt>
      <trkpt lat="61.112966994668" lon="13.861232016638">
        <ele>399.8</ele>
        <time>2018-08-11T13:43:44Z</time>
      </trkpt>
      <trkpt lat="61.113041928854" lon="13.861692434405">
        <ele>399.6</ele>
        <time>2018-08-11T13:43:48Z</time>
      </trkpt>
      <trkpt lat="61.113079479766" lon="13.862169951248">
        <ele>399.6</ele>
        <time>2018-08-11T13:43:52Z</time>
      </trkpt>
      <trkpt lat="61.113082748707" lon="13.86255283644">
        <ele>400.2</ele>
        <time>2018-08-11T13:43:55Z</time>
      </trkpt>
      <trkpt lat="61.113043605234" lon="13.86292331642">
        <ele>400.4</ele>
        <time>2018-08-11T13:43:58Z</time>
      </trkpt>
      <trkpt lat="61.112977807319" lon="13.863276026772">
        <ele>400.8</ele>
        <time>2018-08-11T13:44:01Z</time>
      </trkpt>
      <trkpt lat="61.112889797369" lon="13.86360308851">
        <ele>401.2</ele>
        <time>2018-08-11T13:44:04Z</time>
      </trkpt>
      <trkpt lat="61.112785107438" lon="13.863911877706">
        <ele>401.6</ele>
        <time>2018-08-11T13:44:07Z</time>
      </trkpt>
      <trkpt lat="61.112676226557" lon="13.864214296658">
        <ele>400.8</ele>
        <time>2018-08-11T13:44:10Z</time>
      </trkpt>
      <trkpt lat="61.112567094219" lon="13.864535491066">
        <ele>400.2</ele>
        <time>2018-08-11T13:44:13Z</time>
      </trkpt>
      <trkpt lat="61.112455363492" lon="13.864866576116">
        <ele>399.4</ele>
        <time>2018-08-11T13:44:16Z</time>
      </trkpt>
      <trkpt lat="61.112336927245" lon="13.865184920678">
        <ele>399</ele>
        <time>2018-08-11T13:44:19Z</time>
      </trkpt>
      <trkpt lat="61.112306081853" lon="13.865297489595">
        <ele>398.8</ele>
        <time>2018-08-11T13:44:20Z</time>
      </trkpt>
      <trkpt lat="61.112269704407" lon="13.865699736976">
        <ele>397</ele>
        <time>2018-08-11T13:44:23Z</time>
      </trkpt>
      <trkpt lat="61.112234332789" lon="13.86589972911">
        <ele>396</ele>
        <time>2018-08-11T13:44:25Z</time>
      </trkpt>
      <trkpt lat="61.112175743308" lon="13.866206003736">
        <ele>396.6</ele>
        <time>2018-08-11T13:44:28Z</time>
      </trkpt>
      <trkpt lat="61.11218731033" lon="13.866674719584">
        <ele>396.2</ele>
        <time>2018-08-11T13:44:32Z</time>
      </trkpt>
      <trkpt lat="61.112218071903" lon="13.866791060356">
        <ele>396</ele>
        <time>2018-08-11T13:44:33Z</time>
      </trkpt>
      <trkpt lat="61.11224430725" lon="13.866915112476">
        <ele>395.6</ele>
        <time>2018-08-11T13:44:34Z</time>
      </trkpt>
      <trkpt lat="61.112237014997" lon="13.867401346495">
        <ele>394</ele>
        <time>2018-08-11T13:44:38Z</time>
      </trkpt>
      <trkpt lat="61.112221005568" lon="13.867540150759">
        <ele>393.2</ele>
        <time>2018-08-11T13:44:39Z</time>
      </trkpt>
      <trkpt lat="61.11214623902" lon="13.867979697595">
        <ele>391.8</ele>
        <time>2018-08-11T13:44:42Z</time>
      </trkpt>
      <trkpt lat="61.112133498532" lon="13.868132415813">
        <ele>391.6</ele>
        <time>2018-08-11T13:44:43Z</time>
      </trkpt>
      <trkpt lat="61.112146155201" lon="13.868575985961">
        <ele>390.8</ele>
        <time>2018-08-11T13:44:46Z</time>
      </trkpt>
      <trkpt lat="61.112185382493" lon="13.869020561937">
        <ele>389.8</ele>
        <time>2018-08-11T13:44:49Z</time>
      </trkpt>
      <trkpt lat="61.112225112699" lon="13.869468071578">
        <ele>389.4</ele>
        <time>2018-08-11T13:44:52Z</time>
      </trkpt>
      <trkpt lat="61.112290659157" lon="13.869907283138">
        <ele>390.8</ele>
        <time>2018-08-11T13:44:55Z</time>
      </trkpt>
      <trkpt lat="61.112368024094" lon="13.870341130282">
        <ele>390.4</ele>
        <time>2018-08-11T13:44:58Z</time>
      </trkpt>
      <trkpt lat="61.112428876688" lon="13.870629719099">
        <ele>390</ele>
        <time>2018-08-11T13:45:00Z</time>
      </trkpt>
      <trkpt lat="61.112485873608" lon="13.871049736108">
        <ele>389.6</ele>
        <time>2018-08-11T13:45:03Z</time>
      </trkpt>
      <trkpt lat="61.112555527197" lon="13.871435219689">
        <ele>389.2</ele>
        <time>2018-08-11T13:45:06Z</time>
      </trkpt>
      <trkpt lat="61.112645213527" lon="13.871809387705">
        <ele>388.8</ele>
        <time>2018-08-11T13:45:09Z</time>
      </trkpt>
      <trkpt lat="61.112738755531" lon="13.872185232101">
        <ele>388.8</ele>
        <time>2018-08-11T13:45:12Z</time>
      </trkpt>
      <trkpt lat="61.112789633664" lon="13.872444065173">
        <ele>388.8</ele>
        <time>2018-08-11T13:45:14Z</time>
      </trkpt>
      <trkpt lat="61.112832548992" lon="13.872840696681">
        <ele>388.4</ele>
        <time>2018-08-11T13:45:17Z</time>
      </trkpt>
      <trkpt lat="61.112860628357" lon="13.873103888341">
        <ele>388.2</ele>
        <time>2018-08-11T13:45:19Z</time>
      </trkpt>
      <trkpt lat="61.112917960553" lon="13.873467411344">
        <ele>388</ele>
        <time>2018-08-11T13:45:22Z</time>
      </trkpt>
      <trkpt lat="61.112984261382" lon="13.873826659578">
        <ele>388</ele>
        <time>2018-08-11T13:45:25Z</time>
      </trkpt>
      <trkpt lat="61.113051987134" lon="13.874189931124">
        <ele>388</ele>
        <time>2018-08-11T13:45:28Z</time>
      </trkpt>
      <trkpt lat="61.113115857212" lon="13.874562841855">
        <ele>387.8</ele>
        <time>2018-08-11T13:45:31Z</time>
      </trkpt>
      <trkpt lat="61.113185762258" lon="13.874952013472">
        <ele>387.2</ele>
        <time>2018-08-11T13:45:34Z</time>
      </trkpt>
      <trkpt lat="61.11325684077" lon="13.875347052419">
        <ele>386.8</ele>
        <time>2018-08-11T13:45:37Z</time>
      </trkpt>
      <trkpt lat="61.113316268441" lon="13.875743600108">
        <ele>387</ele>
        <time>2018-08-11T13:45:40Z</time>
      </trkpt>
      <trkpt lat="61.113366559841" lon="13.876137800865">
        <ele>387.2</ele>
        <time>2018-08-11T13:45:43Z</time>
      </trkpt>
      <trkpt lat="61.113434872326" lon="13.8765371984">
        <ele>387.2</ele>
        <time>2018-08-11T13:45:46Z</time>
      </trkpt>
      <trkpt lat="61.113498658585" lon="13.876945229292">
        <ele>387</ele>
        <time>2018-08-11T13:45:49Z</time>
      </trkpt>
      <trkpt lat="61.113552889478" lon="13.877344123913">
        <ele>387.2</ele>
        <time>2018-08-11T13:45:52Z</time>
      </trkpt>
      <trkpt lat="61.113590356571" lon="13.877729272218">
        <ele>386.8</ele>
        <time>2018-08-11T13:45:55Z</time>
      </trkpt>
      <trkpt lat="61.113623465076" lon="13.878148031942">
        <ele>386.2</ele>
        <time>2018-08-11T13:45:58Z</time>
      </trkpt>
      <trkpt lat="61.113643833093" lon="13.878567462218">
        <ele>386</ele>
        <time>2018-08-11T13:46:01Z</time>
      </trkpt>
      <trkpt lat="61.113671493363" lon="13.87904422469">
        <ele>385.8</ele>
        <time>2018-08-11T13:46:05Z</time>
      </trkpt>
      <trkpt lat="61.113693956855" lon="13.879460050749">
        <ele>386.4</ele>
        <time>2018-08-11T13:46:09Z</time>
      </trkpt>
      <trkpt lat="61.113721868582" lon="13.879916193747">
        <ele>386.2</ele>
        <time>2018-08-11T13:46:13Z</time>
      </trkpt>
      <trkpt lat="61.113736956002" lon="13.880397650083">
        <ele>386.4</ele>
        <time>2018-08-11T13:46:17Z</time>
      </trkpt>
      <trkpt lat="61.113751791965" lon="13.880876759487">
        <ele>386.6</ele>
        <time>2018-08-11T13:46:21Z</time>
      </trkpt>
      <trkpt lat="61.113732429776" lon="13.881311947735">
        <ele>387.8</ele>
        <time>2018-08-11T13:46:25Z</time>
      </trkpt>
      <trkpt lat="61.113749109757" lon="13.8817507402">
        <ele>390</ele>
        <time>2018-08-11T13:46:31Z</time>
      </trkpt>
      <trkpt lat="61.113797054225" lon="13.882118286515">
        <ele>389.8</ele>
        <time>2018-08-11T13:46:36Z</time>
      </trkpt>
      <trkpt lat="61.113826055599" lon="13.88249253835">
        <ele>390.2</ele>
        <time>2018-08-11T13:46:41Z</time>
      </trkpt>
      <trkpt lat="61.113921357802" lon="13.882809038894">
        <ele>389.8</ele>
        <time>2018-08-11T13:46:46Z</time>
      </trkpt>
      <trkpt lat="61.11395756761" lon="13.883131993501">
        <ele>389.8</ele>
        <time>2018-08-11T13:46:50Z</time>
      </trkpt>
      <trkpt lat="61.1140003153" lon="13.883507502621">
        <ele>390.2</ele>
        <time>2018-08-11T13:46:56Z</time>
      </trkpt>
      <trkpt lat="61.11405479765" lon="13.883919221549">
        <ele>390.4</ele>
        <time>2018-08-11T13:47:03Z</time>
      </trkpt>
      <trkpt lat="61.114082038825" lon="13.884307052062">
        <ele>390.2</ele>
        <time>2018-08-11T13:47:08Z</time>
      </trkpt>
      <trkpt lat="61.114072315821" lon="13.88469027253">
        <ele>389.6</ele>
        <time>2018-08-11T13:47:11Z</time>
      </trkpt>
      <trkpt lat="61.114066364672" lon="13.884838715979">
        <ele>389.4</ele>
        <time>2018-08-11T13:47:12Z</time>
      </trkpt>
      <trkpt lat="61.113996794902" lon="13.885247501242">
        <ele>389.4</ele>
        <time>2018-08-11T13:47:15Z</time>
      </trkpt>
      <trkpt lat="61.113919094689" lon="13.885607587666">
        <ele>389.8</ele>
        <time>2018-08-11T13:47:18Z</time>
      </trkpt>
      <trkpt lat="61.113858409733" lon="13.886048810882">
        <ele>390.2</ele>
        <time>2018-08-11T13:47:22Z</time>
      </trkpt>
      <trkpt lat="61.113833012576" lon="13.886479053809">
        <ele>389.2</ele>
        <time>2018-08-11T13:47:26Z</time>
      </trkpt>
      <trkpt lat="61.113819098622" lon="13.886939220119">
        <ele>387.6</ele>
        <time>2018-08-11T13:47:30Z</time>
      </trkpt>
      <trkpt lat="61.113817003147" lon="13.887346161364">
        <ele>389.2</ele>
        <time>2018-08-11T13:47:35Z</time>
      </trkpt>
      <trkpt lat="61.113862768321" lon="13.887749079297">
        <ele>391.4</ele>
        <time>2018-08-11T13:47:41Z</time>
      </trkpt>
      <trkpt lat="61.11398690426" lon="13.888062897633">
        <ele>396.4</ele>
        <time>2018-08-11T13:48:07Z</time>
      </trkpt>
      <trkpt lat="61.11412436742" lon="13.888346876405">
        <ele>397.8</ele>
        <time>2018-08-11T13:48:21Z</time>
      </trkpt>
      <trkpt lat="61.114287982108" lon="13.888532367852">
        <ele>399.4</ele>
        <time>2018-08-11T13:48:37Z</time>
      </trkpt>
      <trkpt lat="61.114450088054" lon="13.88876555231">
        <ele>400.6</ele>
        <time>2018-08-11T13:49:09Z</time>
      </trkpt>
      <trkpt lat="61.114520328376" lon="13.889034276024">
        <ele>400</ele>
        <time>2018-08-11T13:49:13Z</time>
      </trkpt>
      <trkpt lat="61.114549832664" lon="13.889458903078">
        <ele>398.4</ele>
        <time>2018-08-11T13:49:17Z</time>
      </trkpt>
      <trkpt lat="61.11456944631" lon="13.889928792392">
        <ele>397</ele>
        <time>2018-08-11T13:49:21Z</time>
      </trkpt>
      <trkpt lat="61.114512868485" lon="13.890285693694">
        <ele>396</ele>
        <time>2018-08-11T13:49:24Z</time>
      </trkpt>
      <trkpt lat="61.114409603477" lon="13.890593728519">
        <ele>396.4</ele>
        <time>2018-08-11T13:49:27Z</time>
      </trkpt>
      <trkpt lat="61.1143775008" lon="13.891017098288">
        <ele>395.8</ele>
        <time>2018-08-11T13:49:31Z</time>
      </trkpt>
      <trkpt lat="61.114381188836" lon="13.891119776563">
        <ele>395.6</ele>
        <time>2018-08-11T13:49:32Z</time>
      </trkpt>
      <trkpt lat="61.114383200492" lon="13.891222873933">
        <ele>395.6</ele>
        <time>2018-08-11T13:49:33Z</time>
      </trkpt>
      <trkpt lat="61.114375740601" lon="13.891627803522">
        <ele>396.8</ele>
        <time>2018-08-11T13:49:37Z</time>
      </trkpt>
      <trkpt lat="61.114378590447" lon="13.891724027734">
        <ele>396.8</ele>
        <time>2018-08-11T13:49:38Z</time>
      </trkpt>
      <trkpt lat="61.114465594569" lon="13.892114037541">
        <ele>396.6</ele>
        <time>2018-08-11T13:49:42Z</time>
      </trkpt>
      <trkpt lat="61.114493254839" lon="13.892214201246">
        <ele>396.4</ele>
        <time>2018-08-11T13:49:43Z</time>
      </trkpt>
      <trkpt lat="61.11460884124" lon="13.89263128459">
        <ele>395.4</ele>
        <time>2018-08-11T13:49:47Z</time>
      </trkpt>
      <trkpt lat="61.114725601107" lon="13.893053313255">
        <ele>395</ele>
        <time>2018-08-11T13:49:51Z</time>
      </trkpt>
      <trkpt lat="61.114837499472" lon="13.893462014699">
        <ele>394</ele>
        <time>2018-08-11T13:49:55Z</time>
      </trkpt>
      <trkpt lat="61.114957276823" lon="13.893891167979">
        <ele>393.2</ele>
        <time>2018-08-11T13:49:59Z</time>
      </trkpt>
      <trkpt lat="61.115049226266" lon="13.894220325192">
        <ele>392.4</ele>
        <time>2018-08-11T13:50:02Z</time>
      </trkpt>
      <trkpt lat="61.115143019727" lon="13.894553757174">
        <ele>391.6</ele>
        <time>2018-08-11T13:50:05Z</time>
      </trkpt>
      <trkpt lat="61.115237399921" lon="13.894879729265">
        <ele>390.6</ele>
        <time>2018-08-11T13:50:08Z</time>
      </trkpt>
      <trkpt lat="61.115270005512" lon="13.894985425024">
        <ele>390.6</ele>
        <time>2018-08-11T13:50:09Z</time>
      </trkpt>
      <trkpt lat="61.11539003432" lon="13.895276109316">
        <ele>390</ele>
        <time>2018-08-11T13:50:12Z</time>
      </trkpt>
      <trkpt lat="61.115498496106" lon="13.89567391429">
        <ele>388.8</ele>
        <time>2018-08-11T13:50:17Z</time>
      </trkpt>
      <trkpt lat="61.11560377277" lon="13.89600499934">
        <ele>388.2</ele>
        <time>2018-08-11T13:50:21Z</time>
      </trkpt>
      <trkpt lat="61.115755149884" lon="13.896293504338">
        <ele>388</ele>
        <time>2018-08-11T13:50:25Z</time>
      </trkpt>
      <trkpt lat="61.115944497005" lon="13.896448653307">
        <ele>386.6</ele>
        <time>2018-08-11T13:50:29Z</time>
      </trkpt>
      <trkpt lat="61.11599688388" lon="13.896466255297">
        <ele>386</ele>
        <time>2018-08-11T13:50:30Z</time>
      </trkpt>
      <trkpt lat="61.116219674782" lon="13.8965028842">
        <ele>384.8</ele>
        <time>2018-08-11T13:50:34Z</time>
      </trkpt>
      <trkpt lat="61.116401226736" lon="13.896539848379">
        <ele>385.2</ele>
        <time>2018-08-11T13:50:37Z</time>
      </trkpt>
      <trkpt lat="61.116588729839" lon="13.896584020992">
        <ele>385.8</ele>
        <time>2018-08-11T13:50:40Z</time>
      </trkpt>
      <trkpt lat="61.116817890985" lon="13.89663448003">
        <ele>387.2</ele>
        <time>2018-08-11T13:50:44Z</time>
      </trkpt>
      <trkpt lat="61.117029198684" lon="13.896658368445">
        <ele>389</ele>
        <time>2018-08-11T13:50:48Z</time>
      </trkpt>
      <trkpt lat="61.117243607686" lon="13.896696422271">
        <ele>390.6</ele>
        <time>2018-08-11T13:50:52Z</time>
      </trkpt>
      <trkpt lat="61.117354332585" lon="13.896733637907">
        <ele>391</ele>
        <time>2018-08-11T13:50:54Z</time>
      </trkpt>
      <trkpt lat="61.117560778782" lon="13.89687755513">
        <ele>391.4</ele>
        <time>2018-08-11T13:50:58Z</time>
      </trkpt>
      <trkpt lat="61.11775624469" lon="13.897138316039">
        <ele>391.4</ele>
        <time>2018-08-11T13:51:02Z</time>
      </trkpt>
      <trkpt lat="61.117880464448" lon="13.897380552949">
        <ele>391.2</ele>
        <time>2018-08-11T13:51:05Z</time>
      </trkpt>
      <trkpt lat="61.118004516568" lon="13.897795289361">
        <ele>388.8</ele>
        <time>2018-08-11T13:51:09Z</time>
      </trkpt>
      <trkpt lat="61.118105602282" lon="13.898138695804">
        <ele>386.6</ele>
        <time>2018-08-11T13:51:12Z</time>
      </trkpt>
      <trkpt lat="61.118216913914" lon="13.898494004545">
        <ele>384.4</ele>
        <time>2018-08-11T13:51:15Z</time>
      </trkpt>
      <trkpt lat="61.118312551393" lon="13.898843613594">
        <ele>382.2</ele>
        <time>2018-08-11T13:51:18Z</time>
      </trkpt>
      <trkpt lat="61.118420258808" lon="13.89918090125">
        <ele>380.6</ele>
        <time>2018-08-11T13:51:21Z</time>
      </trkpt>
      <trkpt lat="61.118561074728" lon="13.899503017667">
        <ele>380.6</ele>
        <time>2018-08-11T13:51:24Z</time>
      </trkpt>
      <trkpt lat="61.118719911733" lon="13.899809879026">
        <ele>382.6</ele>
        <time>2018-08-11T13:51:27Z</time>
      </trkpt>
      <trkpt lat="61.118856117608" lon="13.900096623825">
        <ele>383.2</ele>
        <time>2018-08-11T13:51:30Z</time>
      </trkpt>
      <trkpt lat="61.119008165274" lon="13.900468864004">
        <ele>383</ele>
        <time>2018-08-11T13:51:34Z</time>
      </trkpt>
      <trkpt lat="61.119147304814" lon="13.900864070589">
        <ele>384</ele>
        <time>2018-08-11T13:51:38Z</time>
      </trkpt>
      <trkpt lat="61.119266998346" lon="13.90126799435">
        <ele>384.6</ele>
        <time>2018-08-11T13:51:42Z</time>
      </trkpt>
      <trkpt lat="61.119390966647" lon="13.901680132373">
        <ele>385</ele>
        <time>2018-08-11T13:51:46Z</time>
      </trkpt>
      <trkpt lat="61.119494818388" lon="13.902007697025">
        <ele>385.8</ele>
        <time>2018-08-11T13:51:49Z</time>
      </trkpt>
      <trkpt lat="61.119600681785" lon="13.902353953314">
        <ele>386.4</ele>
        <time>2018-08-11T13:51:52Z</time>
      </trkpt>
      <trkpt lat="61.119710484675" lon="13.902682691432">
        <ele>386.8</ele>
        <time>2018-08-11T13:51:55Z</time>
      </trkpt>
      <trkpt lat="61.119793716942" lon="13.902880252815">
        <ele>387</ele>
        <time>2018-08-11T13:51:57Z</time>
      </trkpt>
      <trkpt lat="61.119993960533" lon="13.903091811971">
        <ele>387.2</ele>
        <time>2018-08-11T13:52:01Z</time>
      </trkpt>
      <trkpt lat="61.120043413743" lon="13.903120813345">
        <ele>387.4</ele>
        <time>2018-08-11T13:52:02Z</time>
      </trkpt>
      <trkpt lat="61.120250446673" lon="13.903142019552">
        <ele>390.4</ele>
        <time>2018-08-11T13:52:08Z</time>
      </trkpt>
      <trkpt lat="61.120439374699" lon="13.903064822253">
        <ele>389.6</ele>
        <time>2018-08-11T13:52:14Z</time>
      </trkpt>
      <trkpt lat="61.120683371808" lon="13.902917049356">
        <ele>386.8</ele>
        <time>2018-08-11T13:52:18Z</time>
      </trkpt>
      <trkpt lat="61.120907336176" lon="13.902803474611">
        <ele>385.6</ele>
        <time>2018-08-11T13:52:21Z</time>
      </trkpt>
      <trkpt lat="61.121131719639" lon="13.902853933649">
        <ele>384.4</ele>
        <time>2018-08-11T13:52:24Z</time>
      </trkpt>
      <trkpt lat="61.121330035393" lon="13.902857621685">
        <ele>384</ele>
        <time>2018-08-11T13:52:27Z</time>
      </trkpt>
      <trkpt lat="61.121525249844" lon="13.902830715786">
        <ele>383.6</ele>
        <time>2018-08-11T13:52:31Z</time>
      </trkpt>
      <trkpt lat="61.121716440983" lon="13.902818981126">
        <ele>383.2</ele>
        <time>2018-08-11T13:52:36Z</time>
      </trkpt>
      <trkpt lat="61.121901680973" lon="13.902788387191">
        <ele>383.2</ele>
        <time>2018-08-11T13:52:41Z</time>
      </trkpt>
      <trkpt lat="61.122105864057" lon="13.90274488513">
        <ele>386.2</ele>
        <time>2018-08-11T13:52:48Z</time>
      </trkpt>
      <trkpt lat="61.122313399901" lon="13.90265771337">
        <ele>386.4</ele>
        <time>2018-08-11T13:52:54Z</time>
      </trkpt>
      <trkpt lat="61.122496795873" lon="13.902658383922">
        <ele>387</ele>
        <time>2018-08-11T13:52:59Z</time>
      </trkpt>
      <trkpt lat="61.122660662018" lon="13.902840354971">
        <ele>387.6</ele>
        <time>2018-08-11T13:53:04Z</time>
      </trkpt>
      <trkpt lat="61.122809356924" lon="13.903173367858">
        <ele>388.6</ele>
        <time>2018-08-11T13:53:09Z</time>
      </trkpt>
      <trkpt lat="61.122847578388" lon="13.903241009791">
        <ele>388.2</ele>
        <time>2018-08-11T13:53:10Z</time>
      </trkpt>
      <trkpt lat="61.123019407338" lon="13.903306807706">
        <ele>387.2</ele>
        <time>2018-08-11T13:53:14Z</time>
      </trkpt>
      <trkpt lat="61.123219231834" lon="13.903083094795">
        <ele>386.8</ele>
        <time>2018-08-11T13:53:18Z</time>
      </trkpt>
      <trkpt lat="61.123270780519" lon="13.903014111758">
        <ele>386.4</ele>
        <time>2018-08-11T13:53:19Z</time>
      </trkpt>
      <trkpt lat="61.123501953321" lon="13.902984104556">
        <ele>384</ele>
        <time>2018-08-11T13:53:23Z</time>
      </trkpt>
      <trkpt lat="61.123563141191" lon="13.903026684608">
        <ele>383.4</ele>
        <time>2018-08-11T13:53:24Z</time>
      </trkpt>
      <trkpt lat="61.123738322901" lon="13.903154508583">
        <ele>381.4</ele>
        <time>2018-08-11T13:53:27Z</time>
      </trkpt>
      <trkpt lat="61.123942003071" lon="13.903268167147">
        <ele>379.6</ele>
        <time>2018-08-11T13:53:31Z</time>
      </trkpt>
      <trkpt lat="61.124037389093" lon="13.903294989227">
        <ele>379</ele>
        <time>2018-08-11T13:53:33Z</time>
      </trkpt>
      <trkpt lat="61.124250792267" lon="13.903284176576">
        <ele>376.8</ele>
        <time>2018-08-11T13:53:38Z</time>
      </trkpt>
      <trkpt lat="61.124295048699" lon="13.903255761935">
        <ele>376.6</ele>
        <time>2018-08-11T13:53:39Z</time>
      </trkpt>
      <trkpt lat="61.124514319203" lon="13.903126680675">
        <ele>376.6</ele>
        <time>2018-08-11T13:53:43Z</time>
      </trkpt>
      <trkpt lat="61.124572657227" lon="13.903088040116">
        <ele>377</ele>
        <time>2018-08-11T13:53:44Z</time>
      </trkpt>
      <trkpt lat="61.124772062628" lon="13.902872541467">
        <ele>377.6</ele>
        <time>2018-08-11T13:53:48Z</time>
      </trkpt>
      <trkpt lat="61.124860491673" lon="13.902788219553">
        <ele>376.8</ele>
        <time>2018-08-11T13:53:50Z</time>
      </trkpt>
      <trkpt lat="61.125015137728" lon="13.902971615525">
        <ele>375.2</ele>
        <time>2018-08-11T13:53:54Z</time>
      </trkpt>
      <trkpt lat="61.125043133274" lon="13.903059038742">
        <ele>374.8</ele>
        <time>2018-08-11T13:53:55Z</time>
      </trkpt>
      <trkpt lat="61.12511220013" lon="13.903403031918">
        <ele>373</ele>
        <time>2018-08-11T13:53:59Z</time>
      </trkpt>
      <trkpt lat="61.125131981414" lon="13.903597911093">
        <ele>372.2</ele>
        <time>2018-08-11T13:54:01Z</time>
      </trkpt>
      <trkpt lat="61.125245807616" lon="13.903977275887">
        <ele>370.6</ele>
        <time>2018-08-11T13:54:05Z</time>
      </trkpt>
      <trkpt lat="61.125363321854" lon="13.904365190219">
        <ele>368.6</ele>
        <time>2018-08-11T13:54:09Z</time>
      </trkpt>
      <trkpt lat="61.125476728961" lon="13.904755535302">
        <ele>366.8</ele>
        <time>2018-08-11T13:54:13Z</time>
      </trkpt>
      <trkpt lat="61.125580999797" lon="13.905162644185">
        <ele>364.8</ele>
        <time>2018-08-11T13:54:17Z</time>
      </trkpt>
      <trkpt lat="61.125651743033" lon="13.905498255461">
        <ele>363.6</ele>
        <time>2018-08-11T13:54:20Z</time>
      </trkpt>
      <trkpt lat="61.125786188709" lon="13.905777540369">
        <ele>363.6</ele>
        <time>2018-08-11T13:54:24Z</time>
      </trkpt>
      <trkpt lat="61.125883502568" lon="13.906151037833">
        <ele>362.4</ele>
        <time>2018-08-11T13:54:29Z</time>
      </trkpt>
      <trkpt lat="61.125905044051" lon="13.906226474933">
        <ele>362.2</ele>
        <time>2018-08-11T13:54:30Z</time>
      </trkpt>
      <trkpt lat="61.126055834432" lon="13.906462006323">
        <ele>361.2</ele>
        <time>2018-08-11T13:54:35Z</time>
      </trkpt>
      <trkpt lat="61.12612976279" lon="13.90668940727">
        <ele>360.6</ele>
        <time>2018-08-11T13:54:38Z</time>
      </trkpt>
      <trkpt lat="61.126167816616" lon="13.907067179503">
        <ele>359.4</ele>
        <time>2018-08-11T13:54:42Z</time>
      </trkpt>
      <trkpt lat="61.126205283709" lon="13.907378986183">
        <ele>357.8</ele>
        <time>2018-08-11T13:54:45Z</time>
      </trkpt>
      <trkpt lat="61.126308213441" lon="13.907715854744">
        <ele>357.2</ele>
        <time>2018-08-11T13:54:48Z</time>
      </trkpt>
      <trkpt lat="61.126336544263" lon="13.907827250195">
        <ele>356.8</ele>
        <time>2018-08-11T13:54:49Z</time>
      </trkpt>
      <trkpt lat="61.126418267788" lon="13.908176607787">
        <ele>356</ele>
        <time>2018-08-11T13:54:52Z</time>
      </trkpt>
      <trkpt lat="61.126570986006" lon="13.90851247052">
        <ele>354.8</ele>
        <time>2018-08-11T13:54:55Z</time>
      </trkpt>
      <trkpt lat="61.126747089725" lon="13.908886889993">
        <ele>354.6</ele>
        <time>2018-08-11T13:54:58Z</time>
      </trkpt>
      <trkpt lat="61.126835099675" lon="13.909066095015">
        <ele>354.6</ele>
        <time>2018-08-11T13:55:00Z</time>
      </trkpt>
      <trkpt lat="61.127002989132" lon="13.909145136332">
        <ele>355</ele>
        <time>2018-08-11T13:55:04Z</time>
      </trkpt>
      <trkpt lat="61.127193928814" lon="13.909165588168">
        <ele>356.4</ele>
        <time>2018-08-11T13:55:08Z</time>
      </trkpt>
      <trkpt lat="61.127367685601" lon="13.90928947265">
        <ele>357.8</ele>
        <time>2018-08-11T13:55:12Z</time>
      </trkpt>
      <trkpt lat="61.127527444615" lon="13.909472784803">
        <ele>358.6</ele>
        <time>2018-08-11T13:55:15Z</time>
      </trkpt>
      <trkpt lat="61.127596176195" lon="13.909511341543">
        <ele>359</ele>
        <time>2018-08-11T13:55:16Z</time>
      </trkpt>
      <trkpt lat="61.127826175531" lon="13.909545791152">
        <ele>359.4</ele>
        <time>2018-08-11T13:55:19Z</time>
      </trkpt>
      <trkpt lat="61.128033124642" lon="13.909565656255">
        <ele>362.4</ele>
        <time>2018-08-11T13:55:23Z</time>
      </trkpt>
      <trkpt lat="61.128230350749" lon="13.909617959311">
        <ele>363.4</ele>
        <time>2018-08-11T13:55:28Z</time>
      </trkpt>
      <trkpt lat="61.128450040348" lon="13.909581246589">
        <ele>365.4</ele>
        <time>2018-08-11T13:55:31Z</time>
      </trkpt>
      <trkpt lat="61.1285177661" lon="13.909552999586">
        <ele>366.6</ele>
        <time>2018-08-11T13:55:32Z</time>
      </trkpt>
      <trkpt lat="61.128739802631" lon="13.909445124533">
        <ele>368.8</ele>
        <time>2018-08-11T13:55:36Z</time>
      </trkpt>
      <trkpt lat="61.128967538854" lon="13.909525255497">
        <ele>370.2</ele>
        <time>2018-08-11T13:55:40Z</time>
      </trkpt>
      <trkpt lat="61.12902235648" lon="13.909570517757">
        <ele>370.4</ele>
        <time>2018-08-11T13:55:41Z</time>
      </trkpt>
      <trkpt lat="61.129130399171" lon="13.909672190204">
        <ele>371.2</ele>
        <time>2018-08-11T13:55:43Z</time>
      </trkpt>
      <trkpt lat="61.129291750746" lon="13.909852317235">
        <ele>371.6</ele>
        <time>2018-08-11T13:55:46Z</time>
      </trkpt>
      <trkpt lat="61.129466848637" lon="13.91000444872">
        <ele>372.2</ele>
        <time>2018-08-11T13:55:49Z</time>
      </trkpt>
      <trkpt lat="61.129647813858" lon="13.91017041034">
        <ele>374.6</ele>
        <time>2018-08-11T13:55:52Z</time>
      </trkpt>
      <trkpt lat="61.129704978416" lon="13.910231682029">
        <ele>375.2</ele>
        <time>2018-08-11T13:55:53Z</time>
      </trkpt>
      <trkpt lat="61.129875382443" lon="13.910571987169">
        <ele>376.6</ele>
        <time>2018-08-11T13:55:57Z</time>
      </trkpt>
      <trkpt lat="61.129930367707" lon="13.910797963193">
        <ele>377</ele>
        <time>2018-08-11T13:55:59Z</time>
      </trkpt>
      <trkpt lat="61.130025753729" lon="13.911221081505">
        <ele>377.6</ele>
        <time>2018-08-11T13:56:03Z</time>
      </trkpt>
      <trkpt lat="61.130062298813" lon="13.911417301784">
        <ele>378.2</ele>
        <time>2018-08-11T13:56:05Z</time>
      </trkpt>
      <trkpt lat="61.130067160315" lon="13.911835810051">
        <ele>379.2</ele>
        <time>2018-08-11T13:56:09Z</time>
      </trkpt>
      <trkpt lat="61.130029190308" lon="13.912235459043">
        <ele>380</ele>
        <time>2018-08-11T13:56:13Z</time>
      </trkpt>
      <trkpt lat="61.130024496444" lon="13.912335371291">
        <ele>380.2</ele>
        <time>2018-08-11T13:56:14Z</time>
      </trkpt>
      <trkpt lat="61.13002231715" lon="13.912522455299">
        <ele>380.8</ele>
        <time>2018-08-11T13:56:16Z</time>
      </trkpt>
      <trkpt lat="61.130083337382" lon="13.912912548925">
        <ele>382</ele>
        <time>2018-08-11T13:56:22Z</time>
      </trkpt>
      <trkpt lat="61.130228930985" lon="13.913240616491">
        <ele>382.2</ele>
        <time>2018-08-11T13:56:27Z</time>
      </trkpt>
      <trkpt lat="61.130329262328" lon="13.913469107085">
        <ele>381.8</ele>
        <time>2018-08-11T13:56:30Z</time>
      </trkpt>
      <trkpt lat="61.13040536998" lon="13.913821985075">
        <ele>381.2</ele>
        <time>2018-08-11T13:56:34Z</time>
      </trkpt>
      <trkpt lat="61.130412159319" lon="13.91390203222">
        <ele>381</ele>
        <time>2018-08-11T13:56:35Z</time>
      </trkpt>
      <trkpt lat="61.130465552022" lon="13.91428005591">
        <ele>380.4</ele>
        <time>2018-08-11T13:56:40Z</time>
      </trkpt>
      <trkpt lat="61.13050679097" lon="13.914686661879">
        <ele>379.2</ele>
        <time>2018-08-11T13:56:46Z</time>
      </trkpt>
      <trkpt lat="61.130542916959" lon="13.914981285664">
        <ele>378.2</ele>
        <time>2018-08-11T13:56:49Z</time>
      </trkpt>
      <trkpt lat="61.130525650245" lon="13.915343970477">
        <ele>377.6</ele>
        <time>2018-08-11T13:56:53Z</time>
      </trkpt>
      <trkpt lat="61.130510814282" lon="13.915572712528">
        <ele>376.8</ele>
        <time>2018-08-11T13:56:55Z</time>
      </trkpt>
      <trkpt lat="61.13049002717" lon="13.91596146505">
        <ele>375</ele>
        <time>2018-08-11T13:56:59Z</time>
      </trkpt>
      <trkpt lat="61.130515089051" lon="13.916338063817">
        <ele>374</ele>
        <time>2018-08-11T13:57:04Z</time>
      </trkpt>
      <trkpt lat="61.130567727383" lon="13.916752381134">
        <ele>373.6</ele>
        <time>2018-08-11T13:57:09Z</time>
      </trkpt>
      <trkpt lat="61.1306551506" lon="13.917145492244">
        <ele>372.4</ele>
        <time>2018-08-11T13:57:14Z</time>
      </trkpt>
      <trkpt lat="61.130775347046" lon="13.917464842634">
        <ele>372.8</ele>
        <time>2018-08-11T13:57:21Z</time>
      </trkpt>
      <trkpt lat="61.13084290516" lon="13.917636755403">
        <ele>372.8</ele>
        <time>2018-08-11T13:57:26Z</time>
      </trkpt>
      <trkpt lat="61.131016242852" lon="13.917842782505">
        <ele>373.2</ele>
        <time>2018-08-11T13:57:33Z</time>
      </trkpt>
      <trkpt lat="61.13120248867" lon="13.917960464381">
        <ele>373.4</ele>
        <time>2018-08-11T13:57:39Z</time>
      </trkpt>
      <trkpt lat="61.131246996559" lon="13.91792869698">
        <ele>373.6</ele>
        <time>2018-08-11T13:57:40Z</time>
      </trkpt>
      <trkpt lat="61.131425782486" lon="13.917611525884">
        <ele>374.4</ele>
        <time>2018-08-11T13:57:44Z</time>
      </trkpt>
      <trkpt lat="61.131455286774" lon="13.917488814868">
        <ele>374.2</ele>
        <time>2018-08-11T13:57:45Z</time>
      </trkpt>
      <trkpt lat="61.131482360311" lon="13.917374904847">
        <ele>374.2</ele>
        <time>2018-08-11T13:57:46Z</time>
      </trkpt>
      <trkpt lat="61.131599539273" lon="13.91708547784">
        <ele>374.6</ele>
        <time>2018-08-11T13:57:50Z</time>
      </trkpt>
      <trkpt lat="61.13169953534" lon="13.917175415627">
        <ele>374.2</ele>
        <time>2018-08-11T13:57:53Z</time>
      </trkpt>
      <trkpt lat="61.131816798121" lon="13.917327547112">
        <ele>374</ele>
        <time>2018-08-11T13:57:56Z</time>
      </trkpt>
      <trkpt lat="61.131976221859" lon="13.917423016953">
        <ele>373.8</ele>
        <time>2018-08-11T13:58:00Z</time>
      </trkpt>
      <trkpt lat="61.132023495775" lon="13.917428046093">
        <ele>373.8</ele>
        <time>2018-08-11T13:58:01Z</time>
      </trkpt>
      <trkpt lat="61.132131538466" lon="13.91743332669">
        <ele>373.4</ele>
        <time>2018-08-11T13:58:03Z</time>
      </trkpt>
      <trkpt lat="61.132319712121" lon="13.917544889779">
        <ele>372.8</ele>
        <time>2018-08-11T13:58:07Z</time>
      </trkpt>
      <trkpt lat="61.132409985184" lon="13.917618231404">
        <ele>372.4</ele>
        <time>2018-08-11T13:58:09Z</time>
      </trkpt>
      <trkpt lat="61.132533450571" lon="13.917780840264">
        <ele>371.6</ele>
        <time>2018-08-11T13:58:12Z</time>
      </trkpt>
      <trkpt lat="61.132721121312" lon="13.917895504656">
        <ele>371.4</ele>
        <time>2018-08-11T13:58:16Z</time>
      </trkpt>
      <trkpt lat="61.132926813138" lon="13.917984185158">
        <ele>370.2</ele>
        <time>2018-08-11T13:58:21Z</time>
      </trkpt>
      <trkpt lat="61.133020019866" lon="13.918039170422">
        <ele>369.2</ele>
        <time>2018-08-11T13:58:23Z</time>
      </trkpt>
      <trkpt lat="61.133188663694" lon="13.91817763941">
        <ele>369.2</ele>
        <time>2018-08-11T13:58:26Z</time>
      </trkpt>
      <trkpt lat="61.133394439339" lon="13.918333794207">
        <ele>373.2</ele>
        <time>2018-08-11T13:58:30Z</time>
      </trkpt>
      <trkpt lat="61.133539194752" lon="13.918542587336">
        <ele>374.8</ele>
        <time>2018-08-11T13:58:34Z</time>
      </trkpt>
      <trkpt lat="61.133662157225" lon="13.918887334883">
        <ele>377</ele>
        <time>2018-08-11T13:58:39Z</time>
      </trkpt>
      <trkpt lat="61.133725859665" lon="13.919294695223">
        <ele>379.2</ele>
        <time>2018-08-11T13:58:44Z</time>
      </trkpt>
      <trkpt lat="61.13378830482" lon="13.919708677264">
        <ele>380.6</ele>
        <time>2018-08-11T13:58:49Z</time>
      </trkpt>
      <trkpt lat="61.133906992524" lon="13.920059627417">
        <ele>381.8</ele>
        <time>2018-08-11T13:58:55Z</time>
      </trkpt>
      <trkpt lat="61.134081755139" lon="13.920209495789">
        <ele>383.2</ele>
        <time>2018-08-11T13:59:00Z</time>
      </trkpt>
      <trkpt lat="61.134264648197" lon="13.920229696168">
        <ele>383.8</ele>
        <time>2018-08-11T13:59:05Z</time>
      </trkpt>
      <trkpt lat="61.134448882359" lon="13.920195665654">
        <ele>384.6</ele>
        <time>2018-08-11T13:59:10Z</time>
      </trkpt>
      <trkpt lat="61.134619956938" lon="13.920323154353">
        <ele>386.2</ele>
        <time>2018-08-11T13:59:15Z</time>
      </trkpt>
      <trkpt lat="61.134758593564" lon="13.920635044852">
        <ele>387</ele>
        <time>2018-08-11T13:59:21Z</time>
      </trkpt>
      <trkpt lat="61.134900834407" lon="13.920925561506">
        <ele>387.4</ele>
        <time>2018-08-11T13:59:27Z</time>
      </trkpt>
      <trkpt lat="61.135030753857" lon="13.921256059823">
        <ele>387.6</ele>
        <time>2018-08-11T13:59:33Z</time>
      </trkpt>
      <trkpt lat="61.135072160443" lon="13.921618660817">
        <ele>388.2</ele>
        <time>2018-08-11T13:59:38Z</time>
      </trkpt>
      <trkpt lat="61.135163523153" lon="13.921937424474">
        <ele>389.2</ele>
        <time>2018-08-11T13:59:43Z</time>
      </trkpt>
      <trkpt lat="61.135308194747" lon="13.922186953637">
        <ele>390.4</ele>
        <time>2018-08-11T13:59:49Z</time>
      </trkpt>
      <trkpt lat="61.135387822797" lon="13.922553997038">
        <ele>391.8</ele>
        <time>2018-08-11T13:59:56Z</time>
      </trkpt>
      <trkpt lat="61.13545295016" lon="13.922847531176">
        <ele>392.4</ele>
        <time>2018-08-11T14:00:00Z</time>
      </trkpt>
      <trkpt lat="61.135514724763" lon="13.923261932312">
        <ele>393.8</ele>
        <time>2018-08-11T14:00:05Z</time>
      </trkpt>
      <trkpt lat="61.135583875438" lon="13.923684799167">
        <ele>393.2</ele>
        <time>2018-08-11T14:00:10Z</time>
      </trkpt>
      <trkpt lat="61.13559460427" lon="13.923771887108">
        <ele>393.4</ele>
        <time>2018-08-11T14:00:11Z</time>
      </trkpt>
      <trkpt lat="61.135640956177" lon="13.924181175285">
        <ele>394.2</ele>
        <time>2018-08-11T14:00:16Z</time>
      </trkpt>
      <trkpt lat="61.135669119361" lon="13.924561881183">
        <ele>394</ele>
        <time>2018-08-11T14:00:20Z</time>
      </trkpt>
      <trkpt lat="61.135678339451" lon="13.924843429204">
        <ele>394.2</ele>
        <time>2018-08-11T14:00:23Z</time>
      </trkpt>
      <trkpt lat="61.135735504009" lon="13.925253387933">
        <ele>394.2</ele>
        <time>2018-08-11T14:00:28Z</time>
      </trkpt>
      <trkpt lat="61.135803481218" lon="13.92561070833">
        <ele>394</ele>
        <time>2018-08-11T14:00:32Z</time>
      </trkpt>
      <trkpt lat="61.135882354897" lon="13.925976494446">
        <ele>393.8</ele>
        <time>2018-08-11T14:00:36Z</time>
      </trkpt>
      <trkpt lat="61.135943458948" lon="13.926326857866">
        <ele>393.6</ele>
        <time>2018-08-11T14:00:40Z</time>
      </trkpt>
      <trkpt lat="61.135993415072" lon="13.926697421665">
        <ele>393.4</ele>
        <time>2018-08-11T14:00:44Z</time>
      </trkpt>
      <trkpt lat="61.136060805548" lon="13.92711274481">
        <ele>392.8</ele>
        <time>2018-08-11T14:00:48Z</time>
      </trkpt>
      <trkpt lat="61.136114365889" lon="13.927576766794">
        <ele>392.2</ele>
        <time>2018-08-11T14:00:52Z</time>
      </trkpt>
      <trkpt lat="61.136123083065" lon="13.927914305907">
        <ele>392.4</ele>
        <time>2018-08-11T14:00:55Z</time>
      </trkpt>
      <trkpt lat="61.136115790812" lon="13.928354188019">
        <ele>393.2</ele>
        <time>2018-08-11T14:00:59Z</time>
      </trkpt>
      <trkpt lat="61.136103217962" lon="13.928633053832">
        <ele>393.8</ele>
        <time>2018-08-11T14:01:02Z</time>
      </trkpt>
      <trkpt lat="61.136146887661" lon="13.928998588491">
        <ele>394.2</ele>
        <time>2018-08-11T14:01:06Z</time>
      </trkpt>
      <trkpt lat="61.136175218483" lon="13.929180056626">
        <ele>394.2</ele>
        <time>2018-08-11T14:01:08Z</time>
      </trkpt>
      <trkpt lat="61.136265240089" lon="13.92954349581">
        <ele>392.8</ele>
        <time>2018-08-11T14:01:12Z</time>
      </trkpt>
      <trkpt lat="61.136421646343" lon="13.929864103485">
        <ele>391.8</ele>
        <time>2018-08-11T14:01:16Z</time>
      </trkpt>
      <trkpt lat="61.136509153379" lon="13.930011960201">
        <ele>391.2</ele>
        <time>2018-08-11T14:01:18Z</time>
      </trkpt>
      <trkpt lat="61.136628846911" lon="13.930348242029">
        <ele>390.2</ele>
        <time>2018-08-11T14:01:22Z</time>
      </trkpt>
      <trkpt lat="61.136660698131" lon="13.930430384649">
        <ele>389.8</ele>
        <time>2018-08-11T14:01:23Z</time>
      </trkpt>
      <trkpt lat="61.136799837671" lon="13.930719644018">
        <ele>390.2</ele>
        <time>2018-08-11T14:01:27Z</time>
      </trkpt>
      <trkpt lat="61.136964039092" lon="13.931029858137">
        <ele>391.4</ele>
        <time>2018-08-11T14:01:32Z</time>
      </trkpt>
      <trkpt lat="61.137114829473" lon="13.93132464956">
        <ele>392.8</ele>
        <time>2018-08-11T14:01:37Z</time>
      </trkpt>
      <trkpt lat="61.137263692017" lon="13.931638551715">
        <ele>393.8</ele>
        <time>2018-08-11T14:01:42Z</time>
      </trkpt>
      <trkpt lat="61.137413811846" lon="13.931921357021">
        <ele>395</ele>
        <time>2018-08-11T14:01:48Z</time>
      </trkpt>
      <trkpt lat="61.137565440417" lon="13.932229475665">
        <ele>395.6</ele>
        <time>2018-08-11T14:01:54Z</time>
      </trkpt>
      <trkpt lat="61.137705418147" lon="13.932529631504">
        <ele>395.8</ele>
        <time>2018-08-11T14:02:01Z</time>
      </trkpt>
      <trkpt lat="61.137831398104" lon="13.932595848514">
        <ele>395.6</ele>
        <time>2018-08-11T14:02:04Z</time>
      </trkpt>
      <trkpt lat="61.137958886803" lon="13.932874295232">
        <ele>395.2</ele>
        <time>2018-08-11T14:02:08Z</time>
      </trkpt>
      <trkpt lat="61.137980176829" lon="13.932976638231">
        <ele>395.2</ele>
        <time>2018-08-11T14:02:09Z</time>
      </trkpt>
      <trkpt lat="61.138031809333" lon="13.933427165356">
        <ele>395.6</ele>
        <time>2018-08-11T14:02:13Z</time>
      </trkpt>
      <trkpt lat="61.13803373717" lon="13.933541326834">
        <ele>395.4</ele>
        <time>2018-08-11T14:02:14Z</time>
      </trkpt>
      <trkpt lat="61.138015716085" lon="13.933990009941">
        <ele>395.6</ele>
        <time>2018-08-11T14:02:18Z</time>
      </trkpt>
      <trkpt lat="61.137995683344" lon="13.934207101151">
        <ele>395.8</ele>
        <time>2018-08-11T14:02:20Z</time>
      </trkpt>
      <trkpt lat="61.137914127457" lon="13.934586465945">
        <ele>396.8</ele>
        <time>2018-08-11T14:02:24Z</time>
      </trkpt>
      <trkpt lat="61.137827290973" lon="13.934927860732">
        <ele>397.6</ele>
        <time>2018-08-11T14:02:29Z</time>
      </trkpt>
      <trkpt lat="61.137801474721" lon="13.935308818087">
        <ele>398.4</ele>
        <time>2018-08-11T14:02:34Z</time>
      </trkpt>
      <trkpt lat="61.137789069509" lon="13.935680136257">
        <ele>399.4</ele>
        <time>2018-08-11T14:02:41Z</time>
      </trkpt>
      <trkpt lat="61.137779597962" lon="13.936076181032">
        <ele>399.8</ele>
        <time>2018-08-11T14:02:47Z</time>
      </trkpt>
      <trkpt lat="61.137746489457" lon="13.936468370133">
        <ele>400.2</ele>
        <time>2018-08-11T14:02:53Z</time>
      </trkpt>
      <trkpt lat="61.137715644065" lon="13.936853686076">
        <ele>401.8</ele>
        <time>2018-08-11T14:03:01Z</time>
      </trkpt>
      <trkpt lat="61.137695276048" lon="13.937248557385">
        <ele>403.2</ele>
        <time>2018-08-11T14:03:09Z</time>
      </trkpt>
      <trkpt lat="61.137742633783" lon="13.937653403155">
        <ele>403.6</ele>
        <time>2018-08-11T14:03:17Z</time>
      </trkpt>
      <trkpt lat="61.137753530253" lon="13.938024469868">
        <ele>405</ele>
        <time>2018-08-11T14:03:23Z</time>
      </trkpt>
      <trkpt lat="61.137725869983" lon="13.938428477448">
        <ele>404.8</ele>
        <time>2018-08-11T14:03:30Z</time>
      </trkpt>
      <trkpt lat="61.137697539161" lon="13.938865425895">
        <ele>404.2</ele>
        <time>2018-08-11T14:03:35Z</time>
      </trkpt>
      <trkpt lat="61.137668370149" lon="13.939282090144">
        <ele>404.2</ele>
        <time>2018-08-11T14:03:40Z</time>
      </trkpt>
      <trkpt lat="61.137652528358" lon="13.939549305116">
        <ele>404.4</ele>
        <time>2018-08-11T14:03:43Z</time>
      </trkpt>
      <trkpt lat="61.137701478654" lon="13.939988768133">
        <ele>404.6</ele>
        <time>2018-08-11T14:03:48Z</time>
      </trkpt>
      <trkpt lat="61.137756128642" lon="13.940358996656">
        <ele>403.6</ele>
        <time>2018-08-11T14:03:53Z</time>
      </trkpt>
      <trkpt lat="61.137757805022" lon="13.940785048633">
        <ele>402.4</ele>
        <time>2018-08-11T14:03:58Z</time>
      </trkpt>
      <trkpt lat="61.137759062307" lon="13.940854199308">
        <ele>401.8</ele>
        <time>2018-08-11T14:03:59Z</time>
      </trkpt>
      <trkpt lat="61.137719248282" lon="13.941236833043">
        <ele>399.4</ele>
        <time>2018-08-11T14:04:04Z</time>
      </trkpt>
      <trkpt lat="61.137655126747" lon="13.941661041002">
        <ele>395.6</ele>
        <time>2018-08-11T14:04:08Z</time>
      </trkpt>
      <trkpt lat="61.137644397915" lon="13.941760617974">
        <ele>395</ele>
        <time>2018-08-11T14:04:09Z</time>
      </trkpt>
      <trkpt lat="61.13763308235" lon="13.942052391913">
        <ele>395.2</ele>
        <time>2018-08-11T14:04:12Z</time>
      </trkpt>
      <trkpt lat="61.1376456552" lon="13.942252300228">
        <ele>396</ele>
        <time>2018-08-11T14:04:14Z</time>
      </trkpt>
      <trkpt lat="61.137768114759" lon="13.942568549315">
        <ele>395.6</ele>
        <time>2018-08-11T14:04:18Z</time>
      </trkpt>
      <trkpt lat="61.137940781899" lon="13.942836099563">
        <ele>396.2</ele>
        <time>2018-08-11T14:04:22Z</time>
      </trkpt>
      <trkpt lat="61.138022505424" lon="13.943194593426">
        <ele>394.6</ele>
        <time>2018-08-11T14:04:26Z</time>
      </trkpt>
      <trkpt lat="61.138018482112" lon="13.943365584186">
        <ele>395.8</ele>
        <time>2018-08-11T14:04:28Z</time>
      </trkpt>
      <trkpt lat="61.138119148731" lon="13.943694322304">
        <ele>398.2</ele>
        <time>2018-08-11T14:04:34Z</time>
      </trkpt>
      <trkpt lat="61.138265580524" lon="13.943947455684">
        <ele>398.2</ele>
        <time>2018-08-11T14:04:41Z</time>
      </trkpt>
      <trkpt lat="61.138291564414" lon="13.944329418867">
        <ele>398.4</ele>
        <time>2018-08-11T14:04:46Z</time>
      </trkpt>
      <trkpt lat="61.138308747309" lon="13.94471222024">
        <ele>399.4</ele>
        <time>2018-08-11T14:04:53Z</time>
      </trkpt>
      <trkpt lat="61.138328193317" lon="13.94509024393">
        <ele>399.2</ele>
        <time>2018-08-11T14:05:01Z</time>
      </trkpt>
      <trkpt lat="61.138311932431" lon="13.94547329676">
        <ele>398</ele>
        <time>2018-08-11T14:05:09Z</time>
      </trkpt>
      <trkpt lat="61.138217552237" lon="13.945825588017">
        <ele>395.8</ele>
        <time>2018-08-11T14:05:15Z</time>
      </trkpt>
      <trkpt lat="61.138155526177" lon="13.946027591807">
        <ele>394.6</ele>
        <time>2018-08-11T14:05:18Z</time>
      </trkpt>
      <trkpt lat="61.138070701349" lon="13.946367896947">
        <ele>392.4</ele>
        <time>2018-08-11T14:05:22Z</time>
      </trkpt>
      <trkpt lat="61.137951175455" lon="13.946738460746">
        <ele>390</ele>
        <time>2018-08-11T14:05:27Z</time>
      </trkpt>
      <trkpt lat="61.137861321487" lon="13.947157891022">
        <ele>387</ele>
        <time>2018-08-11T14:05:32Z</time>
      </trkpt>
      <trkpt lat="61.137777418668" lon="13.947560725136">
        <ele>384.2</ele>
        <time>2018-08-11T14:05:37Z</time>
      </trkpt>
      <trkpt lat="61.137691336555" lon="13.947967917838">
        <ele>383.2</ele>
        <time>2018-08-11T14:05:42Z</time>
      </trkpt>
      <trkpt lat="61.137616737645" lon="13.948371171047">
        <ele>380.4</ele>
        <time>2018-08-11T14:05:46Z</time>
      </trkpt>
      <trkpt lat="61.137577510353" lon="13.948763779243">
        <ele>377.4</ele>
        <time>2018-08-11T14:05:49Z</time>
      </trkpt>
      <trkpt lat="61.137555885051" lon="13.948987575973">
        <ele>376</ele>
        <time>2018-08-11T14:05:51Z</time>
      </trkpt>
      <trkpt lat="61.137440885383" lon="13.949290162563">
        <ele>373</ele>
        <time>2018-08-11T14:05:55Z</time>
      </trkpt>
      <trkpt lat="61.137241731439" lon="13.949544888504">
        <ele>370</ele>
        <time>2018-08-11T14:06:00Z</time>
      </trkpt>
      <trkpt lat="61.137082559158" lon="13.949806487603">
        <ele>367.4</ele>
        <time>2018-08-11T14:06:05Z</time>
      </trkpt>
      <trkpt lat="61.136983317462" lon="13.950174453013">
        <ele>364.2</ele>
        <time>2018-08-11T14:06:10Z</time>
      </trkpt>
      <trkpt lat="61.136972504811" lon="13.950579634059">
        <ele>360.6</ele>
        <time>2018-08-11T14:06:15Z</time>
      </trkpt>
      <trkpt lat="61.136967140395" lon="13.950956484283">
        <ele>358</ele>
        <time>2018-08-11T14:06:20Z</time>
      </trkpt>
      <trkpt lat="61.136972253354" lon="13.951372561799">
        <ele>354.4</ele>
        <time>2018-08-11T14:06:25Z</time>
      </trkpt>
      <trkpt lat="61.136933696614" lon="13.95175133986">
        <ele>354.8</ele>
        <time>2018-08-11T14:06:29Z</time>
      </trkpt>
      <trkpt lat="61.136852308365" lon="13.952123663858">
        <ele>354</ele>
        <time>2018-08-11T14:06:34Z</time>
      </trkpt>
      <trkpt lat="61.136749043357" lon="13.952485761938">
        <ele>360.2</ele>
        <time>2018-08-11T14:06:39Z</time>
      </trkpt>
      <trkpt lat="61.136593307655" lon="13.952728501762">
        <ele>364.2</ele>
        <time>2018-08-11T14:06:44Z</time>
      </trkpt>
      <trkpt lat="61.136424160913" lon="13.952915669589">
        <ele>373.2</ele>
        <time>2018-08-11T14:06:50Z</time>
      </trkpt>
      <trkpt lat="61.13625509799" lon="13.953092611498">
        <ele>383</ele>
        <time>2018-08-11T14:06:56Z</time>
      </trkpt>
      <trkpt lat="61.13607069619" lon="13.953263769896">
        <ele>390</ele>
        <time>2018-08-11T14:07:03Z</time>
      </trkpt>
      <trkpt lat="61.135896771765" lon="13.953393605527">
        <ele>394.8</ele>
        <time>2018-08-11T14:07:10Z</time>
      </trkpt>
      <trkpt lat="61.135715974182" lon="13.953556717301">
        <ele>398.6</ele>
        <time>2018-08-11T14:07:18Z</time>
      </trkpt>
      <trkpt lat="61.135545653974" lon="13.953692001167">
        <ele>401.8</ele>
        <time>2018-08-11T14:07:25Z</time>
      </trkpt>
      <trkpt lat="61.135386397874" lon="13.953849916163">
        <ele>404.6</ele>
        <time>2018-08-11T14:07:34Z</time>
      </trkpt>
      <trkpt lat="61.135560573756" lon="13.954436230068">
        <ele>407.6</ele>
        <time>2018-08-11T14:11:26Z</time>
      </trkpt>
      <trkpt lat="61.135760230614" lon="13.954443019407">
        <ele>411.2</ele>
        <time>2018-08-11T14:11:38Z</time>
      </trkpt>
      <trkpt lat="61.135956450893" lon="13.954380490433">
        <ele>412</ele>
        <time>2018-08-11T14:11:43Z</time>
      </trkpt>
      <trkpt lat="61.136141355607" lon="13.954368839592">
        <ele>412.8</ele>
        <time>2018-08-11T14:11:47Z</time>
      </trkpt>
      <trkpt lat="61.136350064917" lon="13.954314608699">
        <ele>413.4</ele>
        <time>2018-08-11T14:11:51Z</time>
      </trkpt>
      <trkpt lat="61.136531365414" lon="13.954291223198">
        <ele>413.8</ele>
        <time>2018-08-11T14:11:54Z</time>
      </trkpt>
      <trkpt lat="61.136724652028" lon="13.95432374497">
        <ele>414</ele>
        <time>2018-08-11T14:11:57Z</time>
      </trkpt>
      <trkpt lat="61.136916848995" lon="13.954389878161">
        <ele>414.2</ele>
        <time>2018-08-11T14:12:00Z</time>
      </trkpt>
      <trkpt lat="61.137113656007" lon="13.95446036994">
        <ele>414.6</ele>
        <time>2018-08-11T14:12:03Z</time>
      </trkpt>
      <trkpt lat="61.137315156883" lon="13.954497920852">
        <ele>414</ele>
        <time>2018-08-11T14:12:06Z</time>
      </trkpt>
      <trkpt lat="61.137518753234" lon="13.954502614716">
        <ele>413.8</ele>
        <time>2018-08-11T14:12:09Z</time>
      </trkpt>
      <trkpt lat="61.137717320445" lon="13.954500686879">
        <ele>414</ele>
        <time>2018-08-11T14:12:12Z</time>
      </trkpt>
      <trkpt lat="61.137916809665" lon="13.954486186192">
        <ele>413.6</ele>
        <time>2018-08-11T14:12:15Z</time>
      </trkpt>
      <trkpt lat="61.138129374649" lon="13.954469673849">
        <ele>413</ele>
        <time>2018-08-11T14:12:18Z</time>
      </trkpt>
      <trkpt lat="61.138346884954" lon="13.954426674702">
        <ele>411.4</ele>
        <time>2018-08-11T14:12:21Z</time>
      </trkpt>
      <trkpt lat="61.138531035297" lon="13.954335395811">
        <ele>410.8</ele>
        <time>2018-08-11T14:12:24Z</time>
      </trkpt>
      <trkpt lat="61.138617285048" lon="13.954298012537">
        <ele>410.6</ele>
        <time>2018-08-11T14:12:26Z</time>
      </trkpt>
      <trkpt lat="61.138744354652" lon="13.954549720994">
        <ele>409.8</ele>
        <time>2018-08-11T14:12:30Z</time>
      </trkpt>
      <trkpt lat="61.138759022977" lon="13.954936629498">
        <ele>409</ele>
        <time>2018-08-11T14:12:33Z</time>
      </trkpt>
      <trkpt lat="61.138777546976" lon="13.955360837457">
        <ele>408</ele>
        <time>2018-08-11T14:12:36Z</time>
      </trkpt>
      <trkpt lat="61.138806213074" lon="13.955821758138">
        <ele>406.8</ele>
        <time>2018-08-11T14:12:39Z</time>
      </trkpt>
      <trkpt lat="61.13883672319" lon="13.956323582491">
        <ele>405.8</ele>
        <time>2018-08-11T14:12:42Z</time>
      </trkpt>
      <trkpt lat="61.138864718736" lon="13.956842422101">
        <ele>405.2</ele>
        <time>2018-08-11T14:12:45Z</time>
      </trkpt>
      <trkpt lat="61.138889780617" lon="13.95734793449">
        <ele>404.8</ele>
        <time>2018-08-11T14:12:48Z</time>
      </trkpt>
      <trkpt lat="61.138914758679" lon="13.957825954247">
        <ele>405</ele>
        <time>2018-08-11T14:12:51Z</time>
      </trkpt>
      <trkpt lat="61.138936383981" lon="13.958258292649">
        <ele>405.2</ele>
        <time>2018-08-11T14:12:54Z</time>
      </trkpt>
      <trkpt lat="61.138954237428" lon="13.958678812572">
        <ele>404.4</ele>
        <time>2018-08-11T14:12:57Z</time>
      </trkpt>
      <trkpt lat="61.138974270169" lon="13.959132441">
        <ele>403.2</ele>
        <time>2018-08-11T14:13:00Z</time>
      </trkpt>
      <trkpt lat="61.138999499688" lon="13.95961440025">
        <ele>402.6</ele>
        <time>2018-08-11T14:13:03Z</time>
      </trkpt>
      <trkpt lat="61.139026321768" lon="13.960067693402">
        <ele>403</ele>
        <time>2018-08-11T14:13:06Z</time>
      </trkpt>
      <trkpt lat="61.139052221839" lon="13.9605070726">
        <ele>403.4</ele>
        <time>2018-08-11T14:13:09Z</time>
      </trkpt>
      <trkpt lat="61.139080720299" lon="13.960960030476">
        <ele>404.4</ele>
        <time>2018-08-11T14:13:12Z</time>
      </trkpt>
      <trkpt lat="61.139112152424" lon="13.961326738601">
        <ele>405.4</ele>
        <time>2018-08-11T14:13:15Z</time>
      </trkpt>
      <trkpt lat="61.139209214826" lon="13.961744073402">
        <ele>405.2</ele>
        <time>2018-08-11T14:13:19Z</time>
      </trkpt>
      <trkpt lat="61.139303930296" lon="13.96207281152">
        <ele>404.6</ele>
        <time>2018-08-11T14:13:22Z</time>
      </trkpt>
      <trkpt lat="61.139349276375" lon="13.962323346511">
        <ele>404</ele>
        <time>2018-08-11T14:13:24Z</time>
      </trkpt>
      <trkpt lat="61.139354808429" lon="13.962750739592">
        <ele>403.6</ele>
        <time>2018-08-11T14:13:27Z</time>
      </trkpt>
      <trkpt lat="61.13934466633" lon="13.962894572996">
        <ele>403.4</ele>
        <time>2018-08-11T14:13:28Z</time>
      </trkpt>
      <trkpt lat="61.139306612504" lon="13.963315428195">
        <ele>403.2</ele>
        <time>2018-08-11T14:13:31Z</time>
      </trkpt>
      <trkpt lat="61.139265373556" lon="13.963720609241">
        <ele>403</ele>
        <time>2018-08-11T14:13:34Z</time>
      </trkpt>
      <trkpt lat="61.139227655006" lon="13.964119922957">
        <ele>402.6</ele>
        <time>2018-08-11T14:13:37Z</time>
      </trkpt>
      <trkpt lat="61.139191445198" lon="13.964512950248">
        <ele>402.4</ele>
        <time>2018-08-11T14:13:40Z</time>
      </trkpt>
      <trkpt lat="61.139150122431" lon="13.964888794644">
        <ele>402.2</ele>
        <time>2018-08-11T14:13:43Z</time>
      </trkpt>
      <trkpt lat="61.139110559863" lon="13.965265561049">
        <ele>402.2</ele>
        <time>2018-08-11T14:13:46Z</time>
      </trkpt>
      <trkpt lat="61.139066135793" lon="13.965657331055">
        <ele>401.6</ele>
        <time>2018-08-11T14:13:49Z</time>
      </trkpt>
      <trkpt lat="61.139004193552" lon="13.966076928969">
        <ele>400.6</ele>
        <time>2018-08-11T14:13:52Z</time>
      </trkpt>
      <trkpt lat="61.13893227685" lon="13.966505495516">
        <ele>400</ele>
        <time>2018-08-11T14:13:55Z</time>
      </trkpt>
      <trkpt lat="61.138868155315" lon="13.966958956306">
        <ele>397.2</ele>
        <time>2018-08-11T14:13:58Z</time>
      </trkpt>
      <trkpt lat="61.138792466758" lon="13.967458852822">
        <ele>395.2</ele>
        <time>2018-08-11T14:14:01Z</time>
      </trkpt>
      <trkpt lat="61.138738990236" lon="13.967813658649">
        <ele>394.6</ele>
        <time>2018-08-11T14:14:03Z</time>
      </trkpt>
      <trkpt lat="61.13865651234" lon="13.968336773028">
        <ele>393.6</ele>
        <time>2018-08-11T14:14:06Z</time>
      </trkpt>
      <trkpt lat="61.138576297557" lon="13.968857456656">
        <ele>392.4</ele>
        <time>2018-08-11T14:14:09Z</time>
      </trkpt>
      <trkpt lat="61.138526844347" lon="13.969215615243">
        <ele>391.8</ele>
        <time>2018-08-11T14:14:11Z</time>
      </trkpt>
      <trkpt lat="61.138478229327" lon="13.969575031115">
        <ele>391.4</ele>
        <time>2018-08-11T14:14:13Z</time>
      </trkpt>
      <trkpt lat="61.138425255719" lon="13.969931094227">
        <ele>391.2</ele>
        <time>2018-08-11T14:14:15Z</time>
      </trkpt>
      <trkpt lat="61.138339425063" lon="13.970462841963">
        <ele>390.4</ele>
        <time>2018-08-11T14:14:18Z</time>
      </trkpt>
      <trkpt lat="61.138277566641" lon="13.970822593111">
        <ele>389.6</ele>
        <time>2018-08-11T14:14:20Z</time>
      </trkpt>
      <trkpt lat="61.13821143345" lon="13.971190307064">
        <ele>388.4</ele>
        <time>2018-08-11T14:14:22Z</time>
      </trkpt>
      <trkpt lat="61.138132475952" lon="13.971577718482">
        <ele>387.8</ele>
        <time>2018-08-11T14:14:24Z</time>
      </trkpt>
      <trkpt lat="61.138052512626" lon="13.971995556197">
        <ele>385.6</ele>
        <time>2018-08-11T14:14:26Z</time>
      </trkpt>
      <trkpt lat="61.137975482965" lon="13.972406772211">
        <ele>384.8</ele>
        <time>2018-08-11T14:14:28Z</time>
      </trkpt>
      <trkpt lat="61.137895854915" lon="13.972797620208">
        <ele>383.6</ele>
        <time>2018-08-11T14:14:30Z</time>
      </trkpt>
      <trkpt lat="61.137823686756" lon="13.973181511228">
        <ele>381.4</ele>
        <time>2018-08-11T14:14:32Z</time>
      </trkpt>
      <trkpt lat="61.137753530253" lon="13.973584596799">
        <ele>379.2</ele>
        <time>2018-08-11T14:14:34Z</time>
      </trkpt>
      <trkpt lat="61.137684798673" lon="13.974023221626">
        <ele>377.2</ele>
        <time>2018-08-11T14:14:36Z</time>
      </trkpt>
      <trkpt lat="61.13762386226" lon="13.974468049059">
        <ele>375.8</ele>
        <time>2018-08-11T14:14:38Z</time>
      </trkpt>
      <trkpt lat="61.137581701303" lon="13.974899381633">
        <ele>375.6</ele>
        <time>2018-08-11T14:14:40Z</time>
      </trkpt>
      <trkpt lat="61.137557058517" lon="13.975311016742">
        <ele>376.8</ele>
        <time>2018-08-11T14:14:42Z</time>
      </trkpt>
      <trkpt lat="61.137503917271" lon="13.975708821716">
        <ele>377.2</ele>
        <time>2018-08-11T14:14:44Z</time>
      </trkpt>
      <trkpt lat="61.137465192893" lon="13.975894396982">
        <ele>377.2</ele>
        <time>2018-08-11T14:14:45Z</time>
      </trkpt>
      <trkpt lat="61.137370142147" lon="13.976244508945">
        <ele>376.6</ele>
        <time>2018-08-11T14:14:47Z</time>
      </trkpt>
      <trkpt lat="61.137258495239" lon="13.976570481036">
        <ele>376</ele>
        <time>2018-08-11T14:14:49Z</time>
      </trkpt>
      <trkpt lat="61.137126061219" lon="13.976871475065">
        <ele>375.4</ele>
        <time>2018-08-11T14:14:51Z</time>
      </trkpt>
      <trkpt lat="61.1369751032" lon="13.977160399158">
        <ele>374</ele>
        <time>2018-08-11T14:14:53Z</time>
      </trkpt>
      <trkpt lat="61.136807968114" lon="13.977444294111">
        <ele>372.4</ele>
        <time>2018-08-11T14:14:55Z</time>
      </trkpt>
      <trkpt lat="61.136637396449" lon="13.977731206548">
        <ele>371.2</ele>
        <time>2018-08-11T14:14:57Z</time>
      </trkpt>
      <trkpt lat="61.136489958828" lon="13.978014766225">
        <ele>370.4</ele>
        <time>2018-08-11T14:14:59Z</time>
      </trkpt>
      <trkpt lat="61.136381161766" lon="13.978315341159">
        <ele>369.2</ele>
        <time>2018-08-11T14:15:01Z</time>
      </trkpt>
      <trkpt lat="61.136309999435" lon="13.97866394438">
        <ele>368.4</ele>
        <time>2018-08-11T14:15:03Z</time>
      </trkpt>
      <trkpt lat="61.136271442695" lon="13.97904029169">
        <ele>366.8</ele>
        <time>2018-08-11T14:15:05Z</time>
      </trkpt>
      <trkpt lat="61.136206315332" lon="13.979574386358">
        <ele>366.4</ele>
        <time>2018-08-11T14:15:08Z</time>
      </trkpt>
      <trkpt lat="61.136164322013" lon="13.979915781145">
        <ele>367.4</ele>
        <time>2018-08-11T14:15:10Z</time>
      </trkpt>
      <trkpt lat="61.136149234593" lon="13.980428669606">
        <ele>367.6</ele>
        <time>2018-08-11T14:15:13Z</time>
      </trkpt>
      <trkpt lat="61.136158622321" lon="13.980606449705">
        <ele>367.8</ele>
        <time>2018-08-11T14:15:14Z</time>
      </trkpt>
      <trkpt lat="61.136179157976" lon="13.980978689884">
        <ele>367.6</ele>
        <time>2018-08-11T14:15:16Z</time>
      </trkpt>
      <trkpt lat="61.136184857668" lon="13.981175664534">
        <ele>368.2</ele>
        <time>2018-08-11T14:15:17Z</time>
      </trkpt>
      <trkpt lat="61.136177397777" lon="13.981555448423">
        <ele>369.8</ele>
        <time>2018-08-11T14:15:19Z</time>
      </trkpt>
      <trkpt lat="61.136138421942" lon="13.982083256666">
        <ele>370.6</ele>
        <time>2018-08-11T14:15:22Z</time>
      </trkpt>
      <trkpt lat="61.136113527699" lon="13.982249888838">
        <ele>370.6</ele>
        <time>2018-08-11T14:15:23Z</time>
      </trkpt>
      <trkpt lat="61.136015794745" lon="13.982745007671">
        <ele>370.8</ele>
        <time>2018-08-11T14:15:26Z</time>
      </trkpt>
      <trkpt lat="61.135916050135" lon="13.983250603879">
        <ele>370.2</ele>
        <time>2018-08-11T14:15:29Z</time>
      </trkpt>
      <trkpt lat="61.13583851756" lon="13.983749578386">
        <ele>369.2</ele>
        <time>2018-08-11T14:15:32Z</time>
      </trkpt>
      <trkpt lat="61.135756542578" lon="13.984271938394">
        <ele>367.4</ele>
        <time>2018-08-11T14:15:35Z</time>
      </trkpt>
      <trkpt lat="61.135706754092" lon="13.984630935171">
        <ele>366.6</ele>
        <time>2018-08-11T14:15:37Z</time>
      </trkpt>
      <trkpt lat="61.135604327274" lon="13.985131502239">
        <ele>365.6</ele>
        <time>2018-08-11T14:15:40Z</time>
      </trkpt>
      <trkpt lat="61.135495194936" lon="13.985573228369">
        <ele>364.6</ele>
        <time>2018-08-11T14:15:43Z</time>
      </trkpt>
      <trkpt lat="61.135452782522" lon="13.985688647132">
        <ele>364.2</ele>
        <time>2018-08-11T14:15:44Z</time>
      </trkpt>
      <trkpt lat="61.13530039958" lon="13.986002214011">
        <ele>363.2</ele>
        <time>2018-08-11T14:15:47Z</time>
      </trkpt>
      <trkpt lat="61.135155057434" lon="13.986369760326">
        <ele>361.4</ele>
        <time>2018-08-11T14:15:50Z</time>
      </trkpt>
      <trkpt lat="61.135119266721" lon="13.986488196573">
        <ele>361</ele>
        <time>2018-08-11T14:15:51Z</time>
      </trkpt>
      <trkpt lat="61.135049529313" lon="13.986867729005">
        <ele>359.6</ele>
        <time>2018-08-11T14:15:54Z</time>
      </trkpt>
      <trkpt lat="61.13503804611" lon="13.987005946536">
        <ele>358.6</ele>
        <time>2018-08-11T14:15:55Z</time>
      </trkpt>
      <trkpt lat="61.134990772194" lon="13.987507184156">
        <ele>356.6</ele>
        <time>2018-08-11T14:15:58Z</time>
      </trkpt>
      <trkpt lat="61.134932685627" lon="13.988041027367">
        <ele>354.8</ele>
        <time>2018-08-11T14:16:01Z</time>
      </trkpt>
      <trkpt lat="61.134870994843" lon="13.9885361462">
        <ele>352.8</ele>
        <time>2018-08-11T14:16:04Z</time>
      </trkpt>
      <trkpt lat="61.134824391479" lon="13.989013746862">
        <ele>350</ele>
        <time>2018-08-11T14:16:07Z</time>
      </trkpt>
      <trkpt lat="61.134780302685" lon="13.989490676972">
        <ele>348.8</ele>
        <time>2018-08-11T14:16:10Z</time>
      </trkpt>
      <trkpt lat="61.134718360444" lon="13.989960733924">
        <ele>347</ele>
        <time>2018-08-11T14:16:13Z</time>
      </trkpt>
      <trkpt lat="61.134648874493" lon="13.990427270478">
        <ele>346.4</ele>
        <time>2018-08-11T14:16:16Z</time>
      </trkpt>
      <trkpt lat="61.134584333863" lon="13.990880898906">
        <ele>346</ele>
        <time>2018-08-11T14:16:19Z</time>
      </trkpt>
      <trkpt lat="61.134543011096" lon="13.991154232665">
        <ele>345.6</ele>
        <time>2018-08-11T14:16:21Z</time>
      </trkpt>
      <trkpt lat="61.134430106903" lon="13.991502835886">
        <ele>344</ele>
        <time>2018-08-11T14:16:24Z</time>
      </trkpt>
      <trkpt lat="61.134309659" lon="13.991727554625">
        <ele>343.6</ele>
        <time>2018-08-11T14:16:26Z</time>
      </trkpt>
      <trkpt lat="61.134140176982" lon="13.992056795657">
        <ele>342.4</ele>
        <time>2018-08-11T14:16:29Z</time>
      </trkpt>
      <trkpt lat="61.134094579446" lon="13.99217305261">
        <ele>342.8</ele>
        <time>2018-08-11T14:16:30Z</time>
      </trkpt>
      <trkpt lat="61.133988548411" lon="13.992537916717">
        <ele>344.2</ele>
        <time>2018-08-11T14:16:33Z</time>
      </trkpt>
      <trkpt lat="61.133891905104" lon="13.992972350594">
        <ele>343.8</ele>
        <time>2018-08-11T14:16:37Z</time>
      </trkpt>
      <trkpt lat="61.133789226829" lon="13.993409047584">
        <ele>342.4</ele>
        <time>2018-08-11T14:16:41Z</time>
      </trkpt>
      <trkpt lat="61.13375226265" lon="13.993518096103">
        <ele>342.4</ele>
        <time>2018-08-11T14:16:42Z</time>
      </trkpt>
      <trkpt lat="61.133646566891" lon="13.993857479234">
        <ele>343.2</ele>
        <time>2018-08-11T14:16:45Z</time>
      </trkpt>
      <trkpt lat="61.133617733155" lon="13.993981112259">
        <ele>343.8</ele>
        <time>2018-08-11T14:16:46Z</time>
      </trkpt>
      <trkpt lat="61.13356953723" lon="13.994399704345">
        <ele>344</ele>
        <time>2018-08-11T14:16:49Z</time>
      </trkpt>
      <trkpt lat="61.133560233321" lon="13.994559463359">
        <ele>344.6</ele>
        <time>2018-08-11T14:16:50Z</time>
      </trkpt>
      <trkpt lat="61.133536177268" lon="13.994996663263">
        <ele>345.8</ele>
        <time>2018-08-11T14:16:53Z</time>
      </trkpt>
      <trkpt lat="61.133516395984" lon="13.995448112397">
        <ele>346.8</ele>
        <time>2018-08-11T14:16:56Z</time>
      </trkpt>
      <trkpt lat="61.133497285252" lon="13.99590970363">
        <ele>346.8</ele>
        <time>2018-08-11T14:16:59Z</time>
      </trkpt>
      <trkpt lat="61.133486891696" lon="13.996060913106">
        <ele>346.8</ele>
        <time>2018-08-11T14:17:00Z</time>
      </trkpt>
      <trkpt lat="61.133447329128" lon="13.996353692873">
        <ele>346.6</ele>
        <time>2018-08-11T14:17:02Z</time>
      </trkpt>
      <trkpt lat="61.133368455449" lon="13.996778487565">
        <ele>346</ele>
        <time>2018-08-11T14:17:05Z</time>
      </trkpt>
      <trkpt lat="61.133290671417" lon="13.997198336936">
        <ele>345.6</ele>
        <time>2018-08-11T14:17:08Z</time>
      </trkpt>
      <trkpt lat="61.133271895961" lon="13.997343343806">
        <ele>346</ele>
        <time>2018-08-11T14:17:09Z</time>
      </trkpt>
      <trkpt lat="61.133250689754" lon="13.997769228145">
        <ele>346</ele>
        <time>2018-08-11T14:17:12Z</time>
      </trkpt>
      <trkpt lat="61.133224286769" lon="13.998158315943">
        <ele>346.8</ele>
        <time>2018-08-11T14:17:15Z</time>
      </trkpt>
      <trkpt lat="61.133194363386" lon="13.998395691351">
        <ele>346.8</ele>
        <time>2018-08-11T14:17:17Z</time>
      </trkpt>
      <trkpt lat="61.133080118089" lon="13.998811265953">
        <ele>346</ele>
        <time>2018-08-11T14:17:21Z</time>
      </trkpt>
      <trkpt lat="61.132972913588" lon="13.999144697935">
        <ele>345.2</ele>
        <time>2018-08-11T14:17:24Z</time>
      </trkpt>
      <trkpt lat="61.132867301648" lon="13.999516099924">
        <ele>342.6</ele>
        <time>2018-08-11T14:17:27Z</time>
      </trkpt>
      <trkpt lat="61.132821620293" lon="13.999637637474">
        <ele>342.2</ele>
        <time>2018-08-11T14:17:28Z</time>
      </trkpt>
      <trkpt lat="61.132655491035" lon="14.00000593816">
        <ele>339.8</ele>
        <time>2018-08-11T14:17:31Z</time>
      </trkpt>
      <trkpt lat="61.132493971822" lon="14.000401731478">
        <ele>336.8</ele>
        <time>2018-08-11T14:17:34Z</time>
      </trkpt>
      <trkpt lat="61.132337481749" lon="14.000857287743">
        <ele>333</ele>
        <time>2018-08-11T14:17:37Z</time>
      </trkpt>
      <trkpt lat="61.132223823185" lon="14.001148642587">
        <ele>331.2</ele>
        <time>2018-08-11T14:17:39Z</time>
      </trkpt>
      <trkpt lat="61.132087784948" lon="14.001405380184">
        <ele>329.6</ele>
        <time>2018-08-11T14:17:41Z</time>
      </trkpt>
      <trkpt lat="61.131938587128" lon="14.001644934886">
        <ele>328.4</ele>
        <time>2018-08-11T14:17:43Z</time>
      </trkpt>
      <trkpt lat="61.131780672132" lon="14.001886501244">
        <ele>327</ele>
        <time>2018-08-11T14:17:45Z</time>
      </trkpt>
      <trkpt lat="61.131695595847" lon="14.001988173691">
        <ele>326.4</ele>
        <time>2018-08-11T14:17:46Z</time>
      </trkpt>
      <trkpt lat="61.131518234843" lon="14.002134605484">
        <ele>325.6</ele>
        <time>2018-08-11T14:17:48Z</time>
      </trkpt>
      <trkpt lat="61.13135839201" lon="14.002306099158">
        <ele>323.4</ele>
        <time>2018-08-11T14:17:50Z</time>
      </trkpt>
      <trkpt lat="61.13118823944" lon="14.002680686269">
        <ele>319.8</ele>
        <time>2018-08-11T14:17:53Z</time>
      </trkpt>
      <trkpt lat="61.13106418732" lon="14.002963491575">
        <ele>317.4</ele>
        <time>2018-08-11T14:17:55Z</time>
      </trkpt>
      <trkpt lat="61.130917084975" lon="14.003236406239">
        <ele>314.2</ele>
        <time>2018-08-11T14:17:57Z</time>
      </trkpt>
      <trkpt lat="61.1307557334" lon="14.003524911237">
        <ele>315</ele>
        <time>2018-08-11T14:17:59Z</time>
      </trkpt>
      <trkpt lat="61.130562698243" lon="14.003760274989">
        <ele>314.6</ele>
        <time>2018-08-11T14:18:01Z</time>
      </trkpt>
      <trkpt lat="61.130352647829" lon="14.003939815287">
        <ele>315</ele>
        <time>2018-08-11T14:18:03Z</time>
      </trkpt>
      <trkpt lat="61.130155673179" lon="14.004120864327">
        <ele>315.6</ele>
        <time>2018-08-11T14:18:05Z</time>
      </trkpt>
      <trkpt lat="61.130070680713" lon="14.004232846511">
        <ele>316</ele>
        <time>2018-08-11T14:18:06Z</time>
      </trkpt>
      <trkpt lat="61.129895582822" lon="14.004616066979">
        <ele>317.6</ele>
        <time>2018-08-11T14:18:09Z</time>
      </trkpt>
      <trkpt lat="61.129766250105" lon="14.00507279671">
        <ele>315.4</ele>
        <time>2018-08-11T14:18:12Z</time>
      </trkpt>
      <trkpt lat="61.129673546291" lon="14.005400948095">
        <ele>314</ele>
        <time>2018-08-11T14:18:14Z</time>
      </trkpt>
      <trkpt lat="61.129521163349" lon="14.00583974056">
        <ele>312</ele>
        <time>2018-08-11T14:18:17Z</time>
      </trkpt>
      <trkpt lat="61.129343047974" lon="14.006178872234">
        <ele>310.4</ele>
        <time>2018-08-11T14:18:20Z</time>
      </trkpt>
      <trkpt lat="61.129155796328" lon="14.006469807983">
        <ele>308.2</ele>
        <time>2018-08-11T14:18:23Z</time>
      </trkpt>
      <trkpt lat="61.129012382019" lon="14.006719588603">
        <ele>305.8</ele>
        <time>2018-08-11T14:18:25Z</time>
      </trkpt>
      <trkpt lat="61.128833847549" lon="14.007097360836">
        <ele>303</ele>
        <time>2018-08-11T14:18:28Z</time>
      </trkpt>
      <trkpt lat="61.128647014998" lon="14.007491477774">
        <ele>300.8</ele>
        <time>2018-08-11T14:18:31Z</time>
      </trkpt>
      <trkpt lat="61.128488010355" lon="14.007923983814">
        <ele>298.2</ele>
        <time>2018-08-11T14:18:34Z</time>
      </trkpt>
      <trkpt lat="61.1283417462" lon="14.008323465168">
        <ele>295.2</ele>
        <time>2018-08-11T14:18:37Z</time>
      </trkpt>
      <trkpt lat="61.128230602206" lon="14.008753205181">
        <ele>291.2</ele>
        <time>2018-08-11T14:18:40Z</time>
      </trkpt>
      <trkpt lat="61.128140748238" lon="14.009225273789">
        <ele>287.4</ele>
        <time>2018-08-11T14:18:43Z</time>
      </trkpt>
      <trkpt lat="61.128107807371" lon="14.009366089709">
        <ele>286.2</ele>
        <time>2018-08-11T14:18:44Z</time>
      </trkpt>
      <trkpt lat="61.127983168518" lon="14.009741682648">
        <ele>284.8</ele>
        <time>2018-08-11T14:18:47Z</time>
      </trkpt>
      <trkpt lat="61.127868923221" lon="14.010129177885">
        <ele>283.6</ele>
        <time>2018-08-11T14:18:50Z</time>
      </trkpt>
      <trkpt lat="61.127816620165" lon="14.010604515434">
        <ele>282.2</ele>
        <time>2018-08-11T14:18:53Z</time>
      </trkpt>
      <trkpt lat="61.127797509433" lon="14.011123941777">
        <ele>281.2</ele>
        <time>2018-08-11T14:18:56Z</time>
      </trkpt>
      <trkpt lat="61.127800359279" lon="14.011603386457">
        <ele>281</ele>
        <time>2018-08-11T14:18:59Z</time>
      </trkpt>
      <trkpt lat="61.127802622392" lon="14.012078975463">
        <ele>280.8</ele>
        <time>2018-08-11T14:19:02Z</time>
      </trkpt>
      <trkpt lat="61.1277885408" lon="14.012394721636">
        <ele>279.6</ele>
        <time>2018-08-11T14:19:04Z</time>
      </trkpt>
      <trkpt lat="61.127747385671" lon="14.012899228197">
        <ele>279.2</ele>
        <time>2018-08-11T14:19:07Z</time>
      </trkpt>
      <trkpt lat="61.127718468116" lon="14.013071224785">
        <ele>278.6</ele>
        <time>2018-08-11T14:19:08Z</time>
      </trkpt>
      <trkpt lat="61.1276125209" lon="14.013594422983">
        <ele>278.2</ele>
        <time>2018-08-11T14:19:11Z</time>
      </trkpt>
      <trkpt lat="61.127565163165" lon="14.013957443072">
        <ele>279</ele>
        <time>2018-08-11T14:19:13Z</time>
      </trkpt>
      <trkpt lat="61.127538927818" lon="14.01446471566">
        <ele>287.4</ele>
        <time>2018-08-11T14:19:16Z</time>
      </trkpt>
      <trkpt lat="61.127537251438" lon="14.0147379656">
        <ele>289.2</ele>
        <time>2018-08-11T14:19:18Z</time>
      </trkpt>
      <trkpt lat="61.127549069917" lon="14.015114983462">
        <ele>289.8</ele>
        <time>2018-08-11T14:19:21Z</time>
      </trkpt>
      <trkpt lat="61.127549237555" lon="14.015238784125">
        <ele>290.2</ele>
        <time>2018-08-11T14:19:22Z</time>
      </trkpt>
      <trkpt lat="61.127485702753" lon="14.015654861641">
        <ele>287.6</ele>
        <time>2018-08-11T14:19:25Z</time>
      </trkpt>
      <trkpt lat="61.127340695883" lon="14.016055432642">
        <ele>285.8</ele>
        <time>2018-08-11T14:19:28Z</time>
      </trkpt>
      <trkpt lat="61.127218487781" lon="14.016287275996">
        <ele>286</ele>
        <time>2018-08-11T14:19:30Z</time>
      </trkpt>
      <trkpt lat="61.127065518106" lon="14.016572009139">
        <ele>286.2</ele>
        <time>2018-08-11T14:19:33Z</time>
      </trkpt>
      <trkpt lat="61.12693442519" lon="14.016861352327">
        <ele>285.2</ele>
        <time>2018-08-11T14:19:36Z</time>
      </trkpt>
      <trkpt lat="61.126867537628" lon="14.017095291156">
        <ele>284.4</ele>
        <time>2018-08-11T14:19:38Z</time>
      </trkpt>
      <trkpt lat="61.126814731658" lon="14.017498712003">
        <ele>284.8</ele>
        <time>2018-08-11T14:19:41Z</time>
      </trkpt>
      <trkpt lat="61.126815988943" lon="14.017762406577">
        <ele>284.4</ele>
        <time>2018-08-11T14:19:43Z</time>
      </trkpt>
      <trkpt lat="61.126848007801" lon="14.018198684472">
        <ele>283.8</ele>
        <time>2018-08-11T14:19:47Z</time>
      </trkpt>
      <trkpt lat="61.126891174586" lon="14.01862632901">
        <ele>283</ele>
        <time>2018-08-11T14:19:51Z</time>
      </trkpt>
      <trkpt lat="61.126891342224" lon="14.018732024769">
        <ele>283</ele>
        <time>2018-08-11T14:19:52Z</time>
      </trkpt>
      <trkpt lat="61.126858568995" lon="14.019209373974">
        <ele>282.4</ele>
        <time>2018-08-11T14:19:56Z</time>
      </trkpt>
      <trkpt lat="61.12682881325" lon="14.019470637797">
        <ele>281.8</ele>
        <time>2018-08-11T14:19:58Z</time>
      </trkpt>
      <trkpt lat="61.126790927062" lon="14.019797364259">
        <ele>280.8</ele>
        <time>2018-08-11T14:20:01Z</time>
      </trkpt>
      <trkpt lat="61.126738959282" lon="14.020246382642">
        <ele>278.4</ele>
        <time>2018-08-11T14:20:05Z</time>
      </trkpt>
      <trkpt lat="61.126655224101" lon="14.020638236467">
        <ele>276</ele>
        <time>2018-08-11T14:20:08Z</time>
      </trkpt>
      <trkpt lat="61.126560257174" lon="14.02113251711">
        <ele>274.4</ele>
        <time>2018-08-11T14:20:11Z</time>
      </trkpt>
      <trkpt lat="61.126490519766" lon="14.021663175199">
        <ele>272.6</ele>
        <time>2018-08-11T14:20:14Z</time>
      </trkpt>
      <trkpt lat="61.126458584727" lon="14.022188720329">
        <ele>271.2</ele>
        <time>2018-08-11T14:20:17Z</time>
      </trkpt>
      <trkpt lat="61.126523209176" lon="14.022673194149">
        <ele>271</ele>
        <time>2018-08-11T14:20:20Z</time>
      </trkpt>
      <trkpt lat="61.126633431161" lon="14.023126152025">
        <ele>271.2</ele>
        <time>2018-08-11T14:20:23Z</time>
      </trkpt>
      <trkpt lat="61.126729990649" lon="14.023574416037">
        <ele>271</ele>
        <time>2018-08-11T14:20:26Z</time>
      </trkpt>
      <trkpt lat="61.1268078585" lon="14.02406785849">
        <ele>271</ele>
        <time>2018-08-11T14:20:29Z</time>
      </trkpt>
      <trkpt lat="61.126814815477" lon="14.024592062516">
        <ele>271.4</ele>
        <time>2018-08-11T14:20:32Z</time>
      </trkpt>
      <trkpt lat="61.126784892094" lon="14.025094222145">
        <ele>271.6</ele>
        <time>2018-08-11T14:20:35Z</time>
      </trkpt>
      <trkpt lat="61.126657319576" lon="14.025496553345">
        <ele>272.6</ele>
        <time>2018-08-11T14:20:38Z</time>
      </trkpt>
      <trkpt lat="61.126507451204" lon="14.025860579262">
        <ele>272.8</ele>
        <time>2018-08-11T14:20:41Z</time>
      </trkpt>
      <trkpt lat="61.126467637179" lon="14.025987984142">
        <ele>273</ele>
        <time>2018-08-11T14:20:42Z</time>
      </trkpt>
      <trkpt lat="61.12640133635" lon="14.026375144103">
        <ele>273.8</ele>
        <time>2018-08-11T14:20:45Z</time>
      </trkpt>
      <trkpt lat="61.126389182595" lon="14.026506320838">
        <ele>274</ele>
        <time>2018-08-11T14:20:46Z</time>
      </trkpt>
      <trkpt lat="61.126365377999" lon="14.02690932259">
        <ele>275.6</ele>
        <time>2018-08-11T14:20:49Z</time>
      </trkpt>
      <trkpt lat="61.126351380226" lon="14.027301763148">
        <ele>276.2</ele>
        <time>2018-08-11T14:20:52Z</time>
      </trkpt>
      <trkpt lat="61.126358840117" lon="14.02769722119">
        <ele>277.2</ele>
        <time>2018-08-11T14:20:55Z</time>
      </trkpt>
      <trkpt lat="61.126369233673" lon="14.028100809675">
        <ele>278</ele>
        <time>2018-08-11T14:20:58Z</time>
      </trkpt>
      <trkpt lat="61.126375520098" lon="14.028522083969">
        <ele>278.6</ele>
        <time>2018-08-11T14:21:01Z</time>
      </trkpt>
      <trkpt lat="61.126378453763" lon="14.028935479277">
        <ele>279.4</ele>
        <time>2018-08-11T14:21:04Z</time>
      </trkpt>
      <trkpt lat="61.126372502614" lon="14.029339486857">
        <ele>279.8</ele>
        <time>2018-08-11T14:21:07Z</time>
      </trkpt>
      <trkpt lat="61.126360432678" lon="14.029742991523">
        <ele>280</ele>
        <time>2018-08-11T14:21:10Z</time>
      </trkpt>
      <trkpt lat="61.126343836516" lon="14.030149597492">
        <ele>280</ele>
        <time>2018-08-11T14:21:13Z</time>
      </trkpt>
      <trkpt lat="61.126325647793" lon="14.030533404693">
        <ele>281</ele>
        <time>2018-08-11T14:21:16Z</time>
      </trkpt>
      <trkpt lat="61.126306369423" lon="14.031009496613">
        <ele>281.4</ele>
        <time>2018-08-11T14:21:20Z</time>
      </trkpt>
      <trkpt lat="61.12628315156" lon="14.031377964937">
        <ele>281.8</ele>
        <time>2018-08-11T14:21:23Z</time>
      </trkpt>
      <trkpt lat="61.126272925642" lon="14.031756156265">
        <ele>282.2</ele>
        <time>2018-08-11T14:21:26Z</time>
      </trkpt>
      <trkpt lat="61.126253144358" lon="14.032139125276">
        <ele>282.2</ele>
        <time>2018-08-11T14:21:29Z</time>
      </trkpt>
      <trkpt lat="61.126222047509" lon="14.032515891681">
        <ele>282.4</ele>
        <time>2018-08-11T14:21:32Z</time>
      </trkpt>
      <trkpt lat="61.126206540994" lon="14.032637010136">
        <ele>282.4</ele>
        <time>2018-08-11T14:21:33Z</time>
      </trkpt>
      <trkpt lat="61.126174354498" lon="14.032877738304">
        <ele>282.6</ele>
        <time>2018-08-11T14:21:35Z</time>
      </trkpt>
      <trkpt lat="61.12614233564" lon="14.033249894664">
        <ele>282.6</ele>
        <time>2018-08-11T14:21:38Z</time>
      </trkpt>
      <trkpt lat="61.126104365633" lon="14.033634204779">
        <ele>282.8</ele>
        <time>2018-08-11T14:21:41Z</time>
      </trkpt>
      <trkpt lat="61.126068323463" lon="14.034025304233">
        <ele>282.8</ele>
        <time>2018-08-11T14:21:44Z</time>
      </trkpt>
      <trkpt lat="61.126049548007" lon="14.034431574926">
        <ele>282.6</ele>
        <time>2018-08-11T14:21:47Z</time>
      </trkpt>
      <trkpt lat="61.12603337094" lon="14.034839689637">
        <ele>282.2</ele>
        <time>2018-08-11T14:21:50Z</time>
      </trkpt>
      <trkpt lat="61.126021049547" lon="14.03524093119">
        <ele>282.2</ele>
        <time>2018-08-11T14:21:53Z</time>
      </trkpt>
      <trkpt lat="61.126002525548" lon="14.035638903802">
        <ele>282</ele>
        <time>2018-08-11T14:21:56Z</time>
      </trkpt>
      <trkpt lat="61.125980313513" lon="14.036040815907">
        <ele>281.8</ele>
        <time>2018-08-11T14:21:59Z</time>
      </trkpt>
      <trkpt lat="61.125951563596" lon="14.036444236754">
        <ele>281.6</ele>
        <time>2018-08-11T14:22:02Z</time>
      </trkpt>
      <trkpt lat="61.125920466747" lon="14.036724108395">
        <ele>281.2</ele>
        <time>2018-08-11T14:22:04Z</time>
      </trkpt>
      <trkpt lat="61.12583807267" lon="14.037134486219">
        <ele>280.8</ele>
        <time>2018-08-11T14:22:07Z</time>
      </trkpt>
      <trkpt lat="61.125746207046" lon="14.037533129383">
        <ele>280.4</ele>
        <time>2018-08-11T14:22:10Z</time>
      </trkpt>
      <trkpt lat="61.125658364734" lon="14.037916098394">
        <ele>280.4</ele>
        <time>2018-08-11T14:22:13Z</time>
      </trkpt>
      <trkpt lat="61.125567588757" lon="14.038294792636">
        <ele>280.6</ele>
        <time>2018-08-11T14:22:16Z</time>
      </trkpt>
      <trkpt lat="61.12546507812" lon="14.038651191024">
        <ele>280.8</ele>
        <time>2018-08-11T14:22:19Z</time>
      </trkpt>
      <trkpt lat="61.125368267175" lon="14.039011612724">
        <ele>280.2</ele>
        <time>2018-08-11T14:22:22Z</time>
      </trkpt>
      <trkpt lat="61.125280089587" lon="14.039361221773">
        <ele>278.8</ele>
        <time>2018-08-11T14:22:25Z</time>
      </trkpt>
      <trkpt lat="61.125232145119" lon="14.039596920801">
        <ele>278.8</ele>
        <time>2018-08-11T14:22:27Z</time>
      </trkpt>
      <trkpt lat="61.125175483475" lon="14.039966227315">
        <ele>278.4</ele>
        <time>2018-08-11T14:22:30Z</time>
      </trkpt>
      <trkpt lat="61.125122928962" lon="14.040382053374">
        <ele>277.8</ele>
        <time>2018-08-11T14:22:33Z</time>
      </trkpt>
      <trkpt lat="61.125069787716" lon="14.040798885261">
        <ele>276.8</ele>
        <time>2018-08-11T14:22:36Z</time>
      </trkpt>
      <trkpt lat="61.125013796624" lon="14.041189900896">
        <ele>276</ele>
        <time>2018-08-11T14:22:39Z</time>
      </trkpt>
      <trkpt lat="61.124957805532" lon="14.041601284548">
        <ele>275.4</ele>
        <time>2018-08-11T14:22:42Z</time>
      </trkpt>
      <trkpt lat="61.12490768177" lon="14.042034042045">
        <ele>275.4</ele>
        <time>2018-08-11T14:22:45Z</time>
      </trkpt>
      <trkpt lat="61.124863844433" lon="14.042476019632">
        <ele>275</ele>
        <time>2018-08-11T14:22:48Z</time>
      </trkpt>
      <trkpt lat="61.124836351801" lon="14.042925540929">
        <ele>274.6</ele>
        <time>2018-08-11T14:22:51Z</time>
      </trkpt>
      <trkpt lat="61.124804332943" lon="14.043366177412">
        <ele>274</ele>
        <time>2018-08-11T14:22:54Z</time>
      </trkpt>
      <trkpt lat="61.124766195298" lon="14.043828020102">
        <ele>273.8</ele>
        <time>2018-08-11T14:22:57Z</time>
      </trkpt>
      <trkpt lat="61.124722944694" lon="14.044291371534">
        <ele>273.6</ele>
        <time>2018-08-11T14:23:00Z</time>
      </trkpt>
      <trkpt lat="61.124677933891" lon="14.044750112921">
        <ele>273.8</ele>
        <time>2018-08-11T14:23:03Z</time>
      </trkpt>
      <trkpt lat="61.124630995251" lon="14.045189995033">
        <ele>274</ele>
        <time>2018-08-11T14:23:06Z</time>
      </trkpt>
      <trkpt lat="61.124588750475" lon="14.045633397543">
        <ele>274</ele>
        <time>2018-08-11T14:23:09Z</time>
      </trkpt>
      <trkpt lat="61.124565616431" lon="14.046069675438">
        <ele>274</ele>
        <time>2018-08-11T14:23:12Z</time>
      </trkpt>
      <trkpt lat="61.124554887599" lon="14.046509473731">
        <ele>273.6</ele>
        <time>2018-08-11T14:23:15Z</time>
      </trkpt>
      <trkpt lat="61.124521024723" lon="14.046949942576">
        <ele>273.2</ele>
        <time>2018-08-11T14:23:18Z</time>
      </trkpt>
      <trkpt lat="61.124500656706" lon="14.047090590858">
        <ele>273.2</ele>
        <time>2018-08-11T14:23:19Z</time>
      </trkpt>
      <trkpt lat="61.12442320795" lon="14.047507087469">
        <ele>272.6</ele>
        <time>2018-08-11T14:23:22Z</time>
      </trkpt>
      <trkpt lat="61.124343747538" lon="14.04795208254">
        <ele>272.2</ele>
        <time>2018-08-11T14:23:25Z</time>
      </trkpt>
      <trkpt lat="61.124270741189" lon="14.048397664344">
        <ele>272.2</ele>
        <time>2018-08-11T14:23:28Z</time>
      </trkpt>
      <trkpt lat="61.124238470874" lon="14.048683403315">
        <ele>272.6</ele>
        <time>2018-08-11T14:23:30Z</time>
      </trkpt>
      <trkpt lat="61.124232855001" lon="14.049105683437">
        <ele>273</ele>
        <time>2018-08-11T14:23:33Z</time>
      </trkpt>
      <trkpt lat="61.124241153082" lon="14.049246415538">
        <ele>273</ele>
        <time>2018-08-11T14:23:34Z</time>
      </trkpt>
      <trkpt lat="61.124281972935" lon="14.04964774091">
        <ele>273.2</ele>
        <time>2018-08-11T14:23:37Z</time>
      </trkpt>
      <trkpt lat="61.124305106979" lon="14.05002408822">
        <ele>273.4</ele>
        <time>2018-08-11T14:23:40Z</time>
      </trkpt>
      <trkpt lat="61.12432011058" lon="14.050495151">
        <ele>273.6</ele>
        <time>2018-08-11T14:23:44Z</time>
      </trkpt>
      <trkpt lat="61.124331090869" lon="14.050607384641">
        <ele>273.4</ele>
        <time>2018-08-11T14:23:45Z</time>
      </trkpt>
      <trkpt lat="61.124409964548" lon="14.050953557111">
        <ele>272.4</ele>
        <time>2018-08-11T14:23:48Z</time>
      </trkpt>
      <trkpt lat="61.124464614536" lon="14.051217167866">
        <ele>269.8</ele>
        <time>2018-08-11T14:23:50Z</time>
      </trkpt>
      <trkpt lat="61.124469643676" lon="14.051662833489">
        <ele>267.6</ele>
        <time>2018-08-11T14:23:53Z</time>
      </trkpt>
      <trkpt lat="61.124337628751" lon="14.052009341235">
        <ele>266.8</ele>
        <time>2018-08-11T14:23:56Z</time>
      </trkpt>
      <trkpt lat="61.124276859976" lon="14.052090142751">
        <ele>266.6</ele>
        <time>2018-08-11T14:23:57Z</time>
      </trkpt>
      <trkpt lat="61.124092877271" lon="14.052356100438">
        <ele>265.4</ele>
        <time>2018-08-11T14:24:00Z</time>
      </trkpt>
      <trkpt lat="61.123934878456" lon="14.052700680347">
        <ele>263.8</ele>
        <time>2018-08-11T14:24:03Z</time>
      </trkpt>
      <trkpt lat="61.123896237897" lon="14.052819619508">
        <ele>263</ele>
        <time>2018-08-11T14:24:04Z</time>
      </trkpt>
      <trkpt lat="61.123799678409" lon="14.053217005387">
        <ele>260.6</ele>
        <time>2018-08-11T14:24:07Z</time>
      </trkpt>
      <trkpt lat="61.12374511224" lon="14.053687565253">
        <ele>258</ele>
        <time>2018-08-11T14:24:10Z</time>
      </trkpt>
      <trkpt lat="61.12377277251" lon="14.054104229502">
        <ele>255.6</ele>
        <time>2018-08-11T14:24:13Z</time>
      </trkpt>
      <trkpt lat="61.12378869812" lon="14.054224090672">
        <ele>254.8</ele>
        <time>2018-08-11T14:24:14Z</time>
      </trkpt>
      <trkpt lat="61.123847706696" lon="14.054590128245">
        <ele>252.4</ele>
        <time>2018-08-11T14:24:17Z</time>
      </trkpt>
      <trkpt lat="61.123915851543" lon="14.054986508296">
        <ele>250</ele>
        <time>2018-08-11T14:24:20Z</time>
      </trkpt>
      <trkpt lat="61.123968741332" lon="14.055415577757">
        <ele>247.8</ele>
        <time>2018-08-11T14:24:23Z</time>
      </trkpt>
      <trkpt lat="61.123997910344" lon="14.055697041959">
        <ele>246.4</ele>
        <time>2018-08-11T14:24:25Z</time>
      </trkpt>
      <trkpt lat="61.124068234485" lon="14.056071377613">
        <ele>244.6</ele>
        <time>2018-08-11T14:24:28Z</time>
      </trkpt>
      <trkpt lat="61.124096816764" lon="14.056458202298">
        <ele>243</ele>
        <time>2018-08-11T14:24:31Z</time>
      </trkpt>
      <trkpt lat="61.124102013542" lon="14.056576135631">
        <ele>242.4</ele>
        <time>2018-08-11T14:24:32Z</time>
      </trkpt>
      <trkpt lat="61.124072090159" lon="14.057016017743">
        <ele>238.6</ele>
        <time>2018-08-11T14:24:36Z</time>
      </trkpt>
      <trkpt lat="61.124019870922" lon="14.057381887678">
        <ele>235.8</ele>
        <time>2018-08-11T14:24:39Z</time>
      </trkpt>
      <trkpt lat="61.123951809894" lon="14.057819925772">
        <ele>236.8</ele>
        <time>2018-08-11T14:24:42Z</time>
      </trkpt>
      <trkpt lat="61.123893220413" lon="14.058178587273">
        <ele>237.2</ele>
        <time>2018-08-11T14:24:45Z</time>
      </trkpt>
      <trkpt lat="61.123835972036" lon="14.058563651759">
        <ele>236.8</ele>
        <time>2018-08-11T14:24:49Z</time>
      </trkpt>
      <trkpt lat="61.123700352894" lon="14.058937484499">
        <ele>236.2</ele>
        <time>2018-08-11T14:24:54Z</time>
      </trkpt>
      <trkpt lat="61.123591639651" lon="14.05907905479">
        <ele>235.4</ele>
        <time>2018-08-11T14:24:56Z</time>
      </trkpt>
      <trkpt lat="61.123405393833" lon="14.059312825981">
        <ele>233.8</ele>
        <time>2018-08-11T14:24:59Z</time>
      </trkpt>
      <trkpt lat="61.123167431692" lon="14.059602001531">
        <ele>230</ele>
        <time>2018-08-11T14:25:02Z</time>
      </trkpt>
      <trkpt lat="61.122974731811" lon="14.059791432471">
        <ele>228.4</ele>
        <time>2018-08-11T14:25:04Z</time>
      </trkpt>
      <trkpt lat="61.122786474337" lon="14.059942222852">
        <ele>227.6</ele>
        <time>2018-08-11T14:25:06Z</time>
      </trkpt>
      <trkpt lat="61.122545829988" lon="14.060162163908">
        <ele>226.4</ele>
        <time>2018-08-11T14:25:09Z</time>
      </trkpt>
      <trkpt lat="61.12235204046" lon="14.060428875966">
        <ele>225.2</ele>
        <time>2018-08-11T14:25:12Z</time>
      </trkpt>
      <trkpt lat="61.122183899546" lon="14.060682260803">
        <ele>224</ele>
        <time>2018-08-11T14:25:15Z</time>
      </trkpt>
      <trkpt lat="61.122075270122" lon="14.060868003707">
        <ele>223.6</ele>
        <time>2018-08-11T14:25:17Z</time>
      </trkpt>
      <trkpt lat="61.121964042309" lon="14.061259857532">
        <ele>222.6</ele>
        <time>2018-08-11T14:25:21Z</time>
      </trkpt>
      <trkpt lat="61.121786178391" lon="14.061539310078">
        <ele>221.8</ele>
        <time>2018-08-11T14:25:25Z</time>
      </trkpt>
      <trkpt lat="61.121679644442" lon="14.061633271177">
        <ele>221.4</ele>
        <time>2018-08-11T14:25:27Z</time>
      </trkpt>
      <trkpt lat="61.121474036435" lon="14.061772913631">
        <ele>221.8</ele>
        <time>2018-08-11T14:25:31Z</time>
      </trkpt>
      <trkpt lat="61.121422320112" lon="14.06178640849">
        <ele>222.2</ele>
        <time>2018-08-11T14:25:32Z</time>
      </trkpt>
      <trkpt lat="61.121215287182" lon="14.061654309746">
        <ele>225.6</ele>
        <time>2018-08-11T14:25:36Z</time>
      </trkpt>
      <trkpt lat="61.121090229234" lon="14.061496646207">
        <ele>228.8</ele>
        <time>2018-08-11T14:25:39Z</time>
      </trkpt>
      <trkpt lat="61.120905743615" lon="14.061329175845">
        <ele>233.6</ele>
        <time>2018-08-11T14:25:44Z</time>
      </trkpt>
      <trkpt lat="61.120710612983" lon="14.061268155613">
        <ele>238.8</ele>
        <time>2018-08-11T14:25:50Z</time>
      </trkpt>
      <trkpt lat="61.12051891893" lon="14.061220546421">
        <ele>242</ele>
        <time>2018-08-11T14:25:56Z</time>
      </trkpt>
      <trkpt lat="61.120317585692" lon="14.061207805933">
        <ele>245.2</ele>
        <time>2018-08-11T14:26:02Z</time>
      </trkpt>
      <trkpt lat="61.120135111729" lon="14.061203782621">
        <ele>248.6</ele>
        <time>2018-08-11T14:26:08Z</time>
      </trkpt>
      <trkpt lat="61.119946183703" lon="14.061247117044">
        <ele>251.4</ele>
        <time>2018-08-11T14:26:16Z</time>
      </trkpt>
      <trkpt lat="61.119770247622" lon="14.061350130595">
        <ele>253</ele>
        <time>2018-08-11T14:26:24Z</time>
      </trkpt>
      <trkpt lat="61.119570171669" lon="14.061416682881">
        <ele>254.6</ele>
        <time>2018-08-11T14:26:33Z</time>
      </trkpt>
      <trkpt lat="61.11939071519" lon="14.061482732253">
        <ele>256.6</ele>
        <time>2018-08-11T14:26:40Z</time>
      </trkpt>
      <trkpt lat="61.119213773281" lon="14.061587841279">
        <ele>256.8</ele>
        <time>2018-08-11T14:26:47Z</time>
      </trkpt>
      <trkpt lat="61.119045045634" lon="14.061713821236">
        <ele>256.8</ele>
        <time>2018-08-11T14:26:55Z</time>
      </trkpt>
      <trkpt lat="61.118860560015" lon="14.061855475346">
        <ele>256.8</ele>
        <time>2018-08-11T14:27:04Z</time>
      </trkpt>
      <trkpt lat="61.118692335282" lon="14.06200266151">
        <ele>257.6</ele>
        <time>2018-08-11T14:27:12Z</time>
      </trkpt>
      <trkpt lat="61.11853659958" lon="14.062208185698">
        <ele>257.6</ele>
        <time>2018-08-11T14:27:19Z</time>
      </trkpt>
      <trkpt lat="61.118372984892" lon="14.062399628294">
        <ele>256.4</ele>
        <time>2018-08-11T14:27:25Z</time>
      </trkpt>
      <trkpt lat="61.118199563381" lon="14.062600039523">
        <ele>255.4</ele>
        <time>2018-08-11T14:27:32Z</time>
      </trkpt>
      <trkpt lat="61.118040810195" lon="14.062844874822">
        <ele>255.8</ele>
        <time>2018-08-11T14:27:39Z</time>
      </trkpt>
      <trkpt lat="61.117911561297" lon="14.063146539403">
        <ele>253.8</ele>
        <time>2018-08-11T14:27:45Z</time>
      </trkpt>
      <trkpt lat="61.117841823889" lon="14.063588265533">
        <ele>252.2</ele>
        <time>2018-08-11T14:27:51Z</time>
      </trkpt>
      <trkpt lat="61.117831178876" lon="14.063778618482">
        <ele>250.8</ele>
        <time>2018-08-11T14:27:53Z</time>
      </trkpt>
      <trkpt lat="61.117823216071" lon="14.064086150393">
        <ele>249.2</ele>
        <time>2018-08-11T14:27:56Z</time>
      </trkpt>
      <trkpt lat="61.11780821247" lon="14.064287651269">
        <ele>247.8</ele>
        <time>2018-08-11T14:27:58Z</time>
      </trkpt>
      <trkpt lat="61.117790861937" lon="14.064598033026">
        <ele>246.4</ele>
        <time>2018-08-11T14:28:01Z</time>
      </trkpt>
      <trkpt lat="61.117769739549" lon="14.065029617057">
        <ele>248</ele>
        <time>2018-08-11T14:28:05Z</time>
      </trkpt>
      <trkpt lat="61.117745180582" lon="14.06548450277">
        <ele>249.4</ele>
        <time>2018-08-11T14:28:09Z</time>
      </trkpt>
      <trkpt lat="61.117717017398" lon="14.065961851975">
        <ele>249.6</ele>
        <time>2018-08-11T14:28:13Z</time>
      </trkpt>
      <trkpt lat="61.117709641326" lon="14.066093112529">
        <ele>249.8</ele>
        <time>2018-08-11T14:28:14Z</time>
      </trkpt>
      <trkpt lat="61.117739983804" lon="14.066551770097">
        <ele>250.2</ele>
        <time>2018-08-11T14:28:18Z</time>
      </trkpt>
      <trkpt lat="61.117794466154" lon="14.06688763283">
        <ele>249.8</ele>
        <time>2018-08-11T14:28:21Z</time>
      </trkpt>
      <trkpt lat="61.117948776933" lon="14.067225339581">
        <ele>249.6</ele>
        <time>2018-08-11T14:28:25Z</time>
      </trkpt>
      <trkpt lat="61.118089341396" lon="14.067499176254">
        <ele>249</ele>
        <time>2018-08-11T14:28:28Z</time>
      </trkpt>
      <trkpt lat="61.118200233933" lon="14.067817856092">
        <ele>248.6</ele>
        <time>2018-08-11T14:28:31Z</time>
      </trkpt>
      <trkpt lat="61.118272737368" lon="14.068212727401">
        <ele>248</ele>
        <time>2018-08-11T14:28:34Z</time>
      </trkpt>
      <trkpt lat="61.118321100931" lon="14.068626374166">
        <ele>246</ele>
        <time>2018-08-11T14:28:37Z</time>
      </trkpt>
      <trkpt lat="61.118355466721" lon="14.069100538249">
        <ele>247.2</ele>
        <time>2018-08-11T14:28:40Z</time>
      </trkpt>
      <trkpt lat="61.118354125617" lon="14.069250238983">
        <ele>247.2</ele>
        <time>2018-08-11T14:28:41Z</time>
      </trkpt>
      <trkpt lat="61.118285477856" lon="14.069648798328">
        <ele>247.2</ele>
        <time>2018-08-11T14:28:44Z</time>
      </trkpt>
      <trkpt lat="61.118223870891" lon="14.069893214532">
        <ele>247.4</ele>
        <time>2018-08-11T14:28:46Z</time>
      </trkpt>
      <trkpt lat="61.118179363002" lon="14.07013813365">
        <ele>247.6</ele>
        <time>2018-08-11T14:28:48Z</time>
      </trkpt>
      <trkpt lat="61.118103674445" lon="14.070555468451">
        <ele>247.8</ele>
        <time>2018-08-11T14:28:51Z</time>
      </trkpt>
      <trkpt lat="61.118069141017" lon="14.070677508915">
        <ele>248.4</ele>
        <time>2018-08-11T14:28:52Z</time>
      </trkpt>
      <trkpt lat="61.117936287902" lon="14.07098638193">
        <ele>250</ele>
        <time>2018-08-11T14:28:55Z</time>
      </trkpt>
      <trkpt lat="61.117765548599" lon="14.071197689629">
        <ele>251.8</ele>
        <time>2018-08-11T14:28:58Z</time>
      </trkpt>
      <trkpt lat="61.11771265881" lon="14.071256698205">
        <ele>252.2</ele>
        <time>2018-08-11T14:28:59Z</time>
      </trkpt>
      <trkpt lat="61.117523814603" lon="14.071538916778">
        <ele>253.6</ele>
        <time>2018-08-11T14:29:03Z</time>
      </trkpt>
      <trkpt lat="61.117349890178" lon="14.071831528907">
        <ele>255</ele>
        <time>2018-08-11T14:29:07Z</time>
      </trkpt>
      <trkpt lat="61.11717537902" lon="14.072083153545">
        <ele>255.2</ele>
        <time>2018-08-11T14:29:11Z</time>
      </trkpt>
      <trkpt lat="61.117048309416" lon="14.072275182874">
        <ele>254.4</ele>
        <time>2018-08-11T14:29:14Z</time>
      </trkpt>
      <trkpt lat="61.11696918428" lon="14.072446425091">
        <ele>253.8</ele>
        <time>2018-08-11T14:29:16Z</time>
      </trkpt>
      <trkpt lat="61.116855525716" lon="14.072785053851">
        <ele>252.6</ele>
        <time>2018-08-11T14:29:19Z</time>
      </trkpt>
      <trkpt lat="61.116747147749" lon="14.073164586283">
        <ele>251.6</ele>
        <time>2018-08-11T14:29:22Z</time>
      </trkpt>
      <trkpt lat="61.116720912402" lon="14.073288554584">
        <ele>251.4</ele>
        <time>2018-08-11T14:29:23Z</time>
      </trkpt>
      <trkpt lat="61.116668525527" lon="14.073694154725">
        <ele>250.4</ele>
        <time>2018-08-11T14:29:26Z</time>
      </trkpt>
      <trkpt lat="61.116655533582" lon="14.073989029967">
        <ele>249.8</ele>
        <time>2018-08-11T14:29:28Z</time>
      </trkpt>
      <trkpt lat="61.116677997074" lon="14.074400916533">
        <ele>249.2</ele>
        <time>2018-08-11T14:29:31Z</time>
      </trkpt>
      <trkpt lat="61.11672610918" lon="14.074777180024">
        <ele>248.4</ele>
        <time>2018-08-11T14:29:34Z</time>
      </trkpt>
      <trkpt lat="61.116786626498" lon="14.075151431859">
        <ele>247.4</ele>
        <time>2018-08-11T14:29:37Z</time>
      </trkpt>
      <trkpt lat="61.116820237917" lon="14.075550158842">
        <ele>247</ele>
        <time>2018-08-11T14:29:40Z</time>
      </trkpt>
      <trkpt lat="61.116821159926" lon="14.075690388029">
        <ele>247.2</ele>
        <time>2018-08-11T14:29:41Z</time>
      </trkpt>
      <trkpt lat="61.116791488" lon="14.076099173292">
        <ele>247</ele>
        <time>2018-08-11T14:29:44Z</time>
      </trkpt>
      <trkpt lat="61.116753685631" lon="14.076522794518">
        <ele>246.6</ele>
        <time>2018-08-11T14:29:47Z</time>
      </trkpt>
      <trkpt lat="61.11671772728" lon="14.076958653318">
        <ele>245.8</ele>
        <time>2018-08-11T14:29:50Z</time>
      </trkpt>
      <trkpt lat="61.116674309038" lon="14.077397445783">
        <ele>244.8</ele>
        <time>2018-08-11T14:29:53Z</time>
      </trkpt>
      <trkpt lat="61.116628962959" lon="14.07785534898">
        <ele>243.8</ele>
        <time>2018-08-11T14:29:56Z</time>
      </trkpt>
      <trkpt lat="61.11660038068" lon="14.078284418441">
        <ele>243.4</ele>
        <time>2018-08-11T14:29:59Z</time>
      </trkpt>
      <trkpt lat="61.116556543343" lon="14.078656826258">
        <ele>242.8</ele>
        <time>2018-08-11T14:30:02Z</time>
      </trkpt>
      <trkpt lat="61.116503653554" lon="14.079028898799">
        <ele>241.6</ele>
        <time>2018-08-11T14:30:05Z</time>
      </trkpt>
      <trkpt lat="61.116415727423" lon="14.079405665204">
        <ele>240.8</ele>
        <time>2018-08-11T14:30:08Z</time>
      </trkpt>
      <trkpt lat="61.116382032185" lon="14.079510858049">
        <ele>240.6</ele>
        <time>2018-08-11T14:30:09Z</time>
      </trkpt>
      <trkpt lat="61.116244317568" lon="14.079901119313">
        <ele>239.6</ele>
        <time>2018-08-11T14:30:13Z</time>
      </trkpt>
      <trkpt lat="61.116124624036" lon="14.080140087282">
        <ele>239.4</ele>
        <time>2018-08-11T14:30:16Z</time>
      </trkpt>
      <trkpt lat="61.115973749836" lon="14.080357932863">
        <ele>238.8</ele>
        <time>2018-08-11T14:30:19Z</time>
      </trkpt>
      <trkpt lat="61.115801837067" lon="14.080524313578">
        <ele>237.6</ele>
        <time>2018-08-11T14:30:22Z</time>
      </trkpt>
      <trkpt lat="61.115622464407" lon="14.080674684864">
        <ele>236.4</ele>
        <time>2018-08-11T14:30:25Z</time>
      </trkpt>
      <trkpt lat="61.115433284924" lon="14.080880711966">
        <ele>234.4</ele>
        <time>2018-08-11T14:30:28Z</time>
      </trkpt>
      <trkpt lat="61.115315100134" lon="14.081060671359">
        <ele>234.2</ele>
        <time>2018-08-11T14:30:30Z</time>
      </trkpt>
      <trkpt lat="61.115129524868" lon="14.081394857712">
        <ele>234.8</ele>
        <time>2018-08-11T14:30:33Z</time>
      </trkpt>
      <trkpt lat="61.114952582959" lon="14.081695432646">
        <ele>234.6</ele>
        <time>2018-08-11T14:30:36Z</time>
      </trkpt>
      <trkpt lat="61.11476977372" lon="14.081985614024">
        <ele>234.6</ele>
        <time>2018-08-11T14:30:39Z</time>
      </trkpt>
      <trkpt lat="61.114595346381" lon="14.082224749631">
        <ele>234.6</ele>
        <time>2018-08-11T14:30:42Z</time>
      </trkpt>
      <trkpt lat="61.114495434133" lon="14.082396997676">
        <ele>234.6</ele>
        <time>2018-08-11T14:30:44Z</time>
      </trkpt>
      <trkpt lat="61.114375908239" lon="14.082735207341">
        <ele>235.8</ele>
        <time>2018-08-11T14:30:47Z</time>
      </trkpt>
      <trkpt lat="61.114272056498" lon="14.083102753656">
        <ele>237.4</ele>
        <time>2018-08-11T14:30:50Z</time>
      </trkpt>
      <trkpt lat="61.114173150078" lon="14.083479520061">
        <ele>238.2</ele>
        <time>2018-08-11T14:30:53Z</time>
      </trkpt>
      <trkpt lat="61.114074662753" lon="14.083879755786">
        <ele>238.8</ele>
        <time>2018-08-11T14:30:56Z</time>
      </trkpt>
      <trkpt lat="61.114047756854" lon="14.084014955833">
        <ele>239.2</ele>
        <time>2018-08-11T14:30:57Z</time>
      </trkpt>
      <trkpt lat="61.113981539844" lon="14.084427010037">
        <ele>239.6</ele>
        <time>2018-08-11T14:31:00Z</time>
      </trkpt>
      <trkpt lat="61.11392404001" lon="14.084829676513">
        <ele>240.4</ele>
        <time>2018-08-11T14:31:03Z</time>
      </trkpt>
      <trkpt lat="61.11388380689" lon="14.085230918066">
        <ele>241.2</ele>
        <time>2018-08-11T14:31:06Z</time>
      </trkpt>
      <trkpt lat="61.113853296774" lon="14.085644061917">
        <ele>241.8</ele>
        <time>2018-08-11T14:31:09Z</time>
      </trkpt>
      <trkpt lat="61.113833347852" lon="14.086097103612">
        <ele>242.2</ele>
        <time>2018-08-11T14:31:12Z</time>
      </trkpt>
      <trkpt lat="61.113819769174" lon="14.086567998754">
        <ele>241.8</ele>
        <time>2018-08-11T14:31:15Z</time>
      </trkpt>
      <trkpt lat="61.113792025085" lon="14.086873099914">
        <ele>241.8</ele>
        <time>2018-08-11T14:31:17Z</time>
      </trkpt>
      <trkpt lat="61.113728490283" lon="14.087132854995">
        <ele>241.6</ele>
        <time>2018-08-11T14:31:19Z</time>
      </trkpt>
      <trkpt lat="61.11359211677" lon="14.08748279932">
        <ele>241.4</ele>
        <time>2018-08-11T14:31:22Z</time>
      </trkpt>
      <trkpt lat="61.113518942783" lon="14.087753115595">
        <ele>240.8</ele>
        <time>2018-08-11T14:31:24Z</time>
      </trkpt>
      <trkpt lat="61.11349237216" lon="14.087890914031">
        <ele>240.6</ele>
        <time>2018-08-11T14:31:25Z</time>
      </trkpt>
      <trkpt lat="61.113386676401" lon="14.088314702895">
        <ele>240</ele>
        <time>2018-08-11T14:31:28Z</time>
      </trkpt>
      <trkpt lat="61.113355914828" lon="14.088435737531">
        <ele>239.6</ele>
        <time>2018-08-11T14:31:29Z</time>
      </trkpt>
      <trkpt lat="61.113296570976" lon="14.088630616706">
        <ele>239.2</ele>
        <time>2018-08-11T14:31:31Z</time>
      </trkpt>
      <trkpt lat="61.113186265172" lon="14.08892951526">
        <ele>238</ele>
        <time>2018-08-11T14:31:34Z</time>
      </trkpt>
      <trkpt lat="61.113053495876" lon="14.089256074084">
        <ele>236.2</ele>
        <time>2018-08-11T14:31:37Z</time>
      </trkpt>
      <trkpt lat="61.112962719899" lon="14.089514739518">
        <ele>235.4</ele>
        <time>2018-08-11T14:31:39Z</time>
      </trkpt>
      <trkpt lat="61.112938747665" lon="14.08992947593">
        <ele>233.4</ele>
        <time>2018-08-11T14:31:42Z</time>
      </trkpt>
      <trkpt lat="61.113026925253" lon="14.090325353067">
        <ele>231.6</ele>
        <time>2018-08-11T14:31:45Z</time>
      </trkpt>
      <trkpt lat="61.113114097013" lon="14.0905690149">
        <ele>230.6</ele>
        <time>2018-08-11T14:31:47Z</time>
      </trkpt>
      <trkpt lat="61.113255080571" lon="14.090916109379">
        <ele>229.4</ele>
        <time>2018-08-11T14:31:50Z</time>
      </trkpt>
      <trkpt lat="61.113410816273" lon="14.091217271046">
        <ele>228.4</ele>
        <time>2018-08-11T14:31:53Z</time>
      </trkpt>
      <trkpt lat="61.11350075406" lon="14.091414161877">
        <ele>227.2</ele>
        <time>2018-08-11T14:31:55Z</time>
      </trkpt>
      <trkpt lat="61.113607036552" lon="14.091784641857">
        <ele>225.6</ele>
        <time>2018-08-11T14:31:58Z</time>
      </trkpt>
      <trkpt lat="61.113651712079" lon="14.092207005798">
        <ele>224.4</ele>
        <time>2018-08-11T14:32:01Z</time>
      </trkpt>
      <trkpt lat="61.113690771733" lon="14.092651330317">
        <ele>223</ele>
        <time>2018-08-11T14:32:04Z</time>
      </trkpt>
      <trkpt lat="61.113745254083" lon="14.093114346473">
        <ele>221.2</ele>
        <time>2018-08-11T14:32:07Z</time>
      </trkpt>
      <trkpt lat="61.113799820252" lon="14.093538973527">
        <ele>220</ele>
        <time>2018-08-11T14:32:10Z</time>
      </trkpt>
      <trkpt lat="61.113834186042" lon="14.094019591673">
        <ele>218.4</ele>
        <time>2018-08-11T14:32:13Z</time>
      </trkpt>
      <trkpt lat="61.113782888814" lon="14.09450934609">
        <ele>217.2</ele>
        <time>2018-08-11T14:32:16Z</time>
      </trkpt>
      <trkpt lat="61.113749193576" lon="14.094841772244">
        <ele>217.2</ele>
        <time>2018-08-11T14:32:18Z</time>
      </trkpt>
      <trkpt lat="61.113736872183" lon="14.095331275204">
        <ele>216.2</ele>
        <time>2018-08-11T14:32:21Z</time>
      </trkpt>
      <trkpt lat="61.113741649866" lon="14.095819604698">
        <ele>216</ele>
        <time>2018-08-11T14:32:24Z</time>
      </trkpt>
      <trkpt lat="61.113798143872" lon="14.096281782664">
        <ele>214.6</ele>
        <time>2018-08-11T14:32:27Z</time>
      </trkpt>
      <trkpt lat="61.113815662043" lon="14.096437602185">
        <ele>214.2</ele>
        <time>2018-08-11T14:32:28Z</time>
      </trkpt>
      <trkpt lat="61.113833012576" lon="14.096744463544">
        <ele>213.4</ele>
        <time>2018-08-11T14:32:30Z</time>
      </trkpt>
      <trkpt lat="61.113819769174" lon="14.097199349257">
        <ele>212.4</ele>
        <time>2018-08-11T14:32:33Z</time>
      </trkpt>
      <trkpt lat="61.113797305682" lon="14.097594472023">
        <ele>212.6</ele>
        <time>2018-08-11T14:32:36Z</time>
      </trkpt>
      <trkpt lat="61.113794204379" lon="14.09785707695">
        <ele>212.2</ele>
        <time>2018-08-11T14:32:38Z</time>
      </trkpt>
      <trkpt lat="61.113810549084" lon="14.098101576973">
        <ele>211.6</ele>
        <time>2018-08-11T14:32:40Z</time>
      </trkpt>
      <trkpt lat="61.1138662049" lon="14.098511032788">
        <ele>210.2</ele>
        <time>2018-08-11T14:32:43Z</time>
      </trkpt>
      <trkpt lat="61.113881208501" lon="14.098807332953">
        <ele>209.6</ele>
        <time>2018-08-11T14:32:45Z</time>
      </trkpt>
      <trkpt lat="61.113845166331" lon="14.099301362139">
        <ele>208.8</ele>
        <time>2018-08-11T14:32:48Z</time>
      </trkpt>
      <trkpt lat="61.113791522171" lon="14.099795642782">
        <ele>207.8</ele>
        <time>2018-08-11T14:32:51Z</time>
      </trkpt>
      <trkpt lat="61.113793533827" lon="14.100289839606">
        <ele>207</ele>
        <time>2018-08-11T14:32:54Z</time>
      </trkpt>
      <trkpt lat="61.113835359508" lon="14.100761237662">
        <ele>207.4</ele>
        <time>2018-08-11T14:32:57Z</time>
      </trkpt>
      <trkpt lat="61.113889003668" lon="14.101193995159">
        <ele>208.2</ele>
        <time>2018-08-11T14:33:00Z</time>
      </trkpt>
      <trkpt lat="61.113914149368" lon="14.101504628373">
        <ele>208.6</ele>
        <time>2018-08-11T14:33:02Z</time>
      </trkpt>
      <trkpt lat="61.113911718617" lon="14.102013912617">
        <ele>209.2</ele>
        <time>2018-08-11T14:33:05Z</time>
      </trkpt>
      <trkpt lat="61.113888500754" lon="14.102505511052">
        <ele>211.2</ele>
        <time>2018-08-11T14:33:08Z</time>
      </trkpt>
      <trkpt lat="61.113889087487" lon="14.102927707355">
        <ele>214</ele>
        <time>2018-08-11T14:33:11Z</time>
      </trkpt>
      <trkpt lat="61.113892943161" lon="14.103301540095">
        <ele>217.4</ele>
        <time>2018-08-11T14:33:14Z</time>
      </trkpt>
      <trkpt lat="61.113883639252" lon="14.103702781648">
        <ele>220.6</ele>
        <time>2018-08-11T14:33:18Z</time>
      </trkpt>
      <trkpt lat="61.113873161877" lon="14.103792887073">
        <ele>221.2</ele>
        <time>2018-08-11T14:33:19Z</time>
      </trkpt>
      <trkpt lat="61.113846004521" lon="14.103958681055">
        <ele>222.2</ele>
        <time>2018-08-11T14:33:21Z</time>
      </trkpt>
      <trkpt lat="61.113731675405" lon="14.104345086645">
        <ele>224</ele>
        <time>2018-08-11T14:33:26Z</time>
      </trkpt>
      <trkpt lat="61.113634780641" lon="14.104719003204">
        <ele>224.8</ele>
        <time>2018-08-11T14:33:30Z</time>
      </trkpt>
      <trkpt lat="61.113529336339" lon="14.105118233101">
        <ele>226</ele>
        <time>2018-08-11T14:33:34Z</time>
      </trkpt>
      <trkpt lat="61.113438811819" lon="14.105490138004">
        <ele>227</ele>
        <time>2018-08-11T14:33:38Z</time>
      </trkpt>
      <trkpt lat="61.113372259533" lon="14.105924320424">
        <ele>227.2</ele>
        <time>2018-08-11T14:33:42Z</time>
      </trkpt>
      <trkpt lat="61.113302019211" lon="14.106389348236">
        <ele>227.8</ele>
        <time>2018-08-11T14:33:46Z</time>
      </trkpt>
      <trkpt lat="61.113210572682" lon="14.106738119095">
        <ele>228.8</ele>
        <time>2018-08-11T14:33:50Z</time>
      </trkpt>
      <trkpt lat="61.113121808361" lon="14.107141037028">
        <ele>228.4</ele>
        <time>2018-08-11T14:33:55Z</time>
      </trkpt>
      <trkpt lat="61.113037737904" lon="14.107475642476">
        <ele>228</ele>
        <time>2018-08-11T14:33:59Z</time>
      </trkpt>
      <trkpt lat="61.112955260008" lon="14.107823658964">
        <ele>227.4</ele>
        <time>2018-08-11T14:34:03Z</time>
      </trkpt>
      <trkpt lat="61.112888791541" lon="14.108206544156">
        <ele>227.2</ele>
        <time>2018-08-11T14:34:07Z</time>
      </trkpt>
      <trkpt lat="61.112839841245" lon="14.108581885638">
        <ele>227.6</ele>
        <time>2018-08-11T14:34:11Z</time>
      </trkpt>
      <trkpt lat="61.112796339184" lon="14.108830576611">
        <ele>227.6</ele>
        <time>2018-08-11T14:34:14Z</time>
      </trkpt>
      <trkpt lat="61.112732385287" lon="14.109054624798">
        <ele>227.6</ele>
        <time>2018-08-11T14:34:17Z</time>
      </trkpt>
      <trkpt lat="61.112643872423" lon="14.109404066209">
        <ele>227</ele>
        <time>2018-08-11T14:34:21Z</time>
      </trkpt>
      <trkpt lat="61.112625180786" lon="14.109500877154">
        <ele>226.8</ele>
        <time>2018-08-11T14:34:22Z</time>
      </trkpt>
      <trkpt lat="61.112566004572" lon="14.109929024606">
        <ele>227.4</ele>
        <time>2018-08-11T14:34:26Z</time>
      </trkpt>
      <trkpt lat="61.112559131414" lon="14.110325237019">
        <ele>227.6</ele>
        <time>2018-08-11T14:34:30Z</time>
      </trkpt>
      <trkpt lat="61.112551755342" lon="14.110700243225">
        <ele>227.6</ele>
        <time>2018-08-11T14:34:34Z</time>
      </trkpt>
      <trkpt lat="61.112530297678" lon="14.111085307711">
        <ele>226.6</ele>
        <time>2018-08-11T14:34:38Z</time>
      </trkpt>
      <trkpt lat="61.112497356811" lon="14.111472802948">
        <ele>226.4</ele>
        <time>2018-08-11T14:34:42Z</time>
      </trkpt>
      <trkpt lat="61.112449496162" lon="14.111867925714">
        <ele>226.8</ele>
        <time>2018-08-11T14:34:47Z</time>
      </trkpt>
      <trkpt lat="61.112425859204" lon="14.112127932252">
        <ele>224.8</ele>
        <time>2018-08-11T14:34:50Z</time>
      </trkpt>
      <trkpt lat="61.112436504217" lon="14.112601090507">
        <ele>223.2</ele>
        <time>2018-08-11T14:34:54Z</time>
      </trkpt>
      <trkpt lat="61.112470786188" lon="14.112968636822">
        <ele>222.4</ele>
        <time>2018-08-11T14:34:57Z</time>
      </trkpt>
      <trkpt lat="61.112516383724" lon="14.113328639427">
        <ele>222</ele>
        <time>2018-08-11T14:35:00Z</time>
      </trkpt>
      <trkpt lat="61.112563238545" lon="14.113717643406">
        <ele>221.2</ele>
        <time>2018-08-11T14:35:03Z</time>
      </trkpt>
      <trkpt lat="61.112630880478" lon="14.114115699837">
        <ele>220.6</ele>
        <time>2018-08-11T14:35:06Z</time>
      </trkpt>
      <trkpt lat="61.112664743354" lon="14.114249474961">
        <ele>220.4</ele>
        <time>2018-08-11T14:35:07Z</time>
      </trkpt>
      <trkpt lat="61.112819976142" lon="14.114610148118">
        <ele>219.4</ele>
        <time>2018-08-11T14:35:10Z</time>
      </trkpt>
      <trkpt lat="61.113046622718" lon="14.114932348354">
        <ele>217</ele>
        <time>2018-08-11T14:35:13Z</time>
      </trkpt>
      <trkpt lat="61.113207974293" lon="14.115186739019">
        <ele>215.2</ele>
        <time>2018-08-11T14:35:15Z</time>
      </trkpt>
      <trkpt lat="61.113369577325" lon="14.115455462733">
        <ele>213.6</ele>
        <time>2018-08-11T14:35:17Z</time>
      </trkpt>
      <trkpt lat="61.113528246692" lon="14.115727455388">
        <ele>212.4</ele>
        <time>2018-08-11T14:35:19Z</time>
      </trkpt>
      <trkpt lat="61.113678534159" lon="14.115984947356">
        <ele>211.8</ele>
        <time>2018-08-11T14:35:21Z</time>
      </trkpt>
      <trkpt lat="61.113822116106" lon="14.116233805967">
        <ele>211.4</ele>
        <time>2018-08-11T14:35:23Z</time>
      </trkpt>
      <trkpt lat="61.113963183483" lon="14.116482413121">
        <ele>210.4</ele>
        <time>2018-08-11T14:35:25Z</time>
      </trkpt>
      <trkpt lat="61.114109782914" lon="14.116682153798">
        <ele>209.6</ele>
        <time>2018-08-11T14:35:27Z</time>
      </trkpt>
      <trkpt lat="61.114332657635" lon="14.116822047709">
        <ele>209.8</ele>
        <time>2018-08-11T14:35:30Z</time>
      </trkpt>
      <trkpt lat="61.114461487438" lon="14.116894551144">
        <ele>210.6</ele>
        <time>2018-08-11T14:35:32Z</time>
      </trkpt>
      <trkpt lat="61.114628035791" lon="14.117150869646">
        <ele>211.4</ele>
        <time>2018-08-11T14:35:35Z</time>
      </trkpt>
      <trkpt lat="61.114729372962" lon="14.117483128162">
        <ele>211.8</ele>
        <time>2018-08-11T14:35:38Z</time>
      </trkpt>
      <trkpt lat="61.114798775094" lon="14.117841454387">
        <ele>212.6</ele>
        <time>2018-08-11T14:35:41Z</time>
      </trkpt>
      <trkpt lat="61.114814030152" lon="14.118285611268">
        <ele>211.8</ele>
        <time>2018-08-11T14:35:45Z</time>
      </trkpt>
      <trkpt lat="61.114803720415" lon="14.118579983596">
        <ele>211.2</ele>
        <time>2018-08-11T14:35:47Z</time>
      </trkpt>
      <trkpt lat="61.114891143632" lon="14.118950044481">
        <ele>210.6</ele>
        <time>2018-08-11T14:35:50Z</time>
      </trkpt>
      <trkpt lat="61.114937579358" lon="14.119072923135">
        <ele>210.4</ele>
        <time>2018-08-11T14:35:51Z</time>
      </trkpt>
      <trkpt lat="61.115080574572" lon="14.119423202736">
        <ele>209.6</ele>
        <time>2018-08-11T14:35:54Z</time>
      </trkpt>
      <trkpt lat="61.115164225934" lon="14.119654794633">
        <ele>209</ele>
        <time>2018-08-11T14:35:56Z</time>
      </trkpt>
      <trkpt lat="61.115209236737" lon="14.119878591363">
        <ele>208.4</ele>
        <time>2018-08-11T14:35:58Z</time>
      </trkpt>
      <trkpt lat="61.11521066166" lon="14.120336075465">
        <ele>207.2</ele>
        <time>2018-08-11T14:36:02Z</time>
      </trkpt>
      <trkpt lat="61.115151736903" lon="14.120719631209">
        <ele>206</ele>
        <time>2018-08-11T14:36:06Z</time>
      </trkpt>
      <trkpt lat="61.115117957846" lon="14.120897578946">
        <ele>205.4</ele>
        <time>2018-08-11T14:36:08Z</time>
      </trkpt>
      <trkpt lat="61.115067498808" lon="14.121308543503">
        <ele>204</ele>
        <time>2018-08-11T14:36:12Z</time>
      </trkpt>
      <trkpt lat="61.115088034463" lon="14.121711796712">
        <ele>202.4</ele>
        <time>2018-08-11T14:36:16Z</time>
      </trkpt>
      <trkpt lat="61.115102954245" lon="14.121813636797">
        <ele>202.2</ele>
        <time>2018-08-11T14:36:17Z</time>
      </trkpt>
      <trkpt lat="61.115153497102" lon="14.12221823111">
        <ele>201</ele>
        <time>2018-08-11T14:36:21Z</time>
      </trkpt>
      <trkpt lat="61.115191634747" lon="14.122636404101">
        <ele>199.8</ele>
        <time>2018-08-11T14:36:26Z</time>
      </trkpt>
      <trkpt lat="61.11516959035" lon="14.123065976476">
        <ele>199</ele>
        <time>2018-08-11T14:36:32Z</time>
      </trkpt>
      <trkpt lat="61.115148467962" lon="14.123470403151">
        <ele>198</ele>
        <time>2018-08-11T14:36:37Z</time>
      </trkpt>
      <trkpt lat="61.115125333918" lon="14.12390969853">
        <ele>197.6</ele>
        <time>2018-08-11T14:36:42Z</time>
      </trkpt>
      <trkpt lat="61.115130111601" lon="14.124256876828">
        <ele>197.6</ele>
        <time>2018-08-11T14:36:46Z</time>
      </trkpt>
      <trkpt lat="61.115182582295" lon="14.124762473036">
        <ele>196.6</ele>
        <time>2018-08-11T14:36:50Z</time>
      </trkpt>
      <trkpt lat="61.115258857585" lon="14.125254658204">
        <ele>196.2</ele>
        <time>2018-08-11T14:36:53Z</time>
      </trkpt>
      <trkpt lat="61.115368073742" lon="14.125638465405">
        <ele>195.6</ele>
        <time>2018-08-11T14:36:56Z</time>
      </trkpt>
      <trkpt lat="61.115508386748" lon="14.125991594852">
        <ele>195.2</ele>
        <time>2018-08-11T14:36:59Z</time>
      </trkpt>
      <trkpt lat="61.115671582341" lon="14.12630608374">
        <ele>195</ele>
        <time>2018-08-11T14:37:02Z</time>
      </trkpt>
      <trkpt lat="61.115802842895" lon="14.126628619252">
        <ele>195.2</ele>
        <time>2018-08-11T14:37:05Z</time>
      </trkpt>
      <trkpt lat="61.11584684787" lon="14.127019467249">
        <ele>195.6</ele>
        <time>2018-08-11T14:37:08Z</time>
      </trkpt>
      <trkpt lat="61.115823462369" lon="14.127413165092">
        <ele>196.2</ele>
        <time>2018-08-11T14:37:11Z</time>
      </trkpt>
      <trkpt lat="61.115809464596" lon="14.127530092597">
        <ele>196.6</ele>
        <time>2018-08-11T14:37:12Z</time>
      </trkpt>
      <trkpt lat="61.11575548516" lon="14.127906775183">
        <ele>199.2</ele>
        <time>2018-08-11T14:37:16Z</time>
      </trkpt>
      <trkpt lat="61.115696308946" lon="14.128276752249">
        <ele>204.4</ele>
        <time>2018-08-11T14:37:24Z</time>
      </trkpt>
      <trkpt lat="61.115637132732" lon="14.128629797877">
        <ele>210.6</ele>
        <time>2018-08-11T14:37:35Z</time>
      </trkpt>
      <trkpt lat="61.115553146094" lon="14.12896901337">
        <ele>213.8</ele>
        <time>2018-08-11T14:37:58Z</time>
      </trkpt>
      <trkpt lat="61.115446779783" lon="14.129285178638">
        <ele>216.8</ele>
        <time>2018-08-11T14:38:15Z</time>
      </trkpt>
      <trkpt lat="61.115319793998" lon="14.129564295908">
        <ele>219.2</ele>
        <time>2018-08-11T14:38:31Z</time>
      </trkpt>
      <trkpt lat="61.115216026076" lon="14.129871744">
        <ele>220.8</ele>
        <time>2018-08-11T14:38:46Z</time>
      </trkpt>
      <trkpt lat="61.115112174335" lon="14.13019444715">
        <ele>222.4</ele>
        <time>2018-08-11T14:39:01Z</time>
      </trkpt>
      <trkpt lat="61.114948978742" lon="14.130281870367">
        <ele>224.2</ele>
        <time>2018-08-11T14:39:18Z</time>
      </trkpt>
      <trkpt lat="61.114759044888" lon="14.130370215593">
        <ele>225.8</ele>
        <time>2018-08-11T14:39:32Z</time>
      </trkpt>
      <trkpt lat="61.114572212337" lon="14.130380273873">
        <ele>227.4</ele>
        <time>2018-08-11T14:39:40Z</time>
      </trkpt>
      <trkpt lat="61.114367023425" lon="14.130366527557">
        <ele>229.4</ele>
        <time>2018-08-11T14:39:47Z</time>
      </trkpt>
      <trkpt lat="61.114183292177" lon="14.130352278327">
        <ele>231</ele>
        <time>2018-08-11T14:39:53Z</time>
      </trkpt>
      <trkpt lat="61.113991346667" lon="14.130346243359">
        <ele>233.2</ele>
        <time>2018-08-11T14:40:00Z</time>
      </trkpt>
      <trkpt lat="61.113801496632" lon="14.130473229144">
        <ele>233.8</ele>
        <time>2018-08-11T14:40:07Z</time>
      </trkpt>
      <trkpt lat="61.113759251856" lon="14.130855695241">
        <ele>233.8</ele>
        <time>2018-08-11T14:40:14Z</time>
      </trkpt>
      <trkpt lat="61.113723293505" lon="14.131222571004">
        <ele>235</ele>
        <time>2018-08-11T14:40:21Z</time>
      </trkpt>
      <trkpt lat="61.113642911084" lon="14.131558769013">
        <ele>237.6</ele>
        <time>2018-08-11T14:40:29Z</time>
      </trkpt>
      <trkpt lat="61.11354685451" lon="14.131884489647">
        <ele>237.6</ele>
        <time>2018-08-11T14:40:36Z</time>
      </trkpt>
      <trkpt lat="61.113446774624" lon="14.132202498933">
        <ele>238.4</ele>
        <time>2018-08-11T14:40:43Z</time>
      </trkpt>
      <trkpt lat="61.113320124115" lon="14.132499637288">
        <ele>241</ele>
        <time>2018-08-11T14:40:51Z</time>
      </trkpt>
      <trkpt lat="61.11319732928" lon="14.132815383461">
        <ele>241.6</ele>
        <time>2018-08-11T14:40:58Z</time>
      </trkpt>
      <trkpt lat="61.113143768939" lon="14.133210841503">
        <ele>242.6</ele>
        <time>2018-08-11T14:41:05Z</time>
      </trkpt>
      <trkpt lat="61.113108062045" lon="14.133602443871">
        <ele>243.6</ele>
        <time>2018-08-11T14:41:12Z</time>
      </trkpt>
      <trkpt lat="61.113072941884" lon="14.13400150613">
        <ele>244.2</ele>
        <time>2018-08-11T14:41:20Z</time>
      </trkpt>
      <trkpt lat="61.113054920799" lon="14.134438119301">
        <ele>243</ele>
        <time>2018-08-11T14:41:27Z</time>
      </trkpt>
      <trkpt lat="61.113043772872" lon="14.13485143079">
        <ele>242.4</ele>
        <time>2018-08-11T14:41:34Z</time>
      </trkpt>
      <trkpt lat="61.113038156999" lon="14.135226436996">
        <ele>243</ele>
        <time>2018-08-11T14:41:41Z</time>
      </trkpt>
      <trkpt lat="61.113027847262" lon="14.135621978857">
        <ele>244.8</ele>
        <time>2018-08-11T14:41:50Z</time>
      </trkpt>
      <trkpt lat="61.112987614142" lon="14.136010144646">
        <ele>246.2</ele>
        <time>2018-08-11T14:42:00Z</time>
      </trkpt>
      <trkpt lat="61.112940256407" lon="14.136381295178">
        <ele>249.4</ele>
        <time>2018-08-11T14:42:11Z</time>
      </trkpt>
      <trkpt lat="61.11294838685" lon="14.136763845094">
        <ele>251.6</ele>
        <time>2018-08-11T14:42:21Z</time>
      </trkpt>
      <trkpt lat="61.112926007177" lon="14.137174977289">
        <ele>252.2</ele>
        <time>2018-08-11T14:42:32Z</time>
      </trkpt>
      <trkpt lat="61.112880577279" lon="14.137552833341">
        <ele>253</ele>
        <time>2018-08-11T14:42:43Z</time>
      </trkpt>
      <trkpt lat="61.112926510091" lon="14.137932449592">
        <ele>253.4</ele>
        <time>2018-08-11T14:42:52Z</time>
      </trkpt>
      <trkpt lat="61.11297604712" lon="14.138328662005">
        <ele>252.4</ele>
        <time>2018-08-11T14:42:59Z</time>
      </trkpt>
      <trkpt lat="61.113031116203" lon="14.138721437839">
        <ele>251</ele>
        <time>2018-08-11T14:43:06Z</time>
      </trkpt>
      <trkpt lat="61.113090292417" lon="14.139114548949">
        <ele>250.2</ele>
        <time>2018-08-11T14:43:13Z</time>
      </trkpt>
      <trkpt lat="61.113166902983" lon="14.139523753307">
        <ele>249</ele>
        <time>2018-08-11T14:43:19Z</time>
      </trkpt>
      <trkpt lat="61.113227001206" lon="14.139902196092">
        <ele>247.6</ele>
        <time>2018-08-11T14:43:25Z</time>
      </trkpt>
      <trkpt lat="61.11329120656" lon="14.14025943267">
        <ele>246.6</ele>
        <time>2018-08-11T14:43:30Z</time>
      </trkpt>
      <trkpt lat="61.113377204854" lon="14.140653633427">
        <ele>246.2</ele>
        <time>2018-08-11T14:43:36Z</time>
      </trkpt>
      <trkpt lat="61.11344962447" lon="14.141009193625">
        <ele>245.8</ele>
        <time>2018-08-11T14:43:41Z</time>
      </trkpt>
      <trkpt lat="61.113536628592" lon="14.141334998078">
        <ele>245.4</ele>
        <time>2018-08-11T14:43:45Z</time>
      </trkpt>
      <trkpt lat="61.113616843375" lon="14.141683685118">
        <ele>245</ele>
        <time>2018-08-11T14:43:49Z</time>
      </trkpt>
      <trkpt lat="61.113712061759" lon="14.142067911414">
        <ele>245.2</ele>
        <time>2018-08-11T14:43:53Z</time>
      </trkpt>
      <trkpt lat="61.11379747332" lon="14.142439481041">
        <ele>246.4</ele>
        <time>2018-08-11T14:43:57Z</time>
      </trkpt>
      <trkpt lat="61.113858745009" lon="14.142836783101">
        <ele>248.2</ele>
        <time>2018-08-11T14:44:02Z</time>
      </trkpt>
      <trkpt lat="61.113919765241" lon="14.14320147957">
        <ele>250.8</ele>
        <time>2018-08-11T14:44:07Z</time>
      </trkpt>
      <trkpt lat="61.11402294643" lon="14.143558716148">
        <ele>252.8</ele>
        <time>2018-08-11T14:44:13Z</time>
      </trkpt>
      <trkpt lat="61.114054546193" lon="14.143635829628">
        <ele>252.8</ele>
        <time>2018-08-11T14:44:14Z</time>
      </trkpt>
      <trkpt lat="61.114215646311" lon="14.143977727329">
        <ele>252.8</ele>
        <time>2018-08-11T14:44:18Z</time>
      </trkpt>
      <trkpt lat="61.114256298526" lon="14.14406984441">
        <ele>253</ele>
        <time>2018-08-11T14:44:19Z</time>
      </trkpt>
      <trkpt lat="61.114374902411" lon="14.144421548934">
        <ele>254</ele>
        <time>2018-08-11T14:44:23Z</time>
      </trkpt>
      <trkpt lat="61.114394851333" lon="14.144510899988">
        <ele>254.2</ele>
        <time>2018-08-11T14:44:24Z</time>
      </trkpt>
      <trkpt lat="61.114443801629" lon="14.144830753292">
        <ele>255.8</ele>
        <time>2018-08-11T14:44:28Z</time>
      </trkpt>
      <trkpt lat="61.114539103832" lon="14.145151780062">
        <ele>257.4</ele>
        <time>2018-08-11T14:44:34Z</time>
      </trkpt>
      <trkpt lat="61.114567350835" lon="14.145223780583">
        <ele>257.6</ele>
        <time>2018-08-11T14:44:35Z</time>
      </trkpt>
      <trkpt lat="61.114683188693" lon="14.145583783188">
        <ele>258.4</ele>
        <time>2018-08-11T14:44:41Z</time>
      </trkpt>
      <trkpt lat="61.114768851711" lon="14.145974463547">
        <ele>259.6</ele>
        <time>2018-08-11T14:44:48Z</time>
      </trkpt>
      <trkpt lat="61.114885779216" lon="14.146276882499">
        <ele>261.6</ele>
        <time>2018-08-11T14:44:53Z</time>
      </trkpt>
      <trkpt lat="61.115018129417" lon="14.146544348928">
        <ele>262</ele>
        <time>2018-08-11T14:44:59Z</time>
      </trkpt>
      <trkpt lat="61.115176212051" lon="14.146766385459">
        <ele>260.8</ele>
        <time>2018-08-11T14:45:04Z</time>
      </trkpt>
      <trkpt lat="61.115252822617" lon="14.146903010429">
        <ele>260.4</ele>
        <time>2018-08-11T14:45:06Z</time>
      </trkpt>
      <trkpt lat="61.11536740319" lon="14.14723233528">
        <ele>260</ele>
        <time>2018-08-11T14:45:10Z</time>
      </trkpt>
      <trkpt lat="61.11547720608" lon="14.147605581287">
        <ele>259.8</ele>
        <time>2018-08-11T14:45:14Z</time>
      </trkpt>
      <trkpt lat="61.115499501934" lon="14.147710774132">
        <ele>259.8</ele>
        <time>2018-08-11T14:45:15Z</time>
      </trkpt>
      <trkpt lat="61.115594720318" lon="14.148118469748">
        <ele>258.8</ele>
        <time>2018-08-11T14:45:19Z</time>
      </trkpt>
      <trkpt lat="61.115628164099" lon="14.148336985881">
        <ele>258.2</ele>
        <time>2018-08-11T14:45:21Z</time>
      </trkpt>
      <trkpt lat="61.115658506577" lon="14.148548880313">
        <ele>257.6</ele>
        <time>2018-08-11T14:45:23Z</time>
      </trkpt>
      <trkpt lat="61.115715838773" lon="14.148912822411">
        <ele>256.4</ele>
        <time>2018-08-11T14:45:27Z</time>
      </trkpt>
      <trkpt lat="61.115754898427" lon="14.149270478084">
        <ele>254.2</ele>
        <time>2018-08-11T14:45:31Z</time>
      </trkpt>
      <trkpt lat="61.115775853177" lon="14.149454125513">
        <ele>253.6</ele>
        <time>2018-08-11T14:45:33Z</time>
      </trkpt>
      <trkpt lat="61.115830838441" lon="14.149900545507">
        <ele>250.6</ele>
        <time>2018-08-11T14:45:38Z</time>
      </trkpt>
      <trkpt lat="61.115926643558" lon="14.150287034916">
        <ele>250.2</ele>
        <time>2018-08-11T14:45:42Z</time>
      </trkpt>
      <trkpt lat="61.116029405652" lon="14.150691126315">
        <ele>249.2</ele>
        <time>2018-08-11T14:45:46Z</time>
      </trkpt>
      <trkpt lat="61.11613602342" lon="14.151071329299">
        <ele>248</ele>
        <time>2018-08-11T14:45:51Z</time>
      </trkpt>
      <trkpt lat="61.116216908755" lon="14.15149117867">
        <ele>245.6</ele>
        <time>2018-08-11T14:45:57Z</time>
      </trkpt>
      <trkpt lat="61.116320089944" lon="14.15182980743">
        <ele>243.4</ele>
        <time>2018-08-11T14:46:02Z</time>
      </trkpt>
      <trkpt lat="61.116377757416" lon="14.151963834011">
        <ele>243</ele>
        <time>2018-08-11T14:46:04Z</time>
      </trkpt>
      <trkpt lat="61.116441376037" lon="14.152093334366">
        <ele>242.6</ele>
        <time>2018-08-11T14:46:06Z</time>
      </trkpt>
      <trkpt lat="61.116558052085" lon="14.152385443581">
        <ele>241.6</ele>
        <time>2018-08-11T14:46:10Z</time>
      </trkpt>
      <trkpt lat="61.116629046778" lon="14.152649138155">
        <ele>240</ele>
        <time>2018-08-11T14:46:13Z</time>
      </trkpt>
      <trkpt lat="61.116657880514" lon="14.153022132705">
        <ele>237.6</ele>
        <time>2018-08-11T14:46:16Z</time>
      </trkpt>
      <trkpt lat="61.116633237728" lon="14.153444412827">
        <ele>236.8</ele>
        <time>2018-08-11T14:46:19Z</time>
      </trkpt>
      <trkpt lat="61.116613121168" lon="14.153575505743">
        <ele>236.8</ele>
        <time>2018-08-11T14:46:20Z</time>
      </trkpt>
      <trkpt lat="61.116527625788" lon="14.15394875175">
        <ele>235.6</ele>
        <time>2018-08-11T14:46:23Z</time>
      </trkpt>
      <trkpt lat="61.116468952488" lon="14.154189982832">
        <ele>235</ele>
        <time>2018-08-11T14:46:25Z</time>
      </trkpt>
      <trkpt lat="61.116457469285" lon="14.154597175534">
        <ele>234.6</ele>
        <time>2018-08-11T14:46:28Z</time>
      </trkpt>
      <trkpt lat="61.116474149266" lon="14.154729274278">
        <ele>234.2</ele>
        <time>2018-08-11T14:46:29Z</time>
      </trkpt>
      <trkpt lat="61.116529805082" lon="14.155106627416">
        <ele>233.8</ele>
        <time>2018-08-11T14:46:32Z</time>
      </trkpt>
      <trkpt lat="61.116572385134" lon="14.155510048263">
        <ele>233.8</ele>
        <time>2018-08-11T14:46:35Z</time>
      </trkpt>
      <trkpt lat="61.116603398164" lon="14.15593358567">
        <ele>232.8</ele>
        <time>2018-08-11T14:46:38Z</time>
      </trkpt>
      <trkpt lat="61.116627370398" lon="14.15635351886">
        <ele>232.4</ele>
        <time>2018-08-11T14:46:41Z</time>
      </trkpt>
      <trkpt lat="61.116634830289" lon="14.156787617461">
        <ele>231.4</ele>
        <time>2018-08-11T14:46:44Z</time>
      </trkpt>
      <trkpt lat="61.116630890796" lon="14.157227499573">
        <ele>230</ele>
        <time>2018-08-11T14:46:47Z</time>
      </trkpt>
      <trkpt lat="61.116635417022" lon="14.157637542121">
        <ele>228.6</ele>
        <time>2018-08-11T14:46:50Z</time>
      </trkpt>
      <trkpt lat="61.116639272696" lon="14.157904337998">
        <ele>227.8</ele>
        <time>2018-08-11T14:46:52Z</time>
      </trkpt>
      <trkpt lat="61.116658886342" lon="14.158315973107">
        <ele>226.6</ele>
        <time>2018-08-11T14:46:55Z</time>
      </trkpt>
      <trkpt lat="61.116650839718" lon="14.158721237972">
        <ele>225</ele>
        <time>2018-08-11T14:46:58Z</time>
      </trkpt>
      <trkpt lat="61.116588981296" lon="14.159106302458">
        <ele>223.6</ele>
        <time>2018-08-11T14:47:01Z</time>
      </trkpt>
      <trkpt lat="61.116505246115" lon="14.159344096961">
        <ele>223.2</ele>
        <time>2018-08-11T14:47:04Z</time>
      </trkpt>
      <trkpt lat="61.116377338321" lon="14.159474854601">
        <ele>223</ele>
        <time>2018-08-11T14:47:11Z</time>
      </trkpt>
      <trkpt lat="61.116189248485" lon="14.15959312321">
        <ele>224.2</ele>
        <time>2018-08-11T14:47:22Z</time>
      </trkpt>
      <trkpt lat="61.116015910793" lon="14.159697980779">
        <ele>226</ele>
        <time>2018-08-11T14:47:30Z</time>
      </trkpt>
      <trkpt lat="61.115840309988" lon="14.159887160262">
        <ele>226.2</ele>
        <time>2018-08-11T14:47:38Z</time>
      </trkpt>
      <trkpt lat="61.115679042232" lon="14.160085727473">
        <ele>230.2</ele>
        <time>2018-08-11T14:47:54Z</time>
      </trkpt>
      <trkpt lat="61.115527078385" lon="14.160312038773">
        <ele>235.8</ele>
        <time>2018-08-11T14:48:10Z</time>
      </trkpt>
      <trkpt lat="61.115387435931" lon="14.160579337564">
        <ele>241.6</ele>
        <time>2018-08-11T14:48:26Z</time>
      </trkpt>
      <trkpt lat="61.115277213946" lon="14.160884354905">
        <ele>244.8</ele>
        <time>2018-08-11T14:48:43Z</time>
      </trkpt>
      <trkpt lat="61.11516791397" lon="14.161183588735">
        <ele>248</ele>
        <time>2018-08-11T14:48:59Z</time>
      </trkpt>
      <trkpt lat="61.115065151876" lon="14.16150168184">
        <ele>251</ele>
        <time>2018-08-11T14:49:17Z</time>
      </trkpt>
      <trkpt lat="61.114969514397" lon="14.161776775798">
        <ele>252.6</ele>
        <time>2018-08-11T14:49:31Z</time>
      </trkpt>
      <trkpt lat="61.11481419779" lon="14.161982383805">
        <ele>252.4</ele>
        <time>2018-08-11T14:49:45Z</time>
      </trkpt>
      <trkpt lat="61.114636333872" lon="14.162070058479">
        <ele>254.8</ele>
        <time>2018-08-11T14:50:03Z</time>
      </trkpt>
      <trkpt lat="61.11445461428" lon="14.162075758171">
        <ele>256.6</ele>
        <time>2018-08-11T14:50:20Z</time>
      </trkpt>
      <trkpt lat="61.114271805041" lon="14.162144238294">
        <ele>259</ele>
        <time>2018-08-11T14:50:45Z</time>
      </trkpt>
      <trkpt lat="61.114085475404" lon="14.162173742582">
        <ele>260.8</ele>
        <time>2018-08-11T14:51:02Z</time>
      </trkpt>
      <trkpt lat="61.113903169079" lon="14.162210958218">
        <ele>262.2</ele>
        <time>2018-08-11T14:51:21Z</time>
      </trkpt>
      <trkpt lat="61.11371449251" lon="14.162208527467">
        <ele>262.2</ele>
        <time>2018-08-11T14:51:50Z</time>
      </trkpt>
      <trkpt lat="61.113531264176" lon="14.162244485818">
        <ele>260.2</ele>
        <time>2018-08-11T14:52:08Z</time>
      </trkpt>
      <trkpt lat="61.113349712222" lon="14.162236942108">
        <ele>258.6</ele>
        <time>2018-08-11T14:52:23Z</time>
      </trkpt>
      <trkpt lat="61.113158856359" lon="14.162232415882">
        <ele>257.6</ele>
        <time>2018-08-11T14:52:39Z</time>
      </trkpt>
      <trkpt lat="61.112969760695" lon="14.162217831376">
        <ele>257</ele>
        <time>2018-08-11T14:52:56Z</time>
      </trkpt>
      <trkpt lat="61.112781922316" lon="14.162226380914">
        <ele>262.6</ele>
        <time>2018-08-11T14:53:12Z</time>
      </trkpt>
      <trkpt lat="61.112596179412" lon="14.162231996787">
        <ele>266.4</ele>
        <time>2018-08-11T14:53:27Z</time>
      </trkpt>
      <trkpt lat="61.112401970789" lon="14.162236020099">
        <ele>269.8</ele>
        <time>2018-08-11T14:53:45Z</time>
      </trkpt>
      <trkpt lat="61.112202900664" lon="14.162239791954">
        <ele>272.4</ele>
        <time>2018-08-11T14:53:54Z</time>
      </trkpt>
      <trkpt lat="61.112011877163" lon="14.162262087808">
        <ele>274.4</ele>
        <time>2018-08-11T14:54:02Z</time>
      </trkpt>
      <trkpt lat="61.111818087635" lon="14.162264267102">
        <ele>275.6</ele>
        <time>2018-08-11T14:54:09Z</time>
      </trkpt>
      <trkpt lat="61.111623962831" lon="14.1622594056">
        <ele>277.2</ele>
        <time>2018-08-11T14:54:16Z</time>
      </trkpt>
      <trkpt lat="61.111427658733" lon="14.162250436967">
        <ele>278.4</ele>
        <time>2018-08-11T14:54:24Z</time>
      </trkpt>
      <trkpt lat="61.111244262761" lon="14.162239205221">
        <ele>279.2</ele>
        <time>2018-08-11T14:54:32Z</time>
      </trkpt>
      <trkpt lat="61.111137225898" lon="14.162507006926">
        <ele>279.8</ele>
        <time>2018-08-11T14:54:40Z</time>
      </trkpt>
      <trkpt lat="61.111171675507" lon="14.162714626589">
        <ele>279.8</ele>
        <time>2018-08-11T14:54:43Z</time>
      </trkpt>
      <trkpt lat="61.111270917203" lon="14.163040347223">
        <ele>279.8</ele>
        <time>2018-08-11T14:54:47Z</time>
      </trkpt>
      <trkpt lat="61.111384491948" lon="14.163401355656">
        <ele>279.8</ele>
        <time>2018-08-11T14:54:51Z</time>
      </trkpt>
      <trkpt lat="61.111493456648" lon="14.163840399578">
        <ele>278.6</ele>
        <time>2018-08-11T14:54:55Z</time>
      </trkpt>
      <trkpt lat="61.111574425802" lon="14.164240383846">
        <ele>277.2</ele>
        <time>2018-08-11T14:54:58Z</time>
      </trkpt>
      <trkpt lat="61.11167098529" lon="14.164688731677">
        <ele>276</ele>
        <time>2018-08-11T14:55:01Z</time>
      </trkpt>
      <trkpt lat="61.111771232814" lon="14.165165577968">
        <ele>275.6</ele>
        <time>2018-08-11T14:55:04Z</time>
      </trkpt>
      <trkpt lat="61.111864020447" lon="14.165637562757">
        <ele>275</ele>
        <time>2018-08-11T14:55:07Z</time>
      </trkpt>
      <trkpt lat="61.11195764627" lon="14.166089011891">
        <ele>274.6</ele>
        <time>2018-08-11T14:55:10Z</time>
      </trkpt>
      <trkpt lat="61.112047416419" lon="14.166579017765">
        <ele>273.2</ele>
        <time>2018-08-11T14:55:13Z</time>
      </trkpt>
      <trkpt lat="61.112145819925" lon="14.167098192651">
        <ele>271.8</ele>
        <time>2018-08-11T14:55:16Z</time>
      </trkpt>
      <trkpt lat="61.112214048591" lon="14.167457189428">
        <ele>271</ele>
        <time>2018-08-11T14:55:18Z</time>
      </trkpt>
      <trkpt lat="61.112290491519" lon="14.167816353843">
        <ele>270.2</ele>
        <time>2018-08-11T14:55:20Z</time>
      </trkpt>
      <trkpt lat="61.112336675788" lon="14.167987763698">
        <ele>270</ele>
        <time>2018-08-11T14:55:21Z</time>
      </trkpt>
      <trkpt lat="61.112444215565" lon="14.168321782413">
        <ele>268.8</ele>
        <time>2018-08-11T14:55:23Z</time>
      </trkpt>
      <trkpt lat="61.112564076735" lon="14.168662003734">
        <ele>267.4</ele>
        <time>2018-08-11T14:55:25Z</time>
      </trkpt>
      <trkpt lat="61.112689050864" lon="14.169013121525">
        <ele>266</ele>
        <time>2018-08-11T14:55:27Z</time>
      </trkpt>
      <trkpt lat="61.112802206514" lon="14.169398688925">
        <ele>264.4</ele>
        <time>2018-08-11T14:55:29Z</time>
      </trkpt>
      <trkpt lat="61.112888540084" lon="14.169821304323">
        <ele>263</ele>
        <time>2018-08-11T14:55:31Z</time>
      </trkpt>
      <trkpt lat="61.112950733782" lon="14.170263198091">
        <ele>262</ele>
        <time>2018-08-11T14:55:33Z</time>
      </trkpt>
      <trkpt lat="61.113006976331" lon="14.170710707732">
        <ele>261</ele>
        <time>2018-08-11T14:55:35Z</time>
      </trkpt>
      <trkpt lat="61.113059782301" lon="14.17115343969">
        <ele>260.2</ele>
        <time>2018-08-11T14:55:37Z</time>
      </trkpt>
      <trkpt lat="61.113116276307" lon="14.171586281006">
        <ele>259.2</ele>
        <time>2018-08-11T14:55:39Z</time>
      </trkpt>
      <trkpt lat="61.113179894928" lon="14.172005543644">
        <ele>258.2</ele>
        <time>2018-08-11T14:55:41Z</time>
      </trkpt>
      <trkpt lat="61.113259942073" lon="14.172394128528">
        <ele>257.2</ele>
        <time>2018-08-11T14:55:43Z</time>
      </trkpt>
      <trkpt lat="61.113351640059" lon="14.172783635421">
        <ele>255</ele>
        <time>2018-08-11T14:55:45Z</time>
      </trkpt>
      <trkpt lat="61.113451217031" lon="14.173189989933">
        <ele>253</ele>
        <time>2018-08-11T14:55:47Z</time>
      </trkpt>
      <trkpt lat="61.113538640248" lon="14.17361352734">
        <ele>251.2</ele>
        <time>2018-08-11T14:55:49Z</time>
      </trkpt>
      <trkpt lat="61.113595888625" lon="14.174054247642">
        <ele>250.2</ele>
        <time>2018-08-11T14:55:51Z</time>
      </trkpt>
      <trkpt lat="61.113634361546" lon="14.174482227456">
        <ele>249.2</ele>
        <time>2018-08-11T14:55:53Z</time>
      </trkpt>
      <trkpt lat="61.113661602721" lon="14.174676100803">
        <ele>248.8</ele>
        <time>2018-08-11T14:55:54Z</time>
      </trkpt>
      <trkpt lat="61.113737207459" lon="14.175052951027">
        <ele>247.8</ele>
        <time>2018-08-11T14:55:56Z</time>
      </trkpt>
      <trkpt lat="61.113838796087" lon="14.175411193433">
        <ele>246.8</ele>
        <time>2018-08-11T14:55:58Z</time>
      </trkpt>
      <trkpt lat="61.113957735248" lon="14.17574839727">
        <ele>245.8</ele>
        <time>2018-08-11T14:56:00Z</time>
      </trkpt>
      <trkpt lat="61.114079356617" lon="14.17606271852">
        <ele>244.4</ele>
        <time>2018-08-11T14:56:02Z</time>
      </trkpt>
      <trkpt lat="61.114238528898" lon="14.176462032236">
        <ele>243</ele>
        <time>2018-08-11T14:56:05Z</time>
      </trkpt>
      <trkpt lat="61.114367274882" lon="14.176770821432">
        <ele>242</ele>
        <time>2018-08-11T14:56:08Z</time>
      </trkpt>
      <trkpt lat="61.114545641714" lon="14.176788171965">
        <ele>240.8</ele>
        <time>2018-08-11T14:56:12Z</time>
      </trkpt>
      <trkpt lat="61.114591993621" lon="14.176755314917">
        <ele>240.4</ele>
        <time>2018-08-11T14:56:13Z</time>
      </trkpt>
      <trkpt lat="61.114639351356" lon="14.176712483408">
        <ele>240</ele>
        <time>2018-08-11T14:56:14Z</time>
      </trkpt>
      <trkpt lat="61.114822747328" lon="14.176418278718">
        <ele>238.2</ele>
        <time>2018-08-11T14:56:18Z</time>
      </trkpt>
      <trkpt lat="61.114986948749" lon="14.176058108475">
        <ele>236.4</ele>
        <time>2018-08-11T14:56:22Z</time>
      </trkpt>
      <trkpt lat="61.115115108" lon="14.175790558227">
        <ele>235.6</ele>
        <time>2018-08-11T14:56:25Z</time>
      </trkpt>
      <trkpt lat="61.115155676396" lon="14.175709589073">
        <ele>235.2</ele>
        <time>2018-08-11T14:56:26Z</time>
      </trkpt>
      <trkpt lat="61.115336222522" lon="14.175638426742">
        <ele>233.2</ele>
        <time>2018-08-11T14:56:30Z</time>
      </trkpt>
      <trkpt lat="61.115345526431" lon="14.176015276966">
        <ele>234.6</ele>
        <time>2018-08-11T14:56:35Z</time>
      </trkpt>
      <trkpt lat="61.115251062418" lon="14.176143268579">
        <ele>235.6</ele>
        <time>2018-08-11T14:56:38Z</time>
      </trkpt>
      <trkpt lat="61.115091387223" lon="14.176375531028">
        <ele>236.2</ele>
        <time>2018-08-11T14:56:44Z</time>
      </trkpt>
      <trkpt lat="61.114908158889" lon="14.17650193008">
        <ele>236.6</ele>
        <time>2018-08-11T14:56:51Z</time>
      </trkpt>
      <trkpt lat="61.114733480093" lon="14.176717596367">
        <ele>237.8</ele>
        <time>2018-08-11T14:59:57Z</time>
      </trkpt>
      <trkpt lat="61.114587299757" lon="14.176946422237">
        <ele>239</ele>
        <time>2018-08-11T15:00:11Z</time>
      </trkpt>
      <trkpt lat="61.114403233233" lon="14.177131326951">
        <ele>239.6</ele>
        <time>2018-08-11T15:00:21Z</time>
      </trkpt>
      <trkpt lat="61.11423752307" lon="14.177370546377">
        <ele>239.6</ele>
        <time>2018-08-11T15:00:27Z</time>
      </trkpt>
      <trkpt lat="61.114080194807" lon="14.177645305059">
        <ele>239.8</ele>
        <time>2018-08-11T15:00:33Z</time>
      </trkpt>
      <trkpt lat="61.113953795755" lon="14.178000110886">
        <ele>239.8</ele>
        <time>2018-08-11T15:00:39Z</time>
      </trkpt>
      <trkpt lat="61.113939797982" lon="14.178087031189">
        <ele>239.4</ele>
        <time>2018-08-11T15:00:40Z</time>
      </trkpt>
      <trkpt lat="61.113925213476" lon="14.17849011676">
        <ele>239</ele>
        <time>2018-08-11T15:00:44Z</time>
      </trkpt>
      <trkpt lat="61.113921106345" lon="14.178874594513">
        <ele>238.8</ele>
        <time>2018-08-11T15:00:48Z</time>
      </trkpt>
      <trkpt lat="61.113910545151" lon="14.179328139122">
        <ele>239</ele>
        <time>2018-08-11T15:00:53Z</time>
      </trkpt>
      <trkpt lat="61.113886237641" lon="14.179769781433">
        <ele>240.4</ele>
        <time>2018-08-11T15:00:58Z</time>
      </trkpt>
      <trkpt lat="61.113847261806" lon="14.180204047672">
        <ele>240</ele>
        <time>2018-08-11T15:01:03Z</time>
      </trkpt>
      <trkpt lat="61.113806777229" lon="14.180669243122">
        <ele>237.8</ele>
        <time>2018-08-11T15:01:07Z</time>
      </trkpt>
      <trkpt lat="61.113772998172" lon="14.181084147172">
        <ele>237.4</ele>
        <time>2018-08-11T15:01:10Z</time>
      </trkpt>
      <trkpt lat="61.113746762825" lon="14.181529728976">
        <ele>237.8</ele>
        <time>2018-08-11T15:01:14Z</time>
      </trkpt>
      <trkpt lat="61.113725221342" lon="14.181841703294">
        <ele>237.4</ele>
        <time>2018-08-11T15:01:17Z</time>
      </trkpt>
      <trkpt lat="61.113666380404" lon="14.182270940393">
        <ele>236.4</ele>
        <time>2018-08-11T15:01:21Z</time>
      </trkpt>
      <trkpt lat="61.113618016841" lon="14.182740745888">
        <ele>234.6</ele>
        <time>2018-08-11T15:01:25Z</time>
      </trkpt>
      <trkpt lat="61.113550458727" lon="14.183149698789">
        <ele>232.8</ele>
        <time>2018-08-11T15:01:28Z</time>
      </trkpt>
      <trkpt lat="61.113458760741" lon="14.183589413263">
        <ele>231.6</ele>
        <time>2018-08-11T15:01:31Z</time>
      </trkpt>
      <trkpt lat="61.113407631151" lon="14.184029211556">
        <ele>230.8</ele>
        <time>2018-08-11T15:01:34Z</time>
      </trkpt>
      <trkpt lat="61.11335742357" lon="14.184534723945">
        <ele>229</ele>
        <time>2018-08-11T15:01:37Z</time>
      </trkpt>
      <trkpt lat="61.113326578178" lon="14.184900845337">
        <ele>228.6</ele>
        <time>2018-08-11T15:01:39Z</time>
      </trkpt>
      <trkpt lat="61.113311490758" lon="14.185421193689">
        <ele>228.2</ele>
        <time>2018-08-11T15:01:42Z</time>
      </trkpt>
      <trkpt lat="61.113312580405" lon="14.185892591745">
        <ele>227.4</ele>
        <time>2018-08-11T15:01:45Z</time>
      </trkpt>
      <trkpt lat="61.113320040296" lon="14.186348734743">
        <ele>225</ele>
        <time>2018-08-11T15:01:48Z</time>
      </trkpt>
      <trkpt lat="61.113316100803" lon="14.186811499442">
        <ele>225</ele>
        <time>2018-08-11T15:01:51Z</time>
      </trkpt>
      <trkpt lat="61.113277208787" lon="14.187237132324">
        <ele>224.8</ele>
        <time>2018-08-11T15:01:54Z</time>
      </trkpt>
      <trkpt lat="61.113192467778" lon="14.18765320984">
        <ele>224</ele>
        <time>2018-08-11T15:01:57Z</time>
      </trkpt>
      <trkpt lat="61.113075624092" lon="14.188100384205">
        <ele>223.6</ele>
        <time>2018-08-11T15:02:00Z</time>
      </trkpt>
      <trkpt lat="61.112949811773" lon="14.188518305739">
        <ele>224</ele>
        <time>2018-08-11T15:02:03Z</time>
      </trkpt>
      <trkpt lat="61.112842691091" lon="14.188914099057">
        <ele>224</ele>
        <time>2018-08-11T15:02:06Z</time>
      </trkpt>
      <trkpt lat="61.112789214569" lon="14.189313580411">
        <ele>224</ele>
        <time>2018-08-11T15:02:09Z</time>
      </trkpt>
      <trkpt lat="61.11275057401" lon="14.18969252611">
        <ele>224.4</ele>
        <time>2018-08-11T15:02:12Z</time>
      </trkpt>
      <trkpt lat="61.112726015043" lon="14.189930488251">
        <ele>224.8</ele>
        <time>2018-08-11T15:02:14Z</time>
      </trkpt>
      <trkpt lat="61.112694918194" lon="14.19015017785">
        <ele>225.4</ele>
        <time>2018-08-11T15:02:16Z</time>
      </trkpt>
      <trkpt lat="61.112652170504" lon="14.190331310709">
        <ele>225.6</ele>
        <time>2018-08-11T15:02:18Z</time>
      </trkpt>
      <trkpt lat="61.112541277967" lon="14.190683015233">
        <ele>226.6</ele>
        <time>2018-08-11T15:02:22Z</time>
      </trkpt>
      <trkpt lat="61.112445305212" lon="14.190976297914">
        <ele>226.2</ele>
        <time>2018-08-11T15:02:25Z</time>
      </trkpt>
      <trkpt lat="61.112343968041" lon="14.191327164248">
        <ele>226</ele>
        <time>2018-08-11T15:02:28Z</time>
      </trkpt>
      <trkpt lat="61.11222838164" lon="14.191703511558">
        <ele>226.4</ele>
        <time>2018-08-11T15:02:32Z</time>
      </trkpt>
      <trkpt lat="61.112119752216" lon="14.192043229965">
        <ele>226.6</ele>
        <time>2018-08-11T15:02:38Z</time>
      </trkpt>
      <trkpt lat="61.112002992349" lon="14.192447321364">
        <ele>225</ele>
        <time>2018-08-11T15:02:42Z</time>
      </trkpt>
      <trkpt lat="61.111886986853" lon="14.192817130792">
        <ele>223.4</ele>
        <time>2018-08-11T15:02:45Z</time>
      </trkpt>
      <trkpt lat="61.111853794529" lon="14.192939841808">
        <ele>223</ele>
        <time>2018-08-11T15:02:46Z</time>
      </trkpt>
      <trkpt lat="61.111726389649" lon="14.193310573245">
        <ele>221</ele>
        <time>2018-08-11T15:02:49Z</time>
      </trkpt>
      <trkpt lat="61.111604349185" lon="14.193670994945">
        <ele>219</ele>
        <time>2018-08-11T15:02:52Z</time>
      </trkpt>
      <trkpt lat="61.111567468825" lon="14.19378624607">
        <ele>218.8</ele>
        <time>2018-08-11T15:02:53Z</time>
      </trkpt>
      <trkpt lat="61.111460264324" lon="14.19414834415">
        <ele>217.4</ele>
        <time>2018-08-11T15:02:56Z</time>
      </trkpt>
      <trkpt lat="61.111340989887" lon="14.194520919605">
        <ele>218.2</ele>
        <time>2018-08-11T15:02:59Z</time>
      </trkpt>
      <trkpt lat="61.111227666599" lon="14.194849741542">
        <ele>218.6</ele>
        <time>2018-08-11T15:03:02Z</time>
      </trkpt>
      <trkpt lat="61.111116271148" lon="14.195154675064">
        <ele>218</ele>
        <time>2018-08-11T15:03:05Z</time>
      </trkpt>
      <trkpt lat="61.110965648405" lon="14.195518030429">
        <ele>219.4</ele>
        <time>2018-08-11T15:03:09Z</time>
      </trkpt>
      <trkpt lat="61.110829777806" lon="14.195817012802">
        <ele>220.8</ele>
        <time>2018-08-11T15:03:14Z</time>
      </trkpt>
      <trkpt lat="61.110647303843" lon="14.195980376033">
        <ele>222.8</ele>
        <time>2018-08-11T15:03:20Z</time>
      </trkpt>
      <trkpt lat="61.110450161555" lon="14.196075845874">
        <ele>224.6</ele>
        <time>2018-08-11T15:03:28Z</time>
      </trkpt>
      <trkpt lat="61.110298784441" lon="14.196333254023">
        <ele>227.2</ele>
        <time>2018-08-11T15:03:37Z</time>
      </trkpt>
      <trkpt lat="61.110207002636" lon="14.196677498656">
        <ele>229</ele>
        <time>2018-08-11T15:03:45Z</time>
      </trkpt>
      <trkpt lat="61.110179593823" lon="14.197051079939">
        <ele>232.4</ele>
        <time>2018-08-11T15:03:53Z</time>
      </trkpt>
      <trkpt lat="61.110199375107" lon="14.197480819952">
        <ele>235</ele>
        <time>2018-08-11T15:04:01Z</time>
      </trkpt>
      <trkpt lat="61.110160483091" lon="14.197902178065">
        <ele>234</ele>
        <time>2018-08-11T15:04:07Z</time>
      </trkpt>
      <trkpt lat="61.110031150374" lon="14.198236112961">
        <ele>234.4</ele>
        <time>2018-08-11T15:04:13Z</time>
      </trkpt>
      <trkpt lat="61.109919754923" lon="14.198577591567">
        <ele>235.4</ele>
        <time>2018-08-11T15:04:19Z</time>
      </trkpt>
      <trkpt lat="61.109815735544" lon="14.198909179531">
        <ele>237.2</ele>
        <time>2018-08-11T15:04:25Z</time>
      </trkpt>
      <trkpt lat="61.109708614862" lon="14.199234900165">
        <ele>240.4</ele>
        <time>2018-08-11T15:04:31Z</time>
      </trkpt>
      <trkpt lat="61.109615994867" lon="14.199555843116">
        <ele>241.2</ele>
        <time>2018-08-11T15:04:35Z</time>
      </trkpt>
      <trkpt lat="61.109514657696" lon="14.199890951478">
        <ele>240</ele>
        <time>2018-08-11T15:04:39Z</time>
      </trkpt>
      <trkpt lat="61.109403010788" lon="14.200223377632">
        <ele>239.2</ele>
        <time>2018-08-11T15:04:43Z</time>
      </trkpt>
      <trkpt lat="61.109291531518" lon="14.200540884004">
        <ele>238.8</ele>
        <time>2018-08-11T15:04:48Z</time>
      </trkpt>
      <trkpt lat="61.109172257081" lon="14.200944053394">
        <ele>237.2</ele>
        <time>2018-08-11T15:04:53Z</time>
      </trkpt>
      <trkpt lat="61.109067064236" lon="14.201267594734">
        <ele>235</ele>
        <time>2018-08-11T15:04:56Z</time>
      </trkpt>
      <trkpt lat="61.10894938236" lon="14.201637907076">
        <ele>233.2</ele>
        <time>2018-08-11T15:04:59Z</time>
      </trkpt>
      <trkpt lat="61.108823067127" lon="14.202018026241">
        <ele>233.2</ele>
        <time>2018-08-11T15:05:02Z</time>
      </trkpt>
      <trkpt lat="61.108711084943" lon="14.202349949481">
        <ele>234.2</ele>
        <time>2018-08-11T15:05:05Z</time>
      </trkpt>
      <trkpt lat="61.10859650437" lon="14.202667455853">
        <ele>235</ele>
        <time>2018-08-11T15:05:09Z</time>
      </trkpt>
      <trkpt lat="61.10848167234" lon="14.202999546731">
        <ele>235</ele>
        <time>2018-08-11T15:05:12Z</time>
      </trkpt>
      <trkpt lat="61.108383017377" lon="14.203329206858">
        <ele>235.4</ele>
        <time>2018-08-11T15:05:15Z</time>
      </trkpt>
      <trkpt lat="61.108287296079" lon="14.203664566677">
        <ele>236</ele>
        <time>2018-08-11T15:05:19Z</time>
      </trkpt>
      <trkpt lat="61.108176990275" lon="14.203997328107">
        <ele>236.4</ele>
        <time>2018-08-11T15:05:23Z</time>
      </trkpt>
      <trkpt lat="61.108064505177" lon="14.204322964922">
        <ele>236</ele>
        <time>2018-08-11T15:05:26Z</time>
      </trkpt>
      <trkpt lat="61.107956713943" lon="14.204636280344">
        <ele>235.8</ele>
        <time>2018-08-11T15:05:29Z</time>
      </trkpt>
      <trkpt lat="61.107834170565" lon="14.204976417846">
        <ele>233.8</ele>
        <time>2018-08-11T15:05:32Z</time>
      </trkpt>
      <trkpt lat="61.107690001885" lon="14.205391405715">
        <ele>230.8</ele>
        <time>2018-08-11T15:05:35Z</time>
      </trkpt>
      <trkpt lat="61.107578438796" lon="14.205702960938">
        <ele>229.8</ele>
        <time>2018-08-11T15:05:37Z</time>
      </trkpt>
      <trkpt lat="61.107446591509" lon="14.206120547196">
        <ele>227.8</ele>
        <time>2018-08-11T15:05:40Z</time>
      </trkpt>
      <trkpt lat="61.107334106411" lon="14.206457080481">
        <ele>226.4</ele>
        <time>2018-08-11T15:05:43Z</time>
      </trkpt>
      <trkpt lat="61.107221202218" lon="14.206801241295">
        <ele>226</ele>
        <time>2018-08-11T15:05:48Z</time>
      </trkpt>
      <trkpt lat="61.107089354931" lon="14.207179348804">
        <ele>223.8</ele>
        <time>2018-08-11T15:05:53Z</time>
      </trkpt>
      <trkpt lat="61.106989023588" lon="14.207489646742">
        <ele>221.6</ele>
        <time>2018-08-11T15:05:56Z</time>
      </trkpt>
      <trkpt lat="61.106858014491" lon="14.207894408693">
        <ele>220.4</ele>
        <time>2018-08-11T15:05:59Z</time>
      </trkpt>
      <trkpt lat="61.106732537448" lon="14.208298500092">
        <ele>219.8</ele>
        <time>2018-08-11T15:06:02Z</time>
      </trkpt>
      <trkpt lat="61.106610161708" lon="14.20865825124">
        <ele>219.2</ele>
        <time>2018-08-11T15:06:05Z</time>
      </trkpt>
      <trkpt lat="61.106497425153" lon="14.209035772016">
        <ele>219</ele>
        <time>2018-08-11T15:06:08Z</time>
      </trkpt>
      <trkpt lat="61.106391897032" lon="14.209363671944">
        <ele>220.2</ele>
        <time>2018-08-11T15:06:11Z</time>
      </trkpt>
      <trkpt lat="61.106360045812" lon="14.209455956663">
        <ele>220.8</ele>
        <time>2018-08-11T15:06:12Z</time>
      </trkpt>
      <trkpt lat="61.106239849366" lon="14.209810175757">
        <ele>221.4</ele>
        <time>2018-08-11T15:06:16Z</time>
      </trkpt>
      <trkpt lat="61.106105487509" lon="14.210188618542">
        <ele>221.6</ele>
        <time>2018-08-11T15:06:20Z</time>
      </trkpt>
      <trkpt lat="61.105981603027" lon="14.21056178073">
        <ele>222.4</ele>
        <time>2018-08-11T15:06:24Z</time>
      </trkpt>
      <trkpt lat="61.10585813764" lon="14.210923627353">
        <ele>223.4</ele>
        <time>2018-08-11T15:06:28Z</time>
      </trkpt>
      <trkpt lat="61.10576845131" lon="14.211190674687">
        <ele>223.2</ele>
        <time>2018-08-11T15:06:31Z</time>
      </trkpt>
      <trkpt lat="61.105655882393" lon="14.211526202144">
        <ele>221</ele>
        <time>2018-08-11T15:06:34Z</time>
      </trkpt>
      <trkpt lat="61.105496710112" lon="14.21194814699">
        <ele>218.4</ele>
        <time>2018-08-11T15:06:37Z</time>
      </trkpt>
      <trkpt lat="61.105337789288" lon="14.212386185084">
        <ele>216</ele>
        <time>2018-08-11T15:06:40Z</time>
      </trkpt>
      <trkpt lat="61.105239637239" lon="14.212717018677">
        <ele>215</ele>
        <time>2018-08-11T15:06:42Z</time>
      </trkpt>
      <trkpt lat="61.105140730819" lon="14.213034357411">
        <ele>214</ele>
        <time>2018-08-11T15:06:44Z</time>
      </trkpt>
      <trkpt lat="61.105035957069" lon="14.213340632037">
        <ele>214.6</ele>
        <time>2018-08-11T15:06:46Z</time>
      </trkpt>
      <trkpt lat="61.104889776733" lon="14.213736760631">
        <ele>216.4</ele>
        <time>2018-08-11T15:06:49Z</time>
      </trkpt>
      <trkpt lat="61.104761114568" lon="14.214081591997">
        <ele>216.4</ele>
        <time>2018-08-11T15:06:52Z</time>
      </trkpt>
      <trkpt lat="61.104625411607" lon="14.214434637625">
        <ele>217</ele>
        <time>2018-08-11T15:06:55Z</time>
      </trkpt>
      <trkpt lat="61.104473196303" lon="14.214880051791">
        <ele>215.8</ele>
        <time>2018-08-11T15:06:58Z</time>
      </trkpt>
      <trkpt lat="61.104362890499" lon="14.215194121584">
        <ele>214.4</ele>
        <time>2018-08-11T15:07:00Z</time>
      </trkpt>
      <trkpt lat="61.104253590523" lon="14.215519758399">
        <ele>213.4</ele>
        <time>2018-08-11T15:07:02Z</time>
      </trkpt>
      <trkpt lat="61.104146805117" lon="14.215838605875">
        <ele>212.2</ele>
        <time>2018-08-11T15:07:04Z</time>
      </trkpt>
      <trkpt lat="61.103993081071" lon="14.216275302865">
        <ele>212.2</ele>
        <time>2018-08-11T15:07:07Z</time>
      </trkpt>
      <trkpt lat="61.103864754182" lon="14.216675119495">
        <ele>212.8</ele>
        <time>2018-08-11T15:07:10Z</time>
      </trkpt>
      <trkpt lat="61.103763249373" lon="14.217080971093">
        <ele>213.2</ele>
        <time>2018-08-11T15:07:13Z</time>
      </trkpt>
      <trkpt lat="61.10365453613" lon="14.217462012267">
        <ele>213</ele>
        <time>2018-08-11T15:07:16Z</time>
      </trkpt>
      <trkpt lat="61.103551354941" lon="14.217798461733">
        <ele>212.8</ele>
        <time>2018-08-11T15:07:19Z</time>
      </trkpt>
      <trkpt lat="61.103429985029" lon="14.218217975828">
        <ele>213.4</ele>
        <time>2018-08-11T15:07:23Z</time>
      </trkpt>
      <trkpt lat="61.103327809668" lon="14.218541852444">
        <ele>214.2</ele>
        <time>2018-08-11T15:07:26Z</time>
      </trkpt>
      <trkpt lat="61.103227562144" lon="14.218847456518">
        <ele>214.8</ele>
        <time>2018-08-11T15:07:29Z</time>
      </trkpt>
      <trkpt lat="61.103093451744" lon="14.219242998379">
        <ele>214.6</ele>
        <time>2018-08-11T15:07:33Z</time>
      </trkpt>
      <trkpt lat="61.10297895499" lon="14.219632421453">
        <ele>214.8</ele>
        <time>2018-08-11T15:07:37Z</time>
      </trkpt>
      <trkpt lat="61.102926484296" lon="14.219782876558">
        <ele>214.6</ele>
        <time>2018-08-11T15:07:39Z</time>
      </trkpt>
      <trkpt lat="61.102810227343" lon="14.220147992122">
        <ele>214.8</ele>
        <time>2018-08-11T15:07:43Z</time>
      </trkpt>
      <trkpt lat="61.102751134948" lon="14.220307751136">
        <ele>215.2</ele>
        <time>2018-08-11T15:07:45Z</time>
      </trkpt>
      <trkpt lat="61.102637560203" lon="14.220659707117">
        <ele>215</ele>
        <time>2018-08-11T15:07:49Z</time>
      </trkpt>
      <trkpt lat="61.102518201947" lon="14.22105927229">
        <ele>215.6</ele>
        <time>2018-08-11T15:07:53Z</time>
      </trkpt>
      <trkpt lat="61.1023997657" lon="14.221406199131">
        <ele>215.2</ele>
        <time>2018-08-11T15:07:57Z</time>
      </trkpt>
      <trkpt lat="61.102258614504" lon="14.221781037699">
        <ele>211.8</ele>
        <time>2018-08-11T15:08:01Z</time>
      </trkpt>
      <trkpt lat="61.102155265677" lon="14.222120756106">
        <ele>209.8</ele>
        <time>2018-08-11T15:08:05Z</time>
      </trkpt>
      <trkpt lat="61.102029620996" lon="14.22245402045">
        <ele>209.8</ele>
        <time>2018-08-11T15:08:10Z</time>
      </trkpt>
      <trkpt lat="61.101911603844" lon="14.222747973683">
        <ele>209</ele>
        <time>2018-08-11T15:08:19Z</time>
      </trkpt>
      <trkpt lat="61.101824599722" lon="14.22305248811">
        <ele>208.2</ele>
        <time>2018-08-11T15:10:20Z</time>
      </trkpt>
      <trkpt lat="61.101684873449" lon="14.223453226749">
        <ele>207.6</ele>
        <time>2018-08-11T15:10:24Z</time>
      </trkpt>
      <trkpt lat="61.101556462741" lon="14.223822952358">
        <ele>206.6</ele>
        <time>2018-08-11T15:10:28Z</time>
      </trkpt>
      <trkpt lat="61.101525198254" lon="14.22394851322">
        <ele>206.6</ele>
        <time>2018-08-11T15:10:29Z</time>
      </trkpt>
      <trkpt lat="61.101469877714" lon="14.224363249632">
        <ele>206.6</ele>
        <time>2018-08-11T15:10:32Z</time>
      </trkpt>
      <trkpt lat="61.101452694819" lon="14.224675391588">
        <ele>205</ele>
        <time>2018-08-11T15:10:34Z</time>
      </trkpt>
      <trkpt lat="61.101467614601" lon="14.225112256216">
        <ele>204.2</ele>
        <time>2018-08-11T15:10:37Z</time>
      </trkpt>
      <trkpt lat="61.101480941822" lon="14.225413417883">
        <ele>204</ele>
        <time>2018-08-11T15:10:39Z</time>
      </trkpt>
      <trkpt lat="61.101458143054" lon="14.22588137936">
        <ele>203.8</ele>
        <time>2018-08-11T15:10:42Z</time>
      </trkpt>
      <trkpt lat="61.101439032322" lon="14.226008951878">
        <ele>204</ele>
        <time>2018-08-11T15:10:43Z</time>
      </trkpt>
      <trkpt lat="61.101345741775" lon="14.226344227878">
        <ele>204</ele>
        <time>2018-08-11T15:10:48Z</time>
      </trkpt>
      <trkpt lat="61.101226970252" lon="14.226658800585">
        <ele>203.4</ele>
        <time>2018-08-11T15:10:55Z</time>
      </trkpt>
      <trkpt lat="61.101070563998" lon="14.22694504247">
        <ele>204</ele>
        <time>2018-08-11T15:11:00Z</time>
      </trkpt>
      <trkpt lat="61.100875349547" lon="14.227086193666">
        <ele>207.8</ele>
        <time>2018-08-11T15:11:06Z</time>
      </trkpt>
      <trkpt lat="61.100693629955" lon="14.227134557229">
        <ele>209.4</ele>
        <time>2018-08-11T15:11:13Z</time>
      </trkpt>
      <trkpt lat="61.100514005838" lon="14.227105304398">
        <ele>212.4</ele>
        <time>2018-08-11T15:11:21Z</time>
      </trkpt>
      <trkpt lat="61.100370842986" lon="14.227084684924">
        <ele>214.4</ele>
        <time>2018-08-11T15:11:29Z</time>
      </trkpt>
      <trkpt lat="61.100318288473" lon="14.227251484734">
        <ele>215</ele>
        <time>2018-08-11T15:11:33Z</time>
      </trkpt>
      <trkpt lat="61.100254502214" lon="14.227649876441">
        <ele>216</ele>
        <time>2018-08-11T15:11:39Z</time>
      </trkpt>
      <trkpt lat="61.100179316571" lon="14.228059667532">
        <ele>216.6</ele>
        <time>2018-08-11T15:11:44Z</time>
      </trkpt>
      <trkpt lat="61.100120559452" lon="14.228417909938">
        <ele>217</ele>
        <time>2018-08-11T15:11:48Z</time>
      </trkpt>
      <trkpt lat="61.10005702465" lon="14.228769698281">
        <ele>217.8</ele>
        <time>2018-08-11T15:11:52Z</time>
      </trkpt>
      <trkpt lat="61.099992903115" lon="14.229142441374">
        <ele>218.6</ele>
        <time>2018-08-11T15:11:56Z</time>
      </trkpt>
      <trkpt lat="61.099935068005" lon="14.229522392901">
        <ele>219.6</ele>
        <time>2018-08-11T15:12:00Z</time>
      </trkpt>
      <trkpt lat="61.099864911502" lon="14.229921790436">
        <ele>221.6</ele>
        <time>2018-08-11T15:12:04Z</time>
      </trkpt>
      <trkpt lat="61.099793665352" lon="14.230359409435">
        <ele>222.6</ele>
        <time>2018-08-11T15:12:08Z</time>
      </trkpt>
      <trkpt lat="61.099733986224" lon="14.230691835589">
        <ele>223.4</ele>
        <time>2018-08-11T15:12:11Z</time>
      </trkpt>
      <trkpt lat="61.099652346518" lon="14.231111265865">
        <ele>224.8</ele>
        <time>2018-08-11T15:12:15Z</time>
      </trkpt>
      <trkpt lat="61.099585039861" lon="14.23146540114">
        <ele>224.6</ele>
        <time>2018-08-11T15:12:18Z</time>
      </trkpt>
      <trkpt lat="61.099563917473" lon="14.231592889839">
        <ele>224.6</ele>
        <time>2018-08-11T15:12:19Z</time>
      </trkpt>
      <trkpt lat="61.099487223088" lon="14.231982396732">
        <ele>224</ele>
        <time>2018-08-11T15:12:22Z</time>
      </trkpt>
      <trkpt lat="61.099419832612" lon="14.23234214788">
        <ele>224.4</ele>
        <time>2018-08-11T15:12:25Z</time>
      </trkpt>
      <trkpt lat="61.099332577033" lon="14.232780940345">
        <ele>225.6</ele>
        <time>2018-08-11T15:12:29Z</time>
      </trkpt>
      <trkpt lat="61.09925403863" lon="14.233192994549">
        <ele>226</ele>
        <time>2018-08-11T15:12:33Z</time>
      </trkpt>
      <trkpt lat="61.099182708661" lon="14.233638743991">
        <ele>224.8</ele>
        <time>2018-08-11T15:12:37Z</time>
      </trkpt>
      <trkpt lat="61.099128896863" lon="14.233997992225">
        <ele>224.4</ele>
        <time>2018-08-11T15:12:40Z</time>
      </trkpt>
      <trkpt lat="61.099080617119" lon="14.234362604875">
        <ele>224.4</ele>
        <time>2018-08-11T15:12:43Z</time>
      </trkpt>
      <trkpt lat="61.099014819204" lon="14.234800894426">
        <ele>226.2</ele>
        <time>2018-08-11T15:12:47Z</time>
      </trkpt>
      <trkpt lat="61.098933933869" lon="14.235145641973">
        <ele>226.6</ele>
        <time>2018-08-11T15:12:51Z</time>
      </trkpt>
      <trkpt lat="61.098860340787" lon="14.235362565545">
        <ele>227</ele>
        <time>2018-08-11T15:12:54Z</time>
      </trkpt>
      <trkpt lat="61.098712651709" lon="14.235656183502">
        <ele>227.4</ele>
        <time>2018-08-11T15:12:59Z</time>
      </trkpt>
      <trkpt lat="61.098578206033" lon="14.236001517782">
        <ele>228.6</ele>
        <time>2018-08-11T15:13:05Z</time>
      </trkpt>
      <trkpt lat="61.098444179452" lon="14.236301673621">
        <ele>229.2</ele>
        <time>2018-08-11T15:13:10Z</time>
      </trkpt>
      <trkpt lat="61.098329095965" lon="14.236605517496">
        <ele>230</ele>
        <time>2018-08-11T15:13:15Z</time>
      </trkpt>
      <trkpt lat="61.098200266162" lon="14.236915144882">
        <ele>230.8</ele>
        <time>2018-08-11T15:13:21Z</time>
      </trkpt>
      <trkpt lat="61.098056013663" lon="14.237251259072">
        <ele>231.2</ele>
        <time>2018-08-11T15:13:27Z</time>
      </trkpt>
      <trkpt lat="61.097948641524" lon="14.2375707771">
        <ele>231.2</ele>
        <time>2018-08-11T15:13:32Z</time>
      </trkpt>
      <trkpt lat="61.097872282415" lon="14.23791694957">
        <ele>232</ele>
        <time>2018-08-11T15:13:37Z</time>
      </trkpt>
      <trkpt lat="61.097808244699" lon="14.23827569489">
        <ele>232.6</ele>
        <time>2018-08-11T15:13:43Z</time>
      </trkpt>
      <trkpt lat="61.09777463328" lon="14.238644163214">
        <ele>232.8</ele>
        <time>2018-08-11T15:13:49Z</time>
      </trkpt>
      <trkpt lat="61.097757701842" lon="14.239034592116">
        <ele>232.4</ele>
        <time>2018-08-11T15:13:54Z</time>
      </trkpt>
      <trkpt lat="61.097738674929" lon="14.239422003534">
        <ele>232.2</ele>
        <time>2018-08-11T15:13:59Z</time>
      </trkpt>
      <trkpt lat="61.097718809826" lon="14.23983305191">
        <ele>232.8</ele>
        <time>2018-08-11T15:14:04Z</time>
      </trkpt>
      <trkpt lat="61.097695759601" lon="14.240234125825">
        <ele>233.6</ele>
        <time>2018-08-11T15:14:09Z</time>
      </trkpt>
      <trkpt lat="61.097677235602" lon="14.24063771431">
        <ele>234.2</ele>
        <time>2018-08-11T15:14:14Z</time>
      </trkpt>
      <trkpt lat="61.097655526481" lon="14.241027724117">
        <ele>234.8</ele>
        <time>2018-08-11T15:14:19Z</time>
      </trkpt>
      <trkpt lat="61.097637086301" lon="14.241424271806">
        <ele>235.2</ele>
        <time>2018-08-11T15:14:24Z</time>
      </trkpt>
      <trkpt lat="61.097613030248" lon="14.241826016273">
        <ele>236</ele>
        <time>2018-08-11T15:14:29Z</time>
      </trkpt>
      <trkpt lat="61.097586208168" lon="14.242250475689">
        <ele>236.4</ele>
        <time>2018-08-11T15:14:34Z</time>
      </trkpt>
      <trkpt lat="61.09755418931" lon="14.242680634797">
        <ele>236</ele>
        <time>2018-08-11T15:14:39Z</time>
      </trkpt>
      <trkpt lat="61.097531474361" lon="14.243113140837">
        <ele>235.4</ele>
        <time>2018-08-11T15:14:43Z</time>
      </trkpt>
      <trkpt lat="61.097505741928" lon="14.243569116197">
        <ele>235.2</ele>
        <time>2018-08-11T15:14:47Z</time>
      </trkpt>
      <trkpt lat="61.097478081658" lon="14.244037999683">
        <ele>234.8</ele>
        <time>2018-08-11T15:14:51Z</time>
      </trkpt>
      <trkpt lat="61.09745612108" lon="14.244423064169">
        <ele>234.6</ele>
        <time>2018-08-11T15:14:54Z</time>
      </trkpt>
      <trkpt lat="61.097432819398" lon="14.244812068148">
        <ele>234.8</ele>
        <time>2018-08-11T15:14:57Z</time>
      </trkpt>
      <trkpt lat="61.097410355906" lon="14.245199898661">
        <ele>235.2</ele>
        <time>2018-08-11T15:15:00Z</time>
      </trkpt>
      <trkpt lat="61.097388562966" lon="14.245597116902">
        <ele>235</ele>
        <time>2018-08-11T15:15:03Z</time>
      </trkpt>
      <trkpt lat="61.09736308199" lon="14.246004812518">
        <ele>234.8</ele>
        <time>2018-08-11T15:15:06Z</time>
      </trkpt>
      <trkpt lat="61.09733625991" lon="14.246405383519">
        <ele>234.2</ele>
        <time>2018-08-11T15:15:09Z</time>
      </trkpt>
      <trkpt lat="61.097312706771" lon="14.246804026683">
        <ele>233.4</ele>
        <time>2018-08-11T15:15:12Z</time>
      </trkpt>
      <trkpt lat="61.097294434229" lon="14.247220271837">
        <ele>232.2</ele>
        <time>2018-08-11T15:15:15Z</time>
      </trkpt>
      <trkpt lat="61.097278843895" lon="14.247657471741">
        <ele>231.2</ele>
        <time>2018-08-11T15:15:18Z</time>
      </trkpt>
      <trkpt lat="61.097246070666" lon="14.24812107463">
        <ele>230.4</ele>
        <time>2018-08-11T15:15:21Z</time>
      </trkpt>
      <trkpt lat="61.097216817835" lon="14.248608649753">
        <ele>229.2</ele>
        <time>2018-08-11T15:15:24Z</time>
      </trkpt>
      <trkpt lat="61.097187145909" lon="14.2491210353">
        <ele>227.8</ele>
        <time>2018-08-11T15:15:27Z</time>
      </trkpt>
      <trkpt lat="61.097163508951" lon="14.249490509452">
        <ele>226.8</ele>
        <time>2018-08-11T15:15:29Z</time>
      </trkpt>
      <trkpt lat="61.097141129278" lon="14.249873897558">
        <ele>225.4</ele>
        <time>2018-08-11T15:15:31Z</time>
      </trkpt>
      <trkpt lat="61.097116067397" lon="14.250268768867">
        <ele>224.2</ele>
        <time>2018-08-11T15:15:33Z</time>
      </trkpt>
      <trkpt lat="61.097087904213" lon="14.250669339868">
        <ele>223</ele>
        <time>2018-08-11T15:15:35Z</time>
      </trkpt>
      <trkpt lat="61.09705295169" lon="14.251071922525">
        <ele>221.8</ele>
        <time>2018-08-11T15:15:37Z</time>
      </trkpt>
      <trkpt lat="61.097007270335" lon="14.251476181562">
        <ele>220</ele>
        <time>2018-08-11T15:15:39Z</time>
      </trkpt>
      <trkpt lat="61.096947255931" lon="14.251869544129">
        <ele>218</ele>
        <time>2018-08-11T15:15:41Z</time>
      </trkpt>
      <trkpt lat="61.096865867682" lon="14.2522558659">
        <ele>216.2</ele>
        <time>2018-08-11T15:15:43Z</time>
      </trkpt>
      <trkpt lat="61.096765703977" lon="14.25263388959">
        <ele>214.6</ele>
        <time>2018-08-11T15:15:45Z</time>
      </trkpt>
      <trkpt lat="61.096654392345" lon="14.252988024865">
        <ele>212.8</ele>
        <time>2018-08-11T15:15:47Z</time>
      </trkpt>
      <trkpt lat="61.096532016605" lon="14.253320618657">
        <ele>211.2</ele>
        <time>2018-08-11T15:15:49Z</time>
      </trkpt>
      <trkpt lat="61.096403941173" lon="14.253640471961">
        <ele>209.4</ele>
        <time>2018-08-11T15:15:51Z</time>
      </trkpt>
      <trkpt lat="61.096277290664" lon="14.25394817151">
        <ele>207.6</ele>
        <time>2018-08-11T15:15:53Z</time>
      </trkpt>
      <trkpt lat="61.096149969603" lon="14.254258050353">
        <ele>206.2</ele>
        <time>2018-08-11T15:15:55Z</time>
      </trkpt>
      <trkpt lat="61.096020636886" lon="14.254566839549">
        <ele>204.6</ele>
        <time>2018-08-11T15:15:57Z</time>
      </trkpt>
      <trkpt lat="61.09589289673" lon="14.254871605433">
        <ele>203</ele>
        <time>2018-08-11T15:15:59Z</time>
      </trkpt>
      <trkpt lat="61.095770353352" lon="14.255164636657">
        <ele>201.8</ele>
        <time>2018-08-11T15:16:01Z</time>
      </trkpt>
      <trkpt lat="61.095652252381" lon="14.255452806379">
        <ele>201</ele>
        <time>2018-08-11T15:16:03Z</time>
      </trkpt>
      <trkpt lat="61.095489643521" lon="14.255849521706">
        <ele>200.8</ele>
        <time>2018-08-11T15:16:06Z</time>
      </trkpt>
      <trkpt lat="61.095337009122" lon="14.256211535967">
        <ele>200.4</ele>
        <time>2018-08-11T15:16:09Z</time>
      </trkpt>
      <trkpt lat="61.095177836841" lon="14.256600707584">
        <ele>199.4</ele>
        <time>2018-08-11T15:16:12Z</time>
      </trkpt>
      <trkpt lat="61.095008690099" lon="14.2570335489">
        <ele>197.6</ele>
        <time>2018-08-11T15:16:15Z</time>
      </trkpt>
      <trkpt lat="61.094888242196" lon="14.257344182114">
        <ele>196.2</ele>
        <time>2018-08-11T15:16:17Z</time>
      </trkpt>
      <trkpt lat="61.094768297207" lon="14.257647020161">
        <ele>195.8</ele>
        <time>2018-08-11T15:16:19Z</time>
      </trkpt>
      <trkpt lat="61.094653968091" lon="14.257933429684">
        <ele>195</ele>
        <time>2018-08-11T15:16:21Z</time>
      </trkpt>
      <trkpt lat="61.094481300951" lon="14.258348920467">
        <ele>195</ele>
        <time>2018-08-11T15:16:24Z</time>
      </trkpt>
      <trkpt lat="61.094313579132" lon="14.258741696301">
        <ele>194.6</ele>
        <time>2018-08-11T15:16:27Z</time>
      </trkpt>
      <trkpt lat="61.09414443239" lon="14.259146709709">
        <ele>196.4</ele>
        <time>2018-08-11T15:16:30Z</time>
      </trkpt>
      <trkpt lat="61.09398601448" lon="14.259565553252">
        <ele>197.8</ele>
        <time>2018-08-11T15:16:33Z</time>
      </trkpt>
      <trkpt lat="61.093834469728" lon="14.259979535293">
        <ele>199</ele>
        <time>2018-08-11T15:16:36Z</time>
      </trkpt>
      <trkpt lat="61.093702035708" lon="14.260383207597">
        <ele>199.2</ele>
        <time>2018-08-11T15:16:39Z</time>
      </trkpt>
      <trkpt lat="61.093582761271" lon="14.260816719465">
        <ele>198.4</ele>
        <time>2018-08-11T15:16:42Z</time>
      </trkpt>
      <trkpt lat="61.093481927014" lon="14.261309742823">
        <ele>197.6</ele>
        <time>2018-08-11T15:16:45Z</time>
      </trkpt>
      <trkpt lat="61.093432138528" lon="14.261668655781">
        <ele>197</ele>
        <time>2018-08-11T15:16:47Z</time>
      </trkpt>
      <trkpt lat="61.093397437462" lon="14.262051205697">
        <ele>196.2</ele>
        <time>2018-08-11T15:16:49Z</time>
      </trkpt>
      <trkpt lat="61.093386457173" lon="14.262248180347">
        <ele>195.8</ele>
        <time>2018-08-11T15:16:50Z</time>
      </trkpt>
      <trkpt lat="61.093393749426" lon="14.262644979493">
        <ele>195.4</ele>
        <time>2018-08-11T15:16:52Z</time>
      </trkpt>
      <trkpt lat="61.093449153785" lon="14.263000791148">
        <ele>195</ele>
        <time>2018-08-11T15:16:54Z</time>
      </trkpt>
      <trkpt lat="61.093609415713" lon="14.263412593895">
        <ele>194.8</ele>
        <time>2018-08-11T15:16:57Z</time>
      </trkpt>
      <trkpt lat="61.093738496973" lon="14.263620465015">
        <ele>195.2</ele>
        <time>2018-08-11T15:16:59Z</time>
      </trkpt>
      <trkpt lat="61.093839415049" lon="14.26381282962">
        <ele>195.6</ele>
        <time>2018-08-11T15:17:01Z</time>
      </trkpt>
      <trkpt lat="61.093866237129" lon="14.264249358972">
        <ele>198</ele>
        <time>2018-08-11T15:17:05Z</time>
      </trkpt>
      <trkpt lat="61.093845450017" lon="14.264368130495">
        <ele>198.6</ele>
        <time>2018-08-11T15:17:06Z</time>
      </trkpt>
      <trkpt lat="61.093788453097" lon="14.264755541913">
        <ele>199.8</ele>
        <time>2018-08-11T15:17:09Z</time>
      </trkpt>
      <trkpt lat="61.093733216376" lon="14.265125183703">
        <ele>200.8</ele>
        <time>2018-08-11T15:17:12Z</time>
      </trkpt>
      <trkpt lat="61.093663478968" lon="14.265583338357">
        <ele>201.2</ele>
        <time>2018-08-11T15:17:16Z</time>
      </trkpt>
      <trkpt lat="61.09359793251" lon="14.265940072021">
        <ele>201</ele>
        <time>2018-08-11T15:17:19Z</time>
      </trkpt>
      <trkpt lat="61.093564907824" lon="14.266053898223">
        <ele>200.4</ele>
        <time>2018-08-11T15:17:20Z</time>
      </trkpt>
      <trkpt lat="61.093436748573" lon="14.266341397393">
        <ele>199.4</ele>
        <time>2018-08-11T15:17:23Z</time>
      </trkpt>
      <trkpt lat="61.093296519386" lon="14.26658723852">
        <ele>198.6</ele>
        <time>2018-08-11T15:17:26Z</time>
      </trkpt>
      <trkpt lat="61.093243964873" lon="14.266648594028">
        <ele>198</ele>
        <time>2018-08-11T15:17:27Z</time>
      </trkpt>
      <trkpt lat="61.093081439832" lon="14.266880437382">
        <ele>196.4</ele>
        <time>2018-08-11T15:17:30Z</time>
      </trkpt>
      <trkpt lat="61.092986137629" lon="14.267070371236">
        <ele>195.4</ele>
        <time>2018-08-11T15:17:32Z</time>
      </trkpt>
      <trkpt lat="61.092818164353" lon="14.267381926459">
        <ele>193.4</ele>
        <time>2018-08-11T15:17:36Z</time>
      </trkpt>
      <trkpt lat="61.092720682856" lon="14.267506900588">
        <ele>192.8</ele>
        <time>2018-08-11T15:17:38Z</time>
      </trkpt>
      <trkpt lat="61.092519433437" lon="14.267692392035">
        <ele>191.4</ele>
        <time>2018-08-11T15:17:42Z</time>
      </trkpt>
      <trkpt lat="61.092340312234" lon="14.267823149675">
        <ele>189.6</ele>
        <time>2018-08-11T15:17:47Z</time>
      </trkpt>
      <trkpt lat="61.092157838271" lon="14.267904202648">
        <ele>188.2</ele>
        <time>2018-08-11T15:17:51Z</time>
      </trkpt>
      <trkpt lat="61.091930521143" lon="14.268061698549">
        <ele>186.8</ele>
        <time>2018-08-11T15:17:55Z</time>
      </trkpt>
      <trkpt lat="61.091821304986" lon="14.268101764031">
        <ele>186</ele>
        <time>2018-08-11T15:17:57Z</time>
      </trkpt>
      <trkpt lat="61.09161561316" lon="14.268134621079">
        <ele>184.4</ele>
        <time>2018-08-11T15:18:01Z</time>
      </trkpt>
      <trkpt lat="61.091505642632" lon="14.268191198904">
        <ele>184.4</ele>
        <time>2018-08-11T15:18:03Z</time>
      </trkpt>
      <trkpt lat="61.091292323277" lon="14.268245094521">
        <ele>188.4</ele>
        <time>2018-08-11T15:18:07Z</time>
      </trkpt>
      <trkpt lat="61.091088475469" lon="14.268232521671">
        <ele>189.6</ele>
        <time>2018-08-11T15:18:11Z</time>
      </trkpt>
      <trkpt lat="61.090897451968" lon="14.268207711247">
        <ele>192</ele>
        <time>2018-08-11T15:18:15Z</time>
      </trkpt>
      <trkpt lat="61.090851100061" lon="14.268215254957">
        <ele>192.6</ele>
        <time>2018-08-11T15:18:16Z</time>
      </trkpt>
      <trkpt lat="61.090666949718" lon="14.268295302102">
        <ele>193.4</ele>
        <time>2018-08-11T15:18:20Z</time>
      </trkpt>
      <trkpt lat="61.090470561801" lon="14.268425640647">
        <ele>193.4</ele>
        <time>2018-08-11T15:18:24Z</time>
      </trkpt>
      <trkpt lat="61.090284986535" lon="14.268627895894">
        <ele>193.6</ele>
        <time>2018-08-11T15:18:28Z</time>
      </trkpt>
      <trkpt lat="61.09010687116" lon="14.268898882721">
        <ele>195.2</ele>
        <time>2018-08-11T15:18:32Z</time>
      </trkpt>
      <trkpt lat="61.089947112146" lon="14.26913365974">
        <ele>197.2</ele>
        <time>2018-08-11T15:18:36Z</time>
      </trkpt>
      <trkpt lat="61.089758267939" lon="14.2693549419">
        <ele>200</ele>
        <time>2018-08-11T15:18:42Z</time>
      </trkpt>
      <trkpt lat="61.089586019894" lon="14.269528028135">
        <ele>201.4</ele>
        <time>2018-08-11T15:18:47Z</time>
      </trkpt>
      <trkpt lat="61.089429026907" lon="14.269808570328">
        <ele>201.6</ele>
        <time>2018-08-11T15:18:52Z</time>
      </trkpt>
      <trkpt lat="61.089296509068" lon="14.270063799183">
        <ele>201.6</ele>
        <time>2018-08-11T15:18:56Z</time>
      </trkpt>
      <trkpt lat="61.089149239085" lon="14.270309053577">
        <ele>201.6</ele>
        <time>2018-08-11T15:19:00Z</time>
      </trkpt>
      <trkpt lat="61.088982774551" lon="14.270532682669">
        <ele>201.8</ele>
        <time>2018-08-11T15:19:04Z</time>
      </trkpt>
      <trkpt lat="61.088816477655" lon="14.270734015907">
        <ele>204.2</ele>
        <time>2018-08-11T15:19:08Z</time>
      </trkpt>
      <trkpt lat="61.088647917646" lon="14.270928643625">
        <ele>203.8</ele>
        <time>2018-08-11T15:19:12Z</time>
      </trkpt>
      <trkpt lat="61.088482626578" lon="14.271206000696">
        <ele>203.2</ele>
        <time>2018-08-11T15:19:16Z</time>
      </trkpt>
      <trkpt lat="61.08832487922" lon="14.271511353313">
        <ele>203.4</ele>
        <time>2018-08-11T15:19:20Z</time>
      </trkpt>
      <trkpt lat="61.088181884006" lon="14.271792230782">
        <ele>203</ele>
        <time>2018-08-11T15:19:24Z</time>
      </trkpt>
      <trkpt lat="61.088061939017" lon="14.272099595055">
        <ele>202.2</ele>
        <time>2018-08-11T15:19:28Z</time>
      </trkpt>
      <trkpt lat="61.088041487181" lon="14.272186850634">
        <ele>202.2</ele>
        <time>2018-08-11T15:19:29Z</time>
      </trkpt>
      <trkpt lat="61.08800720521" lon="14.272530508534">
        <ele>202.8</ele>
        <time>2018-08-11T15:19:33Z</time>
      </trkpt>
      <trkpt lat="61.087959847475" lon="14.272951196095">
        <ele>202.4</ele>
        <time>2018-08-11T15:19:38Z</time>
      </trkpt>
      <trkpt lat="61.087858929399" lon="14.273343720472">
        <ele>202</ele>
        <time>2018-08-11T15:19:43Z</time>
      </trkpt>
      <trkpt lat="61.087736134564" lon="14.273706992018">
        <ele>200.6</ele>
        <time>2018-08-11T15:19:47Z</time>
      </trkpt>
      <trkpt lat="61.087622978914" lon="14.274073281048">
        <ele>200</ele>
        <time>2018-08-11T15:19:51Z</time>
      </trkpt>
      <trkpt lat="61.087599509594" lon="14.274168415613">
        <ele>199.6</ele>
        <time>2018-08-11T15:19:52Z</time>
      </trkpt>
      <trkpt lat="61.087513846576" lon="14.274528082942">
        <ele>198.6</ele>
        <time>2018-08-11T15:19:56Z</time>
      </trkpt>
      <trkpt lat="61.087475457474" lon="14.274634533072">
        <ele>197.8</ele>
        <time>2018-08-11T15:19:57Z</time>
      </trkpt>
      <trkpt lat="61.087346543852" lon="14.274978190972">
        <ele>194.8</ele>
        <time>2018-08-11T15:20:00Z</time>
      </trkpt>
      <trkpt lat="61.087192568349" lon="14.275328051478">
        <ele>191</ele>
        <time>2018-08-11T15:20:03Z</time>
      </trkpt>
      <trkpt lat="61.08706424146" lon="14.27561705939">
        <ele>186.8</ele>
        <time>2018-08-11T15:20:06Z</time>
      </trkpt>
      <trkpt lat="61.086945805213" lon="14.275946048965">
        <ele>183</ele>
        <time>2018-08-11T15:20:09Z</time>
      </trkpt>
      <trkpt lat="61.086829799717" lon="14.276249557564">
        <ele>180</ele>
        <time>2018-08-11T15:20:12Z</time>
      </trkpt>
      <trkpt lat="61.086701724285" lon="14.276566225746">
        <ele>176.8</ele>
        <time>2018-08-11T15:20:15Z</time>
      </trkpt>
      <trkpt lat="61.086577504527" lon="14.276826986655">
        <ele>176.2</ele>
        <time>2018-08-11T15:20:17Z</time>
      </trkpt>
      <trkpt lat="61.086434006399" lon="14.277108953771">
        <ele>174.4</ele>
        <time>2018-08-11T15:20:19Z</time>
      </trkpt>
      <trkpt lat="61.086292687565" lon="14.27738647848">
        <ele>172.6</ele>
        <time>2018-08-11T15:20:21Z</time>
      </trkpt>
      <trkpt lat="61.086152626016" lon="14.277635001815">
        <ele>171.4</ele>
        <time>2018-08-11T15:20:23Z</time>
      </trkpt>
      <trkpt lat="61.085974175365" lon="14.277961560639">
        <ele>170.8</ele>
        <time>2018-08-11T15:20:26Z</time>
      </trkpt>
      <trkpt lat="61.085848195408" lon="14.278197259667">
        <ele>170.6</ele>
        <time>2018-08-11T15:20:28Z</time>
      </trkpt>
      <trkpt lat="61.085651136939" lon="14.278505545949">
        <ele>172</ele>
        <time>2018-08-11T15:20:31Z</time>
      </trkpt>
      <trkpt lat="61.085461203085" lon="14.278745352108">
        <ele>172.4</ele>
        <time>2018-08-11T15:20:34Z</time>
      </trkpt>
      <trkpt lat="61.08529063142" lon="14.279014411098">
        <ele>172</ele>
        <time>2018-08-11T15:20:37Z</time>
      </trkpt>
      <trkpt lat="61.08511880247" lon="14.27929168435">
        <ele>173</ele>
        <time>2018-08-11T15:20:40Z</time>
      </trkpt>
      <trkpt lat="61.084921911639" lon="14.279524282075">
        <ele>174.6</ele>
        <time>2018-08-11T15:20:43Z</time>
      </trkpt>
      <trkpt lat="61.084728457387" lon="14.27965210605">
        <ele>176.8</ele>
        <time>2018-08-11T15:20:46Z</time>
      </trkpt>
      <trkpt lat="61.084597615928" lon="14.279742882027">
        <ele>178.4</ele>
        <time>2018-08-11T15:20:48Z</time>
      </trkpt>
      <trkpt lat="61.084364347651" lon="14.27987255002">
        <ele>179.8</ele>
        <time>2018-08-11T15:20:52Z</time>
      </trkpt>
      <trkpt lat="61.084266530878" lon="14.279950082595">
        <ele>180.4</ele>
        <time>2018-08-11T15:20:54Z</time>
      </trkpt>
      <trkpt lat="61.084194865633" lon="14.280058125286">
        <ele>180.2</ele>
        <time>2018-08-11T15:20:56Z</time>
      </trkpt>
      <trkpt lat="61.084065952011" lon="14.280371943622">
        <ele>179.6</ele>
        <time>2018-08-11T15:21:00Z</time>
      </trkpt>
      <trkpt lat="61.083903175513" lon="14.280676206592">
        <ele>181</ele>
        <time>2018-08-11T15:21:04Z</time>
      </trkpt>
      <trkpt lat="61.083720533912" lon="14.280995556982">
        <ele>186</ele>
        <time>2018-08-11T15:21:08Z</time>
      </trkpt>
      <trkpt lat="61.083542250899" lon="14.281277859374">
        <ele>188.4</ele>
        <time>2018-08-11T15:21:12Z</time>
      </trkpt>
      <trkpt lat="61.083388945948" lon="14.281527556175">
        <ele>191.6</ele>
        <time>2018-08-11T15:21:17Z</time>
      </trkpt>
      <trkpt lat="61.083233964617" lon="14.281748251602">
        <ele>195.4</ele>
        <time>2018-08-11T15:21:22Z</time>
      </trkpt>
      <trkpt lat="61.083073954146" lon="14.281960816586">
        <ele>198.8</ele>
        <time>2018-08-11T15:21:26Z</time>
      </trkpt>
      <trkpt lat="61.082887121595" lon="14.282176818149">
        <ele>202.2</ele>
        <time>2018-08-11T15:21:31Z</time>
      </trkpt>
      <trkpt lat="61.082693583524" lon="14.282368847478">
        <ele>204.6</ele>
        <time>2018-08-11T15:21:36Z</time>
      </trkpt>
      <trkpt lat="61.082557880563" lon="14.282450151908">
        <ele>204.6</ele>
        <time>2018-08-11T15:21:39Z</time>
      </trkpt>
      <trkpt lat="61.082355122402" lon="14.282534138546">
        <ele>205.2</ele>
        <time>2018-08-11T15:21:43Z</time>
      </trkpt>
      <trkpt lat="61.082156219915" lon="14.282599349728">
        <ele>206.4</ele>
        <time>2018-08-11T15:21:47Z</time>
      </trkpt>
      <trkpt lat="61.081937619963" lon="14.282594069131">
        <ele>207.6</ele>
        <time>2018-08-11T15:21:52Z</time>
      </trkpt>
      <trkpt lat="61.081735113259" lon="14.282535563469">
        <ele>208</ele>
        <time>2018-08-11T15:21:57Z</time>
      </trkpt>
      <trkpt lat="61.08153470203" lon="14.282451995926">
        <ele>209.2</ele>
        <time>2018-08-11T15:22:02Z</time>
      </trkpt>
      <trkpt lat="61.081340158131" lon="14.282308413979">
        <ele>210.2</ele>
        <time>2018-08-11T15:22:08Z</time>
      </trkpt>
      <trkpt lat="61.081177968366" lon="14.282153851743">
        <ele>210.6</ele>
        <time>2018-08-11T15:22:14Z</time>
      </trkpt>
      <trkpt lat="61.081000355905" lon="14.282316628241">
        <ele>211</ele>
        <time>2018-08-11T15:22:20Z</time>
      </trkpt>
      <trkpt lat="61.080974036739" lon="14.282378989577">
        <ele>210.8</ele>
        <time>2018-08-11T15:22:21Z</time>
      </trkpt>
      <trkpt lat="61.080861384003" lon="14.282713930301">
        <ele>210.4</ele>
        <time>2018-08-11T15:22:27Z</time>
      </trkpt>
      <trkpt lat="61.080770775664" lon="14.283054738355">
        <ele>211</ele>
        <time>2018-08-11T15:22:34Z</time>
      </trkpt>
      <trkpt lat="61.080708917242" lon="14.283464361808">
        <ele>210.8</ele>
        <time>2018-08-11T15:22:40Z</time>
      </trkpt>
      <trkpt lat="61.080684442094" lon="14.283876751288">
        <ele>211.4</ele>
        <time>2018-08-11T15:22:45Z</time>
      </trkpt>
      <trkpt lat="61.080682514257" lon="14.284265671448">
        <ele>212.8</ele>
        <time>2018-08-11T15:22:49Z</time>
      </trkpt>
      <trkpt lat="61.080670444321" lon="14.284640845292">
        <ele>211.4</ele>
        <time>2018-08-11T15:22:53Z</time>
      </trkpt>
      <trkpt lat="61.080661475688" lon="14.284872521008">
        <ele>210.2</ele>
        <time>2018-08-11T15:22:55Z</time>
      </trkpt>
      <trkpt lat="61.080597521791" lon="14.285223471161">
        <ele>208.6</ele>
        <time>2018-08-11T15:22:58Z</time>
      </trkpt>
      <trkpt lat="61.080566927856" lon="14.285316845527">
        <ele>208.2</ele>
        <time>2018-08-11T15:22:59Z</time>
      </trkpt>
      <trkpt lat="61.080431811628" lon="14.285575762418">
        <ele>208.4</ele>
        <time>2018-08-11T15:23:03Z</time>
      </trkpt>
      <trkpt lat="61.080289067871" lon="14.285814311292">
        <ele>209</ele>
        <time>2018-08-11T15:23:07Z</time>
      </trkpt>
      <trkpt lat="61.080140372965" lon="14.286092674191">
        <ele>209</ele>
        <time>2018-08-11T15:23:11Z</time>
      </trkpt>
      <trkpt lat="61.07997902139" lon="14.286366594683">
        <ele>208.8</ele>
        <time>2018-08-11T15:23:15Z</time>
      </trkpt>
      <trkpt lat="61.079794871047" lon="14.286607993403">
        <ele>208.8</ele>
        <time>2018-08-11T15:23:19Z</time>
      </trkpt>
      <trkpt lat="61.079629999074" lon="14.286775379946">
        <ele>209.2</ele>
        <time>2018-08-11T15:23:23Z</time>
      </trkpt>
      <trkpt lat="61.079457918667" lon="14.286923152843">
        <ele>209.2</ele>
        <time>2018-08-11T15:23:28Z</time>
      </trkpt>
      <trkpt lat="61.079273349229" lon="14.287078637088">
        <ele>208.6</ele>
        <time>2018-08-11T15:23:33Z</time>
      </trkpt>
      <trkpt lat="61.079088109239" lon="14.287235294799">
        <ele>208</ele>
        <time>2018-08-11T15:23:38Z</time>
      </trkpt>
      <trkpt lat="61.078924494551" lon="14.287391449596">
        <ele>207.2</ele>
        <time>2018-08-11T15:23:42Z</time>
      </trkpt>
      <trkpt lat="61.078820223715" lon="14.287694120005">
        <ele>205.8</ele>
        <time>2018-08-11T15:23:46Z</time>
      </trkpt>
      <trkpt lat="61.078802118811" lon="14.287787997285">
        <ele>205.4</ele>
        <time>2018-08-11T15:23:47Z</time>
      </trkpt>
      <trkpt lat="61.078708073893" lon="14.288217737298">
        <ele>204</ele>
        <time>2018-08-11T15:23:52Z</time>
      </trkpt>
      <trkpt lat="61.078643533263" lon="14.288399959804">
        <ele>203</ele>
        <time>2018-08-11T15:23:54Z</time>
      </trkpt>
      <trkpt lat="61.078498107298" lon="14.288678909436">
        <ele>201.4</ele>
        <time>2018-08-11T15:23:57Z</time>
      </trkpt>
      <trkpt lat="61.07838981315" lon="14.288844787237">
        <ele>200</ele>
        <time>2018-08-11T15:23:59Z</time>
      </trkpt>
      <trkpt lat="61.078260564252" lon="14.289120970842">
        <ele>198.4</ele>
        <time>2018-08-11T15:24:02Z</time>
      </trkpt>
      <trkpt lat="61.078114803011" lon="14.289335212206">
        <ele>197</ele>
        <time>2018-08-11T15:24:05Z</time>
      </trkpt>
      <trkpt lat="61.078060236842" lon="14.289394053144">
        <ele>196.4</ele>
        <time>2018-08-11T15:24:06Z</time>
      </trkpt>
      <trkpt lat="61.077890419548" lon="14.289548866837">
        <ele>194.8</ele>
        <time>2018-08-11T15:24:09Z</time>
      </trkpt>
      <trkpt lat="61.077731834" lon="14.289786326064">
        <ele>192.6</ele>
        <time>2018-08-11T15:24:12Z</time>
      </trkpt>
      <trkpt lat="61.077562184344" lon="14.290064605144">
        <ele>195</ele>
        <time>2018-08-11T15:24:15Z</time>
      </trkpt>
      <trkpt lat="61.077399826941" lon="14.290276415757">
        <ele>196</ele>
        <time>2018-08-11T15:24:18Z</time>
      </trkpt>
      <trkpt lat="61.077302177806" lon="14.290387811208">
        <ele>196.2</ele>
        <time>2018-08-11T15:24:20Z</time>
      </trkpt>
      <trkpt lat="61.077117356911" lon="14.290540613245">
        <ele>197.6</ele>
        <time>2018-08-11T15:24:24Z</time>
      </trkpt>
      <trkpt lat="61.076944857409" lon="14.290715124403">
        <ele>199.6</ele>
        <time>2018-08-11T15:24:29Z</time>
      </trkpt>
      <trkpt lat="61.07679054663" lon="14.290970353258">
        <ele>202.8</ele>
        <time>2018-08-11T15:24:36Z</time>
      </trkpt>
      <trkpt lat="61.07668493469" lon="14.291314262615">
        <ele>205.8</ele>
        <time>2018-08-11T15:24:45Z</time>
      </trkpt>
      <trkpt lat="61.076574461248" lon="14.291662949655">
        <ele>207.4</ele>
        <time>2018-08-11T15:24:53Z</time>
      </trkpt>
      <trkpt lat="61.076435656984" lon="14.291942653658">
        <ele>210.4</ele>
        <time>2018-08-11T15:25:01Z</time>
      </trkpt>
      <trkpt lat="61.076248572976" lon="14.292063520656">
        <ele>212.4</ele>
        <time>2018-08-11T15:25:09Z</time>
      </trkpt>
      <trkpt lat="61.076066937203" lon="14.292214478675">
        <ele>213.4</ele>
        <time>2018-08-11T15:25:17Z</time>
      </trkpt>
      <trkpt lat="61.07591882903" lon="14.292468534064">
        <ele>212.4</ele>
        <time>2018-08-11T15:25:24Z</time>
      </trkpt>
      <trkpt lat="61.075770637038" lon="14.29276810317">
        <ele>211.6</ele>
        <time>2018-08-11T15:25:32Z</time>
      </trkpt>
      <trkpt lat="61.075646752556" lon="14.293084268438">
        <ele>211.4</ele>
        <time>2018-08-11T15:25:38Z</time>
      </trkpt>
      <trkpt lat="61.075555641303" lon="14.293410072891">
        <ele>211</ele>
        <time>2018-08-11T15:25:43Z</time>
      </trkpt>
      <trkpt lat="61.075440641635" lon="14.293737218448">
        <ele>211.2</ele>
        <time>2018-08-11T15:25:48Z</time>
      </trkpt>
      <trkpt lat="61.075331760754" lon="14.294072075353">
        <ele>211.4</ele>
        <time>2018-08-11T15:25:53Z</time>
      </trkpt>
      <trkpt lat="61.075222628416" lon="14.29444029222">
        <ele>211</ele>
        <time>2018-08-11T15:25:58Z</time>
      </trkpt>
      <trkpt lat="61.075203685322" lon="14.294522518659">
        <ele>210.8</ele>
        <time>2018-08-11T15:25:59Z</time>
      </trkpt>
      <trkpt lat="61.075140653434" lon="14.294878833228">
        <ele>211.4</ele>
        <time>2018-08-11T15:26:04Z</time>
      </trkpt>
      <trkpt lat="61.075035963503" lon="14.295211007925">
        <ele>214.6</ele>
        <time>2018-08-11T15:26:10Z</time>
      </trkpt>
      <trkpt lat="61.074917694894" lon="14.295515019438">
        <ele>216.4</ele>
        <time>2018-08-11T15:26:16Z</time>
      </trkpt>
      <trkpt lat="61.07482750565" lon="14.29585264237">
        <ele>218.4</ele>
        <time>2018-08-11T15:26:22Z</time>
      </trkpt>
      <trkpt lat="61.074749470161" lon="14.296189678569">
        <ele>221.8</ele>
        <time>2018-08-11T15:26:29Z</time>
      </trkpt>
      <trkpt lat="61.074685432445" lon="14.296556470513">
        <ele>225.6</ele>
        <time>2018-08-11T15:26:36Z</time>
      </trkpt>
      <trkpt lat="61.074711248697" lon="14.296943714293">
        <ele>226.8</ele>
        <time>2018-08-11T15:26:43Z</time>
      </trkpt>
      <trkpt lat="61.074783165399" lon="14.297331544806">
        <ele>228.2</ele>
        <time>2018-08-11T15:26:51Z</time>
      </trkpt>
      <trkpt lat="61.07486187144" lon="14.297670089747">
        <ele>230.6</ele>
        <time>2018-08-11T15:26:58Z</time>
      </trkpt>
      <trkpt lat="61.074945774259" lon="14.298011652172">
        <ele>233.6</ele>
        <time>2018-08-11T15:27:05Z</time>
      </trkpt>
      <trkpt lat="61.075025989042" lon="14.298357237909">
        <ele>236</ele>
        <time>2018-08-11T15:27:12Z</time>
      </trkpt>
      <trkpt lat="61.075104778902" lon="14.298725538595">
        <ele>237.6</ele>
        <time>2018-08-11T15:27:18Z</time>
      </trkpt>
      <trkpt lat="61.075182227658" lon="14.299123092112">
        <ele>242.2</ele>
        <time>2018-08-11T15:27:25Z</time>
      </trkpt>
      <trkpt lat="61.075216593448" lon="14.299507234589">
        <ele>245.8</ele>
        <time>2018-08-11T15:27:31Z</time>
      </trkpt>
      <trkpt lat="61.075220784398" lon="14.299891125609">
        <ele>249.4</ele>
        <time>2018-08-11T15:27:37Z</time>
      </trkpt>
      <trkpt lat="61.075208379186" lon="14.300279878131">
        <ele>251</ele>
        <time>2018-08-11T15:27:43Z</time>
      </trkpt>
      <trkpt lat="61.075185245142" lon="14.300650609568">
        <ele>251.2</ele>
        <time>2018-08-11T15:27:48Z</time>
      </trkpt>
      <trkpt lat="61.075168732799" lon="14.301077835011">
        <ele>251.6</ele>
        <time>2018-08-11T15:27:54Z</time>
      </trkpt>
      <trkpt lat="61.075198991458" lon="14.301480417668">
        <ele>250.4</ele>
        <time>2018-08-11T15:28:01Z</time>
      </trkpt>
      <trkpt lat="61.075252970894" lon="14.301858860453">
        <ele>248.2</ele>
        <time>2018-08-11T15:28:07Z</time>
      </trkpt>
      <trkpt lat="61.075340394111" lon="14.302212241357">
        <ele>247.2</ele>
        <time>2018-08-11T15:28:13Z</time>
      </trkpt>
      <trkpt lat="61.075435612495" lon="14.302557575637">
        <ele>246.2</ele>
        <time>2018-08-11T15:28:19Z</time>
      </trkpt>
      <trkpt lat="61.075529741232" lon="14.302927552703">
        <ele>245.2</ele>
        <time>2018-08-11T15:28:26Z</time>
      </trkpt>
      <trkpt lat="61.075628899109" lon="14.303253357156">
        <ele>244.4</ele>
        <time>2018-08-11T15:28:32Z</time>
      </trkpt>
      <trkpt lat="61.075719507448" lon="14.303605229318">
        <ele>244</ele>
        <time>2018-08-11T15:28:38Z</time>
      </trkpt>
      <trkpt lat="61.075716406145" lon="14.303829445143">
        <ele>243.4</ele>
        <time>2018-08-11T15:28:41Z</time>
      </trkpt>
      <trkpt lat="61.075675334835" lon="14.304200511856">
        <ele>241.4</ele>
        <time>2018-08-11T15:28:44Z</time>
      </trkpt>
      <trkpt lat="61.075623534693" lon="14.304604435617">
        <ele>241</ele>
        <time>2018-08-11T15:28:47Z</time>
      </trkpt>
      <trkpt lat="61.075566034859" lon="14.305051945258">
        <ele>241.2</ele>
        <time>2018-08-11T15:28:51Z</time>
      </trkpt>
      <trkpt lat="61.075517671296" lon="14.305314634004">
        <ele>241</ele>
        <time>2018-08-11T15:28:54Z</time>
      </trkpt>
      <trkpt lat="61.075358247558" lon="14.305565252814">
        <ele>240.6</ele>
        <time>2018-08-11T15:28:59Z</time>
      </trkpt>
      <trkpt lat="61.075211145213" lon="14.305799946014">
        <ele>240.6</ele>
        <time>2018-08-11T15:29:04Z</time>
      </trkpt>
      <trkpt lat="61.075080555211" lon="14.306054085222">
        <ele>240.6</ele>
        <time>2018-08-11T15:29:09Z</time>
      </trkpt>
      <trkpt lat="61.07493730854" lon="14.306300932177">
        <ele>240.2</ele>
        <time>2018-08-11T15:29:14Z</time>
      </trkpt>
      <trkpt lat="61.074798839552" lon="14.306549539331">
        <ele>240.8</ele>
        <time>2018-08-11T15:29:20Z</time>
      </trkpt>
      <trkpt lat="61.074653078311" lon="14.306829662429">
        <ele>241.8</ele>
        <time>2018-08-11T15:29:29Z</time>
      </trkpt>
      <trkpt lat="61.074498683713" lon="14.307062008697">
        <ele>242.8</ele>
        <time>2018-08-11T15:29:39Z</time>
      </trkpt>
      <trkpt lat="61.074402291863" lon="14.307382113458">
        <ele>244.8</ele>
        <time>2018-08-11T15:29:49Z</time>
      </trkpt>
      <trkpt lat="61.074431796151" lon="14.307774973111">
        <ele>246</ele>
        <time>2018-08-11T15:29:58Z</time>
      </trkpt>
      <trkpt lat="61.074570516596" lon="14.308071189457">
        <ele>246.6</ele>
        <time>2018-08-11T15:30:06Z</time>
      </trkpt>
      <trkpt lat="61.074699094942" lon="14.308384923974">
        <ele>247.2</ele>
        <time>2018-08-11T15:30:14Z</time>
      </trkpt>
      <trkpt lat="61.07480319814" lon="14.308721541078">
        <ele>248</ele>
        <time>2018-08-11T15:30:23Z</time>
      </trkpt>
      <trkpt lat="61.074844017993" lon="14.309058493458">
        <ele>248.8</ele>
        <time>2018-08-11T15:35:44Z</time>
      </trkpt>
      <trkpt lat="61.074913671582" lon="14.309441797745">
        <ele>249</ele>
        <time>2018-08-11T15:35:53Z</time>
      </trkpt>
      <trkpt lat="61.074920041826" lon="14.309818983245">
        <ele>249.6</ele>
        <time>2018-08-11T15:36:01Z</time>
      </trkpt>
      <trkpt lat="61.074759193165" lon="14.310041187414">
        <ele>250.4</ele>
        <time>2018-08-11T15:36:10Z</time>
      </trkpt>
      <trkpt lat="61.074592477174" lon="14.310243777937">
        <ele>251.6</ele>
        <time>2018-08-11T15:36:20Z</time>
      </trkpt>
      <trkpt lat="61.074434813635" lon="14.310472100893">
        <ele>253.6</ele>
        <time>2018-08-11T15:36:32Z</time>
      </trkpt>
      <trkpt lat="61.074393239411" lon="14.310578048109">
        <ele>254.4</ele>
        <time>2018-08-11T15:36:36Z</time>
      </trkpt>
      <trkpt lat="61.074422156966" lon="14.310848615841">
        <ele>254.6</ele>
        <time>2018-08-11T15:36:42Z</time>
      </trkpt>
      <trkpt lat="61.074511005106" lon="14.311240302028">
        <ele>254.2</ele>
        <time>2018-08-11T15:36:48Z</time>
      </trkpt>
      <trkpt lat="61.074589962604" lon="14.311627210532">
        <ele>253</ele>
        <time>2018-08-11T15:36:53Z</time>
      </trkpt>
      <trkpt lat="61.074659448555" lon="14.312045718799">
        <ele>252</ele>
        <time>2018-08-11T15:36:58Z</time>
      </trkpt>
      <trkpt lat="61.074719882054" lon="14.312475710269">
        <ele>251.8</ele>
        <time>2018-08-11T15:37:03Z</time>
      </trkpt>
      <trkpt lat="61.074788865091" lon="14.312889440853">
        <ele>251.2</ele>
        <time>2018-08-11T15:37:08Z</time>
      </trkpt>
      <trkpt lat="61.074863128725" lon="14.313303506713">
        <ele>250</ele>
        <time>2018-08-11T15:37:12Z</time>
      </trkpt>
      <trkpt lat="61.074937811454" lon="14.313676668901">
        <ele>248.8</ele>
        <time>2018-08-11T15:37:15Z</time>
      </trkpt>
      <trkpt lat="61.074982151705" lon="14.313951008488">
        <ele>247.4</ele>
        <time>2018-08-11T15:37:17Z</time>
      </trkpt>
      <trkpt lat="61.074986007379" lon="14.314406480934">
        <ele>246.4</ele>
        <time>2018-08-11T15:37:20Z</time>
      </trkpt>
      <trkpt lat="61.074944181698" lon="14.314826330305">
        <ele>245.6</ele>
        <time>2018-08-11T15:37:23Z</time>
      </trkpt>
      <trkpt lat="61.074935548341" lon="14.314973767926">
        <ele>245.2</ele>
        <time>2018-08-11T15:37:24Z</time>
      </trkpt>
      <trkpt lat="61.074924148957" lon="14.315443824878">
        <ele>244.2</ele>
        <time>2018-08-11T15:37:27Z</time>
      </trkpt>
      <trkpt lat="61.074925406242" lon="14.315873145796">
        <ele>243.4</ele>
        <time>2018-08-11T15:37:30Z</time>
      </trkpt>
      <trkpt lat="61.074934374875" lon="14.316300874153">
        <ele>242.6</ele>
        <time>2018-08-11T15:37:33Z</time>
      </trkpt>
      <trkpt lat="61.074935129246" lon="14.316594324472">
        <ele>242.4</ele>
        <time>2018-08-11T15:37:35Z</time>
      </trkpt>
      <trkpt lat="61.074898835619" lon="14.317029596539">
        <ele>242.2</ele>
        <time>2018-08-11T15:37:38Z</time>
      </trkpt>
      <trkpt lat="61.074840246138" lon="14.317424467848">
        <ele>242</ele>
        <time>2018-08-11T15:37:41Z</time>
      </trkpt>
      <trkpt lat="61.074808562556" lon="14.317689084431">
        <ele>241.8</ele>
        <time>2018-08-11T15:37:43Z</time>
      </trkpt>
      <trkpt lat="61.074789368005" lon="14.318127709258">
        <ele>241.2</ele>
        <time>2018-08-11T15:37:46Z</time>
      </trkpt>
      <trkpt lat="61.074776878974" lon="14.318500033256">
        <ele>240.4</ele>
        <time>2018-08-11T15:37:48Z</time>
      </trkpt>
      <trkpt lat="61.07476212683" lon="14.318933377486">
        <ele>239.4</ele>
        <time>2018-08-11T15:37:50Z</time>
      </trkpt>
      <trkpt lat="61.074757516785" lon="14.319378875471">
        <ele>238.8</ele>
        <time>2018-08-11T15:37:52Z</time>
      </trkpt>
      <trkpt lat="61.074776543698" lon="14.319783637422">
        <ele>238.2</ele>
        <time>2018-08-11T15:37:54Z</time>
      </trkpt>
      <trkpt lat="61.074780818467" lon="14.31996150134">
        <ele>237.8</ele>
        <time>2018-08-11T15:37:55Z</time>
      </trkpt>
      <trkpt lat="61.074761540097" lon="14.320497607664">
        <ele>235.4</ele>
        <time>2018-08-11T15:37:58Z</time>
      </trkpt>
      <trkpt lat="61.0747562595" lon="14.320928353505">
        <ele>234.2</ele>
        <time>2018-08-11T15:38:00Z</time>
      </trkpt>
      <trkpt lat="61.074744776297" lon="14.321336635854">
        <ele>233.2</ele>
        <time>2018-08-11T15:38:02Z</time>
      </trkpt>
      <trkpt lat="61.074717116027" lon="14.321721113607">
        <ele>232.2</ele>
        <time>2018-08-11T15:38:04Z</time>
      </trkpt>
      <trkpt lat="61.074675457984" lon="14.322104417894">
        <ele>230.6</ele>
        <time>2018-08-11T15:38:06Z</time>
      </trkpt>
      <trkpt lat="61.074624579851" lon="14.32253474464">
        <ele>229.2</ele>
        <time>2018-08-11T15:38:08Z</time>
      </trkpt>
      <trkpt lat="61.074541431403" lon="14.322966831585">
        <ele>227.8</ele>
        <time>2018-08-11T15:38:10Z</time>
      </trkpt>
      <trkpt lat="61.074434059264" lon="14.323387100051">
        <ele>226.2</ele>
        <time>2018-08-11T15:38:12Z</time>
      </trkpt>
      <trkpt lat="61.074336493948" lon="14.323784234473">
        <ele>225.2</ele>
        <time>2018-08-11T15:38:14Z</time>
      </trkpt>
      <trkpt lat="61.074268684377" lon="14.324163766905">
        <ele>224.4</ele>
        <time>2018-08-11T15:38:16Z</time>
      </trkpt>
      <trkpt lat="61.074213615294" lon="14.324518656551">
        <ele>223.8</ele>
        <time>2018-08-11T15:38:18Z</time>
      </trkpt>
      <trkpt lat="61.074126359715" lon="14.325050823382">
        <ele>221.2</ele>
        <time>2018-08-11T15:38:21Z</time>
      </trkpt>
      <trkpt lat="61.074055784117" lon="14.325432786565">
        <ele>220</ele>
        <time>2018-08-11T15:38:23Z</time>
      </trkpt>
      <trkpt lat="61.07395914081" lon="14.325820700897">
        <ele>218.8</ele>
        <time>2018-08-11T15:38:25Z</time>
      </trkpt>
      <trkpt lat="61.073849924653" lon="14.326206435935">
        <ele>217.4</ele>
        <time>2018-08-11T15:38:27Z</time>
      </trkpt>
      <trkpt lat="61.073722687411" lon="14.326565516531">
        <ele>216.2</ele>
        <time>2018-08-11T15:38:29Z</time>
      </trkpt>
      <trkpt lat="61.073607520105" lon="14.326865756189">
        <ele>214.8</ele>
        <time>2018-08-11T15:38:31Z</time>
      </trkpt>
      <trkpt lat="61.073572567582" lon="14.326989808309">
        <ele>214.4</ele>
        <time>2018-08-11T15:38:32Z</time>
      </trkpt>
      <trkpt lat="61.073489670591" lon="14.327369340741">
        <ele>212.4</ele>
        <time>2018-08-11T15:38:35Z</time>
      </trkpt>
      <trkpt lat="61.073401073908" lon="14.32780695974">
        <ele>210.2</ele>
        <time>2018-08-11T15:38:38Z</time>
      </trkpt>
      <trkpt lat="61.073321529677" lon="14.328155814418">
        <ele>209</ele>
        <time>2018-08-11T15:38:40Z</time>
      </trkpt>
      <trkpt lat="61.073222120343" lon="14.32851187753">
        <ele>207.8</ele>
        <time>2018-08-11T15:38:42Z</time>
      </trkpt>
      <trkpt lat="61.073128410701" lon="14.328870874307">
        <ele>206.4</ele>
        <time>2018-08-11T15:38:44Z</time>
      </trkpt>
      <trkpt lat="61.073023888408" lon="14.329271948222">
        <ele>204.8</ele>
        <time>2018-08-11T15:38:46Z</time>
      </trkpt>
      <trkpt lat="61.072926742187" lon="14.329682661322">
        <ele>203.6</ele>
        <time>2018-08-11T15:38:48Z</time>
      </trkpt>
      <trkpt lat="61.072847617051" lon="14.330085746893">
        <ele>202.6</ele>
        <time>2018-08-11T15:38:50Z</time>
      </trkpt>
      <trkpt lat="61.072774023969" lon="14.330480115288">
        <ele>201.4</ele>
        <time>2018-08-11T15:38:52Z</time>
      </trkpt>
      <trkpt lat="61.072696156118" lon="14.33083366383">
        <ele>200.6</ele>
        <time>2018-08-11T15:38:54Z</time>
      </trkpt>
      <trkpt lat="61.072589454531" lon="14.331262398015">
        <ele>199.2</ele>
        <time>2018-08-11T15:38:57Z</time>
      </trkpt>
      <trkpt lat="61.07247135356" lon="14.331736729736">
        <ele>197</ele>
        <time>2018-08-11T15:39:00Z</time>
      </trkpt>
      <trkpt lat="61.072373201511" lon="14.332120872213">
        <ele>196</ele>
        <time>2018-08-11T15:39:02Z</time>
      </trkpt>
      <trkpt lat="61.072271193788" lon="14.332500404645">
        <ele>195</ele>
        <time>2018-08-11T15:39:04Z</time>
      </trkpt>
      <trkpt lat="61.072154601559" lon="14.332847750581">
        <ele>194.6</ele>
        <time>2018-08-11T15:39:06Z</time>
      </trkpt>
      <trkpt lat="61.072038093149" lon="14.333151342999">
        <ele>194.4</ele>
        <time>2018-08-11T15:39:08Z</time>
      </trkpt>
      <trkpt lat="61.071871377158" lon="14.333566833782">
        <ele>194.2</ele>
        <time>2018-08-11T15:39:11Z</time>
      </trkpt>
      <trkpt lat="61.071706002271" lon="14.333923399808">
        <ele>195</ele>
        <time>2018-08-11T15:39:14Z</time>
      </trkpt>
      <trkpt lat="61.071558983745" lon="14.334247695519">
        <ele>195.4</ele>
        <time>2018-08-11T15:39:17Z</time>
      </trkpt>
      <trkpt lat="61.071435853634" lon="14.334608284857">
        <ele>196</ele>
        <time>2018-08-11T15:39:20Z</time>
      </trkpt>
      <trkpt lat="61.071318339396" lon="14.334996534465">
        <ele>196.6</ele>
        <time>2018-08-11T15:39:23Z</time>
      </trkpt>
      <trkpt lat="61.071193952" lon="14.335382940055">
        <ele>197</ele>
        <time>2018-08-11T15:39:26Z</time>
      </trkpt>
      <trkpt lat="61.071075348115" lon="14.335765406152">
        <ele>196.6</ele>
        <time>2018-08-11T15:39:29Z</time>
      </trkpt>
      <trkpt lat="61.070983650129" lon="14.336143932756">
        <ele>196.8</ele>
        <time>2018-08-11T15:39:32Z</time>
      </trkpt>
      <trkpt lat="61.070888599383" lon="14.336480968955">
        <ele>196.8</ele>
        <time>2018-08-11T15:39:35Z</time>
      </trkpt>
      <trkpt lat="61.070774437905" lon="14.336881456137">
        <ele>197</ele>
        <time>2018-08-11T15:39:39Z</time>
      </trkpt>
      <trkpt lat="61.070683075195" lon="14.337257468171">
        <ele>196.8</ele>
        <time>2018-08-11T15:39:43Z</time>
      </trkpt>
      <trkpt lat="61.070588443544" lon="14.337652590937">
        <ele>197</ele>
        <time>2018-08-11T15:39:47Z</time>
      </trkpt>
      <trkpt lat="61.070548378062" lon="14.337862641351">
        <ele>197.2</ele>
        <time>2018-08-11T15:39:49Z</time>
      </trkpt>
      <trkpt lat="61.07046221213" lon="14.338295315029">
        <ele>197.4</ele>
        <time>2018-08-11T15:39:53Z</time>
      </trkpt>
      <trkpt lat="61.070399766975" lon="14.338711979278">
        <ele>197.2</ele>
        <time>2018-08-11T15:39:57Z</time>
      </trkpt>
      <trkpt lat="61.070342518598" lon="14.33895907769">
        <ele>196.8</ele>
        <time>2018-08-11T15:39:59Z</time>
      </trkpt>
      <trkpt lat="61.070216203365" lon="14.339328468023">
        <ele>195.8</ele>
        <time>2018-08-11T15:40:02Z</time>
      </trkpt>
      <trkpt lat="61.070084356078" lon="14.339654943028">
        <ele>194.4</ele>
        <time>2018-08-11T15:40:05Z</time>
      </trkpt>
      <trkpt lat="61.069964411089" lon="14.339956859066">
        <ele>193.4</ele>
        <time>2018-08-11T15:40:08Z</time>
      </trkpt>
      <trkpt lat="61.069803478609" lon="14.34027922694">
        <ele>192.2</ele>
        <time>2018-08-11T15:40:12Z</time>
      </trkpt>
      <trkpt lat="61.069644306328" lon="14.340577371123">
        <ele>191.6</ele>
        <time>2018-08-11T15:40:16Z</time>
      </trkpt>
      <trkpt lat="61.069493013033" lon="14.3408944584">
        <ele>191.2</ele>
        <time>2018-08-11T15:40:20Z</time>
      </trkpt>
      <trkpt lat="61.069351275104" lon="14.341219759939">
        <ele>191.2</ele>
        <time>2018-08-11T15:40:24Z</time>
      </trkpt>
      <trkpt lat="61.069205094768" lon="14.341558221061">
        <ele>191</ele>
        <time>2018-08-11T15:40:28Z</time>
      </trkpt>
      <trkpt lat="61.069171231892" lon="14.341651427789">
        <ele>191</ele>
        <time>2018-08-11T15:40:29Z</time>
      </trkpt>
      <trkpt lat="61.069021782615" lon="14.34201679481">
        <ele>190.6</ele>
        <time>2018-08-11T15:40:33Z</time>
      </trkpt>
      <trkpt lat="61.068897143762" lon="14.342288703646">
        <ele>189.6</ele>
        <time>2018-08-11T15:40:36Z</time>
      </trkpt>
      <trkpt lat="61.068773678375" lon="14.342601180878">
        <ele>191.2</ele>
        <time>2018-08-11T15:40:39Z</time>
      </trkpt>
      <trkpt lat="61.068670329548" lon="14.342921034182">
        <ele>191.2</ele>
        <time>2018-08-11T15:40:42Z</time>
      </trkpt>
      <trkpt lat="61.068566896902" lon="14.343231835034">
        <ele>191.8</ele>
        <time>2018-08-11T15:40:45Z</time>
      </trkpt>
      <trkpt lat="61.068401689653" lon="14.343560321695">
        <ele>192.2</ele>
        <time>2018-08-11T15:40:49Z</time>
      </trkpt>
      <trkpt lat="61.068226088848" lon="14.343884365949">
        <ele>193</ele>
        <time>2018-08-11T15:40:53Z</time>
      </trkpt>
      <trkpt lat="61.068095750303" lon="14.344159459907">
        <ele>193.8</ele>
        <time>2018-08-11T15:40:56Z</time>
      </trkpt>
      <trkpt lat="61.067939595506" lon="14.344528347326">
        <ele>194.8</ele>
        <time>2018-08-11T15:41:00Z</time>
      </trkpt>
      <trkpt lat="61.067826272218" lon="14.344819534532">
        <ele>195.2</ele>
        <time>2018-08-11T15:41:03Z</time>
      </trkpt>
      <trkpt lat="61.067711188731" lon="14.345116672887">
        <ele>195.4</ele>
        <time>2018-08-11T15:41:06Z</time>
      </trkpt>
      <trkpt lat="61.067592333389" lon="14.345405261704">
        <ele>195.4</ele>
        <time>2018-08-11T15:41:09Z</time>
      </trkpt>
      <trkpt lat="61.067487811096" lon="14.345709776131">
        <ele>195.4</ele>
        <time>2018-08-11T15:41:12Z</time>
      </trkpt>
      <trkpt lat="61.067380522776" lon="14.345988725763">
        <ele>195.6</ele>
        <time>2018-08-11T15:41:15Z</time>
      </trkpt>
      <trkpt lat="61.067252363525" lon="14.346357110268">
        <ele>195.8</ele>
        <time>2018-08-11T15:41:19Z</time>
      </trkpt>
      <trkpt lat="61.067124120455" lon="14.34674083365">
        <ele>196.2</ele>
        <time>2018-08-11T15:41:23Z</time>
      </trkpt>
      <trkpt lat="61.06698120906" lon="14.347122713014">
        <ele>196.2</ele>
        <time>2018-08-11T15:41:27Z</time>
      </trkpt>
      <trkpt lat="61.066837375656" lon="14.347489588777">
        <ele>196</ele>
        <time>2018-08-11T15:41:31Z</time>
      </trkpt>
      <trkpt lat="61.06668616618" lon="14.347842131491">
        <ele>196</ele>
        <time>2018-08-11T15:41:35Z</time>
      </trkpt>
      <trkpt lat="61.066538812378" lon="14.348175898749">
        <ele>196</ele>
        <time>2018-08-11T15:41:39Z</time>
      </trkpt>
      <trkpt lat="61.066385675065" lon="14.348463984652">
        <ele>195.8</ele>
        <time>2018-08-11T15:41:43Z</time>
      </trkpt>
      <trkpt lat="61.066230693734" lon="14.348758776075">
        <ele>195.4</ele>
        <time>2018-08-11T15:41:47Z</time>
      </trkpt>
      <trkpt lat="61.066111670754" lon="14.34897796276">
        <ele>195</ele>
        <time>2018-08-11T15:41:50Z</time>
      </trkpt>
      <trkpt lat="61.065921066348" lon="14.349258337315">
        <ele>194.6</ele>
        <time>2018-08-11T15:41:54Z</time>
      </trkpt>
      <trkpt lat="61.065772455261" lon="14.349488671927">
        <ele>194.6</ele>
        <time>2018-08-11T15:41:57Z</time>
      </trkpt>
      <trkpt lat="61.065628538038" lon="14.349728394267">
        <ele>194.4</ele>
        <time>2018-08-11T15:42:00Z</time>
      </trkpt>
      <trkpt lat="61.065489482317" lon="14.349970295901">
        <ele>194.4</ele>
        <time>2018-08-11T15:42:03Z</time>
      </trkpt>
      <trkpt lat="61.065330058579" lon="14.350268942998">
        <ele>193.8</ele>
        <time>2018-08-11T15:42:07Z</time>
      </trkpt>
      <trkpt lat="61.065159235457" lon="14.350550574838">
        <ele>193.4</ele>
        <time>2018-08-11T15:42:11Z</time>
      </trkpt>
      <trkpt lat="61.064976342399" lon="14.350855592179">
        <ele>193.2</ele>
        <time>2018-08-11T15:42:15Z</time>
      </trkpt>
      <trkpt lat="61.064799484309" lon="14.351140744417">
        <ele>192.8</ele>
        <time>2018-08-11T15:42:19Z</time>
      </trkpt>
      <trkpt lat="61.064629331739" lon="14.351406702104">
        <ele>193</ele>
        <time>2018-08-11T15:42:23Z</time>
      </trkpt>
      <trkpt lat="61.064458340979" lon="14.351746001416">
        <ele>192.6</ele>
        <time>2018-08-11T15:42:27Z</time>
      </trkpt>
      <trkpt lat="61.064309813711" lon="14.352006427049">
        <ele>192</ele>
        <time>2018-08-11T15:42:30Z</time>
      </trkpt>
      <trkpt lat="61.064151060525" lon="14.352294177676">
        <ele>191.4</ele>
        <time>2018-08-11T15:42:33Z</time>
      </trkpt>
      <trkpt lat="61.063987445837" lon="14.352570109824">
        <ele>191.8</ele>
        <time>2018-08-11T15:42:36Z</time>
      </trkpt>
      <trkpt lat="61.063848725392" lon="14.352835396959">
        <ele>192</ele>
        <time>2018-08-11T15:42:39Z</time>
      </trkpt>
      <trkpt lat="61.063660970832" lon="14.353136810083">
        <ele>192.8</ele>
        <time>2018-08-11T15:42:43Z</time>
      </trkpt>
      <trkpt lat="61.063487130226" lon="14.353271591035">
        <ele>192.4</ele>
        <time>2018-08-11T15:42:46Z</time>
      </trkpt>
      <trkpt lat="61.063361737002" lon="14.353295311812">
        <ele>192</ele>
        <time>2018-08-11T15:42:48Z</time>
      </trkpt>
      <trkpt lat="61.063301387322" lon="14.353292629604">
        <ele>191.8</ele>
        <time>2018-08-11T15:42:49Z</time>
      </trkpt>
      <trkpt lat="61.063089660528" lon="14.35308006462">
        <ele>190.8</ele>
        <time>2018-08-11T15:42:53Z</time>
      </trkpt>
      <trkpt lat="61.063004751881" lon="14.352912091344">
        <ele>190.4</ele>
        <time>2018-08-11T15:42:55Z</time>
      </trkpt>
      <trkpt lat="61.062892015326" lon="14.352612773695">
        <ele>190.2</ele>
        <time>2018-08-11T15:42:59Z</time>
      </trkpt>
      <trkpt lat="61.062749355388" lon="14.352326699448">
        <ele>189</ele>
        <time>2018-08-11T15:43:04Z</time>
      </trkpt>
      <trkpt lat="61.06259244622" lon="14.352058562467">
        <ele>187.2</ele>
        <time>2018-08-11T15:43:09Z</time>
      </trkpt>
      <trkpt lat="61.062459509286" lon="14.351761340293">
        <ele>186.4</ele>
        <time>2018-08-11T15:43:14Z</time>
      </trkpt>
      <trkpt lat="61.062361608694" lon="14.351439140057">
        <ele>186.4</ele>
        <time>2018-08-11T15:43:20Z</time>
      </trkpt>
      <trkpt lat="61.062279382255" lon="14.351034461925">
        <ele>187</ele>
        <time>2018-08-11T15:43:26Z</time>
      </trkpt>
      <trkpt lat="61.062171088107" lon="14.350674794596">
        <ele>188.4</ele>
        <time>2018-08-11T15:43:32Z</time>
      </trkpt>
      <trkpt lat="61.062005629401" lon="14.350426857994">
        <ele>191.2</ele>
        <time>2018-08-11T15:43:37Z</time>
      </trkpt>
      <trkpt lat="61.061808906208" lon="14.350255951053">
        <ele>193.6</ele>
        <time>2018-08-11T15:43:42Z</time>
      </trkpt>
      <trkpt lat="61.061624420589" lon="14.35010197555">
        <ele>195.8</ele>
        <time>2018-08-11T15:43:46Z</time>
      </trkpt>
      <trkpt lat="61.061541439779" lon="14.350004410234">
        <ele>196.8</ele>
        <time>2018-08-11T15:43:48Z</time>
      </trkpt>
      <trkpt lat="61.061413699623" lon="14.349728981">
        <ele>197.6</ele>
        <time>2018-08-11T15:43:52Z</time>
      </trkpt>
      <trkpt lat="61.061282858164" lon="14.34942136527">
        <ele>199.6</ele>
        <time>2018-08-11T15:43:57Z</time>
      </trkpt>
      <trkpt lat="61.061119327295" lon="14.349223971525">
        <ele>202.6</ele>
        <time>2018-08-11T15:44:06Z</time>
      </trkpt>
      <trkpt lat="61.060951354019" lon="14.349049879462">
        <ele>204.6</ele>
        <time>2018-08-11T15:44:15Z</time>
      </trkpt>
      <trkpt lat="61.060817075981" lon="14.348783754137">
        <ele>205.4</ele>
        <time>2018-08-11T15:44:22Z</time>
      </trkpt>
      <trkpt lat="61.060664860677" lon="14.348543193607">
        <ele>206.6</ele>
        <time>2018-08-11T15:44:29Z</time>
      </trkpt>
      <trkpt lat="61.06048439837" lon="14.348404892257">
        <ele>208.6</ele>
        <time>2018-08-11T15:44:41Z</time>
      </trkpt>
      <trkpt lat="61.060281137295" lon="14.348371280838">
        <ele>211.8</ele>
        <time>2018-08-11T15:45:02Z</time>
      </trkpt>
      <trkpt lat="61.060080139333" lon="14.348330460985">
        <ele>213.8</ele>
        <time>2018-08-11T15:45:23Z</time>
      </trkpt>
      <trkpt lat="61.059866233245" lon="14.348278409386">
        <ele>213.4</ele>
        <time>2018-08-11T15:45:28Z</time>
      </trkpt>
      <trkpt lat="61.059682082902" lon="14.348198781336">
        <ele>212.2</ele>
        <time>2018-08-11T15:45:32Z</time>
      </trkpt>
      <trkpt lat="61.059493825428" lon="14.348042123625">
        <ele>210.2</ele>
        <time>2018-08-11T15:45:37Z</time>
      </trkpt>
      <trkpt lat="61.059373545163" lon="14.34799644227">
        <ele>208.4</ele>
        <time>2018-08-11T15:45:40Z</time>
      </trkpt>
      <trkpt lat="61.059197022349" lon="14.348234991144">
        <ele>205.6</ele>
        <time>2018-08-11T15:45:46Z</time>
      </trkpt>
      <trkpt lat="61.059097026282" lon="14.34859323355">
        <ele>203.6</ele>
        <time>2018-08-11T15:45:53Z</time>
      </trkpt>
      <trkpt lat="61.059026618322" lon="14.348989529782">
        <ele>201</ele>
        <time>2018-08-11T15:46:00Z</time>
      </trkpt>
      <trkpt lat="61.058908349713" lon="14.349358752477">
        <ele>198.4</ele>
        <time>2018-08-11T15:46:05Z</time>
      </trkpt>
      <trkpt lat="61.058763510481" lon="14.349718671263">
        <ele>196.8</ele>
        <time>2018-08-11T15:46:10Z</time>
      </trkpt>
      <trkpt lat="61.058633507212" lon="14.349981527647">
        <ele>196.6</ele>
        <time>2018-08-11T15:46:14Z</time>
      </trkpt>
      <trkpt lat="61.058551113135" lon="14.350086552854">
        <ele>196.6</ele>
        <time>2018-08-11T15:46:16Z</time>
      </trkpt>
      <trkpt lat="61.058339386341" lon="14.350124355223">
        <ele>196.2</ele>
        <time>2018-08-11T15:46:20Z</time>
      </trkpt>
      <trkpt lat="61.058177028938" lon="14.350059646955">
        <ele>195</ele>
        <time>2018-08-11T15:46:23Z</time>
      </trkpt>
      <trkpt lat="61.057959099538" lon="14.350011702487">
        <ele>193.8</ele>
        <time>2018-08-11T15:46:27Z</time>
      </trkpt>
      <trkpt lat="61.057848626096" lon="14.350021006396">
        <ele>192.8</ele>
        <time>2018-08-11T15:46:29Z</time>
      </trkpt>
      <trkpt lat="61.057643101908" lon="14.35011203383">
        <ele>191.8</ele>
        <time>2018-08-11T15:46:33Z</time>
      </trkpt>
      <trkpt lat="61.057427435621" lon="14.350236002131">
        <ele>191.8</ele>
        <time>2018-08-11T15:46:37Z</time>
      </trkpt>
      <trkpt lat="61.057205985823" lon="14.350409423642">
        <ele>193.4</ele>
        <time>2018-08-11T15:46:41Z</time>
      </trkpt>
      <trkpt lat="61.05700423349" lon="14.350595501822">
        <ele>195</ele>
        <time>2018-08-11T15:46:45Z</time>
      </trkpt>
      <trkpt lat="61.056814215817" lon="14.35075492556">
        <ele>197</ele>
        <time>2018-08-11T15:46:49Z</time>
      </trkpt>
      <trkpt lat="61.0566429736" lon="14.35088987415">
        <ele>197.8</ele>
        <time>2018-08-11T15:46:52Z</time>
      </trkpt>
      <trkpt lat="61.056473575401" lon="14.351032282631">
        <ele>198.6</ele>
        <time>2018-08-11T15:46:55Z</time>
      </trkpt>
      <trkpt lat="61.056285988479" lon="14.351168237049">
        <ele>199.2</ele>
        <time>2018-08-11T15:46:58Z</time>
      </trkpt>
      <trkpt lat="61.056086163983" lon="14.351343837854">
        <ele>199.4</ele>
        <time>2018-08-11T15:47:01Z</time>
      </trkpt>
      <trkpt lat="61.055890865713" lon="14.351539974314">
        <ele>200.2</ele>
        <time>2018-08-11T15:47:04Z</time>
      </trkpt>
      <trkpt lat="61.055706799189" lon="14.35175572442">
        <ele>200.8</ele>
        <time>2018-08-11T15:47:07Z</time>
      </trkpt>
      <trkpt lat="61.055526336882" lon="14.351998464244">
        <ele>201.4</ele>
        <time>2018-08-11T15:47:10Z</time>
      </trkpt>
      <trkpt lat="61.055344952566" lon="14.352256710583">
        <ele>202.2</ele>
        <time>2018-08-11T15:47:13Z</time>
      </trkpt>
      <trkpt lat="61.055171866331" lon="14.35256457777">
        <ele>203</ele>
        <time>2018-08-11T15:47:16Z</time>
      </trkpt>
      <trkpt lat="61.055012610231" lon="14.352868673102">
        <ele>204.2</ele>
        <time>2018-08-11T15:47:19Z</time>
      </trkpt>
      <trkpt lat="61.054877074908" lon="14.353148041829">
        <ele>205</ele>
        <time>2018-08-11T15:47:22Z</time>
      </trkpt>
      <trkpt lat="61.054726703622" lon="14.353454484093">
        <ele>206</ele>
        <time>2018-08-11T15:47:26Z</time>
      </trkpt>
      <trkpt lat="61.054657720585" lon="14.353595635289">
        <ele>206</ele>
        <time>2018-08-11T15:47:28Z</time>
      </trkpt>
      <trkpt lat="61.054512043163" lon="14.35386461046">
        <ele>207.6</ele>
        <time>2018-08-11T15:47:32Z</time>
      </trkpt>
      <trkpt lat="61.054436438425" lon="14.353980699775">
        <ele>208.4</ele>
        <time>2018-08-11T15:47:34Z</time>
      </trkpt>
      <trkpt lat="61.054245582562" lon="14.354155378571">
        <ele>209.4</ele>
        <time>2018-08-11T15:47:38Z</time>
      </trkpt>
      <trkpt lat="61.054021869651" lon="14.354284124555">
        <ele>209.4</ele>
        <time>2018-08-11T15:47:42Z</time>
      </trkpt>
      <trkpt lat="61.05379648036" lon="14.354396106739">
        <ele>209.2</ele>
        <time>2018-08-11T15:47:46Z</time>
      </trkpt>
      <trkpt lat="61.05357184544" lon="14.354441788094">
        <ele>208.4</ele>
        <time>2018-08-11T15:47:50Z</time>
      </trkpt>
      <trkpt lat="61.053390042029" lon="14.354439357343">
        <ele>207.4</ele>
        <time>2018-08-11T15:47:53Z</time>
      </trkpt>
      <trkpt lat="61.053153253354" lon="14.354403231354">
        <ele>207</ele>
        <time>2018-08-11T15:47:57Z</time>
      </trkpt>
      <trkpt lat="61.052924511303" lon="14.354304157296">
        <ele>206.8</ele>
        <time>2018-08-11T15:48:01Z</time>
      </trkpt>
      <trkpt lat="61.052821749209" lon="14.354218075183">
        <ele>206.6</ele>
        <time>2018-08-11T15:48:03Z</time>
      </trkpt>
      <trkpt lat="61.05263474902" lon="14.35396686964">
        <ele>205.8</ele>
        <time>2018-08-11T15:48:07Z</time>
      </trkpt>
      <trkpt lat="61.052447916469" lon="14.353711305509">
        <ele>205.2</ele>
        <time>2018-08-11T15:48:11Z</time>
      </trkpt>
      <trkpt lat="61.052397708888" lon="14.353665791792">
        <ele>204.8</ele>
        <time>2018-08-11T15:48:12Z</time>
      </trkpt>
      <trkpt lat="61.052173073968" lon="14.353685489257">
        <ele>202.6</ele>
        <time>2018-08-11T15:48:16Z</time>
      </trkpt>
      <trkpt lat="61.052054637721" lon="14.353816498354">
        <ele>201.8</ele>
        <time>2018-08-11T15:48:18Z</time>
      </trkpt>
      <trkpt lat="61.051991354376" lon="14.353906603779">
        <ele>201.4</ele>
        <time>2018-08-11T15:48:19Z</time>
      </trkpt>
      <trkpt lat="61.051791194604" lon="14.354256129009">
        <ele>200.2</ele>
        <time>2018-08-11T15:48:22Z</time>
      </trkpt>
      <trkpt lat="61.051640823318" lon="14.354496689539">
        <ele>199.6</ele>
        <time>2018-08-11T15:48:24Z</time>
      </trkpt>
      <trkpt lat="61.051492379869" lon="14.354746218702">
        <ele>199.2</ele>
        <time>2018-08-11T15:48:26Z</time>
      </trkpt>
      <trkpt lat="61.051293058287" lon="14.355040088116">
        <ele>198.4</ele>
        <time>2018-08-11T15:48:29Z</time>
      </trkpt>
      <trkpt lat="61.051107063926" lon="14.355218035853">
        <ele>197.8</ele>
        <time>2018-08-11T15:48:32Z</time>
      </trkpt>
      <trkpt lat="61.050926853076" lon="14.355335550091">
        <ele>197.2</ele>
        <time>2018-08-11T15:48:35Z</time>
      </trkpt>
      <trkpt lat="61.050740523439" lon="14.355420458738">
        <ele>196.8</ele>
        <time>2018-08-11T15:48:38Z</time>
      </trkpt>
      <trkpt lat="61.050538352011" lon="14.355474354355">
        <ele>196.6</ele>
        <time>2018-08-11T15:48:41Z</time>
      </trkpt>
      <trkpt lat="61.050334001289" lon="14.355520454805">
        <ele>196.6</ele>
        <time>2018-08-11T15:48:44Z</time>
      </trkpt>
      <trkpt lat="61.050147671652" lon="14.355555910242">
        <ele>197</ele>
        <time>2018-08-11T15:48:47Z</time>
      </trkpt>
      <trkpt lat="61.049913229909" lon="14.35561223661">
        <ele>197.4</ele>
        <time>2018-08-11T15:48:51Z</time>
      </trkpt>
      <trkpt lat="61.049684571677" lon="14.355665629313">
        <ele>197.8</ele>
        <time>2018-08-11T15:48:55Z</time>
      </trkpt>
      <trkpt lat="61.049457338368" lon="14.355723045328">
        <ele>198</ele>
        <time>2018-08-11T15:48:59Z</time>
      </trkpt>
      <trkpt lat="61.049400676724" lon="14.355748610123">
        <ele>198</ele>
        <time>2018-08-11T15:49:00Z</time>
      </trkpt>
      <trkpt lat="61.049237816407" lon="14.355942567289">
        <ele>198</ele>
        <time>2018-08-11T15:49:03Z</time>
      </trkpt>
      <trkpt lat="61.049153578312" lon="14.356150522228">
        <ele>197.8</ele>
        <time>2018-08-11T15:49:05Z</time>
      </trkpt>
      <trkpt lat="61.04903137021" lon="14.356487055513">
        <ele>198.2</ele>
        <time>2018-08-11T15:49:08Z</time>
      </trkpt>
      <trkpt lat="61.04890228895" lon="14.356798107822">
        <ele>198.8</ele>
        <time>2018-08-11T15:49:11Z</time>
      </trkpt>
      <trkpt lat="61.048761305392" lon="14.357104382448">
        <ele>199</ele>
        <time>2018-08-11T15:49:14Z</time>
      </trkpt>
      <trkpt lat="61.048617723445" lon="14.357336477259">
        <ele>199.6</ele>
        <time>2018-08-11T15:49:17Z</time>
      </trkpt>
      <trkpt lat="61.048529964952" lon="14.357475449161">
        <ele>199.8</ele>
        <time>2018-08-11T15:49:19Z</time>
      </trkpt>
      <trkpt lat="61.048436003853" lon="14.357794128999">
        <ele>200</ele>
        <time>2018-08-11T15:49:22Z</time>
      </trkpt>
      <trkpt lat="61.048398452941" lon="14.35819972914">
        <ele>200.4</ele>
        <time>2018-08-11T15:49:25Z</time>
      </trkpt>
      <trkpt lat="61.048368278101" lon="14.358600719236">
        <ele>200.8</ele>
        <time>2018-08-11T15:49:28Z</time>
      </trkpt>
      <trkpt lat="61.048337516528" lon="14.358969522836">
        <ele>201</ele>
        <time>2018-08-11T15:49:31Z</time>
      </trkpt>
      <trkpt lat="61.048283872368" lon="14.359384678343">
        <ele>201.8</ele>
        <time>2018-08-11T15:49:35Z</time>
      </trkpt>
      <trkpt lat="61.048213715865" lon="14.359798576565">
        <ele>202.4</ele>
        <time>2018-08-11T15:49:39Z</time>
      </trkpt>
      <trkpt lat="61.04815462347" lon="14.360162267206">
        <ele>203.4</ele>
        <time>2018-08-11T15:49:43Z</time>
      </trkpt>
      <trkpt lat="61.048090837211" lon="14.360556300325">
        <ele>204.4</ele>
        <time>2018-08-11T15:49:48Z</time>
      </trkpt>
      <trkpt lat="61.048025374572" lon="14.360925355382">
        <ele>205</ele>
        <time>2018-08-11T15:49:53Z</time>
      </trkpt>
      <trkpt lat="61.047921019917" lon="14.361300613045">
        <ele>205.6</ele>
        <time>2018-08-11T15:49:58Z</time>
      </trkpt>
      <trkpt lat="61.047796213426" lon="14.361631195181">
        <ele>205.8</ele>
        <time>2018-08-11T15:50:02Z</time>
      </trkpt>
      <trkpt lat="61.04764751852" lon="14.361934117047">
        <ele>205.6</ele>
        <time>2018-08-11T15:50:06Z</time>
      </trkpt>
      <trkpt lat="61.047611979264" lon="14.361998657677">
        <ele>205.4</ele>
        <time>2018-08-11T15:50:07Z</time>
      </trkpt>
      <trkpt lat="61.047469989878" lon="14.362311805461">
        <ele>205.4</ele>
        <time>2018-08-11T15:50:11Z</time>
      </trkpt>
      <trkpt lat="61.047350715441" lon="14.362607518893">
        <ele>206.2</ele>
        <time>2018-08-11T15:50:15Z</time>
      </trkpt>
      <trkpt lat="61.047225238398" lon="14.362965174566">
        <ele>206.6</ele>
        <time>2018-08-11T15:50:20Z</time>
      </trkpt>
      <trkpt lat="61.047116776612" lon="14.363321321497">
        <ele>207</ele>
        <time>2018-08-11T15:50:25Z</time>
      </trkpt>
      <trkpt lat="61.046996831623" lon="14.363706805078">
        <ele>206.8</ele>
        <time>2018-08-11T15:50:30Z</time>
      </trkpt>
      <trkpt lat="61.046882083412" lon="14.364027412753">
        <ele>206.6</ele>
        <time>2018-08-11T15:50:34Z</time>
      </trkpt>
      <trkpt lat="61.046851908572" lon="14.364111147934">
        <ele>206.4</ele>
        <time>2018-08-11T15:50:35Z</time>
      </trkpt>
      <trkpt lat="61.046731041574" lon="14.36446519939">
        <ele>206.4</ele>
        <time>2018-08-11T15:50:39Z</time>
      </trkpt>
      <trkpt lat="61.046620065218" lon="14.364843642175">
        <ele>206.6</ele>
        <time>2018-08-11T15:50:43Z</time>
      </trkpt>
      <trkpt lat="61.046520823522" lon="14.365217223458">
        <ele>206.8</ele>
        <time>2018-08-11T15:50:47Z</time>
      </trkpt>
      <trkpt lat="61.046419234894" lon="14.365594576596">
        <ele>207</ele>
        <time>2018-08-11T15:50:51Z</time>
      </trkpt>
      <trkpt lat="61.046306079244" lon="14.365974025209">
        <ele>206.6</ele>
        <time>2018-08-11T15:50:55Z</time>
      </trkpt>
      <trkpt lat="61.046186972445" lon="14.366365292301">
        <ele>206</ele>
        <time>2018-08-11T15:50:59Z</time>
      </trkpt>
      <trkpt lat="61.046066273085" lon="14.366747926036">
        <ele>205.2</ele>
        <time>2018-08-11T15:51:03Z</time>
      </trkpt>
      <trkpt lat="61.045993015279" lon="14.366944230134">
        <ele>205</ele>
        <time>2018-08-11T15:51:05Z</time>
      </trkpt>
      <trkpt lat="61.04585798287" lon="14.367195603315">
        <ele>204.6</ele>
        <time>2018-08-11T15:51:08Z</time>
      </trkpt>
      <trkpt lat="61.045700906064" lon="14.367463153563">
        <ele>204</ele>
        <time>2018-08-11T15:51:12Z</time>
      </trkpt>
      <trkpt lat="61.045617841435" lon="14.367607406062">
        <ele>203.6</ele>
        <time>2018-08-11T15:51:14Z</time>
      </trkpt>
      <trkpt lat="61.045435199834" lon="14.367905382607">
        <ele>202.4</ele>
        <time>2018-08-11T15:51:18Z</time>
      </trkpt>
      <trkpt lat="61.04528801367" lon="14.368160276186">
        <ele>201.2</ele>
        <time>2018-08-11T15:51:21Z</time>
      </trkpt>
      <trkpt lat="61.045138480574" lon="14.368438052352">
        <ele>200.6</ele>
        <time>2018-08-11T15:51:24Z</time>
      </trkpt>
      <trkpt lat="61.045002023242" lon="14.368699986727">
        <ele>200.2</ele>
        <time>2018-08-11T15:51:27Z</time>
      </trkpt>
      <trkpt lat="61.04484042021" lon="14.369031574691">
        <ele>199.8</ele>
        <time>2018-08-11T15:51:31Z</time>
      </trkpt>
      <trkpt lat="61.044717373918" lon="14.369316894567">
        <ele>199.6</ele>
        <time>2018-08-11T15:51:35Z</time>
      </trkpt>
      <trkpt lat="61.044556357619" lon="14.369617804777">
        <ele>199.4</ele>
        <time>2018-08-11T15:51:40Z</time>
      </trkpt>
      <trkpt lat="61.044389222533" lon="14.369936987529">
        <ele>198.4</ele>
        <time>2018-08-11T15:51:45Z</time>
      </trkpt>
      <trkpt lat="61.044264164585" lon="14.370207890537">
        <ele>197.8</ele>
        <time>2018-08-11T15:51:48Z</time>
      </trkpt>
      <trkpt lat="61.044114966765" lon="14.370532186248">
        <ele>197.2</ele>
        <time>2018-08-11T15:51:51Z</time>
      </trkpt>
      <trkpt lat="61.04394523329" lon="14.370908114463">
        <ele>196.8</ele>
        <time>2018-08-11T15:51:54Z</time>
      </trkpt>
      <trkpt lat="61.04380441737" lon="14.371301896125">
        <ele>199.4</ele>
        <time>2018-08-11T15:51:57Z</time>
      </trkpt>
      <trkpt lat="61.043721017465" lon="14.371648655328">
        <ele>200.2</ele>
        <time>2018-08-11T15:52:00Z</time>
      </trkpt>
      <trkpt lat="61.043627726918" lon="14.372078982074">
        <ele>201.4</ele>
        <time>2018-08-11T15:52:04Z</time>
      </trkpt>
      <trkpt lat="61.043524797186" lon="14.372477206143">
        <ele>201.8</ele>
        <time>2018-08-11T15:52:08Z</time>
      </trkpt>
      <trkpt lat="61.043471153026" lon="14.372681305408">
        <ele>201.8</ele>
        <time>2018-08-11T15:52:10Z</time>
      </trkpt>
      <trkpt lat="61.043374761176" lon="14.372976013012">
        <ele>201.2</ele>
        <time>2018-08-11T15:52:13Z</time>
      </trkpt>
      <trkpt lat="61.043223635519" lon="14.373313468306">
        <ele>200.4</ele>
        <time>2018-08-11T15:52:17Z</time>
      </trkpt>
      <trkpt lat="61.043056919528" lon="14.373607505358">
        <ele>199.4</ele>
        <time>2018-08-11T15:52:21Z</time>
      </trkpt>
      <trkpt lat="61.042894394487" lon="14.373883688963">
        <ele>199</ele>
        <time>2018-08-11T15:52:25Z</time>
      </trkpt>
      <trkpt lat="61.042738658785" lon="14.374083932554">
        <ele>198</ele>
        <time>2018-08-11T15:52:29Z</time>
      </trkpt>
      <trkpt lat="61.042577223391" lon="14.37424771488">
        <ele>197</ele>
        <time>2018-08-11T15:52:34Z</time>
      </trkpt>
      <trkpt lat="61.042408076649" lon="14.374474109999">
        <ele>197</ele>
        <time>2018-08-11T15:52:41Z</time>
      </trkpt>
      <trkpt lat="61.042248485273" lon="14.374647028596">
        <ele>197.2</ele>
        <time>2018-08-11T15:52:51Z</time>
      </trkpt>
      <trkpt lat="61.042081769282" lon="14.374911896636">
        <ele>197.4</ele>
        <time>2018-08-11T15:54:29Z</time>
      </trkpt>
      <trkpt lat="61.041932822919" lon="14.375136531556">
        <ele>198</ele>
        <time>2018-08-11T15:54:33Z</time>
      </trkpt>
      <trkpt lat="61.041772225715" lon="14.375362256123">
        <ele>198.2</ele>
        <time>2018-08-11T15:54:37Z</time>
      </trkpt>
      <trkpt lat="61.04159578672" lon="14.375575743116">
        <ele>198.4</ele>
        <time>2018-08-11T15:54:41Z</time>
      </trkpt>
      <trkpt lat="61.041416497879" lon="14.375744135487">
        <ele>198.8</ele>
        <time>2018-08-11T15:54:45Z</time>
      </trkpt>
      <trkpt lat="61.041370481248" lon="14.375777160173">
        <ele>198.8</ele>
        <time>2018-08-11T15:54:46Z</time>
      </trkpt>
      <trkpt lat="61.041224552369" lon="14.375844718287">
        <ele>198.8</ele>
        <time>2018-08-11T15:54:49Z</time>
      </trkpt>
      <trkpt lat="61.041025398425" lon="14.375789649204">
        <ele>199.2</ele>
        <time>2018-08-11T15:54:53Z</time>
      </trkpt>
      <trkpt lat="61.040979046518" lon="14.375757127432">
        <ele>199.2</ele>
        <time>2018-08-11T15:54:54Z</time>
      </trkpt>
      <trkpt lat="61.040769163742" lon="14.375635925158">
        <ele>199.4</ele>
        <time>2018-08-11T15:54:58Z</time>
      </trkpt>
      <trkpt lat="61.040536817474" lon="14.375574150555">
        <ele>199.6</ele>
        <time>2018-08-11T15:55:02Z</time>
      </trkpt>
      <trkpt lat="61.040318217522" lon="14.375542383154">
        <ele>200</ele>
        <time>2018-08-11T15:55:06Z</time>
      </trkpt>
      <trkpt lat="61.040114034438" lon="14.375482117293">
        <ele>200.2</ele>
        <time>2018-08-11T15:55:10Z</time>
      </trkpt>
      <trkpt lat="61.039928542991" lon="14.375370721842">
        <ele>200.8</ele>
        <time>2018-08-11T15:55:14Z</time>
      </trkpt>
      <trkpt lat="61.039713631075" lon="14.375242730229">
        <ele>201.4</ele>
        <time>2018-08-11T15:55:19Z</time>
      </trkpt>
      <trkpt lat="61.039536521528" lon="14.375137705022">
        <ele>201.6</ele>
        <time>2018-08-11T15:55:23Z</time>
      </trkpt>
      <trkpt lat="61.039355053393" lon="14.375053131651">
        <ele>201.2</ele>
        <time>2018-08-11T15:55:27Z</time>
      </trkpt>
      <trkpt lat="61.039164951901" lon="14.374958080905">
        <ele>200.8</ele>
        <time>2018-08-11T15:55:31Z</time>
      </trkpt>
      <trkpt lat="61.038962612835" lon="14.374823635229">
        <ele>200.6</ele>
        <time>2018-08-11T15:55:35Z</time>
      </trkpt>
      <trkpt lat="61.038759938493" lon="14.374658511799">
        <ele>200.6</ele>
        <time>2018-08-11T15:55:39Z</time>
      </trkpt>
      <trkpt lat="61.038570507553" lon="14.374539740276">
        <ele>200.8</ele>
        <time>2018-08-11T15:55:43Z</time>
      </trkpt>
      <trkpt lat="61.038524910017" lon="14.374529933453">
        <ele>201</ele>
        <time>2018-08-11T15:55:44Z</time>
      </trkpt>
      <trkpt lat="61.038354003076" lon="14.374640155438">
        <ele>201.4</ele>
        <time>2018-08-11T15:55:48Z</time>
      </trkpt>
      <trkpt lat="61.038318296182" lon="14.3746986611">
        <ele>201.4</ele>
        <time>2018-08-11T15:55:49Z</time>
      </trkpt>
      <trkpt lat="61.038180916841" lon="14.374966462805">
        <ele>201.2</ele>
        <time>2018-08-11T15:55:53Z</time>
      </trkpt>
      <trkpt lat="61.038028701537" lon="14.375291512887">
        <ele>201</ele>
        <time>2018-08-11T15:55:57Z</time>
      </trkpt>
      <trkpt lat="61.037860979718" lon="14.37558798069">
        <ele>201.4</ele>
        <time>2018-08-11T15:56:01Z</time>
      </trkpt>
      <trkpt lat="61.037780262021" lon="14.375717481045">
        <ele>201.6</ele>
        <time>2018-08-11T15:56:03Z</time>
      </trkpt>
      <trkpt lat="61.037691078605" lon="14.375832983627">
        <ele>201.6</ele>
        <time>2018-08-11T15:56:05Z</time>
      </trkpt>
      <trkpt lat="61.037522770053" lon="14.37600707569">
        <ele>201.4</ele>
        <time>2018-08-11T15:56:09Z</time>
      </trkpt>
      <trkpt lat="61.037358820089" lon="14.376210672041">
        <ele>200.6</ele>
        <time>2018-08-11T15:56:13Z</time>
      </trkpt>
      <trkpt lat="61.037216663065" lon="14.376439162635">
        <ele>199.6</ele>
        <time>2018-08-11T15:56:17Z</time>
      </trkpt>
      <trkpt lat="61.03708045719" lon="14.376729679289">
        <ele>198</ele>
        <time>2018-08-11T15:56:22Z</time>
      </trkpt>
      <trkpt lat="61.036949951007" lon="14.377003348324">
        <ele>195.6</ele>
        <time>2018-08-11T15:56:27Z</time>
      </trkpt>
      <trkpt lat="61.036791114002" lon="14.377277687911">
        <ele>194.8</ele>
        <time>2018-08-11T15:56:32Z</time>
      </trkpt>
      <trkpt lat="61.036614926464" lon="14.37753677244">
        <ele>195</ele>
        <time>2018-08-11T15:56:37Z</time>
      </trkpt>
      <trkpt lat="61.036443348971" lon="14.377808262181">
        <ele>195.6</ele>
        <time>2018-08-11T15:56:42Z</time>
      </trkpt>
      <trkpt lat="61.036337737031" lon="14.377945473884">
        <ele>195.8</ele>
        <time>2018-08-11T15:56:45Z</time>
      </trkpt>
      <trkpt lat="61.036149647195" lon="14.377894763389">
        <ele>196.4</ele>
        <time>2018-08-11T15:56:49Z</time>
      </trkpt>
      <trkpt lat="61.036105055487" lon="14.377856541925">
        <ele>196.6</ele>
        <time>2018-08-11T15:56:50Z</time>
      </trkpt>
      <trkpt lat="61.035912355606" lon="14.377733830909">
        <ele>197.6</ele>
        <time>2018-08-11T15:56:55Z</time>
      </trkpt>
      <trkpt lat="61.035722421752" lon="14.377626123494">
        <ele>199</ele>
        <time>2018-08-11T15:57:01Z</time>
      </trkpt>
      <trkpt lat="61.035535840658" lon="14.377459239865">
        <ele>202</ele>
        <time>2018-08-11T15:57:08Z</time>
      </trkpt>
      <trkpt lat="61.035354707799" lon="14.377301743964">
        <ele>205.2</ele>
        <time>2018-08-11T15:57:15Z</time>
      </trkpt>
      <trkpt lat="61.035220597399" lon="14.377152127049">
        <ele>208.2</ele>
        <time>2018-08-11T15:57:22Z</time>
      </trkpt>
      <trkpt lat="61.035165528316" lon="14.377227731787">
        <ele>209.6</ele>
        <time>2018-08-11T15:57:26Z</time>
      </trkpt>
      <trkpt lat="61.035142310453" lon="14.377258074265">
        <ele>210.4</ele>
        <time>2018-08-11T15:57:39Z</time>
      </trkpt>
      <trkpt lat="61.034955477902" lon="14.377445745006">
        <ele>209.8</ele>
        <time>2018-08-11T15:57:47Z</time>
      </trkpt>
      <trkpt lat="61.034776859613" lon="14.37764741352">
        <ele>211.4</ele>
        <time>2018-08-11T15:57:53Z</time>
      </trkpt>
      <trkpt lat="61.034609892165" lon="14.37786031378">
        <ele>212.4</ele>
        <time>2018-08-11T15:57:59Z</time>
      </trkpt>
      <trkpt lat="61.034464047105" lon="14.378078746094">
        <ele>212</ele>
        <time>2018-08-11T15:58:04Z</time>
      </trkpt>
      <trkpt lat="61.034305545376" lon="14.378380159218">
        <ele>211.6</ele>
        <time>2018-08-11T15:58:10Z</time>
      </trkpt>
      <trkpt lat="61.034168082216" lon="14.378652151873">
        <ele>211</ele>
        <time>2018-08-11T15:58:14Z</time>
      </trkpt>
      <trkpt lat="61.034002874967" lon="14.378951134246">
        <ele>210.8</ele>
        <time>2018-08-11T15:58:18Z</time>
      </trkpt>
      <trkpt lat="61.033866752911" lon="14.37934977741">
        <ele>209.8</ele>
        <time>2018-08-11T15:58:22Z</time>
      </trkpt>
      <trkpt lat="61.033766337749" lon="14.379692010387">
        <ele>208</ele>
        <time>2018-08-11T15:58:25Z</time>
      </trkpt>
      <trkpt lat="61.033682015835" lon="14.38004212235">
        <ele>206.6</ele>
        <time>2018-08-11T15:58:28Z</time>
      </trkpt>
      <trkpt lat="61.033565842701" lon="14.38044361536">
        <ele>204.2</ele>
        <time>2018-08-11T15:58:32Z</time>
      </trkpt>
      <trkpt lat="61.033481772244" lon="14.380756679325">
        <ele>202.6</ele>
        <time>2018-08-11T15:58:35Z</time>
      </trkpt>
      <trkpt lat="61.033349505862" lon="14.381039233174">
        <ele>201</ele>
        <time>2018-08-11T15:58:38Z</time>
      </trkpt>
      <trkpt lat="61.033216485109" lon="14.381291779821">
        <ele>199.4</ele>
        <time>2018-08-11T15:58:41Z</time>
      </trkpt>
      <trkpt lat="61.033078854311" lon="14.381476600716">
        <ele>198.2</ele>
        <time>2018-08-11T15:58:44Z</time>
      </trkpt>
      <trkpt lat="61.032857823608" lon="14.38154080607">
        <ele>197.6</ele>
        <time>2018-08-11T15:58:48Z</time>
      </trkpt>
      <trkpt lat="61.0327461767" lon="14.381531250704">
        <ele>197.6</ele>
        <time>2018-08-11T15:58:50Z</time>
      </trkpt>
      <trkpt lat="61.032700579164" lon="14.381521862976">
        <ele>197.6</ele>
        <time>2018-08-11T15:58:51Z</time>
      </trkpt>
      <trkpt lat="61.032520619771" lon="14.381453215215">
        <ele>198</ele>
        <time>2018-08-11T15:58:56Z</time>
      </trkpt>
      <trkpt lat="61.032343342586" lon="14.381347854732">
        <ele>199.2</ele>
        <time>2018-08-11T15:59:01Z</time>
      </trkpt>
      <trkpt lat="61.032182745382" lon="14.381151550634">
        <ele>200.4</ele>
        <time>2018-08-11T15:59:07Z</time>
      </trkpt>
      <trkpt lat="61.032014688287" lon="14.380975614553">
        <ele>201.8</ele>
        <time>2018-08-11T15:59:12Z</time>
      </trkpt>
      <trkpt lat="61.031824922071" lon="14.380888191336">
        <ele>203.6</ele>
        <time>2018-08-11T15:59:17Z</time>
      </trkpt>
      <trkpt lat="61.03162216391" lon="14.38084091742">
        <ele>205.4</ele>
        <time>2018-08-11T15:59:22Z</time>
      </trkpt>
      <trkpt lat="61.031426111269" lon="14.380808814743">
        <ele>207</ele>
        <time>2018-08-11T15:59:27Z</time>
      </trkpt>
      <trkpt lat="61.031230226266" lon="14.380799762291">
        <ele>208.8</ele>
        <time>2018-08-11T15:59:32Z</time>
      </trkpt>
      <trkpt lat="61.031038951308" lon="14.380816274634">
        <ele>210.4</ele>
        <time>2018-08-11T15:59:37Z</time>
      </trkpt>
      <trkpt lat="61.030832086016" lon="14.380862375084">
        <ele>210.8</ele>
        <time>2018-08-11T15:59:42Z</time>
      </trkpt>
      <trkpt lat="61.030653719184" lon="14.380916103063">
        <ele>210.6</ele>
        <time>2018-08-11T15:59:46Z</time>
      </trkpt>
      <trkpt lat="61.030440818924" lon="14.381001598443">
        <ele>211.2</ele>
        <time>2018-08-11T15:59:51Z</time>
      </trkpt>
      <trkpt lat="61.030263290282" lon="14.381076867905">
        <ele>211.8</ele>
        <time>2018-08-11T15:59:55Z</time>
      </trkpt>
      <trkpt lat="61.030081319233" lon="14.381135625024">
        <ele>212</ele>
        <time>2018-08-11T15:59:59Z</time>
      </trkpt>
      <trkpt lat="61.030033961498" lon="14.381140570345">
        <ele>212</ele>
        <time>2018-08-11T16:00:00Z</time>
      </trkpt>
      <trkpt lat="61.029846793671" lon="14.381110311686">
        <ele>212.4</ele>
        <time>2018-08-11T16:00:04Z</time>
      </trkpt>
      <trkpt lat="61.029633390497" lon="14.38103621569">
        <ele>213.6</ele>
        <time>2018-08-11T16:00:09Z</time>
      </trkpt>
      <trkpt lat="61.029431219069" lon="14.380956168545">
        <ele>214.8</ele>
        <time>2018-08-11T16:00:15Z</time>
      </trkpt>
      <trkpt lat="61.029244973251" lon="14.380845024551">
        <ele>215.2</ele>
        <time>2018-08-11T16:00:21Z</time>
      </trkpt>
      <trkpt lat="61.029071384102" lon="14.38073530548">
        <ele>215.4</ele>
        <time>2018-08-11T16:00:29Z</time>
      </trkpt>
      <trkpt lat="61.028879354773" lon="14.380795319884">
        <ele>214.2</ele>
        <time>2018-08-11T16:00:36Z</time>
      </trkpt>
      <trkpt lat="61.028741975432" lon="14.381044346133">
        <ele>212.8</ele>
        <time>2018-08-11T16:00:42Z</time>
      </trkpt>
      <trkpt lat="61.028576935821" lon="14.381332432036">
        <ele>210.8</ele>
        <time>2018-08-11T16:00:48Z</time>
      </trkpt>
      <trkpt lat="61.028421032481" lon="14.381567292874">
        <ele>209.8</ele>
        <time>2018-08-11T16:00:53Z</time>
      </trkpt>
      <trkpt lat="61.028250376997" lon="14.381801064065">
        <ele>208.4</ele>
        <time>2018-08-11T16:00:58Z</time>
      </trkpt>
      <trkpt lat="61.028097239684" lon="14.382026788632">
        <ele>208.2</ele>
        <time>2018-08-11T16:01:02Z</time>
      </trkpt>
      <trkpt lat="61.02793412791" lon="14.382242203462">
        <ele>208.6</ele>
        <time>2018-08-11T16:01:06Z</time>
      </trkpt>
      <trkpt lat="61.027776296733" lon="14.382477651033">
        <ele>208.8</ele>
        <time>2018-08-11T16:01:10Z</time>
      </trkpt>
      <trkpt lat="61.027616370081" lon="14.382728353662">
        <ele>209</ele>
        <time>2018-08-11T16:01:14Z</time>
      </trkpt>
      <trkpt lat="61.02747144703" lon="14.382975452074">
        <ele>209.6</ele>
        <time>2018-08-11T16:01:18Z</time>
      </trkpt>
      <trkpt lat="61.027291403818" lon="14.383261191045">
        <ele>210</ele>
        <time>2018-08-11T16:01:22Z</time>
      </trkpt>
      <trkpt lat="61.027237005287" lon="14.383330509358">
        <ele>209.4</ele>
        <time>2018-08-11T16:01:23Z</time>
      </trkpt>
      <trkpt lat="61.027076910997" lon="14.383559335228">
        <ele>210</ele>
        <time>2018-08-11T16:01:26Z</time>
      </trkpt>
      <trkpt lat="61.026921510571" lon="14.383760417009">
        <ele>209.4</ele>
        <time>2018-08-11T16:01:29Z</time>
      </trkpt>
      <trkpt lat="61.026718836229" lon="14.383970215966">
        <ele>212</ele>
        <time>2018-08-11T16:01:33Z</time>
      </trkpt>
      <trkpt lat="61.026529992022" lon="14.384199377112">
        <ele>213.2</ele>
        <time>2018-08-11T16:01:37Z</time>
      </trkpt>
      <trkpt lat="61.026374423958" lon="14.384483607341">
        <ele>214.4</ele>
        <time>2018-08-11T16:01:41Z</time>
      </trkpt>
      <trkpt lat="61.026316756486" lon="14.384645713287">
        <ele>214.2</ele>
        <time>2018-08-11T16:01:43Z</time>
      </trkpt>
      <trkpt lat="61.026229500907" lon="14.38501175086">
        <ele>213.8</ele>
        <time>2018-08-11T16:01:47Z</time>
      </trkpt>
      <trkpt lat="61.026145346631" lon="14.385433276611">
        <ele>213.6</ele>
        <time>2018-08-11T16:01:51Z</time>
      </trkpt>
      <trkpt lat="61.026068233151" lon="14.385789507361">
        <ele>213.4</ele>
        <time>2018-08-11T16:01:54Z</time>
      </trkpt>
      <trkpt lat="61.025972176577" lon="14.386231987862">
        <ele>213.2</ele>
        <time>2018-08-11T16:01:58Z</time>
      </trkpt>
      <trkpt lat="61.025890955966" lon="14.386655189993">
        <ele>212.6</ele>
        <time>2018-08-11T16:02:02Z</time>
      </trkpt>
      <trkpt lat="61.025801353455" lon="14.386971858175">
        <ele>211.4</ele>
        <time>2018-08-11T16:02:05Z</time>
      </trkpt>
      <trkpt lat="61.025660453716" lon="14.387253573834">
        <ele>210</ele>
        <time>2018-08-11T16:02:08Z</time>
      </trkpt>
      <trkpt lat="61.025603372977" lon="14.387336135549">
        <ele>209.8</ele>
        <time>2018-08-11T16:02:09Z</time>
      </trkpt>
      <trkpt lat="61.02541620515" lon="14.387569320007">
        <ele>210.6</ele>
        <time>2018-08-11T16:02:12Z</time>
      </trkpt>
      <trkpt lat="61.025297936541" lon="14.387742154785">
        <ele>210.6</ele>
        <time>2018-08-11T16:02:14Z</time>
      </trkpt>
      <trkpt lat="61.02515636625" lon="14.387998305649">
        <ele>210.6</ele>
        <time>2018-08-11T16:02:17Z</time>
      </trkpt>
      <trkpt lat="61.024994176485" lon="14.388254875608">
        <ele>210.8</ele>
        <time>2018-08-11T16:02:21Z</time>
      </trkpt>
      <trkpt lat="61.024818827137" lon="14.388469200791">
        <ele>210.8</ele>
        <time>2018-08-11T16:02:25Z</time>
      </trkpt>
      <trkpt lat="61.024628977102" lon="14.388600628983">
        <ele>212.4</ele>
        <time>2018-08-11T16:02:29Z</time>
      </trkpt>
      <trkpt lat="61.024437450687" lon="14.388690650589">
        <ele>213.2</ele>
        <time>2018-08-11T16:02:33Z</time>
      </trkpt>
      <trkpt lat="61.024244247892" lon="14.388752257554">
        <ele>213.6</ele>
        <time>2018-08-11T16:02:37Z</time>
      </trkpt>
      <trkpt lat="61.024046267414" lon="14.388840099866">
        <ele>213.8</ele>
        <time>2018-08-11T16:02:41Z</time>
      </trkpt>
      <trkpt lat="61.023847448746" lon="14.388958703751">
        <ele>213.2</ele>
        <time>2018-08-11T16:02:45Z</time>
      </trkpt>
      <trkpt lat="61.023658101625" lon="14.389073116686">
        <ele>214</ele>
        <time>2018-08-11T16:02:49Z</time>
      </trkpt>
      <trkpt lat="61.023459534414" lon="14.389205969801">
        <ele>214.2</ele>
        <time>2018-08-11T16:02:53Z</time>
      </trkpt>
      <trkpt lat="61.023260799565" lon="14.389311497922">
        <ele>214</ele>
        <time>2018-08-11T16:02:57Z</time>
      </trkpt>
      <trkpt lat="61.023068602598" lon="14.389417864233">
        <ele>214.2</ele>
        <time>2018-08-11T16:03:01Z</time>
      </trkpt>
      <trkpt lat="61.022872549957" lon="14.389521883612">
        <ele>214</ele>
        <time>2018-08-11T16:03:05Z</time>
      </trkpt>
      <trkpt lat="61.022654620557" lon="14.389640738954">
        <ele>214.2</ele>
        <time>2018-08-11T16:03:09Z</time>
      </trkpt>
      <trkpt lat="61.022459238468" lon="14.389799324502">
        <ele>214.6</ele>
        <time>2018-08-11T16:03:13Z</time>
      </trkpt>
      <trkpt lat="61.022263102008" lon="14.389999316636">
        <ele>214.6</ele>
        <time>2018-08-11T16:03:18Z</time>
      </trkpt>
      <trkpt lat="61.02209948732" lon="14.390159243288">
        <ele>214.2</ele>
        <time>2018-08-11T16:03:23Z</time>
      </trkpt>
      <trkpt lat="61.021927993646" lon="14.390343058355">
        <ele>214.8</ele>
        <time>2018-08-11T16:03:28Z</time>
      </trkpt>
      <trkpt lat="61.021753817764" lon="14.390541709385">
        <ele>214.8</ele>
        <time>2018-08-11T16:03:33Z</time>
      </trkpt>
      <trkpt lat="61.021579306606" lon="14.390743377899">
        <ele>213.8</ele>
        <time>2018-08-11T16:03:38Z</time>
      </trkpt>
      <trkpt lat="61.021433796822" lon="14.390940017273">
        <ele>212.6</ele>
        <time>2018-08-11T16:03:42Z</time>
      </trkpt>
      <trkpt lat="61.021277055292" lon="14.39117496193">
        <ele>210.4</ele>
        <time>2018-08-11T16:03:46Z</time>
      </trkpt>
      <trkpt lat="61.021186530772" lon="14.391312844185">
        <ele>209.6</ele>
        <time>2018-08-11T16:03:48Z</time>
      </trkpt>
      <trkpt lat="61.021046888318" lon="14.391710313883">
        <ele>207.8</ele>
        <time>2018-08-11T16:03:52Z</time>
      </trkpt>
      <trkpt lat="61.02095032883" lon="14.392039554915">
        <ele>206.4</ele>
        <time>2018-08-11T16:03:55Z</time>
      </trkpt>
      <trkpt lat="61.020867599477" lon="14.392374328001">
        <ele>204.6</ele>
        <time>2018-08-11T16:03:58Z</time>
      </trkpt>
      <trkpt lat="61.020786378866" lon="14.392727960362">
        <ele>202.8</ele>
        <time>2018-08-11T16:04:01Z</time>
      </trkpt>
      <trkpt lat="61.020703984789" lon="14.393095590496">
        <ele>200.6</ele>
        <time>2018-08-11T16:04:04Z</time>
      </trkpt>
      <trkpt lat="61.020638019236" lon="14.393460789879">
        <ele>198</ele>
        <time>2018-08-11T16:04:07Z</time>
      </trkpt>
      <trkpt lat="61.020608766405" lon="14.393576711556">
        <ele>197.2</ele>
        <time>2018-08-11T16:04:08Z</time>
      </trkpt>
      <trkpt lat="61.020507848329" lon="14.393913663936">
        <ele>195.6</ele>
        <time>2018-08-11T16:04:11Z</time>
      </trkpt>
      <trkpt lat="61.020483540819" lon="14.394024891749">
        <ele>195.2</ele>
        <time>2018-08-11T16:04:12Z</time>
      </trkpt>
      <trkpt lat="61.02040382895" lon="14.394481789118">
        <ele>195.8</ele>
        <time>2018-08-11T16:04:16Z</time>
      </trkpt>
      <trkpt lat="61.020376587775" lon="14.394967268766">
        <ele>195.8</ele>
        <time>2018-08-11T16:04:20Z</time>
      </trkpt>
      <trkpt lat="61.020376084861" lon="14.395367672129">
        <ele>196.2</ele>
        <time>2018-08-11T16:04:23Z</time>
      </trkpt>
      <trkpt lat="61.020382203648" lon="14.395824150403">
        <ele>195.8</ele>
        <time>2018-08-11T16:04:26Z</time>
      </trkpt>
      <trkpt lat="61.020393854489" lon="14.396306444929">
        <ele>196.4</ele>
        <time>2018-08-11T16:04:29Z</time>
      </trkpt>
      <trkpt lat="61.020417742904" lon="14.396728641232">
        <ele>198.4</ele>
        <time>2018-08-11T16:04:32Z</time>
      </trkpt>
      <trkpt lat="61.020436685998" lon="14.397112113157">
        <ele>199.8</ele>
        <time>2018-08-11T16:04:35Z</time>
      </trkpt>
      <trkpt lat="61.0204499294" lon="14.39748569444">
        <ele>201.6</ele>
        <time>2018-08-11T16:04:38Z</time>
      </trkpt>
      <trkpt lat="61.020467028476" lon="14.397873524953">
        <ele>201</ele>
        <time>2018-08-11T16:04:41Z</time>
      </trkpt>
      <trkpt lat="61.020480774792" lon="14.398287255537">
        <ele>201.4</ele>
        <time>2018-08-11T16:04:44Z</time>
      </trkpt>
      <trkpt lat="61.020471806159" lon="14.398732669703">
        <ele>201.6</ele>
        <time>2018-08-11T16:04:47Z</time>
      </trkpt>
      <trkpt lat="61.020422520587" lon="14.399195937316">
        <ele>201.8</ele>
        <time>2018-08-11T16:04:50Z</time>
      </trkpt>
      <trkpt lat="61.020366780952" lon="14.399497937173">
        <ele>202</ele>
        <time>2018-08-11T16:04:52Z</time>
      </trkpt>
      <trkpt lat="61.020237364416" lon="14.399908985549">
        <ele>202</ele>
        <time>2018-08-11T16:04:55Z</time>
      </trkpt>
      <trkpt lat="61.020091519356" lon="14.400235041459">
        <ele>202.4</ele>
        <time>2018-08-11T16:04:58Z</time>
      </trkpt>
      <trkpt lat="61.019914661266" lon="14.400568976355">
        <ele>202.6</ele>
        <time>2018-08-11T16:05:02Z</time>
      </trkpt>
      <trkpt lat="61.019779712676" lon="14.400874161334">
        <ele>202.8</ele>
        <time>2018-08-11T16:05:05Z</time>
      </trkpt>
      <trkpt lat="61.019654990004" lon="14.401200468701">
        <ele>203</ele>
        <time>2018-08-11T16:05:08Z</time>
      </trkpt>
      <trkpt lat="61.019539319784" lon="14.401523926222">
        <ele>203.2</ele>
        <time>2018-08-11T16:05:11Z</time>
      </trkpt>
      <trkpt lat="61.019422392279" lon="14.401842773698">
        <ele>203.6</ele>
        <time>2018-08-11T16:05:14Z</time>
      </trkpt>
      <trkpt lat="61.019294987399" lon="14.402155083292">
        <ele>204.2</ele>
        <time>2018-08-11T16:05:17Z</time>
      </trkpt>
      <trkpt lat="61.019169426537" lon="14.402475942424">
        <ele>204.4</ele>
        <time>2018-08-11T16:05:20Z</time>
      </trkpt>
      <trkpt lat="61.019046044969" lon="14.402800154316">
        <ele>204.4</ele>
        <time>2018-08-11T16:05:23Z</time>
      </trkpt>
      <trkpt lat="61.01892526179" lon="14.403126880778">
        <ele>204.2</ele>
        <time>2018-08-11T16:05:26Z</time>
      </trkpt>
      <trkpt lat="61.018805232982" lon="14.403458049647">
        <ele>204</ele>
        <time>2018-08-11T16:05:29Z</time>
      </trkpt>
      <trkpt lat="61.018684617441" lon="14.403776478028">
        <ele>204.4</ele>
        <time>2018-08-11T16:05:32Z</time>
      </trkpt>
      <trkpt lat="61.018574143999" lon="14.404111921666">
        <ele>204.6</ele>
        <time>2018-08-11T16:05:35Z</time>
      </trkpt>
      <trkpt lat="61.018478087425" lon="14.4044292604">
        <ele>204.8</ele>
        <time>2018-08-11T16:05:38Z</time>
      </trkpt>
      <trkpt lat="61.018367697802" lon="14.404838548577">
        <ele>204.8</ele>
        <time>2018-08-11T16:05:42Z</time>
      </trkpt>
      <trkpt lat="61.018275245445" lon="14.40520374796">
        <ele>204.8</ele>
        <time>2018-08-11T16:05:46Z</time>
      </trkpt>
      <trkpt lat="61.018176841939" lon="14.405565594583">
        <ele>204.8</ele>
        <time>2018-08-11T16:05:51Z</time>
      </trkpt>
      <trkpt lat="61.018067458144" lon="14.405961723177">
        <ele>205.4</ele>
        <time>2018-08-11T16:05:56Z</time>
      </trkpt>
      <trkpt lat="61.018044659376" lon="14.406035567716">
        <ele>205.6</ele>
        <time>2018-08-11T16:05:57Z</time>
      </trkpt>
      <trkpt lat="61.017928150966" lon="14.406426080437">
        <ele>205.4</ele>
        <time>2018-08-11T16:06:02Z</time>
      </trkpt>
      <trkpt lat="61.017832597306" lon="14.406800080815">
        <ele>205</ele>
        <time>2018-08-11T16:06:07Z</time>
      </trkpt>
      <trkpt lat="61.017908788777" lon="14.407153294081">
        <ele>205.6</ele>
        <time>2018-08-11T16:06:13Z</time>
      </trkpt>
      <trkpt lat="61.018035523105" lon="14.407419251768">
        <ele>205.2</ele>
        <time>2018-08-11T16:07:49Z</time>
      </trkpt>
      <trkpt lat="61.018189582427" lon="14.407715635752">
        <ele>204</ele>
        <time>2018-08-11T16:07:54Z</time>
      </trkpt>
      <trkpt lat="61.018222355656" lon="14.407786881902">
        <ele>203.8</ele>
        <time>2018-08-11T16:07:55Z</time>
      </trkpt>
      <trkpt lat="61.018306593751" lon="14.408165576144">
        <ele>202.8</ele>
        <time>2018-08-11T16:07:59Z</time>
      </trkpt>
      <trkpt lat="61.018302738077" lon="14.408451901848">
        <ele>202.6</ele>
        <time>2018-08-11T16:08:02Z</time>
      </trkpt>
      <trkpt lat="61.018292679797" lon="14.408538822151">
        <ele>202.4</ele>
        <time>2018-08-11T16:08:03Z</time>
      </trkpt>
      <trkpt lat="61.018229312633" lon="14.408934447831">
        <ele>202.2</ele>
        <time>2018-08-11T16:08:08Z</time>
      </trkpt>
      <trkpt lat="61.01811221749" lon="14.409324038543">
        <ele>201.6</ele>
        <time>2018-08-11T16:08:13Z</time>
      </trkpt>
      <trkpt lat="61.017989674112" lon="14.409662164389">
        <ele>200.6</ele>
        <time>2018-08-11T16:08:17Z</time>
      </trkpt>
      <trkpt lat="61.017860676671" lon="14.409933067397">
        <ele>200</ele>
        <time>2018-08-11T16:08:20Z</time>
      </trkpt>
      <trkpt lat="61.017706617349" lon="14.410225930983">
        <ele>198.6</ele>
        <time>2018-08-11T16:08:23Z</time>
      </trkpt>
      <trkpt lat="61.01755733571" lon="14.410515274171">
        <ele>197</ele>
        <time>2018-08-11T16:08:26Z</time>
      </trkpt>
      <trkpt lat="61.017399336895" lon="14.410807718662">
        <ele>195.2</ele>
        <time>2018-08-11T16:08:29Z</time>
      </trkpt>
      <trkpt lat="61.017234548741" lon="14.411099408782">
        <ele>193.8</ele>
        <time>2018-08-11T16:08:32Z</time>
      </trkpt>
      <trkpt lat="61.01706950913" lon="14.411360169691">
        <ele>192.6</ele>
        <time>2018-08-11T16:08:35Z</time>
      </trkpt>
      <trkpt lat="61.016892818678" lon="14.411534848487">
        <ele>191.2</ele>
        <time>2018-08-11T16:08:38Z</time>
      </trkpt>
      <trkpt lat="61.016703052462" lon="14.411637778219">
        <ele>192.6</ele>
        <time>2018-08-11T16:08:41Z</time>
      </trkpt>
      <trkpt lat="61.016527116381" lon="14.411677340787">
        <ele>192.6</ele>
        <time>2018-08-11T16:08:44Z</time>
      </trkpt>
      <trkpt lat="61.016298122873" lon="14.41155974273">
        <ele>192.6</ele>
        <time>2018-08-11T16:08:48Z</time>
      </trkpt>
      <trkpt lat="61.016192930028" lon="14.41142144138">
        <ele>192.8</ele>
        <time>2018-08-11T16:08:50Z</time>
      </trkpt>
      <trkpt lat="61.01604272638" lon="14.411130002717">
        <ele>193</ele>
        <time>2018-08-11T16:08:54Z</time>
      </trkpt>
      <trkpt lat="61.015960416122" lon="14.410932106058">
        <ele>193.4</ele>
        <time>2018-08-11T16:08:57Z</time>
      </trkpt>
      <trkpt lat="61.015858492218" lon="14.410759438918">
        <ele>193.4</ele>
        <time>2018-08-11T16:09:00Z</time>
      </trkpt>
      <trkpt lat="61.015684316336" lon="14.410658185566">
        <ele>193.6</ele>
        <time>2018-08-11T16:09:04Z</time>
      </trkpt>
      <trkpt lat="61.015489353342" lon="14.410570762349">
        <ele>193.8</ele>
        <time>2018-08-11T16:09:08Z</time>
      </trkpt>
      <trkpt lat="61.015278883833" lon="14.410508065737">
        <ele>193.8</ele>
        <time>2018-08-11T16:09:12Z</time>
      </trkpt>
      <trkpt lat="61.015068246686" lon="14.410462216744">
        <ele>194</ele>
        <time>2018-08-11T16:09:16Z</time>
      </trkpt>
      <trkpt lat="61.01493883015" lon="14.410710991536">
        <ele>194.2</ele>
        <time>2018-08-11T16:09:20Z</time>
      </trkpt>
      <trkpt lat="61.014966071325" lon="14.410917605371">
        <ele>194.4</ele>
        <time>2018-08-11T16:09:22Z</time>
      </trkpt>
      <trkpt lat="61.015037149837" lon="14.411342148606">
        <ele>194.4</ele>
        <time>2018-08-11T16:09:26Z</time>
      </trkpt>
      <trkpt lat="61.015051063791" lon="14.411448347279">
        <ele>194.4</ele>
        <time>2018-08-11T16:09:27Z</time>
      </trkpt>
      <trkpt lat="61.015060535338" lon="14.411840620199">
        <ele>194.8</ele>
        <time>2018-08-11T16:09:31Z</time>
      </trkpt>
      <trkpt lat="61.015065564478" lon="14.412048323681">
        <ele>195.2</ele>
        <time>2018-08-11T16:09:33Z</time>
      </trkpt>
      <trkpt lat="61.015076963862" lon="14.412478063694">
        <ele>195.6</ele>
        <time>2018-08-11T16:09:37Z</time>
      </trkpt>
      <trkpt lat="61.015082831192" lon="14.412689036117">
        <ele>195.8</ele>
        <time>2018-08-11T16:09:39Z</time>
      </trkpt>
      <trkpt lat="61.015088195608" lon="14.413099330122">
        <ele>196.2</ele>
        <time>2018-08-11T16:09:43Z</time>
      </trkpt>
      <trkpt lat="61.015093224748" lon="14.413482718228">
        <ele>196.4</ele>
        <time>2018-08-11T16:09:47Z</time>
      </trkpt>
      <trkpt lat="61.015097583336" lon="14.413580199725">
        <ele>196.4</ele>
        <time>2018-08-11T16:09:48Z</time>
      </trkpt>
      <trkpt lat="61.015101606648" lon="14.413979178165">
        <ele>196</ele>
        <time>2018-08-11T16:09:51Z</time>
      </trkpt>
      <trkpt lat="61.01509138073" lon="14.4145294499">
        <ele>195.6</ele>
        <time>2018-08-11T16:09:54Z</time>
      </trkpt>
      <trkpt lat="61.015075706577" lon="14.415012750254">
        <ele>197.4</ele>
        <time>2018-08-11T16:09:57Z</time>
      </trkpt>
      <trkpt lat="61.015058104587" lon="14.415411728694">
        <ele>198.6</ele>
        <time>2018-08-11T16:10:00Z</time>
      </trkpt>
      <trkpt lat="61.015070342161" lon="14.415819340491">
        <ele>200.2</ele>
        <time>2018-08-11T16:10:04Z</time>
      </trkpt>
      <trkpt lat="61.01509221892" lon="14.416003490834">
        <ele>199.8</ele>
        <time>2018-08-11T16:10:06Z</time>
      </trkpt>
      <trkpt lat="61.01514502489" lon="14.416271292539">
        <ele>199.6</ele>
        <time>2018-08-11T16:10:09Z</time>
      </trkpt>
      <trkpt lat="61.015236052324" lon="14.416631127506">
        <ele>200.2</ele>
        <time>2018-08-11T16:10:13Z</time>
      </trkpt>
      <trkpt lat="61.015311154148" lon="14.417029854489">
        <ele>202.6</ele>
        <time>2018-08-11T16:10:21Z</time>
      </trkpt>
      <trkpt lat="61.015322972627" lon="14.417457750484">
        <ele>201.4</ele>
        <time>2018-08-11T16:10:26Z</time>
      </trkpt>
      <trkpt lat="61.015330013423" lon="14.417908696704">
        <ele>200.2</ele>
        <time>2018-08-11T16:10:30Z</time>
      </trkpt>
      <trkpt lat="61.015369073077" lon="14.418379340389">
        <ele>199.2</ele>
        <time>2018-08-11T16:10:34Z</time>
      </trkpt>
      <trkpt lat="61.015447192385" lon="14.418816624112">
        <ele>198.2</ele>
        <time>2018-08-11T16:10:38Z</time>
      </trkpt>
      <trkpt lat="61.01544928786" lon="14.419228007764">
        <ele>197.8</ele>
        <time>2018-08-11T16:10:42Z</time>
      </trkpt>
      <trkpt lat="61.015422884875" lon="14.419688006436">
        <ele>197</ele>
        <time>2018-08-11T16:10:46Z</time>
      </trkpt>
      <trkpt lat="61.015402684496" lon="14.4201788505">
        <ele>196.6</ele>
        <time>2018-08-11T16:10:50Z</time>
      </trkpt>
      <trkpt lat="61.015375946235" lon="14.42066583889">
        <ele>196.4</ele>
        <time>2018-08-11T16:10:54Z</time>
      </trkpt>
      <trkpt lat="61.015349207974" lon="14.421152408185">
        <ele>196</ele>
        <time>2018-08-11T16:10:58Z</time>
      </trkpt>
      <trkpt lat="61.01533780859" lon="14.421538562318">
        <ele>196.2</ele>
        <time>2018-08-11T16:11:01Z</time>
      </trkpt>
      <trkpt lat="61.015300592954" lon="14.421952711997">
        <ele>196</ele>
        <time>2018-08-11T16:11:04Z</time>
      </trkpt>
      <trkpt lat="61.015244601862" lon="14.422350181695">
        <ele>195.6</ele>
        <time>2018-08-11T16:11:07Z</time>
      </trkpt>
      <trkpt lat="61.015186012381" lon="14.422704819884">
        <ele>195.6</ele>
        <time>2018-08-11T16:11:10Z</time>
      </trkpt>
      <trkpt lat="61.015122309941" lon="14.423149563498">
        <ele>195.6</ele>
        <time>2018-08-11T16:11:14Z</time>
      </trkpt>
      <trkpt lat="61.015059697148" lon="14.423576453665">
        <ele>196</ele>
        <time>2018-08-11T16:11:18Z</time>
      </trkpt>
      <trkpt lat="61.015033713258" lon="14.42378474388">
        <ele>195.8</ele>
        <time>2018-08-11T16:11:20Z</time>
      </trkpt>
      <trkpt lat="61.015017536191" lon="14.423980628883">
        <ele>195.8</ele>
        <time>2018-08-11T16:11:22Z</time>
      </trkpt>
      <trkpt lat="61.014993815414" lon="14.42442931199">
        <ele>195.4</ele>
        <time>2018-08-11T16:11:26Z</time>
      </trkpt>
      <trkpt lat="61.014973866492" lon="14.424890148852">
        <ele>195</ele>
        <time>2018-08-11T16:11:30Z</time>
      </trkpt>
      <trkpt lat="61.014957940882" lon="14.425335563018">
        <ele>194.8</ele>
        <time>2018-08-11T16:11:34Z</time>
      </trkpt>
      <trkpt lat="61.014949978077" lon="14.425791035464">
        <ele>194.4</ele>
        <time>2018-08-11T16:11:38Z</time>
      </trkpt>
      <trkpt lat="61.014947044412" lon="14.426234102698">
        <ele>193.8</ele>
        <time>2018-08-11T16:11:42Z</time>
      </trkpt>
      <trkpt lat="61.014946792955" lon="14.426660322313">
        <ele>194.2</ele>
        <time>2018-08-11T16:11:46Z</time>
      </trkpt>
      <trkpt lat="61.014932376087" lon="14.42710565266">
        <ele>194</ele>
        <time>2018-08-11T16:11:50Z</time>
      </trkpt>
      <trkpt lat="61.014926005843" lon="14.427581660761">
        <ele>193.8</ele>
        <time>2018-08-11T16:11:54Z</time>
      </trkpt>
      <trkpt lat="61.014910750785" lon="14.427968066351">
        <ele>194.2</ele>
        <time>2018-08-11T16:11:57Z</time>
      </trkpt>
      <trkpt lat="61.01487009857" lon="14.428445750832">
        <ele>194.8</ele>
        <time>2018-08-11T16:12:01Z</time>
      </trkpt>
      <trkpt lat="61.014789799968" lon="14.428889153342">
        <ele>196</ele>
        <time>2018-08-11T16:12:05Z</time>
      </trkpt>
      <trkpt lat="61.014722074216" lon="14.429332974947">
        <ele>198.2</ele>
        <time>2018-08-11T16:12:09Z</time>
      </trkpt>
      <trkpt lat="61.014671531359" lon="14.4298012717">
        <ele>199.6</ele>
        <time>2018-08-11T16:12:13Z</time>
      </trkpt>
      <trkpt lat="61.014628113117" lon="14.430162615409">
        <ele>200</ele>
        <time>2018-08-11T16:12:16Z</time>
      </trkpt>
      <trkpt lat="61.014563572487" lon="14.430626637393">
        <ele>201</ele>
        <time>2018-08-11T16:12:20Z</time>
      </trkpt>
      <trkpt lat="61.014511939983" lon="14.431089821187">
        <ele>202.6</ele>
        <time>2018-08-11T16:12:24Z</time>
      </trkpt>
      <trkpt lat="61.01448453117" lon="14.431461893728">
        <ele>203.6</ele>
        <time>2018-08-11T16:12:27Z</time>
      </trkpt>
      <trkpt lat="61.014473802338" lon="14.431899093632">
        <ele>204.4</ele>
        <time>2018-08-11T16:12:31Z</time>
      </trkpt>
      <trkpt lat="61.014457541452" lon="14.432332186405">
        <ele>205</ele>
        <time>2018-08-11T16:12:35Z</time>
      </trkpt>
      <trkpt lat="61.014444381869" lon="14.432448359539">
        <ele>205.2</ele>
        <time>2018-08-11T16:12:36Z</time>
      </trkpt>
      <trkpt lat="61.014380092696" lon="14.432870807299">
        <ele>205.6</ele>
        <time>2018-08-11T16:12:40Z</time>
      </trkpt>
      <trkpt lat="61.01428001281" lon="14.433280430752">
        <ele>206.2</ele>
        <time>2018-08-11T16:12:44Z</time>
      </trkpt>
      <trkpt lat="61.014189153014" lon="14.433648144705">
        <ele>206.2</ele>
        <time>2018-08-11T16:12:47Z</time>
      </trkpt>
      <trkpt lat="61.014055545528" lon="14.434114429802">
        <ele>205.8</ele>
        <time>2018-08-11T16:12:50Z</time>
      </trkpt>
      <trkpt lat="61.013950771778" lon="14.434469654724">
        <ele>205.6</ele>
        <time>2018-08-11T16:12:52Z</time>
      </trkpt>
      <trkpt lat="61.013844489286" lon="14.434829238234">
        <ele>205.4</ele>
        <time>2018-08-11T16:12:54Z</time>
      </trkpt>
      <trkpt lat="61.013729908713" lon="14.435150684099">
        <ele>205.2</ele>
        <time>2018-08-11T16:12:56Z</time>
      </trkpt>
      <trkpt lat="61.013598648159" lon="14.435409181895">
        <ele>205</ele>
        <time>2018-08-11T16:12:58Z</time>
      </trkpt>
      <trkpt lat="61.013382562777" lon="14.435641528163">
        <ele>204.4</ele>
        <time>2018-08-11T16:13:01Z</time>
      </trkpt>
      <trkpt lat="61.013244345246" lon="14.435777063486">
        <ele>204</ele>
        <time>2018-08-11T16:13:03Z</time>
      </trkpt>
      <trkpt lat="61.013075282323" lon="14.436021982604">
        <ele>203.4</ele>
        <time>2018-08-11T16:13:06Z</time>
      </trkpt>
      <trkpt lat="61.012944105588" lon="14.436300094046">
        <ele>203</ele>
        <time>2018-08-11T16:13:09Z</time>
      </trkpt>
      <trkpt lat="61.012817622717" lon="14.436589185777">
        <ele>202.2</ele>
        <time>2018-08-11T16:13:12Z</time>
      </trkpt>
      <trkpt lat="61.012683093222" lon="14.436879031879">
        <ele>202</ele>
        <time>2018-08-11T16:13:15Z</time>
      </trkpt>
      <trkpt lat="61.01253573942" lon="14.437120095323">
        <ele>201.6</ele>
        <time>2018-08-11T16:13:18Z</time>
      </trkpt>
      <trkpt lat="61.01237396875" lon="14.437303658933">
        <ele>201.4</ele>
        <time>2018-08-11T16:13:21Z</time>
      </trkpt>
      <trkpt lat="61.012202055981" lon="14.437504573076">
        <ele>200.6</ele>
        <time>2018-08-11T16:13:24Z</time>
      </trkpt>
      <trkpt lat="61.012015810163" lon="14.437716718965">
        <ele>199.4</ele>
        <time>2018-08-11T16:13:27Z</time>
      </trkpt>
      <trkpt lat="61.011824367567" lon="14.437945796292">
        <ele>197.8</ele>
        <time>2018-08-11T16:13:30Z</time>
      </trkpt>
      <trkpt lat="61.011650946056" lon="14.438223321001">
        <ele>196.8</ele>
        <time>2018-08-11T16:13:33Z</time>
      </trkpt>
      <trkpt lat="61.011485822626" lon="14.438470503232">
        <ele>195.6</ele>
        <time>2018-08-11T16:13:36Z</time>
      </trkpt>
      <trkpt lat="61.011316256789" lon="14.438639901431">
        <ele>194</ele>
        <time>2018-08-11T16:13:39Z</time>
      </trkpt>
      <trkpt lat="61.011147864418" lon="14.438828745638">
        <ele>192.4</ele>
        <time>2018-08-11T16:13:42Z</time>
      </trkpt>
      <trkpt lat="61.011001097349" lon="14.439061427182">
        <ele>191.4</ele>
        <time>2018-08-11T16:13:45Z</time>
      </trkpt>
      <trkpt lat="61.010866148759" lon="14.439312381268">
        <ele>190.2</ele>
        <time>2018-08-11T16:13:48Z</time>
      </trkpt>
      <trkpt lat="61.010687111375" lon="14.43960558013">
        <ele>188.4</ele>
        <time>2018-08-11T16:13:52Z</time>
      </trkpt>
      <trkpt lat="61.010516791167" lon="14.439912525308">
        <ele>186</ele>
        <time>2018-08-11T16:13:56Z</time>
      </trkpt>
      <trkpt lat="61.010377483989" lon="14.44014705087">
        <ele>183.6</ele>
        <time>2018-08-11T16:13:59Z</time>
      </trkpt>
      <trkpt lat="61.010228118531" lon="14.44037168579">
        <ele>180.8</ele>
        <time>2018-08-11T16:14:02Z</time>
      </trkpt>
      <trkpt lat="61.010077411969" lon="14.440573354304">
        <ele>178.4</ele>
        <time>2018-08-11T16:14:05Z</time>
      </trkpt>
      <trkpt lat="61.009881443147" lon="14.440806790219">
        <ele>175.2</ele>
        <time>2018-08-11T16:14:09Z</time>
      </trkpt>
      <trkpt lat="61.009675416045" lon="14.440988174535">
        <ele>172</ele>
        <time>2018-08-11T16:14:13Z</time>
      </trkpt>
      <trkpt lat="61.009501994534" lon="14.441075597752">
        <ele>169.6</ele>
        <time>2018-08-11T16:14:16Z</time>
      </trkpt>
      <trkpt lat="61.009323962978" lon="14.441178946579">
        <ele>167.8</ele>
        <time>2018-08-11T16:14:19Z</time>
      </trkpt>
      <trkpt lat="61.009139477359" lon="14.441437192918">
        <ele>164.8</ele>
        <time>2018-08-11T16:14:23Z</time>
      </trkpt>
      <trkpt lat="61.0089918721" lon="14.441717148378">
        <ele>162.2</ele>
        <time>2018-08-11T16:14:27Z</time>
      </trkpt>
      <trkpt lat="61.008878548812" lon="14.442018477683">
        <ele>160.6</ele>
        <time>2018-08-11T16:14:31Z</time>
      </trkpt>
      <trkpt lat="61.008822138625" lon="14.442201203103">
        <ele>160.2</ele>
        <time>2018-08-11T16:14:33Z</time>
      </trkpt>
      <trkpt lat="61.008737984349" lon="14.442557266215">
        <ele>159</ele>
        <time>2018-08-11T16:14:37Z</time>
      </trkpt>
      <trkpt lat="61.008714598848" lon="14.442646868726">
        <ele>158.8</ele>
        <time>2018-08-11T16:14:38Z</time>
      </trkpt>
      <trkpt lat="61.008673108443" lon="14.443052049772">
        <ele>158</ele>
        <time>2018-08-11T16:14:42Z</time>
      </trkpt>
      <trkpt lat="61.008713006287" lon="14.443479861948">
        <ele>157.8</ele>
        <time>2018-08-11T16:14:46Z</time>
      </trkpt>
      <trkpt lat="61.008732117019" lon="14.443577343445">
        <ele>157.8</ele>
        <time>2018-08-11T16:14:47Z</time>
      </trkpt>
      <trkpt lat="61.008821048978" lon="14.444003814517">
        <ele>158</ele>
        <time>2018-08-11T16:14:51Z</time>
      </trkpt>
      <trkpt lat="61.00890553853" lon="14.444452413805">
        <ele>159.2</ele>
        <time>2018-08-11T16:14:55Z</time>
      </trkpt>
      <trkpt lat="61.008944514365" lon="14.444858768317">
        <ele>162.2</ele>
        <time>2018-08-11T16:14:59Z</time>
      </trkpt>
      <trkpt lat="61.00894241889" lon="14.444955998357">
        <ele>162.8</ele>
        <time>2018-08-11T16:15:00Z</time>
      </trkpt>
      <trkpt lat="61.008911992593" lon="14.445345337612">
        <ele>165.4</ele>
        <time>2018-08-11T16:15:04Z</time>
      </trkpt>
      <trkpt lat="61.008893720051" lon="14.445564859573">
        <ele>167</ele>
        <time>2018-08-11T16:15:06Z</time>
      </trkpt>
      <trkpt lat="61.008837896597" lon="14.445919246305">
        <ele>169.4</ele>
        <time>2018-08-11T16:15:09Z</time>
      </trkpt>
      <trkpt lat="61.008814930191" lon="14.446036006172">
        <ele>170</ele>
        <time>2018-08-11T16:15:10Z</time>
      </trkpt>
      <trkpt lat="61.008738571082" lon="14.446489299324">
        <ele>171.8</ele>
        <time>2018-08-11T16:15:14Z</time>
      </trkpt>
      <trkpt lat="61.008720466178" lon="14.446719047203">
        <ele>173.4</ele>
        <time>2018-08-11T16:15:16Z</time>
      </trkpt>
      <trkpt lat="61.008741337109" lon="14.447188517422">
        <ele>175.4</ele>
        <time>2018-08-11T16:15:20Z</time>
      </trkpt>
      <trkpt lat="61.008763130049" lon="14.447569810053">
        <ele>177.2</ele>
        <time>2018-08-11T16:15:23Z</time>
      </trkpt>
      <trkpt lat="61.008763381506" lon="14.447957808204">
        <ele>177.8</ele>
        <time>2018-08-11T16:15:26Z</time>
      </trkpt>
      <trkpt lat="61.008758352366" lon="14.448340944853">
        <ele>178.2</ele>
        <time>2018-08-11T16:15:29Z</time>
      </trkpt>
      <trkpt lat="61.008746701525" lon="14.448824999578">
        <ele>179</ele>
        <time>2018-08-11T16:15:33Z</time>
      </trkpt>
      <trkpt lat="61.008728931897" lon="14.449202771811">
        <ele>179.6</ele>
        <time>2018-08-11T16:15:36Z</time>
      </trkpt>
      <trkpt lat="61.008692219175" lon="14.449585237908">
        <ele>180.2</ele>
        <time>2018-08-11T16:15:39Z</time>
      </trkpt>
      <trkpt lat="61.008655422634" lon="14.449955717888">
        <ele>181.4</ele>
        <time>2018-08-11T16:15:42Z</time>
      </trkpt>
      <trkpt lat="61.008667241113" lon="14.450316055769">
        <ele>182.4</ele>
        <time>2018-08-11T16:15:45Z</time>
      </trkpt>
      <trkpt lat="61.00873454777" lon="14.450699192418">
        <ele>183</ele>
        <time>2018-08-11T16:15:48Z</time>
      </trkpt>
      <trkpt lat="61.008838650968" lon="14.45102759526">
        <ele>183.8</ele>
        <time>2018-08-11T16:15:51Z</time>
      </trkpt>
      <trkpt lat="61.008978041965" lon="14.45138550239">
        <ele>185</ele>
        <time>2018-08-11T16:15:55Z</time>
      </trkpt>
      <trkpt lat="61.009088599226" lon="14.451677695424">
        <ele>186</ele>
        <time>2018-08-11T16:15:58Z</time>
      </trkpt>
      <trkpt lat="61.009123216473" lon="14.451800322621">
        <ele>186.2</ele>
        <time>2018-08-11T16:15:59Z</time>
      </trkpt>
      <trkpt lat="61.009178285556" lon="14.452218495612">
        <ele>187.2</ele>
        <time>2018-08-11T16:16:02Z</time>
      </trkpt>
      <trkpt lat="61.009186667456" lon="14.452356713143">
        <ele>187.6</ele>
        <time>2018-08-11T16:16:03Z</time>
      </trkpt>
      <trkpt lat="61.00923159444" lon="14.452761223637">
        <ele>188.6</ele>
        <time>2018-08-11T16:16:06Z</time>
      </trkpt>
      <trkpt lat="61.009239641064" lon="14.452904386489">
        <ele>188.6</ele>
        <time>2018-08-11T16:16:07Z</time>
      </trkpt>
      <trkpt lat="61.009213573355" lon="14.453330354647">
        <ele>189</ele>
        <time>2018-08-11T16:16:10Z</time>
      </trkpt>
      <trkpt lat="61.009204856179" lon="14.453460106459">
        <ele>189.2</ele>
        <time>2018-08-11T16:16:11Z</time>
      </trkpt>
      <trkpt lat="61.009199407944" lon="14.453882302762">
        <ele>190.2</ele>
        <time>2018-08-11T16:16:15Z</time>
      </trkpt>
      <trkpt lat="61.009127742699" lon="14.454253872389">
        <ele>191</ele>
        <time>2018-08-11T16:16:19Z</time>
      </trkpt>
      <trkpt lat="61.009058256748" lon="14.454518740429">
        <ele>191</ele>
        <time>2018-08-11T16:16:22Z</time>
      </trkpt>
      <trkpt lat="61.008911908774" lon="14.454880167957">
        <ele>190.6</ele>
        <time>2018-08-11T16:16:26Z</time>
      </trkpt>
      <trkpt lat="61.008782156962" lon="14.455140509771">
        <ele>190.4</ele>
        <time>2018-08-11T16:16:29Z</time>
      </trkpt>
      <trkpt lat="61.008656260824" lon="14.455410658408">
        <ele>189.8</ele>
        <time>2018-08-11T16:16:32Z</time>
      </trkpt>
      <trkpt lat="61.008493400507" lon="14.455737636327">
        <ele>189.6</ele>
        <time>2018-08-11T16:16:36Z</time>
      </trkpt>
      <trkpt lat="61.008365995627" lon="14.4561120558">
        <ele>189.4</ele>
        <time>2018-08-11T16:16:40Z</time>
      </trkpt>
      <trkpt lat="61.008268933225" lon="14.456517404484">
        <ele>189.4</ele>
        <time>2018-08-11T16:16:44Z</time>
      </trkpt>
      <trkpt lat="61.008157453955" lon="14.456933482">
        <ele>189.4</ele>
        <time>2018-08-11T16:16:48Z</time>
      </trkpt>
      <trkpt lat="61.008056619698" lon="14.457239588988">
        <ele>189.6</ele>
        <time>2018-08-11T16:16:51Z</time>
      </trkpt>
      <trkpt lat="61.007933741044" lon="14.457613337909">
        <ele>190.2</ele>
        <time>2018-08-11T16:16:55Z</time>
      </trkpt>
      <trkpt lat="61.007816981177" lon="14.457965377709">
        <ele>191</ele>
        <time>2018-08-11T16:16:59Z</time>
      </trkpt>
      <trkpt lat="61.007795607332" lon="14.458067888346">
        <ele>191.2</ele>
        <time>2018-08-11T16:17:00Z</time>
      </trkpt>
      <trkpt lat="61.007741376439" lon="14.458512548141">
        <ele>192</ele>
        <time>2018-08-11T16:17:04Z</time>
      </trkpt>
      <trkpt lat="61.00772955796" lon="14.458931559322">
        <ele>191.8</ele>
        <time>2018-08-11T16:17:08Z</time>
      </trkpt>
      <trkpt lat="61.007717739481" lon="14.459138005519">
        <ele>191.8</ele>
        <time>2018-08-11T16:17:10Z</time>
      </trkpt>
      <trkpt lat="61.007639536354" lon="14.459535642855">
        <ele>192.2</ele>
        <time>2018-08-11T16:17:14Z</time>
      </trkpt>
      <trkpt lat="61.007561668503" lon="14.459917773676">
        <ele>192.6</ele>
        <time>2018-08-11T16:17:18Z</time>
      </trkpt>
      <trkpt lat="61.007491679638" lon="14.460303173438">
        <ele>192.8</ele>
        <time>2018-08-11T16:17:22Z</time>
      </trkpt>
      <trkpt lat="61.00742948594" lon="14.460705169362">
        <ele>192.6</ele>
        <time>2018-08-11T16:17:26Z</time>
      </trkpt>
      <trkpt lat="61.007366705509" lon="14.461066429252">
        <ele>191.8</ele>
        <time>2018-08-11T16:17:30Z</time>
      </trkpt>
      <trkpt lat="61.007295291721" lon="14.461425677486">
        <ele>190.4</ele>
        <time>2018-08-11T16:17:34Z</time>
      </trkpt>
      <trkpt lat="61.00718808722" lon="14.461734801958">
        <ele>188.4</ele>
        <time>2018-08-11T16:17:38Z</time>
      </trkpt>
      <trkpt lat="61.007071327353" lon="14.46205985204">
        <ele>186.4</ele>
        <time>2018-08-11T16:17:42Z</time>
      </trkpt>
      <trkpt lat="61.006938809514" lon="14.462383896294">
        <ele>184.2</ele>
        <time>2018-08-11T16:17:46Z</time>
      </trkpt>
      <trkpt lat="61.006823139294" lon="14.462695535336">
        <ele>182.8</ele>
        <time>2018-08-11T16:17:51Z</time>
      </trkpt>
      <trkpt lat="61.006724651969" lon="14.463010610957">
        <ele>183</ele>
        <time>2018-08-11T16:17:56Z</time>
      </trkpt>
      <trkpt lat="61.006605042256" lon="14.463461892453">
        <ele>181.6</ele>
        <time>2018-08-11T16:18:00Z</time>
      </trkpt>
      <trkpt lat="61.006505381465" lon="14.463835222279">
        <ele>180.8</ele>
        <time>2018-08-11T16:18:03Z</time>
      </trkpt>
      <trkpt lat="61.006415778954" lon="14.464198493825">
        <ele>179.6</ele>
        <time>2018-08-11T16:18:06Z</time>
      </trkpt>
      <trkpt lat="61.006358027663" lon="14.464553215833">
        <ele>179.2</ele>
        <time>2018-08-11T16:18:09Z</time>
      </trkpt>
      <trkpt lat="61.006312933041" lon="14.464915062456">
        <ele>178.6</ele>
        <time>2018-08-11T16:18:12Z</time>
      </trkpt>
      <trkpt lat="61.006280746545" lon="14.465143804507">
        <ele>178.4</ele>
        <time>2018-08-11T16:18:14Z</time>
      </trkpt>
      <trkpt lat="61.006224923091" lon="14.465366092495">
        <ele>178</ele>
        <time>2018-08-11T16:18:16Z</time>
      </trkpt>
      <trkpt lat="61.006062230412" lon="14.465711678232">
        <ele>179.2</ele>
        <time>2018-08-11T16:18:20Z</time>
      </trkpt>
      <trkpt lat="61.005956534653" lon="14.465915190764">
        <ele>180.8</ele>
        <time>2018-08-11T16:18:23Z</time>
      </trkpt>
      <trkpt lat="61.005829129773" lon="14.466192715473">
        <ele>182.2</ele>
        <time>2018-08-11T16:18:27Z</time>
      </trkpt>
      <trkpt lat="61.005694767916" lon="14.466479460272">
        <ele>182.8</ele>
        <time>2018-08-11T16:18:31Z</time>
      </trkpt>
      <trkpt lat="61.00557540966" lon="14.466767462356">
        <ele>183.8</ele>
        <time>2018-08-11T16:18:35Z</time>
      </trkpt>
      <trkpt lat="61.005452782463" lon="14.46707725738">
        <ele>185.6</ele>
        <time>2018-08-11T16:18:39Z</time>
      </trkpt>
      <trkpt lat="61.005336609329" lon="14.467413874484">
        <ele>187.6</ele>
        <time>2018-08-11T16:18:44Z</time>
      </trkpt>
      <trkpt lat="61.005218005444" lon="14.467828024163">
        <ele>188</ele>
        <time>2018-08-11T16:18:48Z</time>
      </trkpt>
      <trkpt lat="61.00511775792" lon="14.468236557969">
        <ele>188.2</ele>
        <time>2018-08-11T16:18:51Z</time>
      </trkpt>
      <trkpt lat="61.005009044677" lon="14.468621622455">
        <ele>188.6</ele>
        <time>2018-08-11T16:18:54Z</time>
      </trkpt>
      <trkpt lat="61.004935954509" lon="14.468988246761">
        <ele>188.6</ele>
        <time>2018-08-11T16:18:57Z</time>
      </trkpt>
      <trkpt lat="61.00487468282" lon="14.469338107267">
        <ele>188.6</ele>
        <time>2018-08-11T16:19:00Z</time>
      </trkpt>
      <trkpt lat="61.004822463583" lon="14.469644549531">
        <ele>188.4</ele>
        <time>2018-08-11T16:19:03Z</time>
      </trkpt>
      <trkpt lat="61.004826403076" lon="14.470046713093">
        <ele>188.6</ele>
        <time>2018-08-11T16:19:07Z</time>
      </trkpt>
      <trkpt lat="61.004873174078" lon="14.470509058697">
        <ele>188.2</ele>
        <time>2018-08-11T16:19:11Z</time>
      </trkpt>
      <trkpt lat="61.004910976447" lon="14.470977774545">
        <ele>187.6</ele>
        <time>2018-08-11T16:19:15Z</time>
      </trkpt>
      <trkpt lat="61.004937379432" lon="14.471445316927">
        <ele>187.6</ele>
        <time>2018-08-11T16:19:19Z</time>
      </trkpt>
      <trkpt lat="61.004948946454" lon="14.471878158243">
        <ele>187.8</ele>
        <time>2018-08-11T16:19:23Z</time>
      </trkpt>
      <trkpt lat="61.004932685568" lon="14.472280824719">
        <ele>188</ele>
        <time>2018-08-11T16:19:27Z</time>
      </trkpt>
      <trkpt lat="61.004927907885" lon="14.472387358668">
        <ele>188.2</ele>
        <time>2018-08-11T16:19:28Z</time>
      </trkpt>
      <trkpt lat="61.004879628141" lon="14.472762867788">
        <ele>189.2</ele>
        <time>2018-08-11T16:19:32Z</time>
      </trkpt>
      <trkpt lat="61.00486965368" lon="14.473196631113">
        <ele>189</ele>
        <time>2018-08-11T16:19:36Z</time>
      </trkpt>
      <trkpt lat="61.004872754983" lon="14.47341481197">
        <ele>189.2</ele>
        <time>2018-08-11T16:19:38Z</time>
      </trkpt>
      <trkpt lat="61.004893877371" lon="14.47385486172">
        <ele>190.2</ele>
        <time>2018-08-11T16:19:43Z</time>
      </trkpt>
      <trkpt lat="61.004909970619" lon="14.474088800549">
        <ele>190.4</ele>
        <time>2018-08-11T16:19:46Z</time>
      </trkpt>
      <trkpt lat="61.004951125748" lon="14.47439130332">
        <ele>190.6</ele>
        <time>2018-08-11T16:19:49Z</time>
      </trkpt>
      <trkpt lat="61.005015163464" lon="14.474756335065">
        <ele>190.8</ele>
        <time>2018-08-11T16:19:53Z</time>
      </trkpt>
      <trkpt lat="61.005029664151" lon="14.474943502892">
        <ele>191.2</ele>
        <time>2018-08-11T16:19:55Z</time>
      </trkpt>
      <trkpt lat="61.005044416295" lon="14.475142153922">
        <ele>191.4</ele>
        <time>2018-08-11T16:19:57Z</time>
      </trkpt>
      <trkpt lat="61.00506830471" lon="14.47556309294">
        <ele>191.2</ele>
        <time>2018-08-11T16:20:01Z</time>
      </trkpt>
      <trkpt lat="61.005075345506" lon="14.476024181259">
        <ele>191</ele>
        <time>2018-08-11T16:20:05Z</time>
      </trkpt>
      <trkpt lat="61.005072998574" lon="14.476412263229">
        <ele>191.6</ele>
        <time>2018-08-11T16:20:08Z</time>
      </trkpt>
      <trkpt lat="61.005063778484" lon="14.476696661096">
        <ele>191.4</ele>
        <time>2018-08-11T16:20:10Z</time>
      </trkpt>
      <trkpt lat="61.005029496513" lon="14.477138722502">
        <ele>191.8</ele>
        <time>2018-08-11T16:20:13Z</time>
      </trkpt>
      <trkpt lat="61.004976439086" lon="14.477556895493">
        <ele>192.2</ele>
        <time>2018-08-11T16:20:16Z</time>
      </trkpt>
      <trkpt lat="61.004910138257" lon="14.477922430152">
        <ele>192.4</ele>
        <time>2018-08-11T16:20:19Z</time>
      </trkpt>
      <trkpt lat="61.00482858237" lon="14.478339345858">
        <ele>192.6</ele>
        <time>2018-08-11T16:20:23Z</time>
      </trkpt>
      <trkpt lat="61.004747110302" lon="14.478758608496">
        <ele>193.2</ele>
        <time>2018-08-11T16:20:27Z</time>
      </trkpt>
      <trkpt lat="61.004668404261" lon="14.479182984093">
        <ele>192.8</ele>
        <time>2018-08-11T16:20:31Z</time>
      </trkpt>
      <trkpt lat="61.004645521674" lon="14.479292116431">
        <ele>192.6</ele>
        <time>2018-08-11T16:20:32Z</time>
      </trkpt>
      <trkpt lat="61.004572180049" lon="14.4797406319">
        <ele>191.6</ele>
        <time>2018-08-11T16:20:36Z</time>
      </trkpt>
      <trkpt lat="61.004500766261" lon="14.480182860944">
        <ele>190.2</ele>
        <time>2018-08-11T16:20:40Z</time>
      </trkpt>
      <trkpt lat="61.004434213975" lon="14.480629616214">
        <ele>189</ele>
        <time>2018-08-11T16:20:44Z</time>
      </trkpt>
      <trkpt lat="61.004421305849" lon="14.480733970869">
        <ele>188.8</ele>
        <time>2018-08-11T16:20:45Z</time>
      </trkpt>
      <trkpt lat="61.004420719116" lon="14.48110855798">
        <ele>187.6</ele>
        <time>2018-08-11T16:20:48Z</time>
      </trkpt>
      <trkpt lat="61.004440835676" lon="14.481527820618">
        <ele>186.6</ele>
        <time>2018-08-11T16:20:51Z</time>
      </trkpt>
      <trkpt lat="61.004489031601" lon="14.481945155419">
        <ele>186.2</ele>
        <time>2018-08-11T16:20:54Z</time>
      </trkpt>
      <trkpt lat="61.00454695053" lon="14.482315383942">
        <ele>186.8</ele>
        <time>2018-08-11T16:20:57Z</time>
      </trkpt>
      <trkpt lat="61.004618448137" lon="14.482687205026">
        <ele>187</ele>
        <time>2018-08-11T16:21:00Z</time>
      </trkpt>
      <trkpt lat="61.004695393979" lon="14.483058942291">
        <ele>187</ele>
        <time>2018-08-11T16:21:03Z</time>
      </trkpt>
      <trkpt lat="61.004743589904" lon="14.483516007298">
        <ele>188.4</ele>
        <time>2018-08-11T16:21:07Z</time>
      </trkpt>
      <trkpt lat="61.004607384029" lon="14.483846505615">
        <ele>188.8</ele>
        <time>2018-08-11T16:21:11Z</time>
      </trkpt>
      <trkpt lat="61.004561032122" lon="14.4839064362">
        <ele>188.8</ele>
        <time>2018-08-11T16:21:12Z</time>
      </trkpt>
      <trkpt lat="61.004366404404" lon="14.484170298412">
        <ele>189</ele>
        <time>2018-08-11T16:21:16Z</time>
      </trkpt>
      <trkpt lat="61.004278897368" lon="14.484328967779">
        <ele>188.8</ele>
        <time>2018-08-11T16:21:18Z</time>
      </trkpt>
      <trkpt lat="61.004117545793" lon="14.484615964035">
        <ele>188.4</ele>
        <time>2018-08-11T16:21:22Z</time>
      </trkpt>
      <trkpt lat="61.00395015925" lon="14.484908240888">
        <ele>187.6</ele>
        <time>2018-08-11T16:21:26Z</time>
      </trkpt>
      <trkpt lat="61.003785538734" lon="14.485198589904">
        <ele>187</ele>
        <time>2018-08-11T16:21:30Z</time>
      </trkpt>
      <trkpt lat="61.003606249893" lon="14.485529255859">
        <ele>186.2</ele>
        <time>2018-08-11T16:21:34Z</time>
      </trkpt>
      <trkpt lat="61.003452861123" lon="14.485793453347">
        <ele>185.6</ele>
        <time>2018-08-11T16:21:37Z</time>
      </trkpt>
      <trkpt lat="61.003380357688" lon="14.485976178767">
        <ele>185.4</ele>
        <time>2018-08-11T16:21:39Z</time>
      </trkpt>
      <trkpt lat="61.003334173419" lon="14.486361410891">
        <ele>185</ele>
        <time>2018-08-11T16:21:43Z</time>
      </trkpt>
      <trkpt lat="61.003324618053" lon="14.486469705039">
        <ele>185</ele>
        <time>2018-08-11T16:21:44Z</time>
      </trkpt>
      <trkpt lat="61.003300226724" lon="14.486691071018">
        <ele>184.6</ele>
        <time>2018-08-11T16:21:46Z</time>
      </trkpt>
      <trkpt lat="61.003240715234" lon="14.487127181275">
        <ele>183.4</ele>
        <time>2018-08-11T16:21:49Z</time>
      </trkpt>
      <trkpt lat="61.003202661408" lon="14.48752071148">
        <ele>181.6</ele>
        <time>2018-08-11T16:21:51Z</time>
      </trkpt>
      <trkpt lat="61.003172151292" lon="14.487947434009">
        <ele>180</ele>
        <time>2018-08-11T16:21:53Z</time>
      </trkpt>
      <trkpt lat="61.003148346696" lon="14.488324787147">
        <ele>178.8</ele>
        <time>2018-08-11T16:21:55Z</time>
      </trkpt>
      <trkpt lat="61.003121356978" lon="14.488836502142">
        <ele>177.2</ele>
        <time>2018-08-11T16:21:58Z</time>
      </trkpt>
      <trkpt lat="61.003103252074" lon="14.489235983496">
        <ele>176</ele>
        <time>2018-08-11T16:22:01Z</time>
      </trkpt>
      <trkpt lat="61.003083303152" lon="14.489563548148">
        <ele>175</ele>
        <time>2018-08-11T16:22:04Z</time>
      </trkpt>
      <trkpt lat="61.003006441129" lon="14.490025390838">
        <ele>173.2</ele>
        <time>2018-08-11T16:22:08Z</time>
      </trkpt>
      <trkpt lat="61.003026222413" lon="14.490458483611">
        <ele>171.4</ele>
        <time>2018-08-11T16:22:12Z</time>
      </trkpt>
      <trkpt lat="61.00304407586" lon="14.490550265416">
        <ele>171</ele>
        <time>2018-08-11T16:22:13Z</time>
      </trkpt>
      <trkpt lat="61.00313376219" lon="14.490945807277">
        <ele>169.2</ele>
        <time>2018-08-11T16:22:17Z</time>
      </trkpt>
      <trkpt lat="61.003219928122" lon="14.491191899861">
        <ele>168.2</ele>
        <time>2018-08-11T16:22:20Z</time>
      </trkpt>
      <trkpt lat="61.003371472874" lon="14.491466742362">
        <ele>167</ele>
        <time>2018-08-11T16:22:24Z</time>
      </trkpt>
      <trkpt lat="61.003529052594" lon="14.491763880717">
        <ele>166.8</ele>
        <time>2018-08-11T16:22:29Z</time>
      </trkpt>
      <trkpt lat="61.003672383084" lon="14.492002429591">
        <ele>167.4</ele>
        <time>2018-08-11T16:22:35Z</time>
      </trkpt>
      <trkpt lat="61.003790400236" lon="14.492294454987">
        <ele>169.6</ele>
        <time>2018-08-11T16:22:42Z</time>
      </trkpt>
      <trkpt lat="61.00386885482" lon="14.492689410115">
        <ele>173.4</ele>
        <time>2018-08-11T16:22:49Z</time>
      </trkpt>
      <trkpt lat="61.003928617767" lon="14.49309802774">
        <ele>175.6</ele>
        <time>2018-08-11T16:22:55Z</time>
      </trkpt>
      <trkpt lat="61.004020483391" lon="14.493443445839">
        <ele>176</ele>
        <time>2018-08-11T16:22:58Z</time>
      </trkpt>
      <trkpt lat="61.004171022315" lon="14.49390855747">
        <ele>176.4</ele>
        <time>2018-08-11T16:23:01Z</time>
      </trkpt>
      <trkpt lat="61.004262720301" lon="14.494248694972">
        <ele>176.8</ele>
        <time>2018-08-11T16:23:03Z</time>
      </trkpt>
      <trkpt lat="61.004370679173" lon="14.494667370877">
        <ele>177.2</ele>
        <time>2018-08-11T16:23:06Z</time>
      </trkpt>
      <trkpt lat="61.004481152615" lon="14.495022428161">
        <ele>177.4</ele>
        <time>2018-08-11T16:23:09Z</time>
      </trkpt>
      <trkpt lat="61.004621884716" lon="14.495339431619">
        <ele>177.8</ele>
        <time>2018-08-11T16:23:12Z</time>
      </trkpt>
      <trkpt lat="61.00474727794" lon="14.495676803094">
        <ele>178.2</ele>
        <time>2018-08-11T16:23:15Z</time>
      </trkpt>
      <trkpt lat="61.004879963417" lon="14.495994393285">
        <ele>178.6</ele>
        <time>2018-08-11T16:23:18Z</time>
      </trkpt>
      <trkpt lat="61.004956573983" lon="14.49616831771">
        <ele>178.8</ele>
        <time>2018-08-11T16:23:20Z</time>
      </trkpt>
      <trkpt lat="61.005036704947" lon="14.496319778643">
        <ele>179</ele>
        <time>2018-08-11T16:23:22Z</time>
      </trkpt>
      <trkpt lat="61.005157320488" lon="14.496600404655">
        <ele>178.8</ele>
        <time>2018-08-11T16:23:25Z</time>
      </trkpt>
      <trkpt lat="61.005199649083" lon="14.496721271653">
        <ele>178.6</ele>
        <time>2018-08-11T16:23:26Z</time>
      </trkpt>
      <trkpt lat="61.00527114669" lon="14.496997539077">
        <ele>179</ele>
        <time>2018-08-11T16:23:28Z</time>
      </trkpt>
      <trkpt lat="61.005290927974" lon="14.497460219957">
        <ele>179.8</ele>
        <time>2018-08-11T16:23:32Z</time>
      </trkpt>
      <trkpt lat="61.005277097839" lon="14.497575471082">
        <ele>180</ele>
        <time>2018-08-11T16:23:33Z</time>
      </trkpt>
      <trkpt lat="61.005258154745" lon="14.497675550968">
        <ele>180.2</ele>
        <time>2018-08-11T16:23:34Z</time>
      </trkpt>
      <trkpt lat="61.005141562516" lon="14.497981406499">
        <ele>180.6</ele>
        <time>2018-08-11T16:23:38Z</time>
      </trkpt>
      <trkpt lat="61.005013906179" lon="14.498294889559">
        <ele>180.6</ele>
        <time>2018-08-11T16:23:42Z</time>
      </trkpt>
      <trkpt lat="61.004898403597" lon="14.498617927985">
        <ele>180.6</ele>
        <time>2018-08-11T16:23:46Z</time>
      </trkpt>
      <trkpt lat="61.004823888506" lon="14.498995700218">
        <ele>181</ele>
        <time>2018-08-11T16:23:50Z</time>
      </trkpt>
      <trkpt lat="61.004750211605" lon="14.499416639236">
        <ele>181.4</ele>
        <time>2018-08-11T16:23:54Z</time>
      </trkpt>
      <trkpt lat="61.004685587156" lon="14.499837326797">
        <ele>181.6</ele>
        <time>2018-08-11T16:23:58Z</time>
      </trkpt>
      <trkpt lat="61.00462154944" lon="14.500294307985">
        <ele>180.8</ele>
        <time>2018-08-11T16:24:02Z</time>
      </trkpt>
      <trkpt lat="61.004576622456" lon="14.500766544231">
        <ele>179.4</ele>
        <time>2018-08-11T16:24:06Z</time>
      </trkpt>
      <trkpt lat="61.004529180902" lon="14.501174742761">
        <ele>178.4</ele>
        <time>2018-08-11T16:24:09Z</time>
      </trkpt>
      <trkpt lat="61.004472435439" lon="14.501565506939">
        <ele>177.4</ele>
        <time>2018-08-11T16:24:12Z</time>
      </trkpt>
      <trkpt lat="61.004424993885" lon="14.501960881162">
        <ele>176.2</ele>
        <time>2018-08-11T16:24:15Z</time>
      </trkpt>
      <trkpt lat="61.004360117979" lon="14.50236254181">
        <ele>175.4</ele>
        <time>2018-08-11T16:24:19Z</time>
      </trkpt>
      <trkpt lat="61.004263139396" lon="14.502782475">
        <ele>176.2</ele>
        <time>2018-08-11T16:24:23Z</time>
      </trkpt>
      <trkpt lat="61.004207902675" lon="14.503086989427">
        <ele>176.4</ele>
        <time>2018-08-11T16:24:26Z</time>
      </trkpt>
      <trkpt lat="61.004134393412" lon="14.503544473529">
        <ele>176.2</ele>
        <time>2018-08-11T16:24:30Z</time>
      </trkpt>
      <trkpt lat="61.004122910209" lon="14.503644804872">
        <ele>176.2</ele>
        <time>2018-08-11T16:24:31Z</time>
      </trkpt>
      <trkpt lat="61.004108912436" lon="14.503842869169">
        <ele>176.4</ele>
        <time>2018-08-11T16:24:33Z</time>
      </trkpt>
      <trkpt lat="61.004079994881" lon="14.504295910864">
        <ele>176.2</ele>
        <time>2018-08-11T16:24:37Z</time>
      </trkpt>
      <trkpt lat="61.004080665433" lon="14.504623810792">
        <ele>176</ele>
        <time>2018-08-11T16:24:40Z</time>
      </trkpt>
      <trkpt lat="61.00410606259" lon="14.504982891388">
        <ele>176</ele>
        <time>2018-08-11T16:24:43Z</time>
      </trkpt>
      <trkpt lat="61.004040348494" lon="14.505412966677">
        <ele>176.2</ele>
        <time>2018-08-11T16:24:47Z</time>
      </trkpt>
      <trkpt lat="61.003979076805" lon="14.505613461725">
        <ele>176.6</ele>
        <time>2018-08-11T16:24:49Z</time>
      </trkpt>
      <trkpt lat="61.003957283865" lon="14.505715553267">
        <ele>176.6</ele>
        <time>2018-08-11T16:24:50Z</time>
      </trkpt>
      <trkpt lat="61.003968096516" lon="14.506158285225">
        <ele>176.4</ele>
        <time>2018-08-11T16:24:54Z</time>
      </trkpt>
      <trkpt lat="61.004067002936" lon="14.506496327252">
        <ele>175.8</ele>
        <time>2018-08-11T16:24:57Z</time>
      </trkpt>
      <trkpt lat="61.004162556596" lon="14.506805032629">
        <ele>176</ele>
        <time>2018-08-11T16:25:00Z</time>
      </trkpt>
      <trkpt lat="61.004208992322" lon="14.507269976622">
        <ele>176.6</ele>
        <time>2018-08-11T16:25:04Z</time>
      </trkpt>
      <trkpt lat="61.004201951526" lon="14.50751908669">
        <ele>177</ele>
        <time>2018-08-11T16:25:06Z</time>
      </trkpt>
      <trkpt lat="61.00419323435" lon="14.507960896639">
        <ele>177.6</ele>
        <time>2018-08-11T16:25:10Z</time>
      </trkpt>
      <trkpt lat="61.00418736702" lon="14.508359623622">
        <ele>177.4</ele>
        <time>2018-08-11T16:25:13Z</time>
      </trkpt>
      <trkpt lat="61.004149229375" lon="14.508883157096">
        <ele>176.6</ele>
        <time>2018-08-11T16:25:16Z</time>
      </trkpt>
      <trkpt lat="61.00412282639" lon="14.509263443899">
        <ele>176.2</ele>
        <time>2018-08-11T16:25:18Z</time>
      </trkpt>
      <trkpt lat="61.004089214971" lon="14.509630654938">
        <ele>175.6</ele>
        <time>2018-08-11T16:25:20Z</time>
      </trkpt>
      <trkpt lat="61.004053591896" lon="14.51013675406">
        <ele>174.6</ele>
        <time>2018-08-11T16:25:23Z</time>
      </trkpt>
      <trkpt lat="61.004054765362" lon="14.510296596893">
        <ele>174.2</ele>
        <time>2018-08-11T16:25:24Z</time>
      </trkpt>
      <trkpt lat="61.004114360671" lon="14.510715524255">
        <ele>172.8</ele>
        <time>2018-08-11T16:25:27Z</time>
      </trkpt>
      <trkpt lat="61.004170519401" lon="14.510936554958">
        <ele>171.8</ele>
        <time>2018-08-11T16:25:29Z</time>
      </trkpt>
      <trkpt lat="61.004275041694" lon="14.511277698288">
        <ele>170.6</ele>
        <time>2018-08-11T16:25:34Z</time>
      </trkpt>
      <trkpt lat="61.004426083532" lon="14.51154575145">
        <ele>167.8</ele>
        <time>2018-08-11T16:25:42Z</time>
      </trkpt>
      <trkpt lat="61.004570838945" lon="14.511771056922">
        <ele>166.6</ele>
        <time>2018-08-11T16:25:46Z</time>
      </trkpt>
      <trkpt lat="61.004767562138" lon="14.511952776514">
        <ele>165.4</ele>
        <time>2018-08-11T16:25:49Z</time>
      </trkpt>
      <trkpt lat="61.00483109694" lon="14.51203106346">
        <ele>165</ele>
        <time>2018-08-11T16:25:50Z</time>
      </trkpt>
      <trkpt lat="61.004994963085" lon="14.512338930647">
        <ele>164.4</ele>
        <time>2018-08-11T16:25:53Z</time>
      </trkpt>
      <trkpt lat="61.005152542805" lon="14.512706896057">
        <ele>163.4</ele>
        <time>2018-08-11T16:25:56Z</time>
      </trkpt>
      <trkpt lat="61.005258406202" lon="14.513015182339">
        <ele>162.4</ele>
        <time>2018-08-11T16:25:58Z</time>
      </trkpt>
      <trkpt lat="61.005353792224" lon="14.513368730881">
        <ele>161.6</ele>
        <time>2018-08-11T16:26:00Z</time>
      </trkpt>
      <trkpt lat="61.005430067514" lon="14.513720267767">
        <ele>161</ele>
        <time>2018-08-11T16:26:02Z</time>
      </trkpt>
      <trkpt lat="61.005517239274" lon="14.51421873936">
        <ele>160.2</ele>
        <time>2018-08-11T16:26:05Z</time>
      </trkpt>
      <trkpt lat="61.005593933659" lon="14.514675720548">
        <ele>159.4</ele>
        <time>2018-08-11T16:26:08Z</time>
      </trkpt>
      <trkpt lat="61.005681105419" lon="14.515080817775">
        <ele>159</ele>
        <time>2018-08-11T16:26:11Z</time>
      </trkpt>
      <trkpt lat="61.005768360998" lon="14.51547183341">
        <ele>158.6</ele>
        <time>2018-08-11T16:26:14Z</time>
      </trkpt>
      <trkpt lat="61.005838266044" lon="14.515873577877">
        <ele>158.4</ele>
        <time>2018-08-11T16:26:17Z</time>
      </trkpt>
      <trkpt lat="61.005914206058" lon="14.516212458094">
        <ele>158.4</ele>
        <time>2018-08-11T16:26:20Z</time>
      </trkpt>
      <trkpt lat="61.005966341476" lon="14.516581429332">
        <ele>158.2</ele>
        <time>2018-08-11T16:26:23Z</time>
      </trkpt>
      <trkpt lat="61.00598947552" lon="14.517017204313">
        <ele>158</ele>
        <time>2018-08-11T16:26:27Z</time>
      </trkpt>
      <trkpt lat="61.006026020604" lon="14.517304452026">
        <ele>158.2</ele>
        <time>2018-08-11T16:26:30Z</time>
      </trkpt>
      <trkpt lat="61.00606239805" lon="14.517741903387">
        <ele>157.8</ele>
        <time>2018-08-11T16:26:34Z</time>
      </trkpt>
      <trkpt lat="61.00609005832" lon="14.518037365362">
        <ele>157.6</ele>
        <time>2018-08-11T16:26:37Z</time>
      </trkpt>
      <trkpt lat="61.006171865664" lon="14.518486383745">
        <ele>156.4</ele>
        <time>2018-08-11T16:26:41Z</time>
      </trkpt>
      <trkpt lat="61.006350483953" lon="14.518691237381">
        <ele>155</ele>
        <time>2018-08-11T16:26:46Z</time>
      </trkpt>
      <trkpt lat="61.006553661209" lon="14.518631390615">
        <ele>154.4</ele>
        <time>2018-08-11T16:26:50Z</time>
      </trkpt>
      <trkpt lat="61.006631696698" lon="14.518706911534">
        <ele>153.8</ele>
        <time>2018-08-11T16:26:52Z</time>
      </trkpt>
      <trkpt lat="61.006783325269" lon="14.518906903668">
        <ele>153.6</ele>
        <time>2018-08-11T16:26:55Z</time>
      </trkpt>
      <trkpt lat="61.006918944411" lon="14.519102201938">
        <ele>153</ele>
        <time>2018-08-11T16:26:58Z</time>
      </trkpt>
      <trkpt lat="61.007109967912" lon="14.519135058986">
        <ele>153.6</ele>
        <time>2018-08-11T16:27:01Z</time>
      </trkpt>
      <trkpt lat="61.007307529295" lon="14.519366734702">
        <ele>153.2</ele>
        <time>2018-08-11T16:27:05Z</time>
      </trkpt>
      <trkpt lat="61.007378943083" lon="14.519716846665">
        <ele>153.4</ele>
        <time>2018-08-11T16:27:08Z</time>
      </trkpt>
      <trkpt lat="61.007397550901" lon="14.520151867275">
        <ele>153.6</ele>
        <time>2018-08-11T16:27:12Z</time>
      </trkpt>
      <trkpt lat="61.007413141235" lon="14.520262508355">
        <ele>153.4</ele>
        <time>2018-08-11T16:27:13Z</time>
      </trkpt>
      <trkpt lat="61.007448680491" lon="14.52049762065">
        <ele>153.2</ele>
        <time>2018-08-11T16:27:15Z</time>
      </trkpt>
      <trkpt lat="61.007497127873" lon="14.520876063435">
        <ele>153.4</ele>
        <time>2018-08-11T16:27:18Z</time>
      </trkpt>
      <trkpt lat="61.007545910531" lon="14.521232880918">
        <ele>154.2</ele>
        <time>2018-08-11T16:27:21Z</time>
      </trkpt>
      <trkpt lat="61.007627214961" lon="14.52166354294">
        <ele>155</ele>
        <time>2018-08-11T16:27:25Z</time>
      </trkpt>
      <trkpt lat="61.007706004821" lon="14.522089175822">
        <ele>156</ele>
        <time>2018-08-11T16:27:29Z</time>
      </trkpt>
      <trkpt lat="61.007855370279" lon="14.522480862009">
        <ele>157.2</ele>
        <time>2018-08-11T16:27:33Z</time>
      </trkpt>
      <trkpt lat="61.007972884517" lon="14.522792668689">
        <ele>158.4</ele>
        <time>2018-08-11T16:27:36Z</time>
      </trkpt>
      <trkpt lat="61.008088554737" lon="14.523094668546">
        <ele>160</ele>
        <time>2018-08-11T16:27:39Z</time>
      </trkpt>
      <trkpt lat="61.008227861915" lon="14.52348744438">
        <ele>160.6</ele>
        <time>2018-08-11T16:27:43Z</time>
      </trkpt>
      <trkpt lat="61.008355015338" lon="14.523899414765">
        <ele>161.2</ele>
        <time>2018-08-11T16:27:47Z</time>
      </trkpt>
      <trkpt lat="61.008443276745" lon="14.524330244425">
        <ele>161.8</ele>
        <time>2018-08-11T16:27:51Z</time>
      </trkpt>
      <trkpt lat="61.008456939242" lon="14.524786219785">
        <ele>162</ele>
        <time>2018-08-11T16:27:55Z</time>
      </trkpt>
      <trkpt lat="61.008489963928" lon="14.525241273136">
        <ele>162.4</ele>
        <time>2018-08-11T16:27:59Z</time>
      </trkpt>
      <trkpt lat="61.008502536778" lon="14.525666989837">
        <ele>163.4</ele>
        <time>2018-08-11T16:28:03Z</time>
      </trkpt>
      <trkpt lat="61.008510080488" lon="14.5257572629">
        <ele>163.4</ele>
        <time>2018-08-11T16:28:04Z</time>
      </trkpt>
      <trkpt lat="61.00857612986" lon="14.526154229684">
        <ele>163.6</ele>
        <time>2018-08-11T16:28:08Z</time>
      </trkpt>
      <trkpt lat="61.008605215053" lon="14.526272246836">
        <ele>163.4</ele>
        <time>2018-08-11T16:28:09Z</time>
      </trkpt>
      <trkpt lat="61.008733541942" lon="14.526538623618">
        <ele>163.4</ele>
        <time>2018-08-11T16:28:12Z</time>
      </trkpt>
      <trkpt lat="61.008878884088" lon="14.526647504499">
        <ele>163</ele>
        <time>2018-08-11T16:28:15Z</time>
      </trkpt>
      <trkpt lat="61.008924984538" lon="14.526681702651">
        <ele>162.8</ele>
        <time>2018-08-11T16:28:16Z</time>
      </trkpt>
      <trkpt lat="61.009124473758" lon="14.526879683129">
        <ele>161.8</ele>
        <time>2018-08-11T16:28:20Z</time>
      </trkpt>
      <trkpt lat="61.009296051251" lon="14.527086716059">
        <ele>160.8</ele>
        <time>2018-08-11T16:28:24Z</time>
      </trkpt>
      <trkpt lat="61.009338128389" lon="14.527133822337">
        <ele>160.4</ele>
        <time>2018-08-11T16:28:25Z</time>
      </trkpt>
      <trkpt lat="61.009506101665" lon="14.527330377892">
        <ele>160</ele>
        <time>2018-08-11T16:28:29Z</time>
      </trkpt>
      <trkpt lat="61.009684552316" lon="14.527589294783">
        <ele>159</ele>
        <time>2018-08-11T16:28:33Z</time>
      </trkpt>
      <trkpt lat="61.009801312183" lon="14.527890959364">
        <ele>159.2</ele>
        <time>2018-08-11T16:28:36Z</time>
      </trkpt>
      <trkpt lat="61.009853950515" lon="14.528109810773">
        <ele>159.2</ele>
        <time>2018-08-11T16:28:38Z</time>
      </trkpt>
      <trkpt lat="61.00989208816" lon="14.528326818164">
        <ele>159.2</ele>
        <time>2018-08-11T16:28:40Z</time>
      </trkpt>
      <trkpt lat="61.009899296594" lon="14.528749265924">
        <ele>158.6</ele>
        <time>2018-08-11T16:28:44Z</time>
      </trkpt>
      <trkpt lat="61.009871468686" lon="14.529177748652">
        <ele>157.8</ele>
        <time>2018-08-11T16:28:48Z</time>
      </trkpt>
      <trkpt lat="61.009835761792" lon="14.529367431049">
        <ele>157.8</ele>
        <time>2018-08-11T16:28:50Z</time>
      </trkpt>
      <trkpt lat="61.009786057125" lon="14.529777976511">
        <ele>157.2</ele>
        <time>2018-08-11T16:28:54Z</time>
      </trkpt>
      <trkpt lat="61.009747332747" lon="14.530266641281">
        <ele>156.6</ele>
        <time>2018-08-11T16:28:58Z</time>
      </trkpt>
      <trkpt lat="61.009739118485" lon="14.530381892406">
        <ele>157</ele>
        <time>2018-08-11T16:28:59Z</time>
      </trkpt>
      <trkpt lat="61.009683630307" lon="14.530844405648">
        <ele>157</ele>
        <time>2018-08-11T16:29:03Z</time>
      </trkpt>
      <trkpt lat="61.009640295884" lon="14.531298453171">
        <ele>157.4</ele>
        <time>2018-08-11T16:29:07Z</time>
      </trkpt>
      <trkpt lat="61.009615736917" lon="14.531762642793">
        <ele>158.2</ele>
        <time>2018-08-11T16:29:11Z</time>
      </trkpt>
      <trkpt lat="61.009594195434" lon="14.532205793846">
        <ele>160</ele>
        <time>2018-08-11T16:29:15Z</time>
      </trkpt>
      <trkpt lat="61.009589417751" lon="14.532311992519">
        <ele>160.2</ele>
        <time>2018-08-11T16:29:16Z</time>
      </trkpt>
      <trkpt lat="61.009567792449" lon="14.532746845491">
        <ele>161.4</ele>
        <time>2018-08-11T16:29:20Z</time>
      </trkpt>
      <trkpt lat="61.00955178302" lon="14.533151439804">
        <ele>163.6</ele>
        <time>2018-08-11T16:29:24Z</time>
      </trkpt>
      <trkpt lat="61.009528062243" lon="14.533569780433">
        <ele>165.2</ele>
        <time>2018-08-11T16:29:28Z</time>
      </trkpt>
      <trkpt lat="61.009503587095" lon="14.533977895144">
        <ele>167</ele>
        <time>2018-08-11T16:29:32Z</time>
      </trkpt>
      <trkpt lat="61.009481458879" lon="14.534393888841">
        <ele>168.8</ele>
        <time>2018-08-11T16:29:36Z</time>
      </trkpt>
      <trkpt lat="61.009442063949" lon="14.534672000283">
        <ele>168.6</ele>
        <time>2018-08-11T16:29:39Z</time>
      </trkpt>
      <trkpt lat="61.009320274942" lon="14.53494885444">
        <ele>168.4</ele>
        <time>2018-08-11T16:29:43Z</time>
      </trkpt>
      <trkpt lat="61.009241820358" lon="14.535055556027">
        <ele>168</ele>
        <time>2018-08-11T16:29:45Z</time>
      </trkpt>
      <trkpt lat="61.009086000837" lon="14.535275999997">
        <ele>168.2</ele>
        <time>2018-08-11T16:29:49Z</time>
      </trkpt>
      <trkpt lat="61.008982484372" lon="14.535433412079">
        <ele>168.4</ele>
        <time>2018-08-11T16:29:52Z</time>
      </trkpt>
      <trkpt lat="61.008803363169" lon="14.535731640081">
        <ele>168</ele>
        <time>2018-08-11T16:29:57Z</time>
      </trkpt>
      <trkpt lat="61.008642933603" lon="14.535976559199">
        <ele>167.2</ele>
        <time>2018-08-11T16:30:01Z</time>
      </trkpt>
      <trkpt lat="61.008472445757" lon="14.53617261184">
        <ele>167.4</ele>
        <time>2018-08-11T16:30:05Z</time>
      </trkpt>
      <trkpt lat="61.008311178001" lon="14.536340166021">
        <ele>167.6</ele>
        <time>2018-08-11T16:30:09Z</time>
      </trkpt>
      <trkpt lat="61.008146892761" lon="14.536530686608">
        <ele>169.6</ele>
        <time>2018-08-11T16:30:14Z</time>
      </trkpt>
      <trkpt lat="61.007957042726" lon="14.536655157823">
        <ele>171.2</ele>
        <time>2018-08-11T16:30:21Z</time>
      </trkpt>
      <trkpt lat="61.007764678121" lon="14.536829249886">
        <ele>168.2</ele>
        <time>2018-08-11T16:30:26Z</time>
      </trkpt>
      <trkpt lat="61.007563680159" lon="14.53704349125">
        <ele>165.8</ele>
        <time>2018-08-11T16:30:29Z</time>
      </trkpt>
      <trkpt lat="61.00735572522" lon="14.537291008757">
        <ele>166</ele>
        <time>2018-08-11T16:30:32Z</time>
      </trkpt>
      <trkpt lat="61.007293363884" lon="14.537354040645">
        <ele>166.2</ele>
        <time>2018-08-11T16:30:33Z</time>
      </trkpt>
      <trkpt lat="61.007123798047" lon="14.53749443747">
        <ele>166.8</ele>
        <time>2018-08-11T16:30:37Z</time>
      </trkpt>
      <trkpt lat="61.006944257749" lon="14.537649921715">
        <ele>172</ele>
        <time>2018-08-11T16:30:44Z</time>
      </trkpt>
      <trkpt lat="61.006743092149" lon="14.537772381274">
        <ele>172.2</ele>
        <time>2018-08-11T16:30:50Z</time>
      </trkpt>
      <trkpt lat="61.006615268174" lon="14.537946724794">
        <ele>172.2</ele>
        <time>2018-08-11T16:30:55Z</time>
      </trkpt>
      <trkpt lat="61.00662314716" lon="14.538337069877">
        <ele>171.8</ele>
        <time>2018-08-11T16:31:00Z</time>
      </trkpt>
      <trkpt lat="61.006650220697" lon="14.538804360802">
        <ele>171.6</ele>
        <time>2018-08-11T16:31:05Z</time>
      </trkpt>
      <trkpt lat="61.006678802976" lon="14.539222533793">
        <ele>171.2</ele>
        <time>2018-08-11T16:31:09Z</time>
      </trkpt>
      <trkpt lat="61.006707217617" lon="14.539643724268">
        <ele>170.6</ele>
        <time>2018-08-11T16:31:13Z</time>
      </trkpt>
      <trkpt lat="61.006725657797" lon="14.540066674942">
        <ele>169.8</ele>
        <time>2018-08-11T16:31:17Z</time>
      </trkpt>
      <trkpt lat="61.006719119915" lon="14.540512005289">
        <ele>168.8</ele>
        <time>2018-08-11T16:31:21Z</time>
      </trkpt>
      <trkpt lat="61.006735716077" lon="14.540978877119">
        <ele>168</ele>
        <time>2018-08-11T16:31:25Z</time>
      </trkpt>
      <trkpt lat="61.006801011078" lon="14.541438289058">
        <ele>167</ele>
        <time>2018-08-11T16:31:29Z</time>
      </trkpt>
      <trkpt lat="61.006858846188" lon="14.541893426228">
        <ele>166.8</ele>
        <time>2018-08-11T16:31:33Z</time>
      </trkpt>
      <trkpt lat="61.006909472864" lon="14.542220320328">
        <ele>165.8</ele>
        <time>2018-08-11T16:31:36Z</time>
      </trkpt>
      <trkpt lat="61.006987592172" lon="14.542659112793">
        <ele>165.6</ele>
        <time>2018-08-11T16:31:40Z</time>
      </trkpt>
      <trkpt lat="61.007065460023" lon="14.543124392062">
        <ele>165.4</ele>
        <time>2018-08-11T16:31:44Z</time>
      </trkpt>
      <trkpt lat="61.00713192849" lon="14.543512222575">
        <ele>165.4</ele>
        <time>2018-08-11T16:31:47Z</time>
      </trkpt>
      <trkpt lat="61.007206359762" lon="14.543927042806">
        <ele>165.8</ele>
        <time>2018-08-11T16:31:50Z</time>
      </trkpt>
      <trkpt lat="61.007278947016" lon="14.544350999308">
        <ele>165.8</ele>
        <time>2018-08-11T16:31:53Z</time>
      </trkpt>
      <trkpt lat="61.007351450451" lon="14.544768585566">
        <ele>165.6</ele>
        <time>2018-08-11T16:31:56Z</time>
      </trkpt>
      <trkpt lat="61.007422277506" lon="14.545193128801">
        <ele>166</ele>
        <time>2018-08-11T16:31:59Z</time>
      </trkpt>
      <trkpt lat="61.007491092905" lon="14.545611804706">
        <ele>166</ele>
        <time>2018-08-11T16:32:02Z</time>
      </trkpt>
      <trkpt lat="61.007557896648" lon="14.546000808685">
        <ele>166</ele>
        <time>2018-08-11T16:32:05Z</time>
      </trkpt>
      <trkpt lat="61.007629142798" lon="14.546406660283">
        <ele>166.2</ele>
        <time>2018-08-11T16:32:09Z</time>
      </trkpt>
      <trkpt lat="61.007669292099" lon="14.546737912971">
        <ele>166.4</ele>
        <time>2018-08-11T16:32:20Z</time>
      </trkpt>
    </trkseg>
  </trk>
</gpx>